<?xml version="1.0" encoding="UTF-8" standalone="no" ?>
<gpx xmlns="http://www.topografix.com/GPX/1/1" xmlns:xsi="http://www.w3.org/2001/XMLSchema-instance" xsi:schemaLocation="http://www.topografix.com/GPX/1/1 http://www.topografix.com/GPX/1/1/gpx.xsd" version="1.1" creator="VisuGPX - https://www.visugpx.com">
  <metadata>
    <name>[21/10/2017] Ecole VTT</name>
    <desc><![CDATA[Séance de l'école VTT du Cyclo Loisirs Evreux.
Forêt communale de la Madeleine.]]></desc>
  </metadata>
  <trk>
    <name><![CDATA[[21/10/2017] Ecole VTT_1]]></name>
    <trkseg>
      <trkpt lat="48.98676" lon="1.10341">
        <ele>254.40947</ele>
        <time>2017-10-21T11:58:34Z</time>
      </trkpt>
      <trkpt lat="48.98681" lon="1.10339">
        <ele>254.40947</ele>
        <time>2017-10-21T11:58:35Z</time>
      </trkpt>
      <trkpt lat="48.98691" lon="1.1034">
        <ele>254.097046</ele>
        <time>2017-10-21T11:58:37Z</time>
      </trkpt>
      <trkpt lat="48.98702" lon="1.10344">
        <ele>253.798218</ele>
        <time>2017-10-21T11:58:39Z</time>
      </trkpt>
      <trkpt lat="48.98715" lon="1.10347">
        <ele>253.573364</ele>
        <time>2017-10-21T11:58:41Z</time>
      </trkpt>
      <trkpt lat="48.98728" lon="1.1035">
        <ele>253.296753</ele>
        <time>2017-10-21T11:58:43Z</time>
      </trkpt>
      <trkpt lat="48.98742" lon="1.10352">
        <ele>253.022705</ele>
        <time>2017-10-21T11:58:45Z</time>
      </trkpt>
      <trkpt lat="48.98756" lon="1.10354">
        <ele>252.504639</ele>
        <time>2017-10-21T11:58:47Z</time>
      </trkpt>
      <trkpt lat="48.9877" lon="1.10357">
        <ele>252.345886</ele>
        <time>2017-10-21T11:58:49Z</time>
      </trkpt>
      <trkpt lat="48.98784" lon="1.1036">
        <ele>252.160339</ele>
        <time>2017-10-21T11:58:51Z</time>
      </trkpt>
      <trkpt lat="48.98797" lon="1.10363">
        <ele>252.00148</ele>
        <time>2017-10-21T11:58:53Z</time>
      </trkpt>
      <trkpt lat="48.98811" lon="1.10365">
        <ele>251.03653</ele>
        <time>2017-10-21T11:58:55Z</time>
      </trkpt>
      <trkpt lat="48.98824" lon="1.10368">
        <ele>251.042862</ele>
        <time>2017-10-21T11:58:57Z</time>
      </trkpt>
      <trkpt lat="48.98838" lon="1.1037">
        <ele>250.997833</ele>
        <time>2017-10-21T11:58:59Z</time>
      </trkpt>
      <trkpt lat="48.98852" lon="1.10373">
        <ele>250.655548</ele>
        <time>2017-10-21T11:59:01Z</time>
      </trkpt>
      <trkpt lat="48.98867" lon="1.10376">
        <ele>250.208984</ele>
        <time>2017-10-21T11:59:03Z</time>
      </trkpt>
      <trkpt lat="48.98882" lon="1.10379">
        <ele>249.790131</ele>
        <time>2017-10-21T11:59:05Z</time>
      </trkpt>
      <trkpt lat="48.98897" lon="1.10382">
        <ele>249.469177</ele>
        <time>2017-10-21T11:59:07Z</time>
      </trkpt>
      <trkpt lat="48.98914" lon="1.10386">
        <ele>249.004227</ele>
        <time>2017-10-21T11:59:09Z</time>
      </trkpt>
      <trkpt lat="48.9893" lon="1.10389">
        <ele>248.5</ele>
        <time>2017-10-21T11:59:11Z</time>
      </trkpt>
      <trkpt lat="48.98948" lon="1.10393">
        <ele>247.6</ele>
        <time>2017-10-21T11:59:13Z</time>
      </trkpt>
      <trkpt lat="48.98957" lon="1.10395">
        <ele>247.2</ele>
        <time>2017-10-21T11:59:14Z</time>
      </trkpt>
      <trkpt lat="48.98967" lon="1.10397">
        <ele>246.8</ele>
        <time>2017-10-21T11:59:15Z</time>
      </trkpt>
      <trkpt lat="48.98977" lon="1.10399">
        <ele>246.4</ele>
        <time>2017-10-21T11:59:16Z</time>
      </trkpt>
      <trkpt lat="48.98986" lon="1.10401">
        <ele>246.1</ele>
        <time>2017-10-21T11:59:17Z</time>
      </trkpt>
      <trkpt lat="48.98995" lon="1.10403">
        <ele>245.8</ele>
        <time>2017-10-21T11:59:18Z</time>
      </trkpt>
      <trkpt lat="48.99005" lon="1.10405">
        <ele>245.4</ele>
        <time>2017-10-21T11:59:19Z</time>
      </trkpt>
      <trkpt lat="48.99014" lon="1.10406">
        <ele>245.2</ele>
        <time>2017-10-21T11:59:20Z</time>
      </trkpt>
      <trkpt lat="48.99024" lon="1.10408">
        <ele>244.7</ele>
        <time>2017-10-21T11:59:21Z</time>
      </trkpt>
      <trkpt lat="48.99034" lon="1.1041">
        <ele>244.5</ele>
        <time>2017-10-21T11:59:22Z</time>
      </trkpt>
      <trkpt lat="48.99044" lon="1.10412">
        <ele>244.2</ele>
        <time>2017-10-21T11:59:23Z</time>
      </trkpt>
      <trkpt lat="48.99054" lon="1.10414">
        <ele>243.8</ele>
        <time>2017-10-21T11:59:24Z</time>
      </trkpt>
      <trkpt lat="48.99064" lon="1.10415">
        <ele>243.4</ele>
        <time>2017-10-21T11:59:25Z</time>
      </trkpt>
      <trkpt lat="48.99073" lon="1.10418">
        <ele>243</ele>
        <time>2017-10-21T11:59:26Z</time>
      </trkpt>
      <trkpt lat="48.99083" lon="1.10419">
        <ele>242.6</ele>
        <time>2017-10-21T11:59:27Z</time>
      </trkpt>
      <trkpt lat="48.99092" lon="1.1042">
        <ele>242.3</ele>
        <time>2017-10-21T11:59:28Z</time>
      </trkpt>
      <trkpt lat="48.99102" lon="1.10421">
        <ele>241.8</ele>
        <time>2017-10-21T11:59:29Z</time>
      </trkpt>
      <trkpt lat="48.99111" lon="1.10422">
        <ele>241.3</ele>
        <time>2017-10-21T11:59:30Z</time>
      </trkpt>
      <trkpt lat="48.99121" lon="1.10424">
        <ele>240.9</ele>
        <time>2017-10-21T11:59:31Z</time>
      </trkpt>
      <trkpt lat="48.9913" lon="1.10425">
        <ele>240.4</ele>
        <time>2017-10-21T11:59:32Z</time>
      </trkpt>
      <trkpt lat="48.9914" lon="1.10426">
        <ele>239.9</ele>
        <time>2017-10-21T11:59:33Z</time>
      </trkpt>
      <trkpt lat="48.99149" lon="1.10428">
        <ele>239.3</ele>
        <time>2017-10-21T11:59:34Z</time>
      </trkpt>
      <trkpt lat="48.99168" lon="1.1043">
        <ele>237</ele>
        <time>2017-10-21T11:59:36Z</time>
      </trkpt>
      <trkpt lat="48.99197" lon="1.10428">
        <ele>236.9</ele>
        <time>2017-10-21T11:59:39Z</time>
      </trkpt>
      <trkpt lat="48.99207" lon="1.1043">
        <ele>236.4</ele>
        <time>2017-10-21T11:59:40Z</time>
      </trkpt>
      <trkpt lat="48.99216" lon="1.10434">
        <ele>235.8</ele>
        <time>2017-10-21T11:59:41Z</time>
      </trkpt>
      <trkpt lat="48.99225" lon="1.10441">
        <ele>235.3</ele>
        <time>2017-10-21T11:59:42Z</time>
      </trkpt>
      <trkpt lat="48.99234" lon="1.10448">
        <ele>234.8</ele>
        <time>2017-10-21T11:59:43Z</time>
      </trkpt>
      <trkpt lat="48.99242" lon="1.10456">
        <ele>234.3</ele>
        <time>2017-10-21T11:59:44Z</time>
      </trkpt>
      <trkpt lat="48.99254" lon="1.10468">
        <ele>233.1</ele>
        <time>2017-10-21T11:59:46Z</time>
      </trkpt>
      <trkpt lat="48.99265" lon="1.10464">
        <ele>231.2</ele>
        <time>2017-10-21T11:59:51Z</time>
      </trkpt>
      <trkpt lat="48.99268" lon="1.10447">
        <ele>230.3</ele>
        <time>2017-10-21T11:59:54Z</time>
      </trkpt>
      <trkpt lat="48.99276" lon="1.10438">
        <ele>228</ele>
        <time>2017-10-21T11:59:58Z</time>
      </trkpt>
      <trkpt lat="48.99286" lon="1.10444">
        <ele>228.5</ele>
        <time>2017-10-21T12:00:01Z</time>
      </trkpt>
      <trkpt lat="48.99296" lon="1.10451">
        <ele>227.7</ele>
        <time>2017-10-21T12:00:03Z</time>
      </trkpt>
      <trkpt lat="48.99307" lon="1.10459">
        <ele>227</ele>
        <time>2017-10-21T12:00:05Z</time>
      </trkpt>
      <trkpt lat="48.99326" lon="1.10473">
        <ele>227</ele>
        <time>2017-10-21T12:00:08Z</time>
      </trkpt>
      <trkpt lat="48.99339" lon="1.10483">
        <ele>226.2</ele>
        <time>2017-10-21T12:00:10Z</time>
      </trkpt>
      <trkpt lat="48.99353" lon="1.10494">
        <ele>224</ele>
        <time>2017-10-21T12:00:12Z</time>
      </trkpt>
      <trkpt lat="48.99375" lon="1.1051">
        <ele>224</ele>
        <time>2017-10-21T12:00:15Z</time>
      </trkpt>
      <trkpt lat="48.99391" lon="1.10521">
        <ele>222</ele>
        <time>2017-10-21T12:00:17Z</time>
      </trkpt>
      <trkpt lat="48.99415" lon="1.10538">
        <ele>221.4</ele>
        <time>2017-10-21T12:00:20Z</time>
      </trkpt>
      <trkpt lat="48.99424" lon="1.10544">
        <ele>220.8</ele>
        <time>2017-10-21T12:00:21Z</time>
      </trkpt>
      <trkpt lat="48.99432" lon="1.1055">
        <ele>220.3</ele>
        <time>2017-10-21T12:00:22Z</time>
      </trkpt>
      <trkpt lat="48.99441" lon="1.10557">
        <ele>219.7</ele>
        <time>2017-10-21T12:00:23Z</time>
      </trkpt>
      <trkpt lat="48.99449" lon="1.10563">
        <ele>219.3</ele>
        <time>2017-10-21T12:00:24Z</time>
      </trkpt>
      <trkpt lat="48.99458" lon="1.1057">
        <ele>218.7</ele>
        <time>2017-10-21T12:00:25Z</time>
      </trkpt>
      <trkpt lat="48.99467" lon="1.10577">
        <ele>218.2</ele>
        <time>2017-10-21T12:00:26Z</time>
      </trkpt>
      <trkpt lat="48.99475" lon="1.10584">
        <ele>217.5</ele>
        <time>2017-10-21T12:00:27Z</time>
      </trkpt>
      <trkpt lat="48.99484" lon="1.10591">
        <ele>216.8</ele>
        <time>2017-10-21T12:00:28Z</time>
      </trkpt>
      <trkpt lat="48.99493" lon="1.10598">
        <ele>216.3</ele>
        <time>2017-10-21T12:00:29Z</time>
      </trkpt>
      <trkpt lat="48.99502" lon="1.10604">
        <ele>215.9</ele>
        <time>2017-10-21T12:00:30Z</time>
      </trkpt>
      <trkpt lat="48.9951" lon="1.10611">
        <ele>215.6</ele>
        <time>2017-10-21T12:00:31Z</time>
      </trkpt>
      <trkpt lat="48.99519" lon="1.10618">
        <ele>215.2</ele>
        <time>2017-10-21T12:00:32Z</time>
      </trkpt>
      <trkpt lat="48.99528" lon="1.10625">
        <ele>214.9</ele>
        <time>2017-10-21T12:00:33Z</time>
      </trkpt>
      <trkpt lat="48.99537" lon="1.10632">
        <ele>214.6</ele>
        <time>2017-10-21T12:00:34Z</time>
      </trkpt>
      <trkpt lat="48.99546" lon="1.10639">
        <ele>214.2</ele>
        <time>2017-10-21T12:00:35Z</time>
      </trkpt>
      <trkpt lat="48.99555" lon="1.10645">
        <ele>213.7</ele>
        <time>2017-10-21T12:00:36Z</time>
      </trkpt>
      <trkpt lat="48.99564" lon="1.10652">
        <ele>213</ele>
        <time>2017-10-21T12:00:37Z</time>
      </trkpt>
      <trkpt lat="48.99574" lon="1.1066">
        <ele>212.4</ele>
        <time>2017-10-21T12:00:38Z</time>
      </trkpt>
      <trkpt lat="48.99583" lon="1.10667">
        <ele>211.7</ele>
        <time>2017-10-21T12:00:39Z</time>
      </trkpt>
      <trkpt lat="48.99593" lon="1.10675">
        <ele>211</ele>
        <time>2017-10-21T12:00:40Z</time>
      </trkpt>
      <trkpt lat="48.99603" lon="1.10682">
        <ele>210.4</ele>
        <time>2017-10-21T12:00:41Z</time>
      </trkpt>
      <trkpt lat="48.99613" lon="1.10689">
        <ele>209.9</ele>
        <time>2017-10-21T12:00:42Z</time>
      </trkpt>
      <trkpt lat="48.99623" lon="1.10696">
        <ele>209.1</ele>
        <time>2017-10-21T12:00:43Z</time>
      </trkpt>
      <trkpt lat="48.99633" lon="1.10703">
        <ele>208.5</ele>
        <time>2017-10-21T12:00:44Z</time>
      </trkpt>
      <trkpt lat="48.99644" lon="1.10709">
        <ele>208</ele>
        <time>2017-10-21T12:00:45Z</time>
      </trkpt>
      <trkpt lat="48.99654" lon="1.10714">
        <ele>207.6</ele>
        <time>2017-10-21T12:00:46Z</time>
      </trkpt>
      <trkpt lat="48.99665" lon="1.10718">
        <ele>207</ele>
        <time>2017-10-21T12:00:47Z</time>
      </trkpt>
      <trkpt lat="48.99676" lon="1.10721">
        <ele>206.5</ele>
        <time>2017-10-21T12:00:48Z</time>
      </trkpt>
      <trkpt lat="48.99687" lon="1.10722">
        <ele>206</ele>
        <time>2017-10-21T12:00:49Z</time>
      </trkpt>
      <trkpt lat="48.99698" lon="1.10724">
        <ele>205.4</ele>
        <time>2017-10-21T12:00:50Z</time>
      </trkpt>
      <trkpt lat="48.99709" lon="1.10726">
        <ele>204.9</ele>
        <time>2017-10-21T12:00:51Z</time>
      </trkpt>
      <trkpt lat="48.99719" lon="1.10728">
        <ele>204.5</ele>
        <time>2017-10-21T12:00:52Z</time>
      </trkpt>
      <trkpt lat="48.99729" lon="1.1073">
        <ele>204.2</ele>
        <time>2017-10-21T12:00:53Z</time>
      </trkpt>
      <trkpt lat="48.99739" lon="1.10731">
        <ele>203.9</ele>
        <time>2017-10-21T12:00:54Z</time>
      </trkpt>
      <trkpt lat="48.99749" lon="1.10733">
        <ele>203.6</ele>
        <time>2017-10-21T12:00:55Z</time>
      </trkpt>
      <trkpt lat="48.99759" lon="1.10735">
        <ele>203.3</ele>
        <time>2017-10-21T12:00:56Z</time>
      </trkpt>
      <trkpt lat="48.99768" lon="1.10736">
        <ele>203.1</ele>
        <time>2017-10-21T12:00:57Z</time>
      </trkpt>
      <trkpt lat="48.99778" lon="1.10737">
        <ele>202.7</ele>
        <time>2017-10-21T12:00:58Z</time>
      </trkpt>
      <trkpt lat="48.99788" lon="1.10738">
        <ele>202.4</ele>
        <time>2017-10-21T12:00:59Z</time>
      </trkpt>
      <trkpt lat="48.99797" lon="1.1074">
        <ele>202.1</ele>
        <time>2017-10-21T12:01:00Z</time>
      </trkpt>
      <trkpt lat="48.99814" lon="1.10745">
        <ele>201.8</ele>
        <time>2017-10-21T12:01:02Z</time>
      </trkpt>
      <trkpt lat="48.9983" lon="1.10754">
        <ele>201.5</ele>
        <time>2017-10-21T12:01:04Z</time>
      </trkpt>
      <trkpt lat="48.99844" lon="1.10768">
        <ele>201</ele>
        <time>2017-10-21T12:01:06Z</time>
      </trkpt>
      <trkpt lat="48.99857" lon="1.10783">
        <ele>200.6</ele>
        <time>2017-10-21T12:01:08Z</time>
      </trkpt>
      <trkpt lat="48.99871" lon="1.10797">
        <ele>200.2</ele>
        <time>2017-10-21T12:01:10Z</time>
      </trkpt>
      <trkpt lat="48.99885" lon="1.10809">
        <ele>199.6</ele>
        <time>2017-10-21T12:01:12Z</time>
      </trkpt>
      <trkpt lat="48.99901" lon="1.10813">
        <ele>199.3</ele>
        <time>2017-10-21T12:01:14Z</time>
      </trkpt>
      <trkpt lat="48.99917" lon="1.10811">
        <ele>198.9</ele>
        <time>2017-10-21T12:01:16Z</time>
      </trkpt>
      <trkpt lat="48.99933" lon="1.1081">
        <ele>198.6</ele>
        <time>2017-10-21T12:01:18Z</time>
      </trkpt>
      <trkpt lat="48.99946" lon="1.10816">
        <ele>198.6</ele>
        <time>2017-10-21T12:01:20Z</time>
      </trkpt>
      <trkpt lat="48.99957" lon="1.10825">
        <ele>198.7</ele>
        <time>2017-10-21T12:01:22Z</time>
      </trkpt>
      <trkpt lat="48.99966" lon="1.10836">
        <ele>199.1</ele>
        <time>2017-10-21T12:01:24Z</time>
      </trkpt>
      <trkpt lat="48.99975" lon="1.10848">
        <ele>199.4</ele>
        <time>2017-10-21T12:01:26Z</time>
      </trkpt>
      <trkpt lat="48.99983" lon="1.10861">
        <ele>199.8</ele>
        <time>2017-10-21T12:01:28Z</time>
      </trkpt>
      <trkpt lat="48.9999" lon="1.10871">
        <ele>200.1</ele>
        <time>2017-10-21T12:01:30Z</time>
      </trkpt>
      <trkpt lat="48.99997" lon="1.10882">
        <ele>200.6</ele>
        <time>2017-10-21T12:01:32Z</time>
      </trkpt>
      <trkpt lat="49.00004" lon="1.10893">
        <ele>201</ele>
        <time>2017-10-21T12:01:34Z</time>
      </trkpt>
      <trkpt lat="49.00012" lon="1.10904">
        <ele>201.4</ele>
        <time>2017-10-21T12:01:36Z</time>
      </trkpt>
      <trkpt lat="49.0002" lon="1.10915">
        <ele>201.7</ele>
        <time>2017-10-21T12:01:38Z</time>
      </trkpt>
      <trkpt lat="49.00028" lon="1.10926">
        <ele>201.9</ele>
        <time>2017-10-21T12:01:40Z</time>
      </trkpt>
      <trkpt lat="49.00036" lon="1.10937">
        <ele>202.1</ele>
        <time>2017-10-21T12:01:42Z</time>
      </trkpt>
      <trkpt lat="49.00043" lon="1.10949">
        <ele>202.2</ele>
        <time>2017-10-21T12:01:44Z</time>
      </trkpt>
      <trkpt lat="49.00051" lon="1.1096">
        <ele>202.4</ele>
        <time>2017-10-21T12:01:46Z</time>
      </trkpt>
      <trkpt lat="49.00059" lon="1.10971">
        <ele>202.6</ele>
        <time>2017-10-21T12:01:48Z</time>
      </trkpt>
      <trkpt lat="49.00067" lon="1.10981">
        <ele>202.8</ele>
        <time>2017-10-21T12:01:50Z</time>
      </trkpt>
      <trkpt lat="49.00075" lon="1.10992">
        <ele>203</ele>
        <time>2017-10-21T12:01:52Z</time>
      </trkpt>
      <trkpt lat="49.00083" lon="1.11003">
        <ele>203.2</ele>
        <time>2017-10-21T12:01:54Z</time>
      </trkpt>
      <trkpt lat="49.00092" lon="1.11013">
        <ele>203.5</ele>
        <time>2017-10-21T12:01:56Z</time>
      </trkpt>
      <trkpt lat="49.001" lon="1.11023">
        <ele>203.7</ele>
        <time>2017-10-21T12:01:58Z</time>
      </trkpt>
      <trkpt lat="49.00109" lon="1.11034">
        <ele>203.9</ele>
        <time>2017-10-21T12:02:00Z</time>
      </trkpt>
      <trkpt lat="49.00118" lon="1.11045">
        <ele>204</ele>
        <time>2017-10-21T12:02:02Z</time>
      </trkpt>
      <trkpt lat="49.00128" lon="1.11056">
        <ele>204.1</ele>
        <time>2017-10-21T12:02:04Z</time>
      </trkpt>
      <trkpt lat="49.00137" lon="1.11067">
        <ele>204.2</ele>
        <time>2017-10-21T12:02:06Z</time>
      </trkpt>
      <trkpt lat="49.00147" lon="1.11079">
        <ele>204.3</ele>
        <time>2017-10-21T12:02:08Z</time>
      </trkpt>
      <trkpt lat="49.00157" lon="1.11091">
        <ele>204.2</ele>
        <time>2017-10-21T12:02:10Z</time>
      </trkpt>
      <trkpt lat="49.00167" lon="1.11102">
        <ele>204.2</ele>
        <time>2017-10-21T12:02:12Z</time>
      </trkpt>
      <trkpt lat="49.00178" lon="1.11114">
        <ele>204.2</ele>
        <time>2017-10-21T12:02:14Z</time>
      </trkpt>
      <trkpt lat="49.00188" lon="1.11126">
        <ele>204.2</ele>
        <time>2017-10-21T12:02:16Z</time>
      </trkpt>
      <trkpt lat="49.00198" lon="1.11138">
        <ele>204.3</ele>
        <time>2017-10-21T12:02:18Z</time>
      </trkpt>
      <trkpt lat="49.00209" lon="1.1115">
        <ele>204.4</ele>
        <time>2017-10-21T12:02:20Z</time>
      </trkpt>
      <trkpt lat="49.00219" lon="1.11162">
        <ele>204.4</ele>
        <time>2017-10-21T12:02:22Z</time>
      </trkpt>
      <trkpt lat="49.00229" lon="1.11173">
        <ele>204.5</ele>
        <time>2017-10-21T12:02:24Z</time>
      </trkpt>
      <trkpt lat="49.0024" lon="1.11184">
        <ele>204.6</ele>
        <time>2017-10-21T12:02:26Z</time>
      </trkpt>
      <trkpt lat="49.00251" lon="1.11194">
        <ele>204.7</ele>
        <time>2017-10-21T12:02:28Z</time>
      </trkpt>
      <trkpt lat="49.00262" lon="1.11202">
        <ele>204.7</ele>
        <time>2017-10-21T12:02:30Z</time>
      </trkpt>
      <trkpt lat="49.00274" lon="1.11211">
        <ele>204.8</ele>
        <time>2017-10-21T12:02:32Z</time>
      </trkpt>
      <trkpt lat="49.00286" lon="1.1122">
        <ele>204.8</ele>
        <time>2017-10-21T12:02:34Z</time>
      </trkpt>
      <trkpt lat="49.00299" lon="1.11227">
        <ele>204.4</ele>
        <time>2017-10-21T12:02:36Z</time>
      </trkpt>
      <trkpt lat="49.00313" lon="1.11235">
        <ele>204.5</ele>
        <time>2017-10-21T12:02:38Z</time>
      </trkpt>
      <trkpt lat="49.00326" lon="1.11243">
        <ele>204.1</ele>
        <time>2017-10-21T12:02:40Z</time>
      </trkpt>
      <trkpt lat="49.00341" lon="1.11251">
        <ele>203.7</ele>
        <time>2017-10-21T12:02:42Z</time>
      </trkpt>
      <trkpt lat="49.00355" lon="1.1126">
        <ele>203.2</ele>
        <time>2017-10-21T12:02:44Z</time>
      </trkpt>
      <trkpt lat="49.0037" lon="1.11268">
        <ele>203</ele>
        <time>2017-10-21T12:02:46Z</time>
      </trkpt>
      <trkpt lat="49.00384" lon="1.11277">
        <ele>202.8</ele>
        <time>2017-10-21T12:02:48Z</time>
      </trkpt>
      <trkpt lat="49.00398" lon="1.11286">
        <ele>202.6</ele>
        <time>2017-10-21T12:02:50Z</time>
      </trkpt>
      <trkpt lat="49.00413" lon="1.11294">
        <ele>202.3</ele>
        <time>2017-10-21T12:02:52Z</time>
      </trkpt>
      <trkpt lat="49.00428" lon="1.11303">
        <ele>202.1</ele>
        <time>2017-10-21T12:02:54Z</time>
      </trkpt>
      <trkpt lat="49.00442" lon="1.11311">
        <ele>201.8</ele>
        <time>2017-10-21T12:02:56Z</time>
      </trkpt>
      <trkpt lat="49.00456" lon="1.1132">
        <ele>201.4</ele>
        <time>2017-10-21T12:02:58Z</time>
      </trkpt>
      <trkpt lat="49.0047" lon="1.11329">
        <ele>201</ele>
        <time>2017-10-21T12:03:00Z</time>
      </trkpt>
      <trkpt lat="49.00483" lon="1.11337">
        <ele>201</ele>
        <time>2017-10-21T12:03:02Z</time>
      </trkpt>
      <trkpt lat="49.00496" lon="1.11345">
        <ele>200.6</ele>
        <time>2017-10-21T12:03:04Z</time>
      </trkpt>
      <trkpt lat="49.00509" lon="1.11353">
        <ele>200.4</ele>
        <time>2017-10-21T12:03:06Z</time>
      </trkpt>
      <trkpt lat="49.00522" lon="1.11361">
        <ele>200.4</ele>
        <time>2017-10-21T12:03:08Z</time>
      </trkpt>
      <trkpt lat="49.00534" lon="1.11368">
        <ele>200.5</ele>
        <time>2017-10-21T12:03:10Z</time>
      </trkpt>
      <trkpt lat="49.00546" lon="1.11375">
        <ele>200.6</ele>
        <time>2017-10-21T12:03:12Z</time>
      </trkpt>
      <trkpt lat="49.00558" lon="1.11382">
        <ele>200.3</ele>
        <time>2017-10-21T12:03:14Z</time>
      </trkpt>
      <trkpt lat="49.0057" lon="1.1139">
        <ele>200.1</ele>
        <time>2017-10-21T12:03:16Z</time>
      </trkpt>
      <trkpt lat="49.00583" lon="1.11397">
        <ele>199.9</ele>
        <time>2017-10-21T12:03:18Z</time>
      </trkpt>
      <trkpt lat="49.00596" lon="1.11405">
        <ele>199.8</ele>
        <time>2017-10-21T12:03:20Z</time>
      </trkpt>
      <trkpt lat="49.0061" lon="1.11414">
        <ele>199.5</ele>
        <time>2017-10-21T12:03:22Z</time>
      </trkpt>
      <trkpt lat="49.00625" lon="1.11422">
        <ele>199.3</ele>
        <time>2017-10-21T12:03:24Z</time>
      </trkpt>
      <trkpt lat="49.0064" lon="1.11431">
        <ele>199.4</ele>
        <time>2017-10-21T12:03:26Z</time>
      </trkpt>
      <trkpt lat="49.00655" lon="1.1144">
        <ele>199.1</ele>
        <time>2017-10-21T12:03:28Z</time>
      </trkpt>
      <trkpt lat="49.0067" lon="1.11449">
        <ele>199</ele>
        <time>2017-10-21T12:03:30Z</time>
      </trkpt>
      <trkpt lat="49.00685" lon="1.11458">
        <ele>198.7</ele>
        <time>2017-10-21T12:03:32Z</time>
      </trkpt>
      <trkpt lat="49.00701" lon="1.11468">
        <ele>198.4</ele>
        <time>2017-10-21T12:03:34Z</time>
      </trkpt>
      <trkpt lat="49.00716" lon="1.11477">
        <ele>197.9</ele>
        <time>2017-10-21T12:03:36Z</time>
      </trkpt>
      <trkpt lat="49.00731" lon="1.11488">
        <ele>197.2</ele>
        <time>2017-10-21T12:03:38Z</time>
      </trkpt>
      <trkpt lat="49.00745" lon="1.11501">
        <ele>196.6</ele>
        <time>2017-10-21T12:03:40Z</time>
      </trkpt>
      <trkpt lat="49.00757" lon="1.11516">
        <ele>196</ele>
        <time>2017-10-21T12:03:42Z</time>
      </trkpt>
      <trkpt lat="49.0077" lon="1.1153">
        <ele>195.6</ele>
        <time>2017-10-21T12:03:44Z</time>
      </trkpt>
      <trkpt lat="49.00782" lon="1.11546">
        <ele>195.2</ele>
        <time>2017-10-21T12:03:46Z</time>
      </trkpt>
      <trkpt lat="49.00793" lon="1.11562">
        <ele>195</ele>
        <time>2017-10-21T12:03:48Z</time>
      </trkpt>
      <trkpt lat="49.00804" lon="1.11577">
        <ele>194.6</ele>
        <time>2017-10-21T12:03:50Z</time>
      </trkpt>
      <trkpt lat="49.00815" lon="1.11591">
        <ele>194.4</ele>
        <time>2017-10-21T12:03:52Z</time>
      </trkpt>
      <trkpt lat="49.00826" lon="1.11603">
        <ele>194.3</ele>
        <time>2017-10-21T12:03:54Z</time>
      </trkpt>
      <trkpt lat="49.00837" lon="1.11614">
        <ele>194.2</ele>
        <time>2017-10-21T12:03:56Z</time>
      </trkpt>
      <trkpt lat="49.00848" lon="1.11624">
        <ele>194.1</ele>
        <time>2017-10-21T12:03:58Z</time>
      </trkpt>
      <trkpt lat="49.00861" lon="1.11633">
        <ele>193.9</ele>
        <time>2017-10-21T12:04:00Z</time>
      </trkpt>
      <trkpt lat="49.00873" lon="1.11641">
        <ele>194</ele>
        <time>2017-10-21T12:04:02Z</time>
      </trkpt>
      <trkpt lat="49.00886" lon="1.11649">
        <ele>193.7</ele>
        <time>2017-10-21T12:04:04Z</time>
      </trkpt>
      <trkpt lat="49.00898" lon="1.11657">
        <ele>193.4</ele>
        <time>2017-10-21T12:04:06Z</time>
      </trkpt>
      <trkpt lat="49.0091" lon="1.11665">
        <ele>193.1</ele>
        <time>2017-10-21T12:04:08Z</time>
      </trkpt>
      <trkpt lat="49.00923" lon="1.11674">
        <ele>192.9</ele>
        <time>2017-10-21T12:04:10Z</time>
      </trkpt>
      <trkpt lat="49.00936" lon="1.11682">
        <ele>192.5</ele>
        <time>2017-10-21T12:04:12Z</time>
      </trkpt>
      <trkpt lat="49.00949" lon="1.1169">
        <ele>192.3</ele>
        <time>2017-10-21T12:04:14Z</time>
      </trkpt>
      <trkpt lat="49.00962" lon="1.11699">
        <ele>192.2</ele>
        <time>2017-10-21T12:04:16Z</time>
      </trkpt>
      <trkpt lat="49.00975" lon="1.11707">
        <ele>192.2</ele>
        <time>2017-10-21T12:04:18Z</time>
      </trkpt>
      <trkpt lat="49.00988" lon="1.11715">
        <ele>192.1</ele>
        <time>2017-10-21T12:04:20Z</time>
      </trkpt>
      <trkpt lat="49.01" lon="1.11723">
        <ele>191.9</ele>
        <time>2017-10-21T12:04:22Z</time>
      </trkpt>
      <trkpt lat="49.01013" lon="1.11731">
        <ele>192</ele>
        <time>2017-10-21T12:04:24Z</time>
      </trkpt>
      <trkpt lat="49.01026" lon="1.11739">
        <ele>192.1</ele>
        <time>2017-10-21T12:04:26Z</time>
      </trkpt>
      <trkpt lat="49.01039" lon="1.11747">
        <ele>192.2</ele>
        <time>2017-10-21T12:04:28Z</time>
      </trkpt>
      <trkpt lat="49.01051" lon="1.11755">
        <ele>192.2</ele>
        <time>2017-10-21T12:04:30Z</time>
      </trkpt>
      <trkpt lat="49.01064" lon="1.11764">
        <ele>192.2</ele>
        <time>2017-10-21T12:04:32Z</time>
      </trkpt>
      <trkpt lat="49.01076" lon="1.11772">
        <ele>192.2</ele>
        <time>2017-10-21T12:04:34Z</time>
      </trkpt>
      <trkpt lat="49.01089" lon="1.1178">
        <ele>192</ele>
        <time>2017-10-21T12:04:36Z</time>
      </trkpt>
      <trkpt lat="49.01102" lon="1.11788">
        <ele>191.9</ele>
        <time>2017-10-21T12:04:38Z</time>
      </trkpt>
      <trkpt lat="49.01114" lon="1.11796">
        <ele>191.9</ele>
        <time>2017-10-21T12:04:40Z</time>
      </trkpt>
      <trkpt lat="49.01127" lon="1.11805">
        <ele>191.9</ele>
        <time>2017-10-21T12:04:42Z</time>
      </trkpt>
      <trkpt lat="49.0114" lon="1.11813">
        <ele>192</ele>
        <time>2017-10-21T12:04:44Z</time>
      </trkpt>
      <trkpt lat="49.01153" lon="1.1182">
        <ele>191.9</ele>
        <time>2017-10-21T12:04:46Z</time>
      </trkpt>
      <trkpt lat="49.01166" lon="1.11828">
        <ele>191.9</ele>
        <time>2017-10-21T12:04:48Z</time>
      </trkpt>
      <trkpt lat="49.01179" lon="1.11836">
        <ele>191.9</ele>
        <time>2017-10-21T12:04:50Z</time>
      </trkpt>
      <trkpt lat="49.01191" lon="1.11844">
        <ele>191.9</ele>
        <time>2017-10-21T12:04:52Z</time>
      </trkpt>
      <trkpt lat="49.01204" lon="1.11851">
        <ele>191.9</ele>
        <time>2017-10-21T12:04:54Z</time>
      </trkpt>
      <trkpt lat="49.01217" lon="1.11858">
        <ele>192</ele>
        <time>2017-10-21T12:04:56Z</time>
      </trkpt>
      <trkpt lat="49.0123" lon="1.11866">
        <ele>192</ele>
        <time>2017-10-21T12:04:58Z</time>
      </trkpt>
      <trkpt lat="49.01243" lon="1.11873">
        <ele>192</ele>
        <time>2017-10-21T12:05:00Z</time>
      </trkpt>
      <trkpt lat="49.01256" lon="1.1188">
        <ele>192</ele>
        <time>2017-10-21T12:05:02Z</time>
      </trkpt>
      <trkpt lat="49.01269" lon="1.11887">
        <ele>192</ele>
        <time>2017-10-21T12:05:04Z</time>
      </trkpt>
      <trkpt lat="49.01281" lon="1.11895">
        <ele>192.1</ele>
        <time>2017-10-21T12:05:06Z</time>
      </trkpt>
      <trkpt lat="49.01294" lon="1.11901">
        <ele>192.2</ele>
        <time>2017-10-21T12:05:08Z</time>
      </trkpt>
      <trkpt lat="49.01306" lon="1.11908">
        <ele>192.5</ele>
        <time>2017-10-21T12:05:10Z</time>
      </trkpt>
      <trkpt lat="49.01319" lon="1.11915">
        <ele>192.5</ele>
        <time>2017-10-21T12:05:12Z</time>
      </trkpt>
      <trkpt lat="49.01331" lon="1.11922">
        <ele>192.7</ele>
        <time>2017-10-21T12:05:14Z</time>
      </trkpt>
      <trkpt lat="49.01344" lon="1.11928">
        <ele>192.8</ele>
        <time>2017-10-21T12:05:16Z</time>
      </trkpt>
      <trkpt lat="49.01356" lon="1.11934">
        <ele>192.8</ele>
        <time>2017-10-21T12:05:18Z</time>
      </trkpt>
      <trkpt lat="49.01369" lon="1.11941">
        <ele>192.9</ele>
        <time>2017-10-21T12:05:20Z</time>
      </trkpt>
      <trkpt lat="49.01381" lon="1.11947">
        <ele>192.8</ele>
        <time>2017-10-21T12:05:22Z</time>
      </trkpt>
      <trkpt lat="49.01394" lon="1.11954">
        <ele>192.7</ele>
        <time>2017-10-21T12:05:24Z</time>
      </trkpt>
      <trkpt lat="49.01406" lon="1.1196">
        <ele>192.6</ele>
        <time>2017-10-21T12:05:26Z</time>
      </trkpt>
      <trkpt lat="49.01419" lon="1.11966">
        <ele>192.6</ele>
        <time>2017-10-21T12:05:28Z</time>
      </trkpt>
      <trkpt lat="49.01431" lon="1.11972">
        <ele>192.5</ele>
        <time>2017-10-21T12:05:30Z</time>
      </trkpt>
      <trkpt lat="49.01443" lon="1.11979">
        <ele>192.3</ele>
        <time>2017-10-21T12:05:32Z</time>
      </trkpt>
      <trkpt lat="49.01457" lon="1.11986">
        <ele>192.2</ele>
        <time>2017-10-21T12:05:34Z</time>
      </trkpt>
      <trkpt lat="49.01469" lon="1.11994">
        <ele>192.3</ele>
        <time>2017-10-21T12:05:36Z</time>
      </trkpt>
      <trkpt lat="49.0148" lon="1.12006">
        <ele>192.3</ele>
        <time>2017-10-21T12:05:38Z</time>
      </trkpt>
      <trkpt lat="49.0149" lon="1.1202">
        <ele>192</ele>
        <time>2017-10-21T12:05:40Z</time>
      </trkpt>
      <trkpt lat="49.01499" lon="1.12035">
        <ele>191.9</ele>
        <time>2017-10-21T12:05:42Z</time>
      </trkpt>
      <trkpt lat="49.01508" lon="1.12049">
        <ele>191.6</ele>
        <time>2017-10-21T12:05:44Z</time>
      </trkpt>
      <trkpt lat="49.01518" lon="1.12064">
        <ele>191.6</ele>
        <time>2017-10-21T12:05:46Z</time>
      </trkpt>
      <trkpt lat="49.01527" lon="1.12078">
        <ele>191.4</ele>
        <time>2017-10-21T12:05:48Z</time>
      </trkpt>
      <trkpt lat="49.01536" lon="1.12092">
        <ele>191.3</ele>
        <time>2017-10-21T12:05:50Z</time>
      </trkpt>
      <trkpt lat="49.01546" lon="1.12107">
        <ele>191.1</ele>
        <time>2017-10-21T12:05:52Z</time>
      </trkpt>
      <trkpt lat="49.01555" lon="1.12122">
        <ele>190.9</ele>
        <time>2017-10-21T12:05:54Z</time>
      </trkpt>
      <trkpt lat="49.01565" lon="1.12136">
        <ele>190.7</ele>
        <time>2017-10-21T12:05:56Z</time>
      </trkpt>
      <trkpt lat="49.01575" lon="1.12151">
        <ele>190.6</ele>
        <time>2017-10-21T12:05:58Z</time>
      </trkpt>
      <trkpt lat="49.01584" lon="1.12166">
        <ele>190.5</ele>
        <time>2017-10-21T12:06:00Z</time>
      </trkpt>
      <trkpt lat="49.01594" lon="1.12181">
        <ele>190.3</ele>
        <time>2017-10-21T12:06:02Z</time>
      </trkpt>
      <trkpt lat="49.01603" lon="1.12196">
        <ele>190.3</ele>
        <time>2017-10-21T12:06:04Z</time>
      </trkpt>
      <trkpt lat="49.01612" lon="1.12211">
        <ele>190.2</ele>
        <time>2017-10-21T12:06:06Z</time>
      </trkpt>
      <trkpt lat="49.01621" lon="1.12225">
        <ele>190.1</ele>
        <time>2017-10-21T12:06:08Z</time>
      </trkpt>
      <trkpt lat="49.01629" lon="1.12239">
        <ele>190.1</ele>
        <time>2017-10-21T12:06:10Z</time>
      </trkpt>
      <trkpt lat="49.01636" lon="1.12253">
        <ele>190</ele>
        <time>2017-10-21T12:06:12Z</time>
      </trkpt>
      <trkpt lat="49.01643" lon="1.12264">
        <ele>190</ele>
        <time>2017-10-21T12:06:14Z</time>
      </trkpt>
      <trkpt lat="49.0165" lon="1.1228">
        <ele>189.9</ele>
        <time>2017-10-21T12:06:17Z</time>
      </trkpt>
      <trkpt lat="49.01656" lon="1.12291">
        <ele>189.8</ele>
        <time>2017-10-21T12:06:19Z</time>
      </trkpt>
      <trkpt lat="49.01663" lon="1.12301">
        <ele>189.7</ele>
        <time>2017-10-21T12:06:21Z</time>
      </trkpt>
      <trkpt lat="49.0167" lon="1.12312">
        <ele>189.3</ele>
        <time>2017-10-21T12:06:23Z</time>
      </trkpt>
      <trkpt lat="49.01677" lon="1.12322">
        <ele>189.1</ele>
        <time>2017-10-21T12:06:25Z</time>
      </trkpt>
      <trkpt lat="49.01685" lon="1.12332">
        <ele>188.9</ele>
        <time>2017-10-21T12:06:27Z</time>
      </trkpt>
      <trkpt lat="49.01693" lon="1.12342">
        <ele>188.9</ele>
        <time>2017-10-21T12:06:29Z</time>
      </trkpt>
      <trkpt lat="49.01701" lon="1.12352">
        <ele>188.7</ele>
        <time>2017-10-21T12:06:31Z</time>
      </trkpt>
      <trkpt lat="49.01709" lon="1.12362">
        <ele>188.7</ele>
        <time>2017-10-21T12:06:33Z</time>
      </trkpt>
      <trkpt lat="49.01718" lon="1.12373">
        <ele>188.8</ele>
        <time>2017-10-21T12:06:35Z</time>
      </trkpt>
      <trkpt lat="49.01726" lon="1.12384">
        <ele>188.9</ele>
        <time>2017-10-21T12:06:37Z</time>
      </trkpt>
      <trkpt lat="49.01734" lon="1.12394">
        <ele>189</ele>
        <time>2017-10-21T12:06:39Z</time>
      </trkpt>
      <trkpt lat="49.01741" lon="1.12404">
        <ele>188.5</ele>
        <time>2017-10-21T12:06:44Z</time>
      </trkpt>
      <trkpt lat="49.01751" lon="1.12415">
        <ele>188.6</ele>
        <time>2017-10-21T12:06:50Z</time>
      </trkpt>
      <trkpt lat="49.0176" lon="1.12427">
        <ele>188.8</ele>
        <time>2017-10-21T12:06:53Z</time>
      </trkpt>
      <trkpt lat="49.01767" lon="1.12438">
        <ele>189</ele>
        <time>2017-10-21T12:06:55Z</time>
      </trkpt>
      <trkpt lat="49.01774" lon="1.12448">
        <ele>189.1</ele>
        <time>2017-10-21T12:06:57Z</time>
      </trkpt>
      <trkpt lat="49.01782" lon="1.1246">
        <ele>189.1</ele>
        <time>2017-10-21T12:06:59Z</time>
      </trkpt>
      <trkpt lat="49.01789" lon="1.12472">
        <ele>189.1</ele>
        <time>2017-10-21T12:07:01Z</time>
      </trkpt>
      <trkpt lat="49.01796" lon="1.12485">
        <ele>189.1</ele>
        <time>2017-10-21T12:07:03Z</time>
      </trkpt>
      <trkpt lat="49.01802" lon="1.12499">
        <ele>189.1</ele>
        <time>2017-10-21T12:07:05Z</time>
      </trkpt>
      <trkpt lat="49.01808" lon="1.12514">
        <ele>189</ele>
        <time>2017-10-21T12:07:07Z</time>
      </trkpt>
      <trkpt lat="49.01814" lon="1.1253">
        <ele>188.9</ele>
        <time>2017-10-21T12:07:09Z</time>
      </trkpt>
      <trkpt lat="49.0182" lon="1.12546">
        <ele>188.9</ele>
        <time>2017-10-21T12:07:11Z</time>
      </trkpt>
      <trkpt lat="49.01826" lon="1.12562">
        <ele>188.9</ele>
        <time>2017-10-21T12:07:13Z</time>
      </trkpt>
      <trkpt lat="49.01832" lon="1.12579">
        <ele>188.8</ele>
        <time>2017-10-21T12:07:15Z</time>
      </trkpt>
      <trkpt lat="49.01838" lon="1.12595">
        <ele>188.8</ele>
        <time>2017-10-21T12:07:17Z</time>
      </trkpt>
      <trkpt lat="49.01843" lon="1.12612">
        <ele>188.8</ele>
        <time>2017-10-21T12:07:19Z</time>
      </trkpt>
      <trkpt lat="49.01849" lon="1.1263">
        <ele>188.6</ele>
        <time>2017-10-21T12:07:21Z</time>
      </trkpt>
      <trkpt lat="49.01854" lon="1.12647">
        <ele>188.5</ele>
        <time>2017-10-21T12:07:23Z</time>
      </trkpt>
      <trkpt lat="49.0186" lon="1.12665">
        <ele>188.5</ele>
        <time>2017-10-21T12:07:25Z</time>
      </trkpt>
      <trkpt lat="49.01866" lon="1.12683">
        <ele>188.5</ele>
        <time>2017-10-21T12:07:27Z</time>
      </trkpt>
      <trkpt lat="49.0187" lon="1.12701">
        <ele>188.5</ele>
        <time>2017-10-21T12:07:29Z</time>
      </trkpt>
      <trkpt lat="49.01874" lon="1.1272">
        <ele>188.8</ele>
        <time>2017-10-21T12:07:31Z</time>
      </trkpt>
      <trkpt lat="49.01878" lon="1.12739">
        <ele>188.9</ele>
        <time>2017-10-21T12:07:33Z</time>
      </trkpt>
      <trkpt lat="49.01882" lon="1.12758">
        <ele>188.8</ele>
        <time>2017-10-21T12:07:35Z</time>
      </trkpt>
      <trkpt lat="49.01886" lon="1.12778">
        <ele>188.8</ele>
        <time>2017-10-21T12:07:37Z</time>
      </trkpt>
      <trkpt lat="49.0189" lon="1.12797">
        <ele>188.8</ele>
        <time>2017-10-21T12:07:39Z</time>
      </trkpt>
      <trkpt lat="49.01893" lon="1.12817">
        <ele>188.8</ele>
        <time>2017-10-21T12:07:41Z</time>
      </trkpt>
      <trkpt lat="49.01896" lon="1.12837">
        <ele>188.8</ele>
        <time>2017-10-21T12:07:43Z</time>
      </trkpt>
      <trkpt lat="49.01899" lon="1.12857">
        <ele>188.8</ele>
        <time>2017-10-21T12:07:45Z</time>
      </trkpt>
      <trkpt lat="49.01903" lon="1.12876">
        <ele>188.8</ele>
        <time>2017-10-21T12:07:47Z</time>
      </trkpt>
      <trkpt lat="49.01906" lon="1.12896">
        <ele>188.8</ele>
        <time>2017-10-21T12:07:49Z</time>
      </trkpt>
      <trkpt lat="49.0191" lon="1.12915">
        <ele>188.9</ele>
        <time>2017-10-21T12:07:51Z</time>
      </trkpt>
      <trkpt lat="49.01915" lon="1.12945">
        <ele>188</ele>
        <time>2017-10-21T12:07:54Z</time>
      </trkpt>
      <trkpt lat="49.01917" lon="1.12976">
        <ele>189</ele>
        <time>2017-10-21T12:07:57Z</time>
      </trkpt>
      <trkpt lat="49.0192" lon="1.12996">
        <ele>189.1</ele>
        <time>2017-10-21T12:07:59Z</time>
      </trkpt>
      <trkpt lat="49.01922" lon="1.13017">
        <ele>189.1</ele>
        <time>2017-10-21T12:08:01Z</time>
      </trkpt>
      <trkpt lat="49.01924" lon="1.13036">
        <ele>189</ele>
        <time>2017-10-21T12:08:03Z</time>
      </trkpt>
      <trkpt lat="49.01927" lon="1.13054">
        <ele>189.1</ele>
        <time>2017-10-21T12:08:05Z</time>
      </trkpt>
      <trkpt lat="49.0193" lon="1.13072">
        <ele>189.1</ele>
        <time>2017-10-21T12:08:07Z</time>
      </trkpt>
      <trkpt lat="49.01936" lon="1.13088">
        <ele>189.1</ele>
        <time>2017-10-21T12:08:09Z</time>
      </trkpt>
      <trkpt lat="49.01943" lon="1.13104">
        <ele>188.9</ele>
        <time>2017-10-21T12:08:11Z</time>
      </trkpt>
      <trkpt lat="49.0195" lon="1.13119">
        <ele>188.7</ele>
        <time>2017-10-21T12:08:13Z</time>
      </trkpt>
      <trkpt lat="49.01958" lon="1.13134">
        <ele>188.5</ele>
        <time>2017-10-21T12:08:15Z</time>
      </trkpt>
      <trkpt lat="49.01966" lon="1.13149">
        <ele>188.4</ele>
        <time>2017-10-21T12:08:17Z</time>
      </trkpt>
      <trkpt lat="49.01974" lon="1.13164">
        <ele>188.2</ele>
        <time>2017-10-21T12:08:19Z</time>
      </trkpt>
      <trkpt lat="49.01983" lon="1.1318">
        <ele>188.1</ele>
        <time>2017-10-21T12:08:21Z</time>
      </trkpt>
      <trkpt lat="49.01991" lon="1.13196">
        <ele>188</ele>
        <time>2017-10-21T12:08:23Z</time>
      </trkpt>
      <trkpt lat="49.02" lon="1.13212">
        <ele>188</ele>
        <time>2017-10-21T12:08:25Z</time>
      </trkpt>
      <trkpt lat="49.02008" lon="1.13228">
        <ele>187.9</ele>
        <time>2017-10-21T12:08:27Z</time>
      </trkpt>
      <trkpt lat="49.02015" lon="1.13244">
        <ele>187.9</ele>
        <time>2017-10-21T12:08:29Z</time>
      </trkpt>
      <trkpt lat="49.02022" lon="1.13261">
        <ele>187.9</ele>
        <time>2017-10-21T12:08:31Z</time>
      </trkpt>
      <trkpt lat="49.02028" lon="1.13278">
        <ele>187.8</ele>
        <time>2017-10-21T12:08:33Z</time>
      </trkpt>
      <trkpt lat="49.02034" lon="1.13296">
        <ele>187.9</ele>
        <time>2017-10-21T12:08:35Z</time>
      </trkpt>
      <trkpt lat="49.0204" lon="1.13313">
        <ele>187.9</ele>
        <time>2017-10-21T12:08:37Z</time>
      </trkpt>
      <trkpt lat="49.02046" lon="1.1333">
        <ele>187.8</ele>
        <time>2017-10-21T12:08:39Z</time>
      </trkpt>
      <trkpt lat="49.02051" lon="1.13347">
        <ele>187.7</ele>
        <time>2017-10-21T12:08:41Z</time>
      </trkpt>
      <trkpt lat="49.02057" lon="1.13365">
        <ele>187.8</ele>
        <time>2017-10-21T12:08:43Z</time>
      </trkpt>
      <trkpt lat="49.02061" lon="1.13384">
        <ele>187.7</ele>
        <time>2017-10-21T12:08:45Z</time>
      </trkpt>
      <trkpt lat="49.02067" lon="1.13403">
        <ele>187.5</ele>
        <time>2017-10-21T12:08:47Z</time>
      </trkpt>
      <trkpt lat="49.02072" lon="1.13422">
        <ele>187.4</ele>
        <time>2017-10-21T12:08:49Z</time>
      </trkpt>
      <trkpt lat="49.02077" lon="1.13442">
        <ele>187.3</ele>
        <time>2017-10-21T12:08:51Z</time>
      </trkpt>
      <trkpt lat="49.02082" lon="1.13462">
        <ele>187.4</ele>
        <time>2017-10-21T12:08:53Z</time>
      </trkpt>
      <trkpt lat="49.02087" lon="1.13482">
        <ele>187.7</ele>
        <time>2017-10-21T12:08:55Z</time>
      </trkpt>
      <trkpt lat="49.02093" lon="1.13501">
        <ele>187.8</ele>
        <time>2017-10-21T12:08:57Z</time>
      </trkpt>
      <trkpt lat="49.02097" lon="1.13521">
        <ele>187.9</ele>
        <time>2017-10-21T12:08:59Z</time>
      </trkpt>
      <trkpt lat="49.02102" lon="1.13541">
        <ele>188</ele>
        <time>2017-10-21T12:09:01Z</time>
      </trkpt>
      <trkpt lat="49.02107" lon="1.13561">
        <ele>188</ele>
        <time>2017-10-21T12:09:03Z</time>
      </trkpt>
      <trkpt lat="49.02113" lon="1.13581">
        <ele>188</ele>
        <time>2017-10-21T12:09:05Z</time>
      </trkpt>
      <trkpt lat="49.02118" lon="1.13602">
        <ele>187.9</ele>
        <time>2017-10-21T12:09:07Z</time>
      </trkpt>
      <trkpt lat="49.02123" lon="1.13621">
        <ele>187.8</ele>
        <time>2017-10-21T12:09:09Z</time>
      </trkpt>
      <trkpt lat="49.02129" lon="1.1364">
        <ele>187.9</ele>
        <time>2017-10-21T12:09:11Z</time>
      </trkpt>
      <trkpt lat="49.02133" lon="1.13658">
        <ele>187.9</ele>
        <time>2017-10-21T12:09:13Z</time>
      </trkpt>
      <trkpt lat="49.02137" lon="1.13675">
        <ele>188</ele>
        <time>2017-10-21T12:09:15Z</time>
      </trkpt>
      <trkpt lat="49.02142" lon="1.13691">
        <ele>188.1</ele>
        <time>2017-10-21T12:09:17Z</time>
      </trkpt>
      <trkpt lat="49.02146" lon="1.13704">
        <ele>188.1</ele>
        <time>2017-10-21T12:09:19Z</time>
      </trkpt>
      <trkpt lat="49.02151" lon="1.13719">
        <ele>188.1</ele>
        <time>2017-10-21T12:09:22Z</time>
      </trkpt>
      <trkpt lat="49.02155" lon="1.13733">
        <ele>187.9</ele>
        <time>2017-10-21T12:09:28Z</time>
      </trkpt>
      <trkpt lat="49.02157" lon="1.13747">
        <ele>190</ele>
        <time>2017-10-21T12:10:09Z</time>
      </trkpt>
      <trkpt lat="49.02156" lon="1.13763">
        <ele>190</ele>
        <time>2017-10-21T12:10:12Z</time>
      </trkpt>
      <trkpt lat="49.02154" lon="1.13782">
        <ele>190.1</ele>
        <time>2017-10-21T12:10:15Z</time>
      </trkpt>
      <trkpt lat="49.02149" lon="1.13794">
        <ele>190.1</ele>
        <time>2017-10-21T12:10:17Z</time>
      </trkpt>
      <trkpt lat="49.02137" lon="1.13803">
        <ele>189.6</ele>
        <time>2017-10-21T12:10:20Z</time>
      </trkpt>
      <trkpt lat="49.02128" lon="1.13813">
        <ele>189.3</ele>
        <time>2017-10-21T12:10:22Z</time>
      </trkpt>
      <trkpt lat="49.0212" lon="1.13827">
        <ele>189</ele>
        <time>2017-10-21T12:10:24Z</time>
      </trkpt>
      <trkpt lat="49.02119" lon="1.13844">
        <ele>188.7</ele>
        <time>2017-10-21T12:10:26Z</time>
      </trkpt>
      <trkpt lat="49.02124" lon="1.13859">
        <ele>188.5</ele>
        <time>2017-10-21T12:10:28Z</time>
      </trkpt>
      <trkpt lat="49.02129" lon="1.13874">
        <ele>188.1</ele>
        <time>2017-10-21T12:10:30Z</time>
      </trkpt>
      <trkpt lat="49.02134" lon="1.13889">
        <ele>187.6</ele>
        <time>2017-10-21T12:10:32Z</time>
      </trkpt>
      <trkpt lat="49.02138" lon="1.13904">
        <ele>187.2</ele>
        <time>2017-10-21T12:10:34Z</time>
      </trkpt>
      <trkpt lat="49.02137" lon="1.13921">
        <ele>186.8</ele>
        <time>2017-10-21T12:10:36Z</time>
      </trkpt>
      <trkpt lat="49.02137" lon="1.13938">
        <ele>186.5</ele>
        <time>2017-10-21T12:10:38Z</time>
      </trkpt>
      <trkpt lat="49.02138" lon="1.13952">
        <ele>186.4</ele>
        <time>2017-10-21T12:10:40Z</time>
      </trkpt>
      <trkpt lat="49.02141" lon="1.13967">
        <ele>186.4</ele>
        <time>2017-10-21T12:10:42Z</time>
      </trkpt>
      <trkpt lat="49.02149" lon="1.13982">
        <ele>186.5</ele>
        <time>2017-10-21T12:10:45Z</time>
      </trkpt>
      <trkpt lat="49.02161" lon="1.13981">
        <ele>186.9</ele>
        <time>2017-10-21T12:10:48Z</time>
      </trkpt>
      <trkpt lat="49.02171" lon="1.13982">
        <ele>186.5</ele>
        <time>2017-10-21T12:10:51Z</time>
      </trkpt>
      <trkpt lat="49.02182" lon="1.13982">
        <ele>186.9</ele>
        <time>2017-10-21T12:10:54Z</time>
      </trkpt>
      <trkpt lat="49.02191" lon="1.13974">
        <ele>187</ele>
        <time>2017-10-21T12:10:57Z</time>
      </trkpt>
      <trkpt lat="49.022" lon="1.13976">
        <ele>187.1</ele>
        <time>2017-10-21T12:11:01Z</time>
      </trkpt>
      <trkpt lat="49.02201" lon="1.13992">
        <ele>187.3</ele>
        <time>2017-10-21T12:11:05Z</time>
      </trkpt>
      <trkpt lat="49.022" lon="1.14007">
        <ele>187.5</ele>
        <time>2017-10-21T12:11:09Z</time>
      </trkpt>
      <trkpt lat="49.02198" lon="1.14021">
        <ele>186.9</ele>
        <time>2017-10-21T12:11:24Z</time>
      </trkpt>
      <trkpt lat="49.02194" lon="1.14009">
        <ele>187.6</ele>
        <time>2017-10-21T12:30:48Z</time>
      </trkpt>
      <trkpt lat="49.02203" lon="1.14002">
        <ele>187.4</ele>
        <time>2017-10-21T12:31:00Z</time>
      </trkpt>
      <trkpt lat="49.02204" lon="1.13987">
        <ele>187.7</ele>
        <time>2017-10-21T12:31:06Z</time>
      </trkpt>
      <trkpt lat="49.022" lon="1.13973">
        <ele>187.9</ele>
        <time>2017-10-21T12:31:10Z</time>
      </trkpt>
      <trkpt lat="49.0219" lon="1.1398">
        <ele>187.4</ele>
        <time>2017-10-21T12:31:16Z</time>
      </trkpt>
      <trkpt lat="49.02181" lon="1.13987">
        <ele>187.4</ele>
        <time>2017-10-21T12:31:20Z</time>
      </trkpt>
      <trkpt lat="49.02174" lon="1.13999">
        <ele>187.1</ele>
        <time>2017-10-21T12:31:24Z</time>
      </trkpt>
      <trkpt lat="49.02177" lon="1.14012">
        <ele>186.9</ele>
        <time>2017-10-21T12:31:27Z</time>
      </trkpt>
      <trkpt lat="49.02182" lon="1.14025">
        <ele>186.7</ele>
        <time>2017-10-21T12:31:30Z</time>
      </trkpt>
      <trkpt lat="49.02186" lon="1.14037">
        <ele>186.7</ele>
        <time>2017-10-21T12:31:33Z</time>
      </trkpt>
      <trkpt lat="49.02192" lon="1.14053">
        <ele>186.7</ele>
        <time>2017-10-21T12:31:37Z</time>
      </trkpt>
      <trkpt lat="49.02195" lon="1.14068">
        <ele>186.8</ele>
        <time>2017-10-21T12:31:41Z</time>
      </trkpt>
      <trkpt lat="49.02205" lon="1.14069">
        <ele>186.9</ele>
        <time>2017-10-21T12:31:47Z</time>
      </trkpt>
      <trkpt lat="49.02204" lon="1.14084">
        <ele>189</ele>
        <time>2017-10-21T12:32:10Z</time>
      </trkpt>
      <trkpt lat="49.02196" lon="1.14092">
        <ele>189.2</ele>
        <time>2017-10-21T12:32:16Z</time>
      </trkpt>
      <trkpt lat="49.02187" lon="1.14089">
        <ele>189.5</ele>
        <time>2017-10-21T12:32:21Z</time>
      </trkpt>
      <trkpt lat="49.02176" lon="1.14089">
        <ele>189.6</ele>
        <time>2017-10-21T12:32:25Z</time>
      </trkpt>
      <trkpt lat="49.02167" lon="1.14093">
        <ele>189.7</ele>
        <time>2017-10-21T12:32:29Z</time>
      </trkpt>
      <trkpt lat="49.02156" lon="1.14099">
        <ele>189.7</ele>
        <time>2017-10-21T12:32:33Z</time>
      </trkpt>
      <trkpt lat="49.02149" lon="1.14111">
        <ele>189.8</ele>
        <time>2017-10-21T12:32:38Z</time>
      </trkpt>
      <trkpt lat="49.02137" lon="1.14117">
        <ele>189.8</ele>
        <time>2017-10-21T12:32:42Z</time>
      </trkpt>
      <trkpt lat="49.02128" lon="1.1412">
        <ele>189.9</ele>
        <time>2017-10-21T12:32:45Z</time>
      </trkpt>
      <trkpt lat="49.02119" lon="1.14124">
        <ele>189.8</ele>
        <time>2017-10-21T12:32:48Z</time>
      </trkpt>
      <trkpt lat="49.02109" lon="1.14128">
        <ele>189.5</ele>
        <time>2017-10-21T12:32:51Z</time>
      </trkpt>
      <trkpt lat="49.02099" lon="1.14132">
        <ele>189.5</ele>
        <time>2017-10-21T12:32:54Z</time>
      </trkpt>
      <trkpt lat="49.02089" lon="1.14137">
        <ele>189.4</ele>
        <time>2017-10-21T12:32:57Z</time>
      </trkpt>
      <trkpt lat="49.02079" lon="1.14144">
        <ele>189.7</ele>
        <time>2017-10-21T12:33:01Z</time>
      </trkpt>
      <trkpt lat="49.02071" lon="1.14151">
        <ele>189.6</ele>
        <time>2017-10-21T12:33:35Z</time>
      </trkpt>
      <trkpt lat="49.02059" lon="1.14155">
        <ele>189.6</ele>
        <time>2017-10-21T12:33:39Z</time>
      </trkpt>
      <trkpt lat="49.02048" lon="1.14159">
        <ele>189.8</ele>
        <time>2017-10-21T12:33:42Z</time>
      </trkpt>
      <trkpt lat="49.02037" lon="1.14163">
        <ele>189.7</ele>
        <time>2017-10-21T12:33:45Z</time>
      </trkpt>
      <trkpt lat="49.02026" lon="1.14167">
        <ele>190.1</ele>
        <time>2017-10-21T12:33:48Z</time>
      </trkpt>
      <trkpt lat="49.02014" lon="1.14172">
        <ele>190.3</ele>
        <time>2017-10-21T12:33:51Z</time>
      </trkpt>
      <trkpt lat="49.02003" lon="1.14175">
        <ele>190.4</ele>
        <time>2017-10-21T12:33:54Z</time>
      </trkpt>
      <trkpt lat="49.01991" lon="1.1418">
        <ele>190.4</ele>
        <time>2017-10-21T12:33:57Z</time>
      </trkpt>
      <trkpt lat="49.0198" lon="1.14184">
        <ele>190.7</ele>
        <time>2017-10-21T12:34:00Z</time>
      </trkpt>
      <trkpt lat="49.0197" lon="1.14188">
        <ele>190.9</ele>
        <time>2017-10-21T12:34:03Z</time>
      </trkpt>
      <trkpt lat="49.0196" lon="1.14192">
        <ele>191.2</ele>
        <time>2017-10-21T12:34:06Z</time>
      </trkpt>
      <trkpt lat="49.0195" lon="1.14196">
        <ele>191.2</ele>
        <time>2017-10-21T12:34:09Z</time>
      </trkpt>
      <trkpt lat="49.0194" lon="1.142">
        <ele>191.6</ele>
        <time>2017-10-21T12:34:12Z</time>
      </trkpt>
      <trkpt lat="49.0193" lon="1.14204">
        <ele>191.9</ele>
        <time>2017-10-21T12:34:15Z</time>
      </trkpt>
      <trkpt lat="49.01921" lon="1.14209">
        <ele>192.4</ele>
        <time>2017-10-21T12:34:18Z</time>
      </trkpt>
      <trkpt lat="49.01912" lon="1.14215">
        <ele>192.6</ele>
        <time>2017-10-21T12:34:23Z</time>
      </trkpt>
      <trkpt lat="49.01901" lon="1.14217">
        <ele>193.4</ele>
        <time>2017-10-21T12:34:36Z</time>
      </trkpt>
      <trkpt lat="49.01888" lon="1.14226">
        <ele>193.4</ele>
        <time>2017-10-21T12:34:39Z</time>
      </trkpt>
      <trkpt lat="49.01879" lon="1.14233">
        <ele>193.6</ele>
        <time>2017-10-21T12:34:41Z</time>
      </trkpt>
      <trkpt lat="49.01869" lon="1.14239">
        <ele>193.7</ele>
        <time>2017-10-21T12:34:43Z</time>
      </trkpt>
      <trkpt lat="49.01861" lon="1.14244">
        <ele>194</ele>
        <time>2017-10-21T12:34:45Z</time>
      </trkpt>
      <trkpt lat="49.01853" lon="1.14251">
        <ele>194.1</ele>
        <time>2017-10-21T12:34:47Z</time>
      </trkpt>
      <trkpt lat="49.01841" lon="1.14259">
        <ele>194.4</ele>
        <time>2017-10-21T12:34:50Z</time>
      </trkpt>
      <trkpt lat="49.0183" lon="1.14266">
        <ele>194.7</ele>
        <time>2017-10-21T12:34:53Z</time>
      </trkpt>
      <trkpt lat="49.0182" lon="1.14272">
        <ele>195</ele>
        <time>2017-10-21T12:34:56Z</time>
      </trkpt>
      <trkpt lat="49.01808" lon="1.14278">
        <ele>195.2</ele>
        <time>2017-10-21T12:34:59Z</time>
      </trkpt>
      <trkpt lat="49.01796" lon="1.14286">
        <ele>195.2</ele>
        <time>2017-10-21T12:35:02Z</time>
      </trkpt>
      <trkpt lat="49.01785" lon="1.14293">
        <ele>195.3</ele>
        <time>2017-10-21T12:35:05Z</time>
      </trkpt>
      <trkpt lat="49.01774" lon="1.14299">
        <ele>195.6</ele>
        <time>2017-10-21T12:35:08Z</time>
      </trkpt>
      <trkpt lat="49.01764" lon="1.14305">
        <ele>196</ele>
        <time>2017-10-21T12:35:11Z</time>
      </trkpt>
      <trkpt lat="49.01752" lon="1.1431">
        <ele>196.7</ele>
        <time>2017-10-21T12:35:15Z</time>
      </trkpt>
      <trkpt lat="49.01738" lon="1.14316">
        <ele>197</ele>
        <time>2017-10-21T12:35:17Z</time>
      </trkpt>
      <trkpt lat="49.01728" lon="1.14317">
        <ele>197.5</ele>
        <time>2017-10-21T12:35:20Z</time>
      </trkpt>
      <trkpt lat="49.01716" lon="1.14323">
        <ele>198.4</ele>
        <time>2017-10-21T12:35:25Z</time>
      </trkpt>
      <trkpt lat="49.01709" lon="1.14337">
        <ele>198.7</ele>
        <time>2017-10-21T12:35:28Z</time>
      </trkpt>
      <trkpt lat="49.01697" lon="1.14343">
        <ele>199.1</ele>
        <time>2017-10-21T12:35:31Z</time>
      </trkpt>
      <trkpt lat="49.01687" lon="1.14347">
        <ele>199.2</ele>
        <time>2017-10-21T12:35:33Z</time>
      </trkpt>
      <trkpt lat="49.01676" lon="1.14352">
        <ele>199.6</ele>
        <time>2017-10-21T12:35:36Z</time>
      </trkpt>
      <trkpt lat="49.01665" lon="1.14359">
        <ele>200</ele>
        <time>2017-10-21T12:35:39Z</time>
      </trkpt>
      <trkpt lat="49.01657" lon="1.14366">
        <ele>200.3</ele>
        <time>2017-10-21T12:35:42Z</time>
      </trkpt>
      <trkpt lat="49.01648" lon="1.14372">
        <ele>200.9</ele>
        <time>2017-10-21T12:35:45Z</time>
      </trkpt>
      <trkpt lat="49.01639" lon="1.14378">
        <ele>201.5</ele>
        <time>2017-10-21T12:35:48Z</time>
      </trkpt>
      <trkpt lat="49.0163" lon="1.14384">
        <ele>201.7</ele>
        <time>2017-10-21T12:35:51Z</time>
      </trkpt>
      <trkpt lat="49.01621" lon="1.14389">
        <ele>202.3</ele>
        <time>2017-10-21T12:35:54Z</time>
      </trkpt>
      <trkpt lat="49.01612" lon="1.14396">
        <ele>202.9</ele>
        <time>2017-10-21T12:35:57Z</time>
      </trkpt>
      <trkpt lat="49.01601" lon="1.14401">
        <ele>203.3</ele>
        <time>2017-10-21T12:36:00Z</time>
      </trkpt>
      <trkpt lat="49.01592" lon="1.14407">
        <ele>203.8</ele>
        <time>2017-10-21T12:36:03Z</time>
      </trkpt>
      <trkpt lat="49.01583" lon="1.14411">
        <ele>204.5</ele>
        <time>2017-10-21T12:36:06Z</time>
      </trkpt>
      <trkpt lat="49.01574" lon="1.14414">
        <ele>204.9</ele>
        <time>2017-10-21T12:36:09Z</time>
      </trkpt>
      <trkpt lat="49.01562" lon="1.14415">
        <ele>205.5</ele>
        <time>2017-10-21T12:36:13Z</time>
      </trkpt>
      <trkpt lat="49.01552" lon="1.14414">
        <ele>205.9</ele>
        <time>2017-10-21T12:36:16Z</time>
      </trkpt>
      <trkpt lat="49.01543" lon="1.14414">
        <ele>206.3</ele>
        <time>2017-10-21T12:36:19Z</time>
      </trkpt>
      <trkpt lat="49.01533" lon="1.14413">
        <ele>206.7</ele>
        <time>2017-10-21T12:36:22Z</time>
      </trkpt>
      <trkpt lat="49.01525" lon="1.14411">
        <ele>207.2</ele>
        <time>2017-10-21T12:36:25Z</time>
      </trkpt>
      <trkpt lat="49.01513" lon="1.14409">
        <ele>207.9</ele>
        <time>2017-10-21T12:36:29Z</time>
      </trkpt>
      <trkpt lat="49.01502" lon="1.14405">
        <ele>208.5</ele>
        <time>2017-10-21T12:36:33Z</time>
      </trkpt>
      <trkpt lat="49.01491" lon="1.144">
        <ele>209.1</ele>
        <time>2017-10-21T12:36:37Z</time>
      </trkpt>
      <trkpt lat="49.0148" lon="1.14395">
        <ele>209.6</ele>
        <time>2017-10-21T12:36:41Z</time>
      </trkpt>
      <trkpt lat="49.0147" lon="1.14389">
        <ele>210.1</ele>
        <time>2017-10-21T12:36:45Z</time>
      </trkpt>
      <trkpt lat="49.01461" lon="1.14381">
        <ele>210.9</ele>
        <time>2017-10-21T12:36:49Z</time>
      </trkpt>
      <trkpt lat="49.01451" lon="1.14371">
        <ele>211.3</ele>
        <time>2017-10-21T12:36:53Z</time>
      </trkpt>
      <trkpt lat="49.01441" lon="1.1436">
        <ele>211.9</ele>
        <time>2017-10-21T12:36:57Z</time>
      </trkpt>
      <trkpt lat="49.01432" lon="1.14349">
        <ele>212.6</ele>
        <time>2017-10-21T12:37:01Z</time>
      </trkpt>
      <trkpt lat="49.01425" lon="1.1434">
        <ele>213.1</ele>
        <time>2017-10-21T12:37:04Z</time>
      </trkpt>
      <trkpt lat="49.01418" lon="1.14331">
        <ele>213.5</ele>
        <time>2017-10-21T12:37:07Z</time>
      </trkpt>
      <trkpt lat="49.01411" lon="1.14322">
        <ele>213.8</ele>
        <time>2017-10-21T12:37:10Z</time>
      </trkpt>
      <trkpt lat="49.01404" lon="1.14313">
        <ele>214.2</ele>
        <time>2017-10-21T12:37:13Z</time>
      </trkpt>
      <trkpt lat="49.01395" lon="1.14301">
        <ele>214.6</ele>
        <time>2017-10-21T12:37:17Z</time>
      </trkpt>
      <trkpt lat="49.01388" lon="1.14293">
        <ele>214.8</ele>
        <time>2017-10-21T12:37:20Z</time>
      </trkpt>
      <trkpt lat="49.0138" lon="1.14284">
        <ele>215.2</ele>
        <time>2017-10-21T12:37:23Z</time>
      </trkpt>
      <trkpt lat="49.01373" lon="1.14274">
        <ele>215.5</ele>
        <time>2017-10-21T12:37:26Z</time>
      </trkpt>
      <trkpt lat="49.01366" lon="1.14265">
        <ele>215.9</ele>
        <time>2017-10-21T12:37:29Z</time>
      </trkpt>
      <trkpt lat="49.01358" lon="1.14256">
        <ele>216.2</ele>
        <time>2017-10-21T12:37:32Z</time>
      </trkpt>
      <trkpt lat="49.01351" lon="1.14246">
        <ele>216.5</ele>
        <time>2017-10-21T12:37:35Z</time>
      </trkpt>
      <trkpt lat="49.01343" lon="1.14237">
        <ele>216.9</ele>
        <time>2017-10-21T12:37:38Z</time>
      </trkpt>
      <trkpt lat="49.01335" lon="1.14228">
        <ele>217.1</ele>
        <time>2017-10-21T12:37:41Z</time>
      </trkpt>
      <trkpt lat="49.01327" lon="1.1422">
        <ele>217.5</ele>
        <time>2017-10-21T12:37:44Z</time>
      </trkpt>
      <trkpt lat="49.01319" lon="1.14212">
        <ele>217.9</ele>
        <time>2017-10-21T12:37:47Z</time>
      </trkpt>
      <trkpt lat="49.0131" lon="1.14204">
        <ele>218.3</ele>
        <time>2017-10-21T12:37:50Z</time>
      </trkpt>
      <trkpt lat="49.01302" lon="1.14197">
        <ele>218.6</ele>
        <time>2017-10-21T12:37:53Z</time>
      </trkpt>
      <trkpt lat="49.01293" lon="1.1419">
        <ele>218.8</ele>
        <time>2017-10-21T12:37:56Z</time>
      </trkpt>
      <trkpt lat="49.01284" lon="1.14185">
        <ele>219</ele>
        <time>2017-10-21T12:37:59Z</time>
      </trkpt>
      <trkpt lat="49.01275" lon="1.14179">
        <ele>219.4</ele>
        <time>2017-10-21T12:38:02Z</time>
      </trkpt>
      <trkpt lat="49.01266" lon="1.14175">
        <ele>219.7</ele>
        <time>2017-10-21T12:38:05Z</time>
      </trkpt>
      <trkpt lat="49.01256" lon="1.1417">
        <ele>220.2</ele>
        <time>2017-10-21T12:38:08Z</time>
      </trkpt>
      <trkpt lat="49.01245" lon="1.14166">
        <ele>220.5</ele>
        <time>2017-10-21T12:38:11Z</time>
      </trkpt>
      <trkpt lat="49.01235" lon="1.14163">
        <ele>220.8</ele>
        <time>2017-10-21T12:38:14Z</time>
      </trkpt>
      <trkpt lat="49.01225" lon="1.14161">
        <ele>221</ele>
        <time>2017-10-21T12:38:17Z</time>
      </trkpt>
      <trkpt lat="49.01215" lon="1.14159">
        <ele>221.4</ele>
        <time>2017-10-21T12:38:20Z</time>
      </trkpt>
      <trkpt lat="49.01204" lon="1.14158">
        <ele>221.6</ele>
        <time>2017-10-21T12:38:23Z</time>
      </trkpt>
      <trkpt lat="49.01194" lon="1.14157">
        <ele>222</ele>
        <time>2017-10-21T12:38:26Z</time>
      </trkpt>
      <trkpt lat="49.01183" lon="1.14158">
        <ele>222.3</ele>
        <time>2017-10-21T12:38:29Z</time>
      </trkpt>
      <trkpt lat="49.01173" lon="1.14159">
        <ele>222.6</ele>
        <time>2017-10-21T12:38:32Z</time>
      </trkpt>
      <trkpt lat="49.01163" lon="1.1416">
        <ele>222.9</ele>
        <time>2017-10-21T12:38:35Z</time>
      </trkpt>
      <trkpt lat="49.01153" lon="1.14163">
        <ele>223.2</ele>
        <time>2017-10-21T12:38:38Z</time>
      </trkpt>
      <trkpt lat="49.01143" lon="1.14166">
        <ele>223.4</ele>
        <time>2017-10-21T12:38:41Z</time>
      </trkpt>
      <trkpt lat="49.01133" lon="1.14169">
        <ele>223.6</ele>
        <time>2017-10-21T12:38:44Z</time>
      </trkpt>
      <trkpt lat="49.01123" lon="1.14174">
        <ele>223.9</ele>
        <time>2017-10-21T12:38:47Z</time>
      </trkpt>
      <trkpt lat="49.01113" lon="1.14179">
        <ele>224.1</ele>
        <time>2017-10-21T12:38:50Z</time>
      </trkpt>
      <trkpt lat="49.01103" lon="1.14185">
        <ele>224.4</ele>
        <time>2017-10-21T12:38:53Z</time>
      </trkpt>
      <trkpt lat="49.01093" lon="1.14191">
        <ele>224.5</ele>
        <time>2017-10-21T12:38:56Z</time>
      </trkpt>
      <trkpt lat="49.01084" lon="1.14198">
        <ele>224.7</ele>
        <time>2017-10-21T12:38:59Z</time>
      </trkpt>
      <trkpt lat="49.01075" lon="1.14205">
        <ele>225</ele>
        <time>2017-10-21T12:39:02Z</time>
      </trkpt>
      <trkpt lat="49.01065" lon="1.14212">
        <ele>225.2</ele>
        <time>2017-10-21T12:39:05Z</time>
      </trkpt>
      <trkpt lat="49.01055" lon="1.1422">
        <ele>225.5</ele>
        <time>2017-10-21T12:39:08Z</time>
      </trkpt>
      <trkpt lat="49.01045" lon="1.14226">
        <ele>226.1</ele>
        <time>2017-10-21T12:39:11Z</time>
      </trkpt>
      <trkpt lat="49.01037" lon="1.14233">
        <ele>226.5</ele>
        <time>2017-10-21T12:39:14Z</time>
      </trkpt>
      <trkpt lat="49.01028" lon="1.14239">
        <ele>226.9</ele>
        <time>2017-10-21T12:39:17Z</time>
      </trkpt>
      <trkpt lat="49.01018" lon="1.14246">
        <ele>227.3</ele>
        <time>2017-10-21T12:39:20Z</time>
      </trkpt>
      <trkpt lat="49.01009" lon="1.14252">
        <ele>227.8</ele>
        <time>2017-10-21T12:39:23Z</time>
      </trkpt>
      <trkpt lat="49.01" lon="1.14259">
        <ele>228.3</ele>
        <time>2017-10-21T12:39:26Z</time>
      </trkpt>
      <trkpt lat="49.00991" lon="1.14265">
        <ele>228.6</ele>
        <time>2017-10-21T12:39:29Z</time>
      </trkpt>
      <trkpt lat="49.00981" lon="1.14271">
        <ele>229.1</ele>
        <time>2017-10-21T12:39:32Z</time>
      </trkpt>
      <trkpt lat="49.00972" lon="1.14277">
        <ele>229.5</ele>
        <time>2017-10-21T12:39:35Z</time>
      </trkpt>
      <trkpt lat="49.00962" lon="1.14284">
        <ele>229.7</ele>
        <time>2017-10-21T12:39:38Z</time>
      </trkpt>
      <trkpt lat="49.00953" lon="1.14289">
        <ele>230.1</ele>
        <time>2017-10-21T12:39:41Z</time>
      </trkpt>
      <trkpt lat="49.00945" lon="1.14295">
        <ele>230.6</ele>
        <time>2017-10-21T12:39:44Z</time>
      </trkpt>
      <trkpt lat="49.00934" lon="1.14302">
        <ele>231.2</ele>
        <time>2017-10-21T12:39:48Z</time>
      </trkpt>
      <trkpt lat="49.00923" lon="1.14308">
        <ele>231.7</ele>
        <time>2017-10-21T12:39:52Z</time>
      </trkpt>
      <trkpt lat="49.00914" lon="1.14312">
        <ele>232.1</ele>
        <time>2017-10-21T12:39:55Z</time>
      </trkpt>
      <trkpt lat="49.00904" lon="1.14317">
        <ele>233.1</ele>
        <time>2017-10-21T12:39:59Z</time>
      </trkpt>
      <trkpt lat="49.00893" lon="1.14321">
        <ele>233.8</ele>
        <time>2017-10-21T12:40:03Z</time>
      </trkpt>
      <trkpt lat="49.00883" lon="1.14325">
        <ele>234.5</ele>
        <time>2017-10-21T12:40:07Z</time>
      </trkpt>
      <trkpt lat="49.00872" lon="1.14328">
        <ele>235.2</ele>
        <time>2017-10-21T12:40:11Z</time>
      </trkpt>
      <trkpt lat="49.00862" lon="1.1433">
        <ele>235.8</ele>
        <time>2017-10-21T12:40:14Z</time>
      </trkpt>
      <trkpt lat="49.00852" lon="1.14334">
        <ele>236.8</ele>
        <time>2017-10-21T12:40:18Z</time>
      </trkpt>
      <trkpt lat="49.00841" lon="1.14338">
        <ele>237.4</ele>
        <time>2017-10-21T12:40:22Z</time>
      </trkpt>
      <trkpt lat="49.00832" lon="1.1434">
        <ele>237.8</ele>
        <time>2017-10-21T12:40:25Z</time>
      </trkpt>
      <trkpt lat="49.0082" lon="1.1434">
        <ele>238.5</ele>
        <time>2017-10-21T12:40:29Z</time>
      </trkpt>
      <trkpt lat="49.00809" lon="1.14338">
        <ele>239.1</ele>
        <time>2017-10-21T12:40:33Z</time>
      </trkpt>
      <trkpt lat="49.00798" lon="1.1434">
        <ele>239.5</ele>
        <time>2017-10-21T12:40:37Z</time>
      </trkpt>
      <trkpt lat="49.00788" lon="1.14341">
        <ele>240.1</ele>
        <time>2017-10-21T12:40:41Z</time>
      </trkpt>
      <trkpt lat="49.00777" lon="1.14346">
        <ele>241.3</ele>
        <time>2017-10-21T12:40:46Z</time>
      </trkpt>
      <trkpt lat="49.00768" lon="1.14349">
        <ele>242.2</ele>
        <time>2017-10-21T12:40:50Z</time>
      </trkpt>
      <trkpt lat="49.00758" lon="1.14352">
        <ele>242.6</ele>
        <time>2017-10-21T12:40:54Z</time>
      </trkpt>
      <trkpt lat="49.00749" lon="1.14353">
        <ele>243.3</ele>
        <time>2017-10-21T12:40:58Z</time>
      </trkpt>
      <trkpt lat="49.00738" lon="1.14355">
        <ele>243.8</ele>
        <time>2017-10-21T12:41:02Z</time>
      </trkpt>
      <trkpt lat="49.00728" lon="1.14356">
        <ele>244.1</ele>
        <time>2017-10-21T12:41:06Z</time>
      </trkpt>
      <trkpt lat="49.00718" lon="1.14357">
        <ele>244.7</ele>
        <time>2017-10-21T12:41:10Z</time>
      </trkpt>
      <trkpt lat="49.00708" lon="1.14359">
        <ele>245.3</ele>
        <time>2017-10-21T12:41:14Z</time>
      </trkpt>
      <trkpt lat="49.00697" lon="1.14361">
        <ele>245.9</ele>
        <time>2017-10-21T12:41:18Z</time>
      </trkpt>
      <trkpt lat="49.00687" lon="1.14363">
        <ele>246.4</ele>
        <time>2017-10-21T12:41:22Z</time>
      </trkpt>
      <trkpt lat="49.00677" lon="1.14368">
        <ele>247.2</ele>
        <time>2017-10-21T12:41:26Z</time>
      </trkpt>
      <trkpt lat="49.00667" lon="1.14375">
        <ele>247.8</ele>
        <time>2017-10-21T12:41:30Z</time>
      </trkpt>
      <trkpt lat="49.00657" lon="1.14383">
        <ele>248.2</ele>
        <time>2017-10-21T12:41:34Z</time>
      </trkpt>
      <trkpt lat="49.00646" lon="1.14389">
        <ele>248.3</ele>
        <time>2017-10-21T12:41:38Z</time>
      </trkpt>
      <trkpt lat="49.00639" lon="1.14399">
        <ele>248.5</ele>
        <time>2017-10-21T12:41:42Z</time>
      </trkpt>
      <trkpt lat="49.00641" lon="1.14417">
        <ele>248.4</ele>
        <time>2017-10-21T12:41:46Z</time>
      </trkpt>
      <trkpt lat="49.00635" lon="1.14406">
        <ele>248.7</ele>
        <time>2017-10-21T12:41:59Z</time>
      </trkpt>
      <trkpt lat="49.00632" lon="1.14392">
        <ele>248.4</ele>
        <time>2017-10-21T12:45:38Z</time>
      </trkpt>
      <trkpt lat="49.00629" lon="1.14377">
        <ele>248.4</ele>
        <time>2017-10-21T12:45:42Z</time>
      </trkpt>
      <trkpt lat="49.00625" lon="1.14362">
        <ele>248.3</ele>
        <time>2017-10-21T12:45:45Z</time>
      </trkpt>
      <trkpt lat="49.00622" lon="1.14347">
        <ele>248.1</ele>
        <time>2017-10-21T12:45:48Z</time>
      </trkpt>
      <trkpt lat="49.00619" lon="1.14331">
        <ele>247.9</ele>
        <time>2017-10-21T12:45:51Z</time>
      </trkpt>
      <trkpt lat="49.00615" lon="1.14316">
        <ele>247.8</ele>
        <time>2017-10-21T12:45:54Z</time>
      </trkpt>
      <trkpt lat="49.00611" lon="1.143">
        <ele>247.9</ele>
        <time>2017-10-21T12:45:57Z</time>
      </trkpt>
      <trkpt lat="49.00607" lon="1.14284">
        <ele>247.8</ele>
        <time>2017-10-21T12:46:00Z</time>
      </trkpt>
      <trkpt lat="49.00602" lon="1.14267">
        <ele>247.8</ele>
        <time>2017-10-21T12:46:03Z</time>
      </trkpt>
      <trkpt lat="49.00599" lon="1.1425">
        <ele>247.8</ele>
        <time>2017-10-21T12:46:06Z</time>
      </trkpt>
      <trkpt lat="49.00594" lon="1.14233">
        <ele>247.8</ele>
        <time>2017-10-21T12:46:09Z</time>
      </trkpt>
      <trkpt lat="49.0059" lon="1.14216">
        <ele>247.8</ele>
        <time>2017-10-21T12:46:12Z</time>
      </trkpt>
      <trkpt lat="49.00586" lon="1.142">
        <ele>247.7</ele>
        <time>2017-10-21T12:46:15Z</time>
      </trkpt>
      <trkpt lat="49.00581" lon="1.14184">
        <ele>247.5</ele>
        <time>2017-10-21T12:46:18Z</time>
      </trkpt>
      <trkpt lat="49.00577" lon="1.14168">
        <ele>247.5</ele>
        <time>2017-10-21T12:46:21Z</time>
      </trkpt>
      <trkpt lat="49.00572" lon="1.14151">
        <ele>247.8</ele>
        <time>2017-10-21T12:46:24Z</time>
      </trkpt>
      <trkpt lat="49.00567" lon="1.14135">
        <ele>248.1</ele>
        <time>2017-10-21T12:46:27Z</time>
      </trkpt>
      <trkpt lat="49.00564" lon="1.14119">
        <ele>248.1</ele>
        <time>2017-10-21T12:46:30Z</time>
      </trkpt>
      <trkpt lat="49.00566" lon="1.14102">
        <ele>247.9</ele>
        <time>2017-10-21T12:46:33Z</time>
      </trkpt>
      <trkpt lat="49.00569" lon="1.14088">
        <ele>247.9</ele>
        <time>2017-10-21T12:46:36Z</time>
      </trkpt>
      <trkpt lat="49.00564" lon="1.14074">
        <ele>247.4</ele>
        <time>2017-10-21T12:46:40Z</time>
      </trkpt>
      <trkpt lat="49.00566" lon="1.1406">
        <ele>247</ele>
        <time>2017-10-21T12:46:43Z</time>
      </trkpt>
      <trkpt lat="49.00574" lon="1.1405">
        <ele>246.4</ele>
        <time>2017-10-21T12:46:48Z</time>
      </trkpt>
      <trkpt lat="49.00584" lon="1.14045">
        <ele>245.6</ele>
        <time>2017-10-21T12:46:53Z</time>
      </trkpt>
      <trkpt lat="49.00593" lon="1.14046">
        <ele>245.6</ele>
        <time>2017-10-21T12:46:56Z</time>
      </trkpt>
      <trkpt lat="49.00602" lon="1.14038">
        <ele>245.6</ele>
        <time>2017-10-21T12:46:59Z</time>
      </trkpt>
      <trkpt lat="49.00609" lon="1.14029">
        <ele>245.3</ele>
        <time>2017-10-21T12:47:03Z</time>
      </trkpt>
      <trkpt lat="49.00614" lon="1.14015">
        <ele>245.1</ele>
        <time>2017-10-21T12:47:06Z</time>
      </trkpt>
      <trkpt lat="49.0062" lon="1.14">
        <ele>244.9</ele>
        <time>2017-10-21T12:47:09Z</time>
      </trkpt>
      <trkpt lat="49.00627" lon="1.13985">
        <ele>244.7</ele>
        <time>2017-10-21T12:47:12Z</time>
      </trkpt>
      <trkpt lat="49.00622" lon="1.13971">
        <ele>244.3</ele>
        <time>2017-10-21T12:47:17Z</time>
      </trkpt>
      <trkpt lat="49.00617" lon="1.13955">
        <ele>244.4</ele>
        <time>2017-10-21T12:47:21Z</time>
      </trkpt>
      <trkpt lat="49.00615" lon="1.13938">
        <ele>244.3</ele>
        <time>2017-10-21T12:47:25Z</time>
      </trkpt>
      <trkpt lat="49.00612" lon="1.13921">
        <ele>243.5</ele>
        <time>2017-10-21T12:47:29Z</time>
      </trkpt>
      <trkpt lat="49.00609" lon="1.13906">
        <ele>243.1</ele>
        <time>2017-10-21T12:47:34Z</time>
      </trkpt>
      <trkpt lat="49.00612" lon="1.13893">
        <ele>243.2</ele>
        <time>2017-10-21T12:47:38Z</time>
      </trkpt>
      <trkpt lat="49.00621" lon="1.13895">
        <ele>243.7</ele>
        <time>2017-10-21T12:47:46Z</time>
      </trkpt>
      <trkpt lat="49.00629" lon="1.13905">
        <ele>243.6</ele>
        <time>2017-10-21T12:47:50Z</time>
      </trkpt>
      <trkpt lat="49.00637" lon="1.13913">
        <ele>243.4</ele>
        <time>2017-10-21T12:47:55Z</time>
      </trkpt>
      <trkpt lat="49.00645" lon="1.13907">
        <ele>243.1</ele>
        <time>2017-10-21T12:47:59Z</time>
      </trkpt>
      <trkpt lat="49.00651" lon="1.13891">
        <ele>242.7</ele>
        <time>2017-10-21T12:48:03Z</time>
      </trkpt>
      <trkpt lat="49.00658" lon="1.13876">
        <ele>242.6</ele>
        <time>2017-10-21T12:48:06Z</time>
      </trkpt>
      <trkpt lat="49.0067" lon="1.13871">
        <ele>242.5</ele>
        <time>2017-10-21T12:48:10Z</time>
      </trkpt>
      <trkpt lat="49.00678" lon="1.13882">
        <ele>242</ele>
        <time>2017-10-21T12:48:13Z</time>
      </trkpt>
      <trkpt lat="49.00689" lon="1.13887">
        <ele>241.7</ele>
        <time>2017-10-21T12:48:17Z</time>
      </trkpt>
      <trkpt lat="49.00698" lon="1.13881">
        <ele>241.7</ele>
        <time>2017-10-21T12:48:20Z</time>
      </trkpt>
      <trkpt lat="49.00708" lon="1.1388">
        <ele>241.8</ele>
        <time>2017-10-21T12:48:25Z</time>
      </trkpt>
      <trkpt lat="49.00719" lon="1.13879">
        <ele>242.2</ele>
        <time>2017-10-21T12:48:29Z</time>
      </trkpt>
      <trkpt lat="49.00731" lon="1.13878">
        <ele>242.6</ele>
        <time>2017-10-21T12:48:33Z</time>
      </trkpt>
      <trkpt lat="49.00741" lon="1.13882">
        <ele>242.8</ele>
        <time>2017-10-21T12:48:36Z</time>
      </trkpt>
      <trkpt lat="49.00754" lon="1.13881">
        <ele>243.1</ele>
        <time>2017-10-21T12:48:40Z</time>
      </trkpt>
      <trkpt lat="49.00766" lon="1.13881">
        <ele>243.3</ele>
        <time>2017-10-21T12:48:43Z</time>
      </trkpt>
      <trkpt lat="49.00774" lon="1.13877">
        <ele>243.3</ele>
        <time>2017-10-21T12:48:46Z</time>
      </trkpt>
      <trkpt lat="49.00783" lon="1.13865">
        <ele>243</ele>
        <time>2017-10-21T12:48:50Z</time>
      </trkpt>
      <trkpt lat="49.00785" lon="1.13849">
        <ele>243.5</ele>
        <time>2017-10-21T12:48:54Z</time>
      </trkpt>
      <trkpt lat="49.00782" lon="1.13833">
        <ele>244</ele>
        <time>2017-10-21T12:48:57Z</time>
      </trkpt>
      <trkpt lat="49.00778" lon="1.13819">
        <ele>244.2</ele>
        <time>2017-10-21T12:49:00Z</time>
      </trkpt>
      <trkpt lat="49.00776" lon="1.13804">
        <ele>244.1</ele>
        <time>2017-10-21T12:49:03Z</time>
      </trkpt>
      <trkpt lat="49.00778" lon="1.13789">
        <ele>243.7</ele>
        <time>2017-10-21T12:49:13Z</time>
      </trkpt>
      <trkpt lat="49.00787" lon="1.13781">
        <ele>244.5</ele>
        <time>2017-10-21T12:49:17Z</time>
      </trkpt>
      <trkpt lat="49.00795" lon="1.13772">
        <ele>245.2</ele>
        <time>2017-10-21T12:49:21Z</time>
      </trkpt>
      <trkpt lat="49.00806" lon="1.13765">
        <ele>245.3</ele>
        <time>2017-10-21T12:49:26Z</time>
      </trkpt>
      <trkpt lat="49.00816" lon="1.13763">
        <ele>245.2</ele>
        <time>2017-10-21T12:49:30Z</time>
      </trkpt>
      <trkpt lat="49.00827" lon="1.13765">
        <ele>245.7</ele>
        <time>2017-10-21T12:49:34Z</time>
      </trkpt>
      <trkpt lat="49.00837" lon="1.13765">
        <ele>246.4</ele>
        <time>2017-10-21T12:49:39Z</time>
      </trkpt>
      <trkpt lat="49.00847" lon="1.13764">
        <ele>246.2</ele>
        <time>2017-10-21T12:49:44Z</time>
      </trkpt>
      <trkpt lat="49.00856" lon="1.13765">
        <ele>245.9</ele>
        <time>2017-10-21T12:49:49Z</time>
      </trkpt>
      <trkpt lat="49.00866" lon="1.13766">
        <ele>246.1</ele>
        <time>2017-10-21T12:49:53Z</time>
      </trkpt>
      <trkpt lat="49.00876" lon="1.13768">
        <ele>245.6</ele>
        <time>2017-10-21T12:49:57Z</time>
      </trkpt>
      <trkpt lat="49.00885" lon="1.13761">
        <ele>245.6</ele>
        <time>2017-10-21T12:50:01Z</time>
      </trkpt>
      <trkpt lat="49.00895" lon="1.13758">
        <ele>245.6</ele>
        <time>2017-10-21T12:50:04Z</time>
      </trkpt>
      <trkpt lat="49.00904" lon="1.13756">
        <ele>245.7</ele>
        <time>2017-10-21T12:50:07Z</time>
      </trkpt>
      <trkpt lat="49.00917" lon="1.13757">
        <ele>246.1</ele>
        <time>2017-10-21T12:50:10Z</time>
      </trkpt>
      <trkpt lat="49.00927" lon="1.13759">
        <ele>246.1</ele>
        <time>2017-10-21T12:50:13Z</time>
      </trkpt>
      <trkpt lat="49.00936" lon="1.13759">
        <ele>245.9</ele>
        <time>2017-10-21T12:50:16Z</time>
      </trkpt>
      <trkpt lat="49.00945" lon="1.13753">
        <ele>245.5</ele>
        <time>2017-10-21T12:50:20Z</time>
      </trkpt>
      <trkpt lat="49.00953" lon="1.13747">
        <ele>245.2</ele>
        <time>2017-10-21T12:50:23Z</time>
      </trkpt>
      <trkpt lat="49.00966" lon="1.13745">
        <ele>245</ele>
        <time>2017-10-21T12:50:27Z</time>
      </trkpt>
      <trkpt lat="49.00978" lon="1.13745">
        <ele>244.8</ele>
        <time>2017-10-21T12:50:30Z</time>
      </trkpt>
      <trkpt lat="49.00988" lon="1.13745">
        <ele>244.6</ele>
        <time>2017-10-21T12:50:32Z</time>
      </trkpt>
      <trkpt lat="49.01" lon="1.13741">
        <ele>244.9</ele>
        <time>2017-10-21T12:50:35Z</time>
      </trkpt>
      <trkpt lat="49.01009" lon="1.13733">
        <ele>244.9</ele>
        <time>2017-10-21T12:50:38Z</time>
      </trkpt>
      <trkpt lat="49.01018" lon="1.13726">
        <ele>245</ele>
        <time>2017-10-21T12:50:41Z</time>
      </trkpt>
      <trkpt lat="49.01026" lon="1.13713">
        <ele>245.1</ele>
        <time>2017-10-21T12:50:45Z</time>
      </trkpt>
      <trkpt lat="49.01034" lon="1.13702">
        <ele>245.2</ele>
        <time>2017-10-21T12:50:49Z</time>
      </trkpt>
      <trkpt lat="49.0103" lon="1.13685">
        <ele>245.5</ele>
        <time>2017-10-21T12:50:53Z</time>
      </trkpt>
      <trkpt lat="49.01028" lon="1.13672">
        <ele>246.7</ele>
        <time>2017-10-21T12:50:56Z</time>
      </trkpt>
      <trkpt lat="49.01025" lon="1.13656">
        <ele>247.1</ele>
        <time>2017-10-21T12:51:00Z</time>
      </trkpt>
      <trkpt lat="49.01023" lon="1.13642">
        <ele>247.3</ele>
        <time>2017-10-21T12:51:53Z</time>
      </trkpt>
      <trkpt lat="49.0103" lon="1.13632">
        <ele>246.6</ele>
        <time>2017-10-21T12:52:14Z</time>
      </trkpt>
      <trkpt lat="49.01037" lon="1.13623">
        <ele>247</ele>
        <time>2017-10-21T12:52:17Z</time>
      </trkpt>
      <trkpt lat="49.01042" lon="1.13608">
        <ele>247.5</ele>
        <time>2017-10-21T12:52:20Z</time>
      </trkpt>
      <trkpt lat="49.01048" lon="1.13594">
        <ele>247.6</ele>
        <time>2017-10-21T12:52:23Z</time>
      </trkpt>
      <trkpt lat="49.01055" lon="1.13579">
        <ele>247.4</ele>
        <time>2017-10-21T12:52:27Z</time>
      </trkpt>
      <trkpt lat="49.01062" lon="1.13564">
        <ele>247.2</ele>
        <time>2017-10-21T12:52:30Z</time>
      </trkpt>
      <trkpt lat="49.01067" lon="1.13551">
        <ele>247.2</ele>
        <time>2017-10-21T12:52:33Z</time>
      </trkpt>
      <trkpt lat="49.01074" lon="1.13537">
        <ele>247.3</ele>
        <time>2017-10-21T12:52:36Z</time>
      </trkpt>
      <trkpt lat="49.01083" lon="1.13524">
        <ele>247.7</ele>
        <time>2017-10-21T12:52:39Z</time>
      </trkpt>
      <trkpt lat="49.01092" lon="1.13511">
        <ele>247.6</ele>
        <time>2017-10-21T12:52:42Z</time>
      </trkpt>
      <trkpt lat="49.01098" lon="1.13496">
        <ele>247.6</ele>
        <time>2017-10-21T12:52:45Z</time>
      </trkpt>
      <trkpt lat="49.011" lon="1.1348">
        <ele>247.8</ele>
        <time>2017-10-21T12:52:48Z</time>
      </trkpt>
      <trkpt lat="49.01103" lon="1.13465">
        <ele>248.1</ele>
        <time>2017-10-21T12:52:51Z</time>
      </trkpt>
      <trkpt lat="49.01107" lon="1.13449">
        <ele>248.7</ele>
        <time>2017-10-21T12:52:54Z</time>
      </trkpt>
      <trkpt lat="49.01111" lon="1.13432">
        <ele>248.5</ele>
        <time>2017-10-21T12:52:57Z</time>
      </trkpt>
      <trkpt lat="49.01117" lon="1.13415">
        <ele>248.2</ele>
        <time>2017-10-21T12:53:00Z</time>
      </trkpt>
      <trkpt lat="49.01127" lon="1.13404">
        <ele>248</ele>
        <time>2017-10-21T12:53:03Z</time>
      </trkpt>
      <trkpt lat="49.01136" lon="1.13404">
        <ele>247.8</ele>
        <time>2017-10-21T12:53:06Z</time>
      </trkpt>
      <trkpt lat="49.01147" lon="1.13403">
        <ele>247.5</ele>
        <time>2017-10-21T12:53:10Z</time>
      </trkpt>
      <trkpt lat="49.01152" lon="1.1339">
        <ele>247.5</ele>
        <time>2017-10-21T12:53:13Z</time>
      </trkpt>
      <trkpt lat="49.01157" lon="1.13377">
        <ele>247.8</ele>
        <time>2017-10-21T12:53:16Z</time>
      </trkpt>
      <trkpt lat="49.01162" lon="1.13363">
        <ele>247.2</ele>
        <time>2017-10-21T12:53:19Z</time>
      </trkpt>
      <trkpt lat="49.01163" lon="1.13346">
        <ele>246.7</ele>
        <time>2017-10-21T12:53:23Z</time>
      </trkpt>
      <trkpt lat="49.01165" lon="1.13332">
        <ele>246.2</ele>
        <time>2017-10-21T12:53:27Z</time>
      </trkpt>
      <trkpt lat="49.01164" lon="1.13318">
        <ele>245.8</ele>
        <time>2017-10-21T12:53:31Z</time>
      </trkpt>
      <trkpt lat="49.01167" lon="1.13303">
        <ele>245.4</ele>
        <time>2017-10-21T12:53:34Z</time>
      </trkpt>
      <trkpt lat="49.01167" lon="1.13289">
        <ele>245.2</ele>
        <time>2017-10-21T12:53:38Z</time>
      </trkpt>
      <trkpt lat="49.01173" lon="1.13277">
        <ele>245.1</ele>
        <time>2017-10-21T12:53:43Z</time>
      </trkpt>
      <trkpt lat="49.0118" lon="1.13268">
        <ele>245</ele>
        <time>2017-10-21T12:53:46Z</time>
      </trkpt>
      <trkpt lat="49.0118" lon="1.13253">
        <ele>245</ele>
        <time>2017-10-21T12:53:49Z</time>
      </trkpt>
      <trkpt lat="49.0118" lon="1.13239">
        <ele>244.7</ele>
        <time>2017-10-21T12:53:54Z</time>
      </trkpt>
      <trkpt lat="49.01172" lon="1.13231">
        <ele>244.3</ele>
        <time>2017-10-21T12:53:59Z</time>
      </trkpt>
      <trkpt lat="49.01171" lon="1.13216">
        <ele>244.3</ele>
        <time>2017-10-21T12:54:04Z</time>
      </trkpt>
      <trkpt lat="49.01175" lon="1.13199">
        <ele>244.3</ele>
        <time>2017-10-21T12:54:08Z</time>
      </trkpt>
      <trkpt lat="49.01173" lon="1.13183">
        <ele>244.3</ele>
        <time>2017-10-21T12:54:12Z</time>
      </trkpt>
      <trkpt lat="49.01172" lon="1.13168">
        <ele>244.2</ele>
        <time>2017-10-21T12:54:16Z</time>
      </trkpt>
      <trkpt lat="49.01164" lon="1.13155">
        <ele>244.4</ele>
        <time>2017-10-21T12:54:20Z</time>
      </trkpt>
      <trkpt lat="49.01159" lon="1.13141">
        <ele>244.5</ele>
        <time>2017-10-21T12:54:24Z</time>
      </trkpt>
      <trkpt lat="49.01155" lon="1.13128">
        <ele>244.2</ele>
        <time>2017-10-21T12:54:28Z</time>
      </trkpt>
      <trkpt lat="49.01146" lon="1.13118">
        <ele>243.1</ele>
        <time>2017-10-21T12:54:33Z</time>
      </trkpt>
      <trkpt lat="49.01136" lon="1.1311">
        <ele>242.7</ele>
        <time>2017-10-21T12:54:38Z</time>
      </trkpt>
      <trkpt lat="49.01128" lon="1.131">
        <ele>242.7</ele>
        <time>2017-10-21T12:54:41Z</time>
      </trkpt>
      <trkpt lat="49.01121" lon="1.13088">
        <ele>242.9</ele>
        <time>2017-10-21T12:54:44Z</time>
      </trkpt>
      <trkpt lat="49.0111" lon="1.13077">
        <ele>243.5</ele>
        <time>2017-10-21T12:54:48Z</time>
      </trkpt>
      <trkpt lat="49.01101" lon="1.13076">
        <ele>244</ele>
        <time>2017-10-21T12:54:51Z</time>
      </trkpt>
      <trkpt lat="49.01091" lon="1.13071">
        <ele>244.3</ele>
        <time>2017-10-21T12:54:55Z</time>
      </trkpt>
      <trkpt lat="49.01088" lon="1.13057">
        <ele>244.5</ele>
        <time>2017-10-21T12:54:59Z</time>
      </trkpt>
      <trkpt lat="49.01085" lon="1.1304">
        <ele>245</ele>
        <time>2017-10-21T12:55:04Z</time>
      </trkpt>
      <trkpt lat="49.0108" lon="1.13028">
        <ele>245.6</ele>
        <time>2017-10-21T12:55:10Z</time>
      </trkpt>
      <trkpt lat="49.01074" lon="1.13017">
        <ele>245.4</ele>
        <time>2017-10-21T12:55:18Z</time>
      </trkpt>
      <trkpt lat="49.01069" lon="1.13003">
        <ele>245.8</ele>
        <time>2017-10-21T12:55:22Z</time>
      </trkpt>
      <trkpt lat="49.01064" lon="1.12987">
        <ele>246.1</ele>
        <time>2017-10-21T12:55:26Z</time>
      </trkpt>
      <trkpt lat="49.0106" lon="1.12972">
        <ele>246.5</ele>
        <time>2017-10-21T12:55:30Z</time>
      </trkpt>
      <trkpt lat="49.01055" lon="1.12957">
        <ele>247</ele>
        <time>2017-10-21T12:55:34Z</time>
      </trkpt>
      <trkpt lat="49.01051" lon="1.12942">
        <ele>247.2</ele>
        <time>2017-10-21T12:55:40Z</time>
      </trkpt>
      <trkpt lat="49.01044" lon="1.12933">
        <ele>248.2</ele>
        <time>2017-10-21T12:56:22Z</time>
      </trkpt>
      <trkpt lat="49.01033" lon="1.1293">
        <ele>248</ele>
        <time>2017-10-21T12:56:35Z</time>
      </trkpt>
      <trkpt lat="49.01023" lon="1.12929">
        <ele>247.9</ele>
        <time>2017-10-21T12:56:39Z</time>
      </trkpt>
      <trkpt lat="49.01012" lon="1.12927">
        <ele>247.8</ele>
        <time>2017-10-21T12:56:43Z</time>
      </trkpt>
      <trkpt lat="49.01002" lon="1.12926">
        <ele>247.8</ele>
        <time>2017-10-21T12:56:46Z</time>
      </trkpt>
      <trkpt lat="49.00993" lon="1.12929">
        <ele>247.9</ele>
        <time>2017-10-21T12:56:51Z</time>
      </trkpt>
      <trkpt lat="49.00982" lon="1.12937">
        <ele>248</ele>
        <time>2017-10-21T12:56:56Z</time>
      </trkpt>
      <trkpt lat="49.00972" lon="1.1294">
        <ele>248.3</ele>
        <time>2017-10-21T12:57:00Z</time>
      </trkpt>
      <trkpt lat="49.00968" lon="1.12952">
        <ele>248.6</ele>
        <time>2017-10-21T12:57:04Z</time>
      </trkpt>
      <trkpt lat="49.00961" lon="1.12962">
        <ele>248.7</ele>
        <time>2017-10-21T12:57:08Z</time>
      </trkpt>
      <trkpt lat="49.00951" lon="1.12965">
        <ele>248.7</ele>
        <time>2017-10-21T12:57:12Z</time>
      </trkpt>
      <trkpt lat="49.00943" lon="1.12958">
        <ele>249</ele>
        <time>2017-10-21T12:57:16Z</time>
      </trkpt>
      <trkpt lat="49.00936" lon="1.12945">
        <ele>249.2</ele>
        <time>2017-10-21T12:57:21Z</time>
      </trkpt>
      <trkpt lat="49.00928" lon="1.12935">
        <ele>249.3</ele>
        <time>2017-10-21T12:57:25Z</time>
      </trkpt>
      <trkpt lat="49.00921" lon="1.12926">
        <ele>249.2</ele>
        <time>2017-10-21T12:57:29Z</time>
      </trkpt>
      <trkpt lat="49.00915" lon="1.12913">
        <ele>249.3</ele>
        <time>2017-10-21T12:57:33Z</time>
      </trkpt>
      <trkpt lat="49.00912" lon="1.12897">
        <ele>249.4</ele>
        <time>2017-10-21T12:57:37Z</time>
      </trkpt>
      <trkpt lat="49.00907" lon="1.12879">
        <ele>249.6</ele>
        <time>2017-10-21T12:57:41Z</time>
      </trkpt>
      <trkpt lat="49.00903" lon="1.12862">
        <ele>249.9</ele>
        <time>2017-10-21T12:57:44Z</time>
      </trkpt>
      <trkpt lat="49.009" lon="1.12846">
        <ele>250.2</ele>
        <time>2017-10-21T12:57:47Z</time>
      </trkpt>
      <trkpt lat="49.00896" lon="1.12831">
        <ele>250.1</ele>
        <time>2017-10-21T12:57:50Z</time>
      </trkpt>
      <trkpt lat="49.00893" lon="1.12818">
        <ele>250.2</ele>
        <time>2017-10-21T12:57:53Z</time>
      </trkpt>
      <trkpt lat="49.00889" lon="1.12803">
        <ele>250.4</ele>
        <time>2017-10-21T12:57:56Z</time>
      </trkpt>
      <trkpt lat="49.00887" lon="1.12788">
        <ele>250.8</ele>
        <time>2017-10-21T12:57:59Z</time>
      </trkpt>
      <trkpt lat="49.00883" lon="1.12774">
        <ele>251.1</ele>
        <time>2017-10-21T12:58:02Z</time>
      </trkpt>
      <trkpt lat="49.00878" lon="1.12757">
        <ele>251.4</ele>
        <time>2017-10-21T12:58:05Z</time>
      </trkpt>
      <trkpt lat="49.00875" lon="1.12743">
        <ele>251.8</ele>
        <time>2017-10-21T12:58:08Z</time>
      </trkpt>
      <trkpt lat="49.0087" lon="1.12725">
        <ele>252.2</ele>
        <time>2017-10-21T12:58:11Z</time>
      </trkpt>
      <trkpt lat="49.00866" lon="1.12708">
        <ele>252.5</ele>
        <time>2017-10-21T12:58:14Z</time>
      </trkpt>
      <trkpt lat="49.00862" lon="1.12691">
        <ele>252.9</ele>
        <time>2017-10-21T12:58:17Z</time>
      </trkpt>
      <trkpt lat="49.00857" lon="1.12674">
        <ele>252.9</ele>
        <time>2017-10-21T12:58:20Z</time>
      </trkpt>
      <trkpt lat="49.00854" lon="1.12658">
        <ele>253.2</ele>
        <time>2017-10-21T12:58:23Z</time>
      </trkpt>
      <trkpt lat="49.00859" lon="1.12642">
        <ele>253.5</ele>
        <time>2017-10-21T12:58:27Z</time>
      </trkpt>
      <trkpt lat="49.00868" lon="1.12634">
        <ele>253.5</ele>
        <time>2017-10-21T12:58:31Z</time>
      </trkpt>
      <trkpt lat="49.00877" lon="1.12626">
        <ele>253.2</ele>
        <time>2017-10-21T12:58:34Z</time>
      </trkpt>
      <trkpt lat="49.00886" lon="1.12622">
        <ele>253</ele>
        <time>2017-10-21T12:58:36Z</time>
      </trkpt>
      <trkpt lat="49.00896" lon="1.12613">
        <ele>252.9</ele>
        <time>2017-10-21T12:58:40Z</time>
      </trkpt>
      <trkpt lat="49.00906" lon="1.12606">
        <ele>252.9</ele>
        <time>2017-10-21T12:58:43Z</time>
      </trkpt>
      <trkpt lat="49.00918" lon="1.12598">
        <ele>252.6</ele>
        <time>2017-10-21T12:58:46Z</time>
      </trkpt>
      <trkpt lat="49.00929" lon="1.12592">
        <ele>252.4</ele>
        <time>2017-10-21T12:58:48Z</time>
      </trkpt>
      <trkpt lat="49.00938" lon="1.12586">
        <ele>252.1</ele>
        <time>2017-10-21T12:58:50Z</time>
      </trkpt>
      <trkpt lat="49.00948" lon="1.12579">
        <ele>252</ele>
        <time>2017-10-21T12:58:53Z</time>
      </trkpt>
      <trkpt lat="49.0096" lon="1.12571">
        <ele>252.1</ele>
        <time>2017-10-21T12:58:56Z</time>
      </trkpt>
      <trkpt lat="49.0097" lon="1.12563">
        <ele>252.2</ele>
        <time>2017-10-21T12:58:59Z</time>
      </trkpt>
      <trkpt lat="49.0098" lon="1.12558">
        <ele>252.3</ele>
        <time>2017-10-21T12:59:01Z</time>
      </trkpt>
      <trkpt lat="49.00988" lon="1.12553">
        <ele>252.4</ele>
        <time>2017-10-21T12:59:03Z</time>
      </trkpt>
      <trkpt lat="49.00998" lon="1.12549">
        <ele>252.1</ele>
        <time>2017-10-21T12:59:05Z</time>
      </trkpt>
      <trkpt lat="49.01012" lon="1.12543">
        <ele>251.6</ele>
        <time>2017-10-21T12:59:08Z</time>
      </trkpt>
      <trkpt lat="49.01023" lon="1.12536">
        <ele>251</ele>
        <time>2017-10-21T12:59:11Z</time>
      </trkpt>
      <trkpt lat="49.01033" lon="1.12532">
        <ele>250.7</ele>
        <time>2017-10-21T12:59:14Z</time>
      </trkpt>
      <trkpt lat="49.01035" lon="1.12546">
        <ele>249.5</ele>
        <time>2017-10-21T12:59:21Z</time>
      </trkpt>
      <trkpt lat="49.01034" lon="1.12559">
        <ele>249.5</ele>
        <time>2017-10-21T12:59:24Z</time>
      </trkpt>
      <trkpt lat="49.01032" lon="1.12578">
        <ele>249.5</ele>
        <time>2017-10-21T12:59:27Z</time>
      </trkpt>
      <trkpt lat="49.01029" lon="1.12596">
        <ele>249.9</ele>
        <time>2017-10-21T12:59:30Z</time>
      </trkpt>
      <trkpt lat="49.01035" lon="1.12608">
        <ele>250.6</ele>
        <time>2017-10-21T12:59:35Z</time>
      </trkpt>
      <trkpt lat="49.01041" lon="1.12595">
        <ele>250.4</ele>
        <time>2017-10-21T12:59:40Z</time>
      </trkpt>
      <trkpt lat="49.0105" lon="1.12584">
        <ele>250</ele>
        <time>2017-10-21T12:59:43Z</time>
      </trkpt>
      <trkpt lat="49.01056" lon="1.12571">
        <ele>249.9</ele>
        <time>2017-10-21T12:59:46Z</time>
      </trkpt>
      <trkpt lat="49.01062" lon="1.12555">
        <ele>249.7</ele>
        <time>2017-10-21T12:59:49Z</time>
      </trkpt>
      <trkpt lat="49.01065" lon="1.12539">
        <ele>249.3</ele>
        <time>2017-10-21T12:59:52Z</time>
      </trkpt>
      <trkpt lat="49.0106" lon="1.12526">
        <ele>248.7</ele>
        <time>2017-10-21T12:59:56Z</time>
      </trkpt>
      <trkpt lat="49.01068" lon="1.12516">
        <ele>248.6</ele>
        <time>2017-10-21T13:00:00Z</time>
      </trkpt>
      <trkpt lat="49.01078" lon="1.12523">
        <ele>248.6</ele>
        <time>2017-10-21T13:00:06Z</time>
      </trkpt>
      <trkpt lat="49.01081" lon="1.12538">
        <ele>248.9</ele>
        <time>2017-10-21T13:00:10Z</time>
      </trkpt>
      <trkpt lat="49.01083" lon="1.12552">
        <ele>248.9</ele>
        <time>2017-10-21T13:00:13Z</time>
      </trkpt>
      <trkpt lat="49.01082" lon="1.12569">
        <ele>249.2</ele>
        <time>2017-10-21T13:00:18Z</time>
      </trkpt>
      <trkpt lat="49.01079" lon="1.12585">
        <ele>249.2</ele>
        <time>2017-10-21T13:00:22Z</time>
      </trkpt>
      <trkpt lat="49.0108" lon="1.12599">
        <ele>249.5</ele>
        <time>2017-10-21T13:00:27Z</time>
      </trkpt>
      <trkpt lat="49.01081" lon="1.12616">
        <ele>250</ele>
        <time>2017-10-21T13:00:32Z</time>
      </trkpt>
      <trkpt lat="49.01079" lon="1.1263">
        <ele>250.3</ele>
        <time>2017-10-21T13:00:36Z</time>
      </trkpt>
      <trkpt lat="49.01078" lon="1.12643">
        <ele>250.4</ele>
        <time>2017-10-21T13:00:40Z</time>
      </trkpt>
      <trkpt lat="49.01078" lon="1.12658">
        <ele>250.6</ele>
        <time>2017-10-21T13:00:44Z</time>
      </trkpt>
      <trkpt lat="49.01079" lon="1.12674">
        <ele>250.4</ele>
        <time>2017-10-21T13:00:48Z</time>
      </trkpt>
      <trkpt lat="49.01078" lon="1.1269">
        <ele>250.3</ele>
        <time>2017-10-21T13:00:52Z</time>
      </trkpt>
      <trkpt lat="49.01078" lon="1.12705">
        <ele>250.2</ele>
        <time>2017-10-21T13:00:55Z</time>
      </trkpt>
      <trkpt lat="49.01079" lon="1.12721">
        <ele>250</ele>
        <time>2017-10-21T13:00:58Z</time>
      </trkpt>
      <trkpt lat="49.01075" lon="1.12734">
        <ele>250</ele>
        <time>2017-10-21T13:01:01Z</time>
      </trkpt>
      <trkpt lat="49.01068" lon="1.12745">
        <ele>249.8</ele>
        <time>2017-10-21T13:01:06Z</time>
      </trkpt>
      <trkpt lat="49.01061" lon="1.12755">
        <ele>250.2</ele>
        <time>2017-10-21T13:01:11Z</time>
      </trkpt>
      <trkpt lat="49.01054" lon="1.12765">
        <ele>250.8</ele>
        <time>2017-10-21T13:01:15Z</time>
      </trkpt>
      <trkpt lat="49.01052" lon="1.12781">
        <ele>251.2</ele>
        <time>2017-10-21T13:01:19Z</time>
      </trkpt>
      <trkpt lat="49.01048" lon="1.12796">
        <ele>251.2</ele>
        <time>2017-10-21T13:01:24Z</time>
      </trkpt>
      <trkpt lat="49.01053" lon="1.12811">
        <ele>250.8</ele>
        <time>2017-10-21T13:01:29Z</time>
      </trkpt>
      <trkpt lat="49.01059" lon="1.12821">
        <ele>250.5</ele>
        <time>2017-10-21T13:01:32Z</time>
      </trkpt>
      <trkpt lat="49.01065" lon="1.12832">
        <ele>250.2</ele>
        <time>2017-10-21T13:01:36Z</time>
      </trkpt>
      <trkpt lat="49.01073" lon="1.12844">
        <ele>250</ele>
        <time>2017-10-21T13:01:40Z</time>
      </trkpt>
      <trkpt lat="49.0108" lon="1.12854">
        <ele>250.1</ele>
        <time>2017-10-21T13:01:43Z</time>
      </trkpt>
      <trkpt lat="49.01087" lon="1.12866">
        <ele>249.8</ele>
        <time>2017-10-21T13:01:46Z</time>
      </trkpt>
      <trkpt lat="49.01094" lon="1.12876">
        <ele>249.6</ele>
        <time>2017-10-21T13:01:49Z</time>
      </trkpt>
      <trkpt lat="49.01101" lon="1.12889">
        <ele>249.3</ele>
        <time>2017-10-21T13:01:53Z</time>
      </trkpt>
      <trkpt lat="49.01111" lon="1.12898">
        <ele>249.3</ele>
        <time>2017-10-21T13:01:57Z</time>
      </trkpt>
      <trkpt lat="49.0112" lon="1.12904">
        <ele>248.9</ele>
        <time>2017-10-21T13:02:00Z</time>
      </trkpt>
      <trkpt lat="49.01128" lon="1.12911">
        <ele>248.8</ele>
        <time>2017-10-21T13:02:04Z</time>
      </trkpt>
      <trkpt lat="49.01138" lon="1.12912">
        <ele>248.6</ele>
        <time>2017-10-21T13:02:08Z</time>
      </trkpt>
      <trkpt lat="49.01149" lon="1.12912">
        <ele>248.4</ele>
        <time>2017-10-21T13:02:12Z</time>
      </trkpt>
      <trkpt lat="49.01157" lon="1.12904">
        <ele>248.3</ele>
        <time>2017-10-21T13:02:15Z</time>
      </trkpt>
      <trkpt lat="49.01165" lon="1.12896">
        <ele>247.8</ele>
        <time>2017-10-21T13:02:18Z</time>
      </trkpt>
      <trkpt lat="49.01172" lon="1.12887">
        <ele>248.1</ele>
        <time>2017-10-21T13:02:22Z</time>
      </trkpt>
      <trkpt lat="49.01162" lon="1.1288">
        <ele>247.7</ele>
        <time>2017-10-21T13:02:28Z</time>
      </trkpt>
      <trkpt lat="49.01155" lon="1.1287">
        <ele>247.8</ele>
        <time>2017-10-21T13:02:33Z</time>
      </trkpt>
      <trkpt lat="49.01161" lon="1.12857">
        <ele>248.2</ele>
        <time>2017-10-21T13:02:37Z</time>
      </trkpt>
      <trkpt lat="49.01172" lon="1.12834">
        <ele>248.3</ele>
        <time>2017-10-21T13:02:42Z</time>
      </trkpt>
      <trkpt lat="49.0118" lon="1.12826">
        <ele>248.3</ele>
        <time>2017-10-21T13:02:44Z</time>
      </trkpt>
      <trkpt lat="49.0119" lon="1.12818">
        <ele>247.7</ele>
        <time>2017-10-21T13:02:47Z</time>
      </trkpt>
      <trkpt lat="49.01201" lon="1.12813">
        <ele>247.4</ele>
        <time>2017-10-21T13:02:50Z</time>
      </trkpt>
      <trkpt lat="49.01211" lon="1.12823">
        <ele>247</ele>
        <time>2017-10-21T13:02:53Z</time>
      </trkpt>
      <trkpt lat="49.01216" lon="1.1284">
        <ele>246.5</ele>
        <time>2017-10-21T13:02:56Z</time>
      </trkpt>
      <trkpt lat="49.01223" lon="1.12857">
        <ele>246.3</ele>
        <time>2017-10-21T13:02:59Z</time>
      </trkpt>
      <trkpt lat="49.01229" lon="1.12875">
        <ele>246</ele>
        <time>2017-10-21T13:03:02Z</time>
      </trkpt>
      <trkpt lat="49.01233" lon="1.12893">
        <ele>245.7</ele>
        <time>2017-10-21T13:03:05Z</time>
      </trkpt>
      <trkpt lat="49.01237" lon="1.12906">
        <ele>245.6</ele>
        <time>2017-10-21T13:03:07Z</time>
      </trkpt>
      <trkpt lat="49.01241" lon="1.12919">
        <ele>245.3</ele>
        <time>2017-10-21T13:03:09Z</time>
      </trkpt>
      <trkpt lat="49.01243" lon="1.12937">
        <ele>244.9</ele>
        <time>2017-10-21T13:03:12Z</time>
      </trkpt>
      <trkpt lat="49.01239" lon="1.12953">
        <ele>244.7</ele>
        <time>2017-10-21T13:03:16Z</time>
      </trkpt>
      <trkpt lat="49.0125" lon="1.12956">
        <ele>244.1</ele>
        <time>2017-10-21T13:03:24Z</time>
      </trkpt>
      <trkpt lat="49.01255" lon="1.12972">
        <ele>243.9</ele>
        <time>2017-10-21T13:03:28Z</time>
      </trkpt>
      <trkpt lat="49.01258" lon="1.12991">
        <ele>243.4</ele>
        <time>2017-10-21T13:03:31Z</time>
      </trkpt>
      <trkpt lat="49.01262" lon="1.13006">
        <ele>242.8</ele>
        <time>2017-10-21T13:03:34Z</time>
      </trkpt>
      <trkpt lat="49.01272" lon="1.13">
        <ele>240.6</ele>
        <time>2017-10-21T13:03:39Z</time>
      </trkpt>
      <trkpt lat="49.01281" lon="1.12987">
        <ele>239.6</ele>
        <time>2017-10-21T13:03:41Z</time>
      </trkpt>
      <trkpt lat="49.01289" lon="1.12979">
        <ele>238.3</ele>
        <time>2017-10-21T13:03:43Z</time>
      </trkpt>
      <trkpt lat="49.01299" lon="1.12971">
        <ele>236.9</ele>
        <time>2017-10-21T13:03:45Z</time>
      </trkpt>
      <trkpt lat="49.01305" lon="1.1296">
        <ele>234.2</ele>
        <time>2017-10-21T13:03:50Z</time>
      </trkpt>
      <trkpt lat="49.01294" lon="1.12958">
        <ele>233.9</ele>
        <time>2017-10-21T13:03:58Z</time>
      </trkpt>
      <trkpt lat="49.01284" lon="1.12957">
        <ele>236.1</ele>
        <time>2017-10-21T13:04:03Z</time>
      </trkpt>
      <trkpt lat="49.01275" lon="1.12956">
        <ele>238.3</ele>
        <time>2017-10-21T13:04:07Z</time>
      </trkpt>
      <trkpt lat="49.01266" lon="1.12954">
        <ele>240.5</ele>
        <time>2017-10-21T13:04:11Z</time>
      </trkpt>
      <trkpt lat="49.01257" lon="1.12953">
        <ele>242.2</ele>
        <time>2017-10-21T13:04:15Z</time>
      </trkpt>
      <trkpt lat="49.0125" lon="1.12944">
        <ele>244.5</ele>
        <time>2017-10-21T13:04:32Z</time>
      </trkpt>
      <trkpt lat="49.01244" lon="1.12958">
        <ele>244.8</ele>
        <time>2017-10-21T13:04:37Z</time>
      </trkpt>
      <trkpt lat="49.01252" lon="1.1295">
        <ele>244.8</ele>
        <time>2017-10-21T13:04:45Z</time>
      </trkpt>
      <trkpt lat="49.01256" lon="1.12934">
        <ele>244.5</ele>
        <time>2017-10-21T13:07:20Z</time>
      </trkpt>
      <trkpt lat="49.01263" lon="1.12923">
        <ele>244.7</ele>
        <time>2017-10-21T13:07:23Z</time>
      </trkpt>
      <trkpt lat="49.01271" lon="1.12917">
        <ele>244.6</ele>
        <time>2017-10-21T13:07:25Z</time>
      </trkpt>
      <trkpt lat="49.01279" lon="1.12909">
        <ele>244.3</ele>
        <time>2017-10-21T13:07:27Z</time>
      </trkpt>
      <trkpt lat="49.01288" lon="1.12896">
        <ele>244.2</ele>
        <time>2017-10-21T13:07:30Z</time>
      </trkpt>
      <trkpt lat="49.01298" lon="1.12883">
        <ele>244.2</ele>
        <time>2017-10-21T13:07:33Z</time>
      </trkpt>
      <trkpt lat="49.01303" lon="1.12871">
        <ele>244.3</ele>
        <time>2017-10-21T13:07:35Z</time>
      </trkpt>
      <trkpt lat="49.01307" lon="1.12858">
        <ele>244.5</ele>
        <time>2017-10-21T13:07:37Z</time>
      </trkpt>
      <trkpt lat="49.0131" lon="1.12839">
        <ele>244.8</ele>
        <time>2017-10-21T13:07:40Z</time>
      </trkpt>
      <trkpt lat="49.01313" lon="1.12826">
        <ele>245</ele>
        <time>2017-10-21T13:07:42Z</time>
      </trkpt>
      <trkpt lat="49.01317" lon="1.12807">
        <ele>245.2</ele>
        <time>2017-10-21T13:07:45Z</time>
      </trkpt>
      <trkpt lat="49.0132" lon="1.12792">
        <ele>245.6</ele>
        <time>2017-10-21T13:07:48Z</time>
      </trkpt>
      <trkpt lat="49.01317" lon="1.12773">
        <ele>246.1</ele>
        <time>2017-10-21T13:07:51Z</time>
      </trkpt>
      <trkpt lat="49.01315" lon="1.12756">
        <ele>246.8</ele>
        <time>2017-10-21T13:07:54Z</time>
      </trkpt>
      <trkpt lat="49.01313" lon="1.12737">
        <ele>247.2</ele>
        <time>2017-10-21T13:07:57Z</time>
      </trkpt>
      <trkpt lat="49.01313" lon="1.12718">
        <ele>247.3</ele>
        <time>2017-10-21T13:08:00Z</time>
      </trkpt>
      <trkpt lat="49.01311" lon="1.127">
        <ele>247.3</ele>
        <time>2017-10-21T13:08:03Z</time>
      </trkpt>
      <trkpt lat="49.01308" lon="1.1268">
        <ele>247.7</ele>
        <time>2017-10-21T13:08:06Z</time>
      </trkpt>
      <trkpt lat="49.01301" lon="1.12666">
        <ele>247.8</ele>
        <time>2017-10-21T13:08:08Z</time>
      </trkpt>
      <trkpt lat="49.01293" lon="1.12651">
        <ele>247.7</ele>
        <time>2017-10-21T13:08:10Z</time>
      </trkpt>
      <trkpt lat="49.01287" lon="1.12639">
        <ele>247.7</ele>
        <time>2017-10-21T13:08:12Z</time>
      </trkpt>
      <trkpt lat="49.0128" lon="1.12625">
        <ele>247.8</ele>
        <time>2017-10-21T13:08:14Z</time>
      </trkpt>
      <trkpt lat="49.01275" lon="1.1261">
        <ele>248.1</ele>
        <time>2017-10-21T13:08:17Z</time>
      </trkpt>
      <trkpt lat="49.0127" lon="1.12596">
        <ele>248.4</ele>
        <time>2017-10-21T13:08:20Z</time>
      </trkpt>
      <trkpt lat="49.01265" lon="1.12582">
        <ele>248.7</ele>
        <time>2017-10-21T13:08:23Z</time>
      </trkpt>
      <trkpt lat="49.01257" lon="1.12568">
        <ele>248.7</ele>
        <time>2017-10-21T13:08:27Z</time>
      </trkpt>
      <trkpt lat="49.01252" lon="1.12554">
        <ele>248.9</ele>
        <time>2017-10-21T13:08:30Z</time>
      </trkpt>
      <trkpt lat="49.01248" lon="1.1254">
        <ele>248.9</ele>
        <time>2017-10-21T13:08:33Z</time>
      </trkpt>
      <trkpt lat="49.01245" lon="1.12526">
        <ele>249</ele>
        <time>2017-10-21T13:08:36Z</time>
      </trkpt>
      <trkpt lat="49.0124" lon="1.12511">
        <ele>249</ele>
        <time>2017-10-21T13:08:39Z</time>
      </trkpt>
      <trkpt lat="49.01233" lon="1.12495">
        <ele>248.9</ele>
        <time>2017-10-21T13:08:42Z</time>
      </trkpt>
      <trkpt lat="49.01225" lon="1.12482">
        <ele>249</ele>
        <time>2017-10-21T13:08:45Z</time>
      </trkpt>
      <trkpt lat="49.01216" lon="1.12475">
        <ele>249.1</ele>
        <time>2017-10-21T13:08:48Z</time>
      </trkpt>
      <trkpt lat="49.01206" lon="1.12468">
        <ele>249.4</ele>
        <time>2017-10-21T13:08:52Z</time>
      </trkpt>
      <trkpt lat="49.01197" lon="1.12468">
        <ele>249.8</ele>
        <time>2017-10-21T13:08:56Z</time>
      </trkpt>
      <trkpt lat="49.01196" lon="1.12454">
        <ele>249.4</ele>
        <time>2017-10-21T13:09:05Z</time>
      </trkpt>
      <trkpt lat="49.01203" lon="1.12445">
        <ele>249.1</ele>
        <time>2017-10-21T13:09:10Z</time>
      </trkpt>
      <trkpt lat="49.01212" lon="1.12435">
        <ele>249</ele>
        <time>2017-10-21T13:09:14Z</time>
      </trkpt>
      <trkpt lat="49.01221" lon="1.12429">
        <ele>248.6</ele>
        <time>2017-10-21T13:09:17Z</time>
      </trkpt>
      <trkpt lat="49.0123" lon="1.12423">
        <ele>248.4</ele>
        <time>2017-10-21T13:09:19Z</time>
      </trkpt>
      <trkpt lat="49.01239" lon="1.12418">
        <ele>248.1</ele>
        <time>2017-10-21T13:09:21Z</time>
      </trkpt>
      <trkpt lat="49.01249" lon="1.12413">
        <ele>247.8</ele>
        <time>2017-10-21T13:09:23Z</time>
      </trkpt>
      <trkpt lat="49.01261" lon="1.12407">
        <ele>247.2</ele>
        <time>2017-10-21T13:09:25Z</time>
      </trkpt>
      <trkpt lat="49.01272" lon="1.124">
        <ele>246.6</ele>
        <time>2017-10-21T13:09:27Z</time>
      </trkpt>
      <trkpt lat="49.01284" lon="1.12392">
        <ele>246.1</ele>
        <time>2017-10-21T13:09:29Z</time>
      </trkpt>
      <trkpt lat="49.01296" lon="1.12384">
        <ele>245.5</ele>
        <time>2017-10-21T13:09:31Z</time>
      </trkpt>
      <trkpt lat="49.01306" lon="1.12377">
        <ele>244.9</ele>
        <time>2017-10-21T13:09:33Z</time>
      </trkpt>
      <trkpt lat="49.01312" lon="1.12367">
        <ele>244.3</ele>
        <time>2017-10-21T13:09:35Z</time>
      </trkpt>
      <trkpt lat="49.01318" lon="1.12353">
        <ele>243.5</ele>
        <time>2017-10-21T13:09:38Z</time>
      </trkpt>
      <trkpt lat="49.01317" lon="1.12338">
        <ele>243.2</ele>
        <time>2017-10-21T13:09:41Z</time>
      </trkpt>
      <trkpt lat="49.01315" lon="1.12318">
        <ele>243.5</ele>
        <time>2017-10-21T13:09:44Z</time>
      </trkpt>
      <trkpt lat="49.01307" lon="1.12303">
        <ele>243.9</ele>
        <time>2017-10-21T13:09:47Z</time>
      </trkpt>
      <trkpt lat="49.01297" lon="1.12294">
        <ele>244.7</ele>
        <time>2017-10-21T13:09:50Z</time>
      </trkpt>
      <trkpt lat="49.01287" lon="1.12286">
        <ele>245.6</ele>
        <time>2017-10-21T13:09:53Z</time>
      </trkpt>
      <trkpt lat="49.01277" lon="1.12278">
        <ele>246.5</ele>
        <time>2017-10-21T13:09:56Z</time>
      </trkpt>
      <trkpt lat="49.01268" lon="1.1227">
        <ele>247.1</ele>
        <time>2017-10-21T13:09:59Z</time>
      </trkpt>
      <trkpt lat="49.01258" lon="1.12263">
        <ele>247.6</ele>
        <time>2017-10-21T13:10:02Z</time>
      </trkpt>
      <trkpt lat="49.01249" lon="1.12255">
        <ele>248.3</ele>
        <time>2017-10-21T13:10:05Z</time>
      </trkpt>
      <trkpt lat="49.0124" lon="1.12248">
        <ele>248.7</ele>
        <time>2017-10-21T13:10:08Z</time>
      </trkpt>
      <trkpt lat="49.0123" lon="1.12241">
        <ele>249.1</ele>
        <time>2017-10-21T13:10:11Z</time>
      </trkpt>
      <trkpt lat="49.01221" lon="1.12234">
        <ele>249.4</ele>
        <time>2017-10-21T13:10:14Z</time>
      </trkpt>
      <trkpt lat="49.01216" lon="1.12218">
        <ele>249.9</ele>
        <time>2017-10-21T13:10:18Z</time>
      </trkpt>
      <trkpt lat="49.0122" lon="1.12203">
        <ele>250.2</ele>
        <time>2017-10-21T13:10:21Z</time>
      </trkpt>
      <trkpt lat="49.01225" lon="1.12185">
        <ele>249.9</ele>
        <time>2017-10-21T13:10:24Z</time>
      </trkpt>
      <trkpt lat="49.01229" lon="1.12173">
        <ele>249.5</ele>
        <time>2017-10-21T13:10:26Z</time>
      </trkpt>
      <trkpt lat="49.01233" lon="1.1216">
        <ele>249.3</ele>
        <time>2017-10-21T13:10:28Z</time>
      </trkpt>
      <trkpt lat="49.01237" lon="1.12147">
        <ele>249.3</ele>
        <time>2017-10-21T13:10:30Z</time>
      </trkpt>
      <trkpt lat="49.01241" lon="1.12132">
        <ele>249.4</ele>
        <time>2017-10-21T13:10:32Z</time>
      </trkpt>
      <trkpt lat="49.01244" lon="1.12117">
        <ele>249</ele>
        <time>2017-10-21T13:10:34Z</time>
      </trkpt>
      <trkpt lat="49.01249" lon="1.12103">
        <ele>248.3</ele>
        <time>2017-10-21T13:10:36Z</time>
      </trkpt>
      <trkpt lat="49.01252" lon="1.1209">
        <ele>247.7</ele>
        <time>2017-10-21T13:10:38Z</time>
      </trkpt>
      <trkpt lat="49.01249" lon="1.12069">
        <ele>246.5</ele>
        <time>2017-10-21T13:10:41Z</time>
      </trkpt>
      <trkpt lat="49.01243" lon="1.12058">
        <ele>245.7</ele>
        <time>2017-10-21T13:10:43Z</time>
      </trkpt>
      <trkpt lat="49.01235" lon="1.12043">
        <ele>244.6</ele>
        <time>2017-10-21T13:10:46Z</time>
      </trkpt>
      <trkpt lat="49.01228" lon="1.12031">
        <ele>244</ele>
        <time>2017-10-21T13:10:49Z</time>
      </trkpt>
      <trkpt lat="49.01223" lon="1.1202">
        <ele>243.7</ele>
        <time>2017-10-21T13:10:52Z</time>
      </trkpt>
      <trkpt lat="49.01218" lon="1.12007">
        <ele>243</ele>
        <time>2017-10-21T13:10:56Z</time>
      </trkpt>
      <trkpt lat="49.01214" lon="1.11994">
        <ele>242.1</ele>
        <time>2017-10-21T13:11:22Z</time>
      </trkpt>
      <trkpt lat="49.01205" lon="1.11988">
        <ele>241.7</ele>
        <time>2017-10-21T13:11:27Z</time>
      </trkpt>
      <trkpt lat="49.01193" lon="1.11988">
        <ele>241.4</ele>
        <time>2017-10-21T13:11:31Z</time>
      </trkpt>
      <trkpt lat="49.01182" lon="1.1199">
        <ele>241.3</ele>
        <time>2017-10-21T13:11:34Z</time>
      </trkpt>
      <trkpt lat="49.0117" lon="1.11991">
        <ele>241.3</ele>
        <time>2017-10-21T13:11:37Z</time>
      </trkpt>
      <trkpt lat="49.01159" lon="1.1199">
        <ele>241.3</ele>
        <time>2017-10-21T13:11:40Z</time>
      </trkpt>
      <trkpt lat="49.01149" lon="1.11995">
        <ele>240.7</ele>
        <time>2017-10-21T13:11:43Z</time>
      </trkpt>
      <trkpt lat="49.01139" lon="1.11994">
        <ele>240.2</ele>
        <time>2017-10-21T13:11:46Z</time>
      </trkpt>
      <trkpt lat="49.01132" lon="1.11984">
        <ele>239.5</ele>
        <time>2017-10-21T13:11:49Z</time>
      </trkpt>
      <trkpt lat="49.01126" lon="1.11972">
        <ele>241.7</ele>
        <time>2017-10-21T13:12:03Z</time>
      </trkpt>
      <trkpt lat="49.0112" lon="1.11959">
        <ele>241.7</ele>
        <time>2017-10-21T13:12:07Z</time>
      </trkpt>
      <trkpt lat="49.01115" lon="1.11942">
        <ele>242.2</ele>
        <time>2017-10-21T13:12:10Z</time>
      </trkpt>
      <trkpt lat="49.01107" lon="1.11932">
        <ele>242.7</ele>
        <time>2017-10-21T13:12:13Z</time>
      </trkpt>
      <trkpt lat="49.01095" lon="1.11931">
        <ele>242.9</ele>
        <time>2017-10-21T13:12:16Z</time>
      </trkpt>
      <trkpt lat="49.01086" lon="1.11925">
        <ele>243.5</ele>
        <time>2017-10-21T13:12:19Z</time>
      </trkpt>
      <trkpt lat="49.01075" lon="1.11919">
        <ele>244</ele>
        <time>2017-10-21T13:12:22Z</time>
      </trkpt>
      <trkpt lat="49.01064" lon="1.11917">
        <ele>244.4</ele>
        <time>2017-10-21T13:12:25Z</time>
      </trkpt>
      <trkpt lat="49.01051" lon="1.11912">
        <ele>244.6</ele>
        <time>2017-10-21T13:12:28Z</time>
      </trkpt>
      <trkpt lat="49.01041" lon="1.11909">
        <ele>244.4</ele>
        <time>2017-10-21T13:12:30Z</time>
      </trkpt>
      <trkpt lat="49.01031" lon="1.11906">
        <ele>244.3</ele>
        <time>2017-10-21T13:12:33Z</time>
      </trkpt>
      <trkpt lat="49.01022" lon="1.11901">
        <ele>244.7</ele>
        <time>2017-10-21T13:12:38Z</time>
      </trkpt>
      <trkpt lat="49.01012" lon="1.11895">
        <ele>244.6</ele>
        <time>2017-10-21T13:12:51Z</time>
      </trkpt>
      <trkpt lat="49.01002" lon="1.11894">
        <ele>244.5</ele>
        <time>2017-10-21T13:12:55Z</time>
      </trkpt>
      <trkpt lat="49.0099" lon="1.11893">
        <ele>244.9</ele>
        <time>2017-10-21T13:12:59Z</time>
      </trkpt>
      <trkpt lat="49.00979" lon="1.11892">
        <ele>245.7</ele>
        <time>2017-10-21T13:13:03Z</time>
      </trkpt>
      <trkpt lat="49.00971" lon="1.11885">
        <ele>247.1</ele>
        <time>2017-10-21T13:13:06Z</time>
      </trkpt>
      <trkpt lat="49.00961" lon="1.11876">
        <ele>248</ele>
        <time>2017-10-21T13:13:09Z</time>
      </trkpt>
      <trkpt lat="49.0095" lon="1.11871">
        <ele>248.5</ele>
        <time>2017-10-21T13:13:12Z</time>
      </trkpt>
      <trkpt lat="49.0094" lon="1.11868">
        <ele>248.9</ele>
        <time>2017-10-21T13:13:15Z</time>
      </trkpt>
      <trkpt lat="49.00931" lon="1.11862">
        <ele>249</ele>
        <time>2017-10-21T13:13:18Z</time>
      </trkpt>
      <trkpt lat="49.0092" lon="1.11857">
        <ele>249.1</ele>
        <time>2017-10-21T13:13:21Z</time>
      </trkpt>
      <trkpt lat="49.0091" lon="1.11857">
        <ele>249.2</ele>
        <time>2017-10-21T13:13:24Z</time>
      </trkpt>
      <trkpt lat="49.009" lon="1.11853">
        <ele>249.5</ele>
        <time>2017-10-21T13:13:27Z</time>
      </trkpt>
      <trkpt lat="49.00889" lon="1.11848">
        <ele>249.5</ele>
        <time>2017-10-21T13:13:30Z</time>
      </trkpt>
      <trkpt lat="49.00878" lon="1.11844">
        <ele>249.5</ele>
        <time>2017-10-21T13:13:33Z</time>
      </trkpt>
      <trkpt lat="49.00867" lon="1.11838">
        <ele>249.6</ele>
        <time>2017-10-21T13:13:36Z</time>
      </trkpt>
      <trkpt lat="49.00857" lon="1.11831">
        <ele>249.5</ele>
        <time>2017-10-21T13:13:39Z</time>
      </trkpt>
      <trkpt lat="49.00846" lon="1.11821">
        <ele>249.6</ele>
        <time>2017-10-21T13:13:42Z</time>
      </trkpt>
      <trkpt lat="49.00838" lon="1.11815">
        <ele>249.4</ele>
        <time>2017-10-21T13:13:44Z</time>
      </trkpt>
      <trkpt lat="49.00829" lon="1.11811">
        <ele>249.3</ele>
        <time>2017-10-21T13:13:46Z</time>
      </trkpt>
      <trkpt lat="49.0082" lon="1.11806">
        <ele>249.1</ele>
        <time>2017-10-21T13:13:48Z</time>
      </trkpt>
      <trkpt lat="49.00808" lon="1.11797">
        <ele>248.7</ele>
        <time>2017-10-21T13:13:51Z</time>
      </trkpt>
      <trkpt lat="49.00795" lon="1.11797">
        <ele>248.4</ele>
        <time>2017-10-21T13:13:54Z</time>
      </trkpt>
      <trkpt lat="49.00782" lon="1.11799">
        <ele>248</ele>
        <time>2017-10-21T13:13:57Z</time>
      </trkpt>
      <trkpt lat="49.00773" lon="1.11796">
        <ele>247.5</ele>
        <time>2017-10-21T13:13:59Z</time>
      </trkpt>
      <trkpt lat="49.00763" lon="1.11786">
        <ele>246.8</ele>
        <time>2017-10-21T13:14:01Z</time>
      </trkpt>
      <trkpt lat="49.00753" lon="1.11778">
        <ele>245.9</ele>
        <time>2017-10-21T13:14:03Z</time>
      </trkpt>
      <trkpt lat="49.00742" lon="1.11773">
        <ele>245</ele>
        <time>2017-10-21T13:14:05Z</time>
      </trkpt>
      <trkpt lat="49.00731" lon="1.11765">
        <ele>244.8</ele>
        <time>2017-10-21T13:14:08Z</time>
      </trkpt>
      <trkpt lat="49.00722" lon="1.11755">
        <ele>245</ele>
        <time>2017-10-21T13:14:11Z</time>
      </trkpt>
      <trkpt lat="49.00711" lon="1.11749">
        <ele>245.1</ele>
        <time>2017-10-21T13:14:14Z</time>
      </trkpt>
      <trkpt lat="49.00698" lon="1.11749">
        <ele>245</ele>
        <time>2017-10-21T13:14:17Z</time>
      </trkpt>
      <trkpt lat="49.00688" lon="1.1175">
        <ele>244.9</ele>
        <time>2017-10-21T13:14:19Z</time>
      </trkpt>
      <trkpt lat="49.00679" lon="1.11748">
        <ele>244.9</ele>
        <time>2017-10-21T13:14:21Z</time>
      </trkpt>
      <trkpt lat="49.00671" lon="1.11742">
        <ele>244.7</ele>
        <time>2017-10-21T13:14:23Z</time>
      </trkpt>
      <trkpt lat="49.00659" lon="1.11743">
        <ele>245</ele>
        <time>2017-10-21T13:14:26Z</time>
      </trkpt>
      <trkpt lat="49.00649" lon="1.11742">
        <ele>246.8</ele>
        <time>2017-10-21T13:14:31Z</time>
      </trkpt>
      <trkpt lat="49.0064" lon="1.11739">
        <ele>249.2</ele>
        <time>2017-10-21T13:15:01Z</time>
      </trkpt>
      <trkpt lat="49.00631" lon="1.11737">
        <ele>249.3</ele>
        <time>2017-10-21T13:19:49Z</time>
      </trkpt>
      <trkpt lat="49.00622" lon="1.1173">
        <ele>250</ele>
        <time>2017-10-21T13:19:54Z</time>
      </trkpt>
      <trkpt lat="49.00615" lon="1.11718">
        <ele>250.1</ele>
        <time>2017-10-21T13:19:58Z</time>
      </trkpt>
      <trkpt lat="49.0061" lon="1.11705">
        <ele>250.3</ele>
        <time>2017-10-21T13:20:01Z</time>
      </trkpt>
      <trkpt lat="49.00602" lon="1.11695">
        <ele>250.1</ele>
        <time>2017-10-21T13:20:04Z</time>
      </trkpt>
      <trkpt lat="49.00592" lon="1.11688">
        <ele>249.9</ele>
        <time>2017-10-21T13:20:07Z</time>
      </trkpt>
      <trkpt lat="49.00582" lon="1.11691">
        <ele>249.8</ele>
        <time>2017-10-21T13:20:10Z</time>
      </trkpt>
      <trkpt lat="49.00571" lon="1.11694">
        <ele>250.1</ele>
        <time>2017-10-21T13:20:14Z</time>
      </trkpt>
      <trkpt lat="49.0056" lon="1.11687">
        <ele>250.3</ele>
        <time>2017-10-21T13:20:17Z</time>
      </trkpt>
      <trkpt lat="49.0055" lon="1.11685">
        <ele>249.8</ele>
        <time>2017-10-21T13:20:19Z</time>
      </trkpt>
      <trkpt lat="49.00541" lon="1.11687">
        <ele>249.4</ele>
        <time>2017-10-21T13:20:21Z</time>
      </trkpt>
      <trkpt lat="49.00532" lon="1.1169">
        <ele>249</ele>
        <time>2017-10-21T13:20:23Z</time>
      </trkpt>
      <trkpt lat="49.00523" lon="1.11697">
        <ele>247.9</ele>
        <time>2017-10-21T13:20:27Z</time>
      </trkpt>
      <trkpt lat="49.00518" lon="1.1171">
        <ele>245.9</ele>
        <time>2017-10-21T13:21:33Z</time>
      </trkpt>
      <trkpt lat="49.00514" lon="1.11728">
        <ele>246.1</ele>
        <time>2017-10-21T13:21:37Z</time>
      </trkpt>
      <trkpt lat="49.00512" lon="1.11745">
        <ele>246.2</ele>
        <time>2017-10-21T13:21:40Z</time>
      </trkpt>
      <trkpt lat="49.0051" lon="1.11759">
        <ele>246.6</ele>
        <time>2017-10-21T13:21:43Z</time>
      </trkpt>
      <trkpt lat="49.00507" lon="1.11777">
        <ele>247.2</ele>
        <time>2017-10-21T13:21:46Z</time>
      </trkpt>
      <trkpt lat="49.00506" lon="1.11793">
        <ele>247.3</ele>
        <time>2017-10-21T13:21:49Z</time>
      </trkpt>
      <trkpt lat="49.00504" lon="1.11809">
        <ele>247.6</ele>
        <time>2017-10-21T13:21:53Z</time>
      </trkpt>
      <trkpt lat="49.00493" lon="1.11816">
        <ele>247.6</ele>
        <time>2017-10-21T13:21:57Z</time>
      </trkpt>
      <trkpt lat="49.00483" lon="1.11815">
        <ele>247</ele>
        <time>2017-10-21T13:22:01Z</time>
      </trkpt>
      <trkpt lat="49.00475" lon="1.11804">
        <ele>245.3</ele>
        <time>2017-10-21T13:22:06Z</time>
      </trkpt>
      <trkpt lat="49.00469" lon="1.11793">
        <ele>243.2</ele>
        <time>2017-10-21T13:22:11Z</time>
      </trkpt>
      <trkpt lat="49.00459" lon="1.11785">
        <ele>241.1</ele>
        <time>2017-10-21T13:22:15Z</time>
      </trkpt>
      <trkpt lat="49.00448" lon="1.11788">
        <ele>239.1</ele>
        <time>2017-10-21T13:22:19Z</time>
      </trkpt>
      <trkpt lat="49.00438" lon="1.11796">
        <ele>237.3</ele>
        <time>2017-10-21T13:22:23Z</time>
      </trkpt>
      <trkpt lat="49.00432" lon="1.1181">
        <ele>236.2</ele>
        <time>2017-10-21T13:22:27Z</time>
      </trkpt>
      <trkpt lat="49.00427" lon="1.11821">
        <ele>236.1</ele>
        <time>2017-10-21T13:22:30Z</time>
      </trkpt>
      <trkpt lat="49.00418" lon="1.11832">
        <ele>235.4</ele>
        <time>2017-10-21T13:22:33Z</time>
      </trkpt>
      <trkpt lat="49.00412" lon="1.11846">
        <ele>234.6</ele>
        <time>2017-10-21T13:22:36Z</time>
      </trkpt>
      <trkpt lat="49.00406" lon="1.11858">
        <ele>234.5</ele>
        <time>2017-10-21T13:22:39Z</time>
      </trkpt>
      <trkpt lat="49.00395" lon="1.11865">
        <ele>234.3</ele>
        <time>2017-10-21T13:22:43Z</time>
      </trkpt>
      <trkpt lat="49.00383" lon="1.11879">
        <ele>233.4</ele>
        <time>2017-10-21T13:22:46Z</time>
      </trkpt>
      <trkpt lat="49.00374" lon="1.1189">
        <ele>232.9</ele>
        <time>2017-10-21T13:22:49Z</time>
      </trkpt>
      <trkpt lat="49.00367" lon="1.11903">
        <ele>233.2</ele>
        <time>2017-10-21T13:22:53Z</time>
      </trkpt>
      <trkpt lat="49.00362" lon="1.11918">
        <ele>234.2</ele>
        <time>2017-10-21T13:22:58Z</time>
      </trkpt>
      <trkpt lat="49.00356" lon="1.11934">
        <ele>235.1</ele>
        <time>2017-10-21T13:23:02Z</time>
      </trkpt>
      <trkpt lat="49.00351" lon="1.11948">
        <ele>235.5</ele>
        <time>2017-10-21T13:23:05Z</time>
      </trkpt>
      <trkpt lat="49.00345" lon="1.1196">
        <ele>235.9</ele>
        <time>2017-10-21T13:23:08Z</time>
      </trkpt>
      <trkpt lat="49.00339" lon="1.11972">
        <ele>236.1</ele>
        <time>2017-10-21T13:23:11Z</time>
      </trkpt>
      <trkpt lat="49.00334" lon="1.11986">
        <ele>235.9</ele>
        <time>2017-10-21T13:23:14Z</time>
      </trkpt>
      <trkpt lat="49.00328" lon="1.12002">
        <ele>235.4</ele>
        <time>2017-10-21T13:23:17Z</time>
      </trkpt>
      <trkpt lat="49.00321" lon="1.12014">
        <ele>235.2</ele>
        <time>2017-10-21T13:23:20Z</time>
      </trkpt>
      <trkpt lat="49.00313" lon="1.12022">
        <ele>234.8</ele>
        <time>2017-10-21T13:23:29Z</time>
      </trkpt>
      <trkpt lat="49.00304" lon="1.12022">
        <ele>234.6</ele>
        <time>2017-10-21T13:25:16Z</time>
      </trkpt>
      <trkpt lat="49.00295" lon="1.12028">
        <ele>231.1</ele>
        <time>2017-10-21T13:25:24Z</time>
      </trkpt>
      <trkpt lat="49.00286" lon="1.12033">
        <ele>230</ele>
        <time>2017-10-21T13:25:28Z</time>
      </trkpt>
      <trkpt lat="49.00279" lon="1.12042">
        <ele>228.7</ele>
        <time>2017-10-21T13:25:31Z</time>
      </trkpt>
      <trkpt lat="49.00271" lon="1.12051">
        <ele>226.8</ele>
        <time>2017-10-21T13:25:34Z</time>
      </trkpt>
      <trkpt lat="49.00263" lon="1.12059">
        <ele>225</ele>
        <time>2017-10-21T13:25:38Z</time>
      </trkpt>
      <trkpt lat="49.0026" lon="1.12074">
        <ele>223.8</ele>
        <time>2017-10-21T13:25:42Z</time>
      </trkpt>
      <trkpt lat="49.00265" lon="1.12062">
        <ele>223.7</ele>
        <time>2017-10-21T13:25:56Z</time>
      </trkpt>
      <trkpt lat="49.00255" lon="1.12067">
        <ele>223.9</ele>
        <time>2017-10-21T13:26:52Z</time>
      </trkpt>
      <trkpt lat="49.00249" lon="1.12079">
        <ele>222.4</ele>
        <time>2017-10-21T13:27:01Z</time>
      </trkpt>
      <trkpt lat="49.00242" lon="1.12091">
        <ele>221.9</ele>
        <time>2017-10-21T13:27:05Z</time>
      </trkpt>
      <trkpt lat="49.00237" lon="1.12104">
        <ele>222</ele>
        <time>2017-10-21T13:27:08Z</time>
      </trkpt>
      <trkpt lat="49.00238" lon="1.12119">
        <ele>222</ele>
        <time>2017-10-21T13:27:13Z</time>
      </trkpt>
      <trkpt lat="49.00242" lon="1.12134">
        <ele>222</ele>
        <time>2017-10-21T13:27:17Z</time>
      </trkpt>
      <trkpt lat="49.00247" lon="1.12146">
        <ele>222.6</ele>
        <time>2017-10-21T13:27:21Z</time>
      </trkpt>
      <trkpt lat="49.00254" lon="1.1216">
        <ele>223.5</ele>
        <time>2017-10-21T13:27:26Z</time>
      </trkpt>
      <trkpt lat="49.00261" lon="1.12169">
        <ele>224.9</ele>
        <time>2017-10-21T13:27:32Z</time>
      </trkpt>
      <trkpt lat="49.00269" lon="1.12176">
        <ele>226.4</ele>
        <time>2017-10-21T13:27:38Z</time>
      </trkpt>
      <trkpt lat="49.00279" lon="1.12179">
        <ele>227.4</ele>
        <time>2017-10-21T13:27:43Z</time>
      </trkpt>
      <trkpt lat="49.00288" lon="1.12184">
        <ele>228.4</ele>
        <time>2017-10-21T13:27:48Z</time>
      </trkpt>
      <trkpt lat="49.00299" lon="1.12189">
        <ele>229.9</ele>
        <time>2017-10-21T13:27:54Z</time>
      </trkpt>
      <trkpt lat="49.00309" lon="1.12195">
        <ele>231.1</ele>
        <time>2017-10-21T13:27:59Z</time>
      </trkpt>
      <trkpt lat="49.00317" lon="1.122">
        <ele>232</ele>
        <time>2017-10-21T13:28:04Z</time>
      </trkpt>
      <trkpt lat="49.00326" lon="1.12208">
        <ele>233.1</ele>
        <time>2017-10-21T13:28:09Z</time>
      </trkpt>
      <trkpt lat="49.00335" lon="1.12215">
        <ele>234.2</ele>
        <time>2017-10-21T13:28:15Z</time>
      </trkpt>
      <trkpt lat="49.00339" lon="1.12228">
        <ele>235.1</ele>
        <time>2017-10-21T13:28:22Z</time>
      </trkpt>
      <trkpt lat="49.00333" lon="1.1224">
        <ele>236.9</ele>
        <time>2017-10-21T13:28:28Z</time>
      </trkpt>
      <trkpt lat="49.00325" lon="1.12248">
        <ele>238.7</ele>
        <time>2017-10-21T13:28:34Z</time>
      </trkpt>
      <trkpt lat="49.00315" lon="1.12257">
        <ele>239.9</ele>
        <time>2017-10-21T13:28:40Z</time>
      </trkpt>
      <trkpt lat="49.00305" lon="1.12257">
        <ele>240.1</ele>
        <time>2017-10-21T13:28:44Z</time>
      </trkpt>
      <trkpt lat="49.00294" lon="1.12257">
        <ele>239.8</ele>
        <time>2017-10-21T13:28:48Z</time>
      </trkpt>
      <trkpt lat="49.00285" lon="1.12256">
        <ele>239.9</ele>
        <time>2017-10-21T13:28:51Z</time>
      </trkpt>
      <trkpt lat="49.00275" lon="1.12255">
        <ele>240.2</ele>
        <time>2017-10-21T13:28:54Z</time>
      </trkpt>
      <trkpt lat="49.00264" lon="1.12251">
        <ele>240.4</ele>
        <time>2017-10-21T13:28:58Z</time>
      </trkpt>
      <trkpt lat="49.00255" lon="1.12246">
        <ele>240.6</ele>
        <time>2017-10-21T13:29:01Z</time>
      </trkpt>
      <trkpt lat="49.00247" lon="1.12235">
        <ele>240</ele>
        <time>2017-10-21T13:29:04Z</time>
      </trkpt>
      <trkpt lat="49.00236" lon="1.12226">
        <ele>239.5</ele>
        <time>2017-10-21T13:29:08Z</time>
      </trkpt>
      <trkpt lat="49.00228" lon="1.12219">
        <ele>238.6</ele>
        <time>2017-10-21T13:29:12Z</time>
      </trkpt>
      <trkpt lat="49.0022" lon="1.12211">
        <ele>237.9</ele>
        <time>2017-10-21T13:29:24Z</time>
      </trkpt>
      <trkpt lat="49.00213" lon="1.12199">
        <ele>237.5</ele>
        <time>2017-10-21T13:29:28Z</time>
      </trkpt>
      <trkpt lat="49.00203" lon="1.12191">
        <ele>236.9</ele>
        <time>2017-10-21T13:29:31Z</time>
      </trkpt>
      <trkpt lat="49.00194" lon="1.12181">
        <ele>236.1</ele>
        <time>2017-10-21T13:29:33Z</time>
      </trkpt>
      <trkpt lat="49.00183" lon="1.12171">
        <ele>235</ele>
        <time>2017-10-21T13:29:35Z</time>
      </trkpt>
      <trkpt lat="49.00174" lon="1.12164">
        <ele>234.3</ele>
        <time>2017-10-21T13:29:37Z</time>
      </trkpt>
      <trkpt lat="49.00166" lon="1.12156">
        <ele>234</ele>
        <time>2017-10-21T13:29:39Z</time>
      </trkpt>
      <trkpt lat="49.00155" lon="1.12147">
        <ele>235</ele>
        <time>2017-10-21T13:29:42Z</time>
      </trkpt>
      <trkpt lat="49.00145" lon="1.12137">
        <ele>234.7</ele>
        <time>2017-10-21T13:29:45Z</time>
      </trkpt>
      <trkpt lat="49.00136" lon="1.12127">
        <ele>235</ele>
        <time>2017-10-21T13:29:49Z</time>
      </trkpt>
      <trkpt lat="49.00131" lon="1.12113">
        <ele>234.5</ele>
        <time>2017-10-21T13:29:53Z</time>
      </trkpt>
      <trkpt lat="49.00134" lon="1.12094">
        <ele>233.7</ele>
        <time>2017-10-21T13:29:56Z</time>
      </trkpt>
      <trkpt lat="49.00134" lon="1.12078">
        <ele>232.6</ele>
        <time>2017-10-21T13:29:59Z</time>
      </trkpt>
      <trkpt lat="49.00128" lon="1.12063">
        <ele>231</ele>
        <time>2017-10-21T13:30:02Z</time>
      </trkpt>
      <trkpt lat="49.00119" lon="1.12051">
        <ele>229.7</ele>
        <time>2017-10-21T13:30:05Z</time>
      </trkpt>
      <trkpt lat="49.00114" lon="1.12037">
        <ele>227.9</ele>
        <time>2017-10-21T13:30:08Z</time>
      </trkpt>
      <trkpt lat="49.00118" lon="1.12022">
        <ele>225.5</ele>
        <time>2017-10-21T13:30:11Z</time>
      </trkpt>
      <trkpt lat="49.00117" lon="1.12008">
        <ele>223.7</ele>
        <time>2017-10-21T13:30:14Z</time>
      </trkpt>
      <trkpt lat="49.00111" lon="1.11998">
        <ele>222.6</ele>
        <time>2017-10-21T13:30:17Z</time>
      </trkpt>
      <trkpt lat="49.00101" lon="1.11993">
        <ele>221.9</ele>
        <time>2017-10-21T13:30:20Z</time>
      </trkpt>
      <trkpt lat="49.00093" lon="1.11985">
        <ele>221.8</ele>
        <time>2017-10-21T13:30:22Z</time>
      </trkpt>
      <trkpt lat="49.00084" lon="1.11977">
        <ele>221.9</ele>
        <time>2017-10-21T13:30:24Z</time>
      </trkpt>
      <trkpt lat="49.00075" lon="1.11972">
        <ele>222.1</ele>
        <time>2017-10-21T13:30:26Z</time>
      </trkpt>
      <trkpt lat="49.00065" lon="1.11967">
        <ele>222.2</ele>
        <time>2017-10-21T13:30:28Z</time>
      </trkpt>
      <trkpt lat="49.00056" lon="1.11962">
        <ele>222.4</ele>
        <time>2017-10-21T13:30:30Z</time>
      </trkpt>
      <trkpt lat="49.00044" lon="1.11955">
        <ele>222.7</ele>
        <time>2017-10-21T13:30:33Z</time>
      </trkpt>
      <trkpt lat="49.00032" lon="1.11949">
        <ele>223.1</ele>
        <time>2017-10-21T13:30:36Z</time>
      </trkpt>
      <trkpt lat="49.00022" lon="1.11943">
        <ele>223.6</ele>
        <time>2017-10-21T13:30:39Z</time>
      </trkpt>
      <trkpt lat="49.00011" lon="1.11935">
        <ele>224.2</ele>
        <time>2017-10-21T13:30:42Z</time>
      </trkpt>
      <trkpt lat="49" lon="1.11926">
        <ele>224.8</ele>
        <time>2017-10-21T13:30:45Z</time>
      </trkpt>
      <trkpt lat="48.99988" lon="1.11919">
        <ele>225.2</ele>
        <time>2017-10-21T13:30:48Z</time>
      </trkpt>
      <trkpt lat="48.99976" lon="1.11914">
        <ele>225.7</ele>
        <time>2017-10-21T13:30:51Z</time>
      </trkpt>
      <trkpt lat="48.99965" lon="1.11907">
        <ele>225.9</ele>
        <time>2017-10-21T13:30:54Z</time>
      </trkpt>
      <trkpt lat="48.99955" lon="1.11902">
        <ele>226.1</ele>
        <time>2017-10-21T13:30:56Z</time>
      </trkpt>
      <trkpt lat="48.99943" lon="1.11895">
        <ele>226.5</ele>
        <time>2017-10-21T13:30:59Z</time>
      </trkpt>
      <trkpt lat="48.99932" lon="1.11888">
        <ele>227.2</ele>
        <time>2017-10-21T13:31:02Z</time>
      </trkpt>
      <trkpt lat="48.99922" lon="1.11883">
        <ele>227.9</ele>
        <time>2017-10-21T13:31:05Z</time>
      </trkpt>
      <trkpt lat="48.99912" lon="1.11877">
        <ele>228.3</ele>
        <time>2017-10-21T13:31:08Z</time>
      </trkpt>
      <trkpt lat="48.99901" lon="1.11872">
        <ele>228.8</ele>
        <time>2017-10-21T13:31:11Z</time>
      </trkpt>
      <trkpt lat="48.9989" lon="1.11868">
        <ele>229.3</ele>
        <time>2017-10-21T13:31:14Z</time>
      </trkpt>
      <trkpt lat="48.99879" lon="1.11864">
        <ele>229.9</ele>
        <time>2017-10-21T13:31:17Z</time>
      </trkpt>
      <trkpt lat="48.99868" lon="1.1186">
        <ele>230.3</ele>
        <time>2017-10-21T13:31:20Z</time>
      </trkpt>
      <trkpt lat="48.99859" lon="1.1186">
        <ele>230.5</ele>
        <time>2017-10-21T13:31:23Z</time>
      </trkpt>
      <trkpt lat="48.9985" lon="1.11858">
        <ele>230.6</ele>
        <time>2017-10-21T13:31:26Z</time>
      </trkpt>
      <trkpt lat="48.9984" lon="1.11857">
        <ele>230.9</ele>
        <time>2017-10-21T13:31:29Z</time>
      </trkpt>
      <trkpt lat="48.9983" lon="1.11856">
        <ele>231.3</ele>
        <time>2017-10-21T13:31:32Z</time>
      </trkpt>
      <trkpt lat="48.9982" lon="1.11855">
        <ele>231.9</ele>
        <time>2017-10-21T13:31:36Z</time>
      </trkpt>
      <trkpt lat="48.99808" lon="1.11855">
        <ele>232.1</ele>
        <time>2017-10-21T13:31:40Z</time>
      </trkpt>
      <trkpt lat="48.99799" lon="1.11855">
        <ele>232.3</ele>
        <time>2017-10-21T13:31:44Z</time>
      </trkpt>
      <trkpt lat="48.99788" lon="1.11854">
        <ele>232.8</ele>
        <time>2017-10-21T13:31:49Z</time>
      </trkpt>
      <trkpt lat="48.99779" lon="1.1185">
        <ele>233.4</ele>
        <time>2017-10-21T13:31:53Z</time>
      </trkpt>
      <trkpt lat="48.9977" lon="1.11848">
        <ele>234.1</ele>
        <time>2017-10-21T13:31:58Z</time>
      </trkpt>
      <trkpt lat="48.99764" lon="1.11835">
        <ele>235.6</ele>
        <time>2017-10-21T13:32:13Z</time>
      </trkpt>
      <trkpt lat="48.99764" lon="1.1182">
        <ele>236.8</ele>
        <time>2017-10-21T13:32:18Z</time>
      </trkpt>
      <trkpt lat="48.99761" lon="1.11806">
        <ele>238.4</ele>
        <time>2017-10-21T13:32:24Z</time>
      </trkpt>
      <trkpt lat="48.99759" lon="1.11791">
        <ele>239.2</ele>
        <time>2017-10-21T13:32:29Z</time>
      </trkpt>
      <trkpt lat="48.99756" lon="1.11776">
        <ele>240.1</ele>
        <time>2017-10-21T13:32:34Z</time>
      </trkpt>
      <trkpt lat="48.99753" lon="1.11762">
        <ele>240.8</ele>
        <time>2017-10-21T13:32:39Z</time>
      </trkpt>
      <trkpt lat="48.99752" lon="1.11748">
        <ele>241.5</ele>
        <time>2017-10-21T13:32:44Z</time>
      </trkpt>
      <trkpt lat="48.99749" lon="1.11732">
        <ele>241.8</ele>
        <time>2017-10-21T13:32:49Z</time>
      </trkpt>
      <trkpt lat="48.99745" lon="1.11717">
        <ele>242.5</ele>
        <time>2017-10-21T13:32:54Z</time>
      </trkpt>
      <trkpt lat="48.99739" lon="1.11706">
        <ele>243.3</ele>
        <time>2017-10-21T13:32:59Z</time>
      </trkpt>
      <trkpt lat="48.99736" lon="1.11693">
        <ele>244.4</ele>
        <time>2017-10-21T13:33:48Z</time>
      </trkpt>
      <trkpt lat="48.99739" lon="1.11677">
        <ele>244.3</ele>
        <time>2017-10-21T13:33:53Z</time>
      </trkpt>
      <trkpt lat="48.99744" lon="1.11663">
        <ele>244.6</ele>
        <time>2017-10-21T13:33:57Z</time>
      </trkpt>
      <trkpt lat="48.9975" lon="1.11647">
        <ele>244.8</ele>
        <time>2017-10-21T13:34:01Z</time>
      </trkpt>
      <trkpt lat="48.99746" lon="1.11635">
        <ele>245.5</ele>
        <time>2017-10-21T13:34:08Z</time>
      </trkpt>
      <trkpt lat="48.99735" lon="1.11634">
        <ele>245.5</ele>
        <time>2017-10-21T13:34:12Z</time>
      </trkpt>
      <trkpt lat="48.99732" lon="1.11616">
        <ele>245.3</ele>
        <time>2017-10-21T13:34:15Z</time>
      </trkpt>
      <trkpt lat="48.99729" lon="1.116">
        <ele>245.2</ele>
        <time>2017-10-21T13:34:18Z</time>
      </trkpt>
      <trkpt lat="48.99726" lon="1.11583">
        <ele>245.2</ele>
        <time>2017-10-21T13:34:21Z</time>
      </trkpt>
      <trkpt lat="48.99723" lon="1.11566">
        <ele>245.2</ele>
        <time>2017-10-21T13:34:24Z</time>
      </trkpt>
      <trkpt lat="48.9972" lon="1.11547">
        <ele>245.3</ele>
        <time>2017-10-21T13:34:27Z</time>
      </trkpt>
      <trkpt lat="48.99717" lon="1.11528">
        <ele>245.5</ele>
        <time>2017-10-21T13:34:30Z</time>
      </trkpt>
      <trkpt lat="48.99714" lon="1.11512">
        <ele>246.1</ele>
        <time>2017-10-21T13:34:33Z</time>
      </trkpt>
      <trkpt lat="48.99711" lon="1.11495">
        <ele>246.4</ele>
        <time>2017-10-21T13:34:36Z</time>
      </trkpt>
      <trkpt lat="48.99713" lon="1.11477">
        <ele>246.7</ele>
        <time>2017-10-21T13:34:40Z</time>
      </trkpt>
      <trkpt lat="48.99712" lon="1.11463">
        <ele>247.1</ele>
        <time>2017-10-21T13:34:43Z</time>
      </trkpt>
      <trkpt lat="48.9971" lon="1.11446">
        <ele>247.9</ele>
        <time>2017-10-21T13:34:46Z</time>
      </trkpt>
      <trkpt lat="48.99705" lon="1.1143">
        <ele>248.7</ele>
        <time>2017-10-21T13:34:49Z</time>
      </trkpt>
      <trkpt lat="48.99702" lon="1.11417">
        <ele>249.1</ele>
        <time>2017-10-21T13:34:51Z</time>
      </trkpt>
      <trkpt lat="48.99699" lon="1.11398">
        <ele>249.5</ele>
        <time>2017-10-21T13:34:54Z</time>
      </trkpt>
      <trkpt lat="48.99695" lon="1.11383">
        <ele>250</ele>
        <time>2017-10-21T13:34:57Z</time>
      </trkpt>
      <trkpt lat="48.99687" lon="1.11373">
        <ele>250.2</ele>
        <time>2017-10-21T13:35:01Z</time>
      </trkpt>
      <trkpt lat="48.99679" lon="1.1138">
        <ele>250.5</ele>
        <time>2017-10-21T13:35:05Z</time>
      </trkpt>
      <trkpt lat="48.9967" lon="1.1139">
        <ele>250.6</ele>
        <time>2017-10-21T13:35:08Z</time>
      </trkpt>
      <trkpt lat="48.99661" lon="1.11402">
        <ele>250.4</ele>
        <time>2017-10-21T13:35:11Z</time>
      </trkpt>
      <trkpt lat="48.99654" lon="1.11411">
        <ele>250.1</ele>
        <time>2017-10-21T13:35:13Z</time>
      </trkpt>
      <trkpt lat="48.99646" lon="1.11419">
        <ele>249.8</ele>
        <time>2017-10-21T13:35:15Z</time>
      </trkpt>
      <trkpt lat="48.99638" lon="1.1143">
        <ele>249.7</ele>
        <time>2017-10-21T13:35:17Z</time>
      </trkpt>
      <trkpt lat="48.99628" lon="1.11442">
        <ele>249.7</ele>
        <time>2017-10-21T13:35:20Z</time>
      </trkpt>
      <trkpt lat="48.99618" lon="1.11453">
        <ele>249.8</ele>
        <time>2017-10-21T13:35:23Z</time>
      </trkpt>
      <trkpt lat="48.99609" lon="1.11463">
        <ele>249.7</ele>
        <time>2017-10-21T13:35:26Z</time>
      </trkpt>
      <trkpt lat="48.99602" lon="1.11475">
        <ele>249.9</ele>
        <time>2017-10-21T13:35:29Z</time>
      </trkpt>
      <trkpt lat="48.99593" lon="1.11486">
        <ele>250.1</ele>
        <time>2017-10-21T13:35:32Z</time>
      </trkpt>
      <trkpt lat="48.99585" lon="1.11496">
        <ele>250.2</ele>
        <time>2017-10-21T13:35:35Z</time>
      </trkpt>
      <trkpt lat="48.99579" lon="1.11507">
        <ele>250.1</ele>
        <time>2017-10-21T13:35:37Z</time>
      </trkpt>
      <trkpt lat="48.99571" lon="1.11518">
        <ele>250.3</ele>
        <time>2017-10-21T13:35:40Z</time>
      </trkpt>
      <trkpt lat="48.99562" lon="1.11532">
        <ele>250.3</ele>
        <time>2017-10-21T13:35:43Z</time>
      </trkpt>
      <trkpt lat="48.99553" lon="1.11544">
        <ele>250</ele>
        <time>2017-10-21T13:35:46Z</time>
      </trkpt>
      <trkpt lat="48.99543" lon="1.11555">
        <ele>249.7</ele>
        <time>2017-10-21T13:35:49Z</time>
      </trkpt>
      <trkpt lat="48.99534" lon="1.11565">
        <ele>249.8</ele>
        <time>2017-10-21T13:35:51Z</time>
      </trkpt>
      <trkpt lat="48.99526" lon="1.11576">
        <ele>249.8</ele>
        <time>2017-10-21T13:35:53Z</time>
      </trkpt>
      <trkpt lat="48.99519" lon="1.11585">
        <ele>249.9</ele>
        <time>2017-10-21T13:35:55Z</time>
      </trkpt>
      <trkpt lat="48.9951" lon="1.11597">
        <ele>249.9</ele>
        <time>2017-10-21T13:35:57Z</time>
      </trkpt>
      <trkpt lat="48.99504" lon="1.11608">
        <ele>249.7</ele>
        <time>2017-10-21T13:35:59Z</time>
      </trkpt>
      <trkpt lat="48.99498" lon="1.11621">
        <ele>249.7</ele>
        <time>2017-10-21T13:36:01Z</time>
      </trkpt>
      <trkpt lat="48.99493" lon="1.11636">
        <ele>249.7</ele>
        <time>2017-10-21T13:36:03Z</time>
      </trkpt>
      <trkpt lat="48.99488" lon="1.11653">
        <ele>249.6</ele>
        <time>2017-10-21T13:36:05Z</time>
      </trkpt>
      <trkpt lat="48.99482" lon="1.11668">
        <ele>249.6</ele>
        <time>2017-10-21T13:36:07Z</time>
      </trkpt>
      <trkpt lat="48.99475" lon="1.11681">
        <ele>249.5</ele>
        <time>2017-10-21T13:36:09Z</time>
      </trkpt>
      <trkpt lat="48.99467" lon="1.11694">
        <ele>249.2</ele>
        <time>2017-10-21T13:36:11Z</time>
      </trkpt>
      <trkpt lat="48.99459" lon="1.11706">
        <ele>248.9</ele>
        <time>2017-10-21T13:36:13Z</time>
      </trkpt>
      <trkpt lat="48.99452" lon="1.11718">
        <ele>248.3</ele>
        <time>2017-10-21T13:36:15Z</time>
      </trkpt>
      <trkpt lat="48.99444" lon="1.1173">
        <ele>248.1</ele>
        <time>2017-10-21T13:36:17Z</time>
      </trkpt>
      <trkpt lat="48.99435" lon="1.11745">
        <ele>247.8</ele>
        <time>2017-10-21T13:36:19Z</time>
      </trkpt>
      <trkpt lat="48.99429" lon="1.11759">
        <ele>247.2</ele>
        <time>2017-10-21T13:36:21Z</time>
      </trkpt>
      <trkpt lat="48.99422" lon="1.11775">
        <ele>247</ele>
        <time>2017-10-21T13:36:23Z</time>
      </trkpt>
      <trkpt lat="48.99416" lon="1.11788">
        <ele>247</ele>
        <time>2017-10-21T13:36:25Z</time>
      </trkpt>
      <trkpt lat="48.99409" lon="1.11801">
        <ele>246.7</ele>
        <time>2017-10-21T13:36:27Z</time>
      </trkpt>
      <trkpt lat="48.99403" lon="1.11814">
        <ele>246.9</ele>
        <time>2017-10-21T13:36:29Z</time>
      </trkpt>
      <trkpt lat="48.99396" lon="1.11827">
        <ele>246.7</ele>
        <time>2017-10-21T13:36:31Z</time>
      </trkpt>
      <trkpt lat="48.99389" lon="1.11841">
        <ele>246.7</ele>
        <time>2017-10-21T13:36:33Z</time>
      </trkpt>
      <trkpt lat="48.99382" lon="1.11854">
        <ele>246.6</ele>
        <time>2017-10-21T13:36:35Z</time>
      </trkpt>
      <trkpt lat="48.99376" lon="1.11867">
        <ele>246.5</ele>
        <time>2017-10-21T13:36:37Z</time>
      </trkpt>
      <trkpt lat="48.99369" lon="1.11882">
        <ele>246</ele>
        <time>2017-10-21T13:36:39Z</time>
      </trkpt>
      <trkpt lat="48.99361" lon="1.11894">
        <ele>245.8</ele>
        <time>2017-10-21T13:36:41Z</time>
      </trkpt>
      <trkpt lat="48.99353" lon="1.11908">
        <ele>245.6</ele>
        <time>2017-10-21T13:36:43Z</time>
      </trkpt>
      <trkpt lat="48.99344" lon="1.1192">
        <ele>245.3</ele>
        <time>2017-10-21T13:36:45Z</time>
      </trkpt>
      <trkpt lat="48.99336" lon="1.11932">
        <ele>245.2</ele>
        <time>2017-10-21T13:36:47Z</time>
      </trkpt>
      <trkpt lat="48.99328" lon="1.11943">
        <ele>245.2</ele>
        <time>2017-10-21T13:36:49Z</time>
      </trkpt>
      <trkpt lat="48.9932" lon="1.11953">
        <ele>245.3</ele>
        <time>2017-10-21T13:36:51Z</time>
      </trkpt>
      <trkpt lat="48.99312" lon="1.11963">
        <ele>245.4</ele>
        <time>2017-10-21T13:36:53Z</time>
      </trkpt>
      <trkpt lat="48.99303" lon="1.11975">
        <ele>245.4</ele>
        <time>2017-10-21T13:36:56Z</time>
      </trkpt>
      <trkpt lat="48.99294" lon="1.11986">
        <ele>245.4</ele>
        <time>2017-10-21T13:36:59Z</time>
      </trkpt>
      <trkpt lat="48.99286" lon="1.11996">
        <ele>245.5</ele>
        <time>2017-10-21T13:37:02Z</time>
      </trkpt>
      <trkpt lat="48.99278" lon="1.12004">
        <ele>245.5</ele>
        <time>2017-10-21T13:37:06Z</time>
      </trkpt>
      <trkpt lat="48.99274" lon="1.12017">
        <ele>245.8</ele>
        <time>2017-10-21T13:37:35Z</time>
      </trkpt>
      <trkpt lat="48.99266" lon="1.12026">
        <ele>245.8</ele>
        <time>2017-10-21T13:37:40Z</time>
      </trkpt>
      <trkpt lat="48.99259" lon="1.12037">
        <ele>245.8</ele>
        <time>2017-10-21T13:37:43Z</time>
      </trkpt>
      <trkpt lat="48.99249" lon="1.12047">
        <ele>245.7</ele>
        <time>2017-10-21T13:37:46Z</time>
      </trkpt>
      <trkpt lat="48.9924" lon="1.12057">
        <ele>245.8</ele>
        <time>2017-10-21T13:37:49Z</time>
      </trkpt>
      <trkpt lat="48.9923" lon="1.1207">
        <ele>245.8</ele>
        <time>2017-10-21T13:37:52Z</time>
      </trkpt>
      <trkpt lat="48.99219" lon="1.12083">
        <ele>246.1</ele>
        <time>2017-10-21T13:37:55Z</time>
      </trkpt>
      <trkpt lat="48.99211" lon="1.12094">
        <ele>246.3</ele>
        <time>2017-10-21T13:37:58Z</time>
      </trkpt>
      <trkpt lat="48.99202" lon="1.12103">
        <ele>246.8</ele>
        <time>2017-10-21T13:38:01Z</time>
      </trkpt>
      <trkpt lat="48.99192" lon="1.12113">
        <ele>247.5</ele>
        <time>2017-10-21T13:38:05Z</time>
      </trkpt>
      <trkpt lat="48.99183" lon="1.12123">
        <ele>247.6</ele>
        <time>2017-10-21T13:38:08Z</time>
      </trkpt>
      <trkpt lat="48.99173" lon="1.12134">
        <ele>247.6</ele>
        <time>2017-10-21T13:38:11Z</time>
      </trkpt>
      <trkpt lat="48.99165" lon="1.12141">
        <ele>247.7</ele>
        <time>2017-10-21T13:38:14Z</time>
      </trkpt>
      <trkpt lat="48.99155" lon="1.12152">
        <ele>247.7</ele>
        <time>2017-10-21T13:38:17Z</time>
      </trkpt>
      <trkpt lat="48.99144" lon="1.12158">
        <ele>247.6</ele>
        <time>2017-10-21T13:38:20Z</time>
      </trkpt>
      <trkpt lat="48.99136" lon="1.12168">
        <ele>247.6</ele>
        <time>2017-10-21T13:38:23Z</time>
      </trkpt>
      <trkpt lat="48.99125" lon="1.1218">
        <ele>247.5</ele>
        <time>2017-10-21T13:38:26Z</time>
      </trkpt>
      <trkpt lat="48.99117" lon="1.1219">
        <ele>247.4</ele>
        <time>2017-10-21T13:38:29Z</time>
      </trkpt>
      <trkpt lat="48.99107" lon="1.122">
        <ele>247.5</ele>
        <time>2017-10-21T13:38:32Z</time>
      </trkpt>
      <trkpt lat="48.99099" lon="1.12208">
        <ele>247.9</ele>
        <time>2017-10-21T13:38:35Z</time>
      </trkpt>
      <trkpt lat="48.9909" lon="1.12218">
        <ele>248.2</ele>
        <time>2017-10-21T13:38:38Z</time>
      </trkpt>
      <trkpt lat="48.99078" lon="1.1223">
        <ele>248.4</ele>
        <time>2017-10-21T13:38:41Z</time>
      </trkpt>
      <trkpt lat="48.9907" lon="1.1224">
        <ele>248.5</ele>
        <time>2017-10-21T13:38:43Z</time>
      </trkpt>
      <trkpt lat="48.99062" lon="1.12248">
        <ele>248.6</ele>
        <time>2017-10-21T13:38:45Z</time>
      </trkpt>
      <trkpt lat="48.99049" lon="1.12258">
        <ele>248.9</ele>
        <time>2017-10-21T13:38:48Z</time>
      </trkpt>
      <trkpt lat="48.9904" lon="1.12257">
        <ele>249.5</ele>
        <time>2017-10-21T13:38:51Z</time>
      </trkpt>
      <trkpt lat="48.99034" lon="1.12243">
        <ele>250</ele>
        <time>2017-10-21T13:38:55Z</time>
      </trkpt>
      <trkpt lat="48.9903" lon="1.12229">
        <ele>250.4</ele>
        <time>2017-10-21T13:38:58Z</time>
      </trkpt>
      <trkpt lat="48.99027" lon="1.12214">
        <ele>250.6</ele>
        <time>2017-10-21T13:39:01Z</time>
      </trkpt>
      <trkpt lat="48.99024" lon="1.12195">
        <ele>250.7</ele>
        <time>2017-10-21T13:39:04Z</time>
      </trkpt>
      <trkpt lat="48.99019" lon="1.12176">
        <ele>250.9</ele>
        <time>2017-10-21T13:39:07Z</time>
      </trkpt>
      <trkpt lat="48.99017" lon="1.1216">
        <ele>250.9</ele>
        <time>2017-10-21T13:39:10Z</time>
      </trkpt>
      <trkpt lat="48.99014" lon="1.12145">
        <ele>251.1</ele>
        <time>2017-10-21T13:39:13Z</time>
      </trkpt>
      <trkpt lat="48.99008" lon="1.12129">
        <ele>251.2</ele>
        <time>2017-10-21T13:39:16Z</time>
      </trkpt>
      <trkpt lat="48.99004" lon="1.12113">
        <ele>251.4</ele>
        <time>2017-10-21T13:39:19Z</time>
      </trkpt>
      <trkpt lat="48.99" lon="1.12096">
        <ele>251.7</ele>
        <time>2017-10-21T13:39:22Z</time>
      </trkpt>
      <trkpt lat="48.98997" lon="1.12081">
        <ele>252.2</ele>
        <time>2017-10-21T13:39:25Z</time>
      </trkpt>
      <trkpt lat="48.98993" lon="1.12065">
        <ele>252.5</ele>
        <time>2017-10-21T13:39:28Z</time>
      </trkpt>
      <trkpt lat="48.98995" lon="1.12051">
        <ele>252.9</ele>
        <time>2017-10-21T13:39:32Z</time>
      </trkpt>
      <trkpt lat="48.98998" lon="1.12038">
        <ele>253</ele>
        <time>2017-10-21T13:39:35Z</time>
      </trkpt>
      <trkpt lat="48.99004" lon="1.12022">
        <ele>253</ele>
        <time>2017-10-21T13:39:39Z</time>
      </trkpt>
      <trkpt lat="48.99011" lon="1.12013">
        <ele>252.8</ele>
        <time>2017-10-21T13:39:42Z</time>
      </trkpt>
      <trkpt lat="48.99014" lon="1.12">
        <ele>252.3</ele>
        <time>2017-10-21T13:39:45Z</time>
      </trkpt>
      <trkpt lat="48.99011" lon="1.11985">
        <ele>252.2</ele>
        <time>2017-10-21T13:39:48Z</time>
      </trkpt>
      <trkpt lat="48.99008" lon="1.11972">
        <ele>251.9</ele>
        <time>2017-10-21T13:39:51Z</time>
      </trkpt>
      <trkpt lat="48.99004" lon="1.11954">
        <ele>250.9</ele>
        <time>2017-10-21T13:39:54Z</time>
      </trkpt>
      <trkpt lat="48.99001" lon="1.1194">
        <ele>250.1</ele>
        <time>2017-10-21T13:39:56Z</time>
      </trkpt>
      <trkpt lat="48.98992" lon="1.11928">
        <ele>246.5</ele>
        <time>2017-10-21T13:40:01Z</time>
      </trkpt>
      <trkpt lat="48.98981" lon="1.11918">
        <ele>244.2</ele>
        <time>2017-10-21T13:40:04Z</time>
      </trkpt>
      <trkpt lat="48.98973" lon="1.11904">
        <ele>241.1</ele>
        <time>2017-10-21T13:40:07Z</time>
      </trkpt>
      <trkpt lat="48.98976" lon="1.1189">
        <ele>237.8</ele>
        <time>2017-10-21T13:40:12Z</time>
      </trkpt>
      <trkpt lat="48.98982" lon="1.1188">
        <ele>235.8</ele>
        <time>2017-10-21T13:40:15Z</time>
      </trkpt>
      <trkpt lat="48.98991" lon="1.11872">
        <ele>233.9</ele>
        <time>2017-10-21T13:40:18Z</time>
      </trkpt>
      <trkpt lat="48.99003" lon="1.1187">
        <ele>232.3</ele>
        <time>2017-10-21T13:40:21Z</time>
      </trkpt>
      <trkpt lat="48.99016" lon="1.11869">
        <ele>230.5</ele>
        <time>2017-10-21T13:40:25Z</time>
      </trkpt>
      <trkpt lat="48.99023" lon="1.1186">
        <ele>229.6</ele>
        <time>2017-10-21T13:40:27Z</time>
      </trkpt>
      <trkpt lat="48.99025" lon="1.11843">
        <ele>227.6</ele>
        <time>2017-10-21T13:40:31Z</time>
      </trkpt>
      <trkpt lat="48.99023" lon="1.1183">
        <ele>225.9</ele>
        <time>2017-10-21T13:40:34Z</time>
      </trkpt>
      <trkpt lat="48.99015" lon="1.11817">
        <ele>224.3</ele>
        <time>2017-10-21T13:40:37Z</time>
      </trkpt>
      <trkpt lat="48.99005" lon="1.11806">
        <ele>222.9</ele>
        <time>2017-10-21T13:40:40Z</time>
      </trkpt>
      <trkpt lat="48.98994" lon="1.11795">
        <ele>221.1</ele>
        <time>2017-10-21T13:40:43Z</time>
      </trkpt>
      <trkpt lat="48.98986" lon="1.11789">
        <ele>219.6</ele>
        <time>2017-10-21T13:40:46Z</time>
      </trkpt>
      <trkpt lat="48.98976" lon="1.11783">
        <ele>218.2</ele>
        <time>2017-10-21T13:40:49Z</time>
      </trkpt>
      <trkpt lat="48.98968" lon="1.11775">
        <ele>217</ele>
        <time>2017-10-21T13:40:52Z</time>
      </trkpt>
      <trkpt lat="48.98962" lon="1.11764">
        <ele>214.8</ele>
        <time>2017-10-21T13:40:56Z</time>
      </trkpt>
      <trkpt lat="48.98955" lon="1.11754">
        <ele>211.9</ele>
        <time>2017-10-21T13:41:09Z</time>
      </trkpt>
      <trkpt lat="48.98946" lon="1.11748">
        <ele>211.2</ele>
        <time>2017-10-21T13:42:53Z</time>
      </trkpt>
      <trkpt lat="48.98935" lon="1.11748">
        <ele>210.7</ele>
        <time>2017-10-21T13:42:57Z</time>
      </trkpt>
      <trkpt lat="48.98925" lon="1.11748">
        <ele>210.2</ele>
        <time>2017-10-21T13:43:00Z</time>
      </trkpt>
      <trkpt lat="48.98914" lon="1.11748">
        <ele>209.8</ele>
        <time>2017-10-21T13:43:03Z</time>
      </trkpt>
      <trkpt lat="48.98903" lon="1.1175">
        <ele>209.5</ele>
        <time>2017-10-21T13:43:06Z</time>
      </trkpt>
      <trkpt lat="48.98893" lon="1.11756">
        <ele>208.9</ele>
        <time>2017-10-21T13:43:09Z</time>
      </trkpt>
      <trkpt lat="48.98884" lon="1.11763">
        <ele>208.4</ele>
        <time>2017-10-21T13:43:12Z</time>
      </trkpt>
      <trkpt lat="48.98875" lon="1.11773">
        <ele>208.4</ele>
        <time>2017-10-21T13:43:15Z</time>
      </trkpt>
      <trkpt lat="48.98866" lon="1.11786">
        <ele>208.5</ele>
        <time>2017-10-21T13:43:18Z</time>
      </trkpt>
      <trkpt lat="48.98857" lon="1.11796">
        <ele>208.7</ele>
        <time>2017-10-21T13:43:21Z</time>
      </trkpt>
      <trkpt lat="48.98847" lon="1.11809">
        <ele>208.7</ele>
        <time>2017-10-21T13:43:24Z</time>
      </trkpt>
      <trkpt lat="48.98837" lon="1.11822">
        <ele>209</ele>
        <time>2017-10-21T13:43:27Z</time>
      </trkpt>
      <trkpt lat="48.98828" lon="1.11836">
        <ele>209.3</ele>
        <time>2017-10-21T13:43:30Z</time>
      </trkpt>
      <trkpt lat="48.98819" lon="1.11851">
        <ele>209.7</ele>
        <time>2017-10-21T13:43:33Z</time>
      </trkpt>
      <trkpt lat="48.98811" lon="1.11865">
        <ele>210</ele>
        <time>2017-10-21T13:43:36Z</time>
      </trkpt>
      <trkpt lat="48.98801" lon="1.11878">
        <ele>210.2</ele>
        <time>2017-10-21T13:43:39Z</time>
      </trkpt>
      <trkpt lat="48.98796" lon="1.11889">
        <ele>210.4</ele>
        <time>2017-10-21T13:43:41Z</time>
      </trkpt>
      <trkpt lat="48.98787" lon="1.11903">
        <ele>210.6</ele>
        <time>2017-10-21T13:43:44Z</time>
      </trkpt>
      <trkpt lat="48.98778" lon="1.11915">
        <ele>210.7</ele>
        <time>2017-10-21T13:43:47Z</time>
      </trkpt>
      <trkpt lat="48.9877" lon="1.11923">
        <ele>210.8</ele>
        <time>2017-10-21T13:43:50Z</time>
      </trkpt>
      <trkpt lat="48.98761" lon="1.11932">
        <ele>210.9</ele>
        <time>2017-10-21T13:43:53Z</time>
      </trkpt>
      <trkpt lat="48.98751" lon="1.1194">
        <ele>210.9</ele>
        <time>2017-10-21T13:43:56Z</time>
      </trkpt>
      <trkpt lat="48.98741" lon="1.11946">
        <ele>211.2</ele>
        <time>2017-10-21T13:43:59Z</time>
      </trkpt>
      <trkpt lat="48.98733" lon="1.11954">
        <ele>211.3</ele>
        <time>2017-10-21T13:44:02Z</time>
      </trkpt>
      <trkpt lat="48.98726" lon="1.11963">
        <ele>211.8</ele>
        <time>2017-10-21T13:44:05Z</time>
      </trkpt>
      <trkpt lat="48.98717" lon="1.11972">
        <ele>211.9</ele>
        <time>2017-10-21T13:44:08Z</time>
      </trkpt>
      <trkpt lat="48.98705" lon="1.11979">
        <ele>211.9</ele>
        <time>2017-10-21T13:44:11Z</time>
      </trkpt>
      <trkpt lat="48.98694" lon="1.11987">
        <ele>211.5</ele>
        <time>2017-10-21T13:44:14Z</time>
      </trkpt>
      <trkpt lat="48.98685" lon="1.11993">
        <ele>211.4</ele>
        <time>2017-10-21T13:44:16Z</time>
      </trkpt>
      <trkpt lat="48.98677" lon="1.11999">
        <ele>211.3</ele>
        <time>2017-10-21T13:44:18Z</time>
      </trkpt>
      <trkpt lat="48.98664" lon="1.12008">
        <ele>211</ele>
        <time>2017-10-21T13:44:21Z</time>
      </trkpt>
      <trkpt lat="48.98655" lon="1.12013">
        <ele>210.9</ele>
        <time>2017-10-21T13:44:23Z</time>
      </trkpt>
      <trkpt lat="48.98644" lon="1.12016">
        <ele>211.3</ele>
        <time>2017-10-21T13:44:26Z</time>
      </trkpt>
      <trkpt lat="48.98634" lon="1.12017">
        <ele>211.7</ele>
        <time>2017-10-21T13:44:29Z</time>
      </trkpt>
      <trkpt lat="48.98623" lon="1.12021">
        <ele>212.2</ele>
        <time>2017-10-21T13:44:32Z</time>
      </trkpt>
      <trkpt lat="48.98612" lon="1.12023">
        <ele>212.5</ele>
        <time>2017-10-21T13:44:35Z</time>
      </trkpt>
      <trkpt lat="48.98601" lon="1.1203">
        <ele>212.8</ele>
        <time>2017-10-21T13:44:38Z</time>
      </trkpt>
      <trkpt lat="48.98592" lon="1.12033">
        <ele>212.9</ele>
        <time>2017-10-21T13:44:40Z</time>
      </trkpt>
      <trkpt lat="48.98581" lon="1.1204">
        <ele>212.8</ele>
        <time>2017-10-21T13:44:43Z</time>
      </trkpt>
      <trkpt lat="48.98571" lon="1.12048">
        <ele>212.8</ele>
        <time>2017-10-21T13:44:46Z</time>
      </trkpt>
      <trkpt lat="48.98563" lon="1.12055">
        <ele>212.9</ele>
        <time>2017-10-21T13:44:48Z</time>
      </trkpt>
      <trkpt lat="48.98552" lon="1.12065">
        <ele>212.9</ele>
        <time>2017-10-21T13:44:51Z</time>
      </trkpt>
      <trkpt lat="48.98542" lon="1.12077">
        <ele>213</ele>
        <time>2017-10-21T13:44:54Z</time>
      </trkpt>
      <trkpt lat="48.98533" lon="1.12088">
        <ele>213.2</ele>
        <time>2017-10-21T13:44:57Z</time>
      </trkpt>
      <trkpt lat="48.98526" lon="1.121">
        <ele>213.3</ele>
        <time>2017-10-21T13:45:00Z</time>
      </trkpt>
      <trkpt lat="48.98519" lon="1.12112">
        <ele>213.6</ele>
        <time>2017-10-21T13:45:03Z</time>
      </trkpt>
      <trkpt lat="48.98512" lon="1.12127">
        <ele>213.6</ele>
        <time>2017-10-21T13:45:06Z</time>
      </trkpt>
      <trkpt lat="48.98505" lon="1.1214">
        <ele>214</ele>
        <time>2017-10-21T13:45:09Z</time>
      </trkpt>
      <trkpt lat="48.98501" lon="1.12153">
        <ele>214.1</ele>
        <time>2017-10-21T13:45:12Z</time>
      </trkpt>
      <trkpt lat="48.98496" lon="1.1217">
        <ele>214.4</ele>
        <time>2017-10-21T13:45:16Z</time>
      </trkpt>
      <trkpt lat="48.98492" lon="1.12183">
        <ele>214.4</ele>
        <time>2017-10-21T13:45:19Z</time>
      </trkpt>
      <trkpt lat="48.9849" lon="1.122">
        <ele>214.8</ele>
        <time>2017-10-21T13:45:23Z</time>
      </trkpt>
      <trkpt lat="48.98489" lon="1.12217">
        <ele>215</ele>
        <time>2017-10-21T13:45:26Z</time>
      </trkpt>
      <trkpt lat="48.98489" lon="1.12235">
        <ele>215.2</ele>
        <time>2017-10-21T13:45:30Z</time>
      </trkpt>
      <trkpt lat="48.98489" lon="1.12252">
        <ele>215.3</ele>
        <time>2017-10-21T13:45:33Z</time>
      </trkpt>
      <trkpt lat="48.98489" lon="1.12271">
        <ele>215.2</ele>
        <time>2017-10-21T13:45:36Z</time>
      </trkpt>
      <trkpt lat="48.9849" lon="1.12288">
        <ele>214.8</ele>
        <time>2017-10-21T13:45:39Z</time>
      </trkpt>
      <trkpt lat="48.98492" lon="1.12307">
        <ele>214.5</ele>
        <time>2017-10-21T13:45:42Z</time>
      </trkpt>
      <trkpt lat="48.98497" lon="1.12325">
        <ele>214.3</ele>
        <time>2017-10-21T13:45:45Z</time>
      </trkpt>
      <trkpt lat="48.98502" lon="1.12342">
        <ele>214.1</ele>
        <time>2017-10-21T13:45:48Z</time>
      </trkpt>
      <trkpt lat="48.98507" lon="1.12359">
        <ele>214</ele>
        <time>2017-10-21T13:45:51Z</time>
      </trkpt>
      <trkpt lat="48.98512" lon="1.12377">
        <ele>213.9</ele>
        <time>2017-10-21T13:45:54Z</time>
      </trkpt>
      <trkpt lat="48.98518" lon="1.12393">
        <ele>213.8</ele>
        <time>2017-10-21T13:45:57Z</time>
      </trkpt>
      <trkpt lat="48.98524" lon="1.12408">
        <ele>213.8</ele>
        <time>2017-10-21T13:46:00Z</time>
      </trkpt>
      <trkpt lat="48.98527" lon="1.12425">
        <ele>213.6</ele>
        <time>2017-10-21T13:46:03Z</time>
      </trkpt>
      <trkpt lat="48.98524" lon="1.12443">
        <ele>213.6</ele>
        <time>2017-10-21T13:46:06Z</time>
      </trkpt>
      <trkpt lat="48.9852" lon="1.12456">
        <ele>213.8</ele>
        <time>2017-10-21T13:46:09Z</time>
      </trkpt>
      <trkpt lat="48.98516" lon="1.12468">
        <ele>214.7</ele>
        <time>2017-10-21T13:46:21Z</time>
      </trkpt>
      <trkpt lat="48.98509" lon="1.12479">
        <ele>214.8</ele>
        <time>2017-10-21T13:46:26Z</time>
      </trkpt>
      <trkpt lat="48.98502" lon="1.12488">
        <ele>214.8</ele>
        <time>2017-10-21T13:46:29Z</time>
      </trkpt>
      <trkpt lat="48.98493" lon="1.12494">
        <ele>214.8</ele>
        <time>2017-10-21T13:46:32Z</time>
      </trkpt>
      <trkpt lat="48.98482" lon="1.12494">
        <ele>214.9</ele>
        <time>2017-10-21T13:46:35Z</time>
      </trkpt>
      <trkpt lat="48.98471" lon="1.1249">
        <ele>215</ele>
        <time>2017-10-21T13:46:38Z</time>
      </trkpt>
      <trkpt lat="48.9846" lon="1.12482">
        <ele>215.2</ele>
        <time>2017-10-21T13:46:41Z</time>
      </trkpt>
      <trkpt lat="48.98449" lon="1.12475">
        <ele>215.4</ele>
        <time>2017-10-21T13:46:44Z</time>
      </trkpt>
      <trkpt lat="48.98437" lon="1.12467">
        <ele>215.5</ele>
        <time>2017-10-21T13:46:47Z</time>
      </trkpt>
      <trkpt lat="48.98427" lon="1.12457">
        <ele>215.5</ele>
        <time>2017-10-21T13:46:50Z</time>
      </trkpt>
      <trkpt lat="48.98418" lon="1.12444">
        <ele>215.6</ele>
        <time>2017-10-21T13:46:53Z</time>
      </trkpt>
      <trkpt lat="48.9841" lon="1.12432">
        <ele>215.8</ele>
        <time>2017-10-21T13:46:56Z</time>
      </trkpt>
      <trkpt lat="48.98401" lon="1.12422">
        <ele>216.1</ele>
        <time>2017-10-21T13:46:59Z</time>
      </trkpt>
      <trkpt lat="48.98391" lon="1.12411">
        <ele>216.5</ele>
        <time>2017-10-21T13:47:02Z</time>
      </trkpt>
      <trkpt lat="48.98381" lon="1.12399">
        <ele>216.7</ele>
        <time>2017-10-21T13:47:05Z</time>
      </trkpt>
      <trkpt lat="48.98373" lon="1.12386">
        <ele>216.8</ele>
        <time>2017-10-21T13:47:08Z</time>
      </trkpt>
      <trkpt lat="48.98365" lon="1.12375">
        <ele>217</ele>
        <time>2017-10-21T13:47:11Z</time>
      </trkpt>
      <trkpt lat="48.98358" lon="1.12363">
        <ele>217.2</ele>
        <time>2017-10-21T13:47:14Z</time>
      </trkpt>
      <trkpt lat="48.98349" lon="1.1235">
        <ele>217.6</ele>
        <time>2017-10-21T13:47:17Z</time>
      </trkpt>
      <trkpt lat="48.9834" lon="1.12335">
        <ele>217.8</ele>
        <time>2017-10-21T13:47:20Z</time>
      </trkpt>
      <trkpt lat="48.98331" lon="1.1232">
        <ele>218</ele>
        <time>2017-10-21T13:47:23Z</time>
      </trkpt>
      <trkpt lat="48.98322" lon="1.12308">
        <ele>217.9</ele>
        <time>2017-10-21T13:47:26Z</time>
      </trkpt>
      <trkpt lat="48.98314" lon="1.12299">
        <ele>218.3</ele>
        <time>2017-10-21T13:47:29Z</time>
      </trkpt>
      <trkpt lat="48.98307" lon="1.12288">
        <ele>218.2</ele>
        <time>2017-10-21T13:47:32Z</time>
      </trkpt>
      <trkpt lat="48.983" lon="1.12279">
        <ele>218.3</ele>
        <time>2017-10-21T13:47:35Z</time>
      </trkpt>
      <trkpt lat="48.98291" lon="1.12267">
        <ele>218.4</ele>
        <time>2017-10-21T13:47:39Z</time>
      </trkpt>
      <trkpt lat="48.98284" lon="1.12257">
        <ele>218.5</ele>
        <time>2017-10-21T13:47:42Z</time>
      </trkpt>
      <trkpt lat="48.98277" lon="1.12248">
        <ele>218.6</ele>
        <time>2017-10-21T13:47:45Z</time>
      </trkpt>
      <trkpt lat="48.98269" lon="1.12237">
        <ele>218.7</ele>
        <time>2017-10-21T13:47:49Z</time>
      </trkpt>
      <trkpt lat="48.98262" lon="1.12225">
        <ele>219</ele>
        <time>2017-10-21T13:47:54Z</time>
      </trkpt>
      <trkpt lat="48.98255" lon="1.12215">
        <ele>219.2</ele>
        <time>2017-10-21T13:47:58Z</time>
      </trkpt>
      <trkpt lat="48.98248" lon="1.12204">
        <ele>219.2</ele>
        <time>2017-10-21T13:48:02Z</time>
      </trkpt>
      <trkpt lat="48.98241" lon="1.12194">
        <ele>219.2</ele>
        <time>2017-10-21T13:48:06Z</time>
      </trkpt>
      <trkpt lat="48.98234" lon="1.12184">
        <ele>219.2</ele>
        <time>2017-10-21T13:48:09Z</time>
      </trkpt>
      <trkpt lat="48.98225" lon="1.12174">
        <ele>219.6</ele>
        <time>2017-10-21T13:48:13Z</time>
      </trkpt>
      <trkpt lat="48.98219" lon="1.12163">
        <ele>220.3</ele>
        <time>2017-10-21T13:48:17Z</time>
      </trkpt>
      <trkpt lat="48.98211" lon="1.12151">
        <ele>220.4</ele>
        <time>2017-10-21T13:48:22Z</time>
      </trkpt>
      <trkpt lat="48.98204" lon="1.1214">
        <ele>220.7</ele>
        <time>2017-10-21T13:48:27Z</time>
      </trkpt>
      <trkpt lat="48.98196" lon="1.12132">
        <ele>221.4</ele>
        <time>2017-10-21T13:48:31Z</time>
      </trkpt>
      <trkpt lat="48.98188" lon="1.12124">
        <ele>222.1</ele>
        <time>2017-10-21T13:48:35Z</time>
      </trkpt>
      <trkpt lat="48.98178" lon="1.12117">
        <ele>222.9</ele>
        <time>2017-10-21T13:48:40Z</time>
      </trkpt>
      <trkpt lat="48.9817" lon="1.12109">
        <ele>223.4</ele>
        <time>2017-10-21T13:48:46Z</time>
      </trkpt>
      <trkpt lat="48.98161" lon="1.12106">
        <ele>224.1</ele>
        <time>2017-10-21T13:49:48Z</time>
      </trkpt>
      <trkpt lat="48.98167" lon="1.12116">
        <ele>223.8</ele>
        <time>2017-10-21T13:50:34Z</time>
      </trkpt>
      <trkpt lat="48.98175" lon="1.12124">
        <ele>223.6</ele>
        <time>2017-10-21T13:50:36Z</time>
      </trkpt>
      <trkpt lat="48.98186" lon="1.12137">
        <ele>222.9</ele>
        <time>2017-10-21T13:50:39Z</time>
      </trkpt>
      <trkpt lat="48.98196" lon="1.12151">
        <ele>222.5</ele>
        <time>2017-10-21T13:50:41Z</time>
      </trkpt>
      <trkpt lat="48.98206" lon="1.12163">
        <ele>222.1</ele>
        <time>2017-10-21T13:50:43Z</time>
      </trkpt>
      <trkpt lat="48.98215" lon="1.12176">
        <ele>221.2</ele>
        <time>2017-10-21T13:50:45Z</time>
      </trkpt>
      <trkpt lat="48.98226" lon="1.1219">
        <ele>220.2</ele>
        <time>2017-10-21T13:50:47Z</time>
      </trkpt>
      <trkpt lat="48.98236" lon="1.12203">
        <ele>219.9</ele>
        <time>2017-10-21T13:50:49Z</time>
      </trkpt>
      <trkpt lat="48.98243" lon="1.12216">
        <ele>219.5</ele>
        <time>2017-10-21T13:50:51Z</time>
      </trkpt>
      <trkpt lat="48.98251" lon="1.12229">
        <ele>219.5</ele>
        <time>2017-10-21T13:50:53Z</time>
      </trkpt>
      <trkpt lat="48.98258" lon="1.12241">
        <ele>219</ele>
        <time>2017-10-21T13:50:55Z</time>
      </trkpt>
      <trkpt lat="48.98265" lon="1.12257">
        <ele>218.8</ele>
        <time>2017-10-21T13:50:58Z</time>
      </trkpt>
      <trkpt lat="48.98273" lon="1.12269">
        <ele>218.9</ele>
        <time>2017-10-21T13:51:02Z</time>
      </trkpt>
      <trkpt lat="48.98279" lon="1.12281">
        <ele>219.2</ele>
        <time>2017-10-21T13:51:07Z</time>
      </trkpt>
      <trkpt lat="48.98282" lon="1.12297">
        <ele>219.6</ele>
        <time>2017-10-21T13:51:12Z</time>
      </trkpt>
      <trkpt lat="48.98283" lon="1.12313">
        <ele>220.6</ele>
        <time>2017-10-21T13:51:18Z</time>
      </trkpt>
      <trkpt lat="48.98284" lon="1.12327">
        <ele>221.7</ele>
        <time>2017-10-21T13:51:24Z</time>
      </trkpt>
      <trkpt lat="48.98284" lon="1.12342">
        <ele>223.1</ele>
        <time>2017-10-21T13:51:30Z</time>
      </trkpt>
      <trkpt lat="48.98286" lon="1.12359">
        <ele>225.1</ele>
        <time>2017-10-21T13:51:36Z</time>
      </trkpt>
      <trkpt lat="48.98286" lon="1.12372">
        <ele>226.7</ele>
        <time>2017-10-21T13:51:41Z</time>
      </trkpt>
      <trkpt lat="48.98287" lon="1.12387">
        <ele>228.3</ele>
        <time>2017-10-21T13:51:47Z</time>
      </trkpt>
      <trkpt lat="48.98289" lon="1.124">
        <ele>229.9</ele>
        <time>2017-10-21T13:51:53Z</time>
      </trkpt>
      <trkpt lat="48.98291" lon="1.12417">
        <ele>231.4</ele>
        <time>2017-10-21T13:51:59Z</time>
      </trkpt>
      <trkpt lat="48.98294" lon="1.12431">
        <ele>232.4</ele>
        <time>2017-10-21T13:52:04Z</time>
      </trkpt>
      <trkpt lat="48.98298" lon="1.12444">
        <ele>233.7</ele>
        <time>2017-10-21T13:52:09Z</time>
      </trkpt>
      <trkpt lat="48.98303" lon="1.12459">
        <ele>234.7</ele>
        <time>2017-10-21T13:52:14Z</time>
      </trkpt>
      <trkpt lat="48.98305" lon="1.12474">
        <ele>236.6</ele>
        <time>2017-10-21T13:52:20Z</time>
      </trkpt>
      <trkpt lat="48.98308" lon="1.1249">
        <ele>239</ele>
        <time>2017-10-21T13:52:27Z</time>
      </trkpt>
      <trkpt lat="48.9831" lon="1.12503">
        <ele>240.4</ele>
        <time>2017-10-21T13:52:34Z</time>
      </trkpt>
      <trkpt lat="48.98311" lon="1.12517">
        <ele>241.8</ele>
        <time>2017-10-21T13:52:40Z</time>
      </trkpt>
      <trkpt lat="48.98315" lon="1.1253">
        <ele>243.4</ele>
        <time>2017-10-21T13:52:46Z</time>
      </trkpt>
      <trkpt lat="48.98319" lon="1.12544">
        <ele>245.7</ele>
        <time>2017-10-21T13:52:53Z</time>
      </trkpt>
      <trkpt lat="48.98325" lon="1.12555">
        <ele>247</ele>
        <time>2017-10-21T13:52:59Z</time>
      </trkpt>
      <trkpt lat="48.98333" lon="1.12566">
        <ele>248.3</ele>
        <time>2017-10-21T13:53:05Z</time>
      </trkpt>
      <trkpt lat="48.9834" lon="1.12574">
        <ele>249.7</ele>
        <time>2017-10-21T13:53:10Z</time>
      </trkpt>
      <trkpt lat="48.98349" lon="1.12581">
        <ele>251.2</ele>
        <time>2017-10-21T13:53:15Z</time>
      </trkpt>
      <trkpt lat="48.98357" lon="1.12589">
        <ele>252.3</ele>
        <time>2017-10-21T13:53:20Z</time>
      </trkpt>
      <trkpt lat="48.98364" lon="1.12598">
        <ele>252.9</ele>
        <time>2017-10-21T13:53:24Z</time>
      </trkpt>
      <trkpt lat="48.98372" lon="1.12607">
        <ele>253.4</ele>
        <time>2017-10-21T13:53:28Z</time>
      </trkpt>
      <trkpt lat="48.9838" lon="1.12616">
        <ele>254.2</ele>
        <time>2017-10-21T13:53:32Z</time>
      </trkpt>
      <trkpt lat="48.98387" lon="1.12627">
        <ele>255.7</ele>
        <time>2017-10-21T13:53:36Z</time>
      </trkpt>
      <trkpt lat="48.98395" lon="1.12638">
        <ele>257.5</ele>
        <time>2017-10-21T13:53:40Z</time>
      </trkpt>
      <trkpt lat="48.98402" lon="1.12648">
        <ele>258.8</ele>
        <time>2017-10-21T13:53:44Z</time>
      </trkpt>
      <trkpt lat="48.98397" lon="1.12636">
        <ele>261</ele>
        <time>2017-10-21T13:55:10Z</time>
      </trkpt>
      <trkpt lat="48.98389" lon="1.12625">
        <ele>260.2</ele>
        <time>2017-10-21T13:55:12Z</time>
      </trkpt>
      <trkpt lat="48.98379" lon="1.12615">
        <ele>258.9</ele>
        <time>2017-10-21T13:55:14Z</time>
      </trkpt>
      <trkpt lat="48.98371" lon="1.12606">
        <ele>257.3</ele>
        <time>2017-10-21T13:55:16Z</time>
      </trkpt>
      <trkpt lat="48.98363" lon="1.12597">
        <ele>255.1</ele>
        <time>2017-10-21T13:55:19Z</time>
      </trkpt>
      <trkpt lat="48.98355" lon="1.12589">
        <ele>253</ele>
        <time>2017-10-21T13:55:24Z</time>
      </trkpt>
      <trkpt lat="48.98362" lon="1.12599">
        <ele>251.8</ele>
        <time>2017-10-21T13:55:39Z</time>
      </trkpt>
      <trkpt lat="48.98371" lon="1.12608">
        <ele>252.7</ele>
        <time>2017-10-21T13:55:44Z</time>
      </trkpt>
      <trkpt lat="48.98379" lon="1.12616">
        <ele>253.6</ele>
        <time>2017-10-21T13:55:49Z</time>
      </trkpt>
      <trkpt lat="48.98386" lon="1.12626">
        <ele>255.3</ele>
        <time>2017-10-21T13:55:56Z</time>
      </trkpt>
      <trkpt lat="48.98393" lon="1.12637">
        <ele>257.2</ele>
        <time>2017-10-21T13:56:04Z</time>
      </trkpt>
      <trkpt lat="48.984" lon="1.12648">
        <ele>259.8</ele>
        <time>2017-10-21T13:56:13Z</time>
      </trkpt>
      <trkpt lat="48.98403" lon="1.12661">
        <ele>261.6</ele>
        <time>2017-10-21T13:56:23Z</time>
      </trkpt>
      <trkpt lat="48.98412" lon="1.12659">
        <ele>261.7</ele>
        <time>2017-10-21T13:56:33Z</time>
      </trkpt>
      <trkpt lat="48.98423" lon="1.1266">
        <ele>261.4</ele>
        <time>2017-10-21T13:57:03Z</time>
      </trkpt>
      <trkpt lat="48.98433" lon="1.12661">
        <ele>261.5</ele>
        <time>2017-10-21T13:57:08Z</time>
      </trkpt>
      <trkpt lat="48.98444" lon="1.12664">
        <ele>261.4</ele>
        <time>2017-10-21T13:57:13Z</time>
      </trkpt>
      <trkpt lat="48.98455" lon="1.12663">
        <ele>261.3</ele>
        <time>2017-10-21T13:57:17Z</time>
      </trkpt>
      <trkpt lat="48.98464" lon="1.12665">
        <ele>261.2</ele>
        <time>2017-10-21T13:57:20Z</time>
      </trkpt>
      <trkpt lat="48.98473" lon="1.12666">
        <ele>261.2</ele>
        <time>2017-10-21T13:57:23Z</time>
      </trkpt>
      <trkpt lat="48.98482" lon="1.12667">
        <ele>261.1</ele>
        <time>2017-10-21T13:57:26Z</time>
      </trkpt>
      <trkpt lat="48.98493" lon="1.12668">
        <ele>261.2</ele>
        <time>2017-10-21T13:57:29Z</time>
      </trkpt>
      <trkpt lat="48.98505" lon="1.12671">
        <ele>261.7</ele>
        <time>2017-10-21T13:57:33Z</time>
      </trkpt>
      <trkpt lat="48.98515" lon="1.12671">
        <ele>261.9</ele>
        <time>2017-10-21T13:57:36Z</time>
      </trkpt>
      <trkpt lat="48.98525" lon="1.12673">
        <ele>262.3</ele>
        <time>2017-10-21T13:57:39Z</time>
      </trkpt>
      <trkpt lat="48.98535" lon="1.12674">
        <ele>262.9</ele>
        <time>2017-10-21T13:57:42Z</time>
      </trkpt>
      <trkpt lat="48.98547" lon="1.12675">
        <ele>263.5</ele>
        <time>2017-10-21T13:57:46Z</time>
      </trkpt>
      <trkpt lat="48.98559" lon="1.12677">
        <ele>264.3</ele>
        <time>2017-10-21T13:57:50Z</time>
      </trkpt>
      <trkpt lat="48.98569" lon="1.12677">
        <ele>264.7</ele>
        <time>2017-10-21T13:57:53Z</time>
      </trkpt>
      <trkpt lat="48.98578" lon="1.12679">
        <ele>265.2</ele>
        <time>2017-10-21T13:57:56Z</time>
      </trkpt>
      <trkpt lat="48.98587" lon="1.12682">
        <ele>265.4</ele>
        <time>2017-10-21T13:57:59Z</time>
      </trkpt>
      <trkpt lat="48.986" lon="1.12682">
        <ele>265.5</ele>
        <time>2017-10-21T13:58:02Z</time>
      </trkpt>
      <trkpt lat="48.98612" lon="1.12683">
        <ele>265.6</ele>
        <time>2017-10-21T13:58:05Z</time>
      </trkpt>
      <trkpt lat="48.98623" lon="1.12684">
        <ele>265.6</ele>
        <time>2017-10-21T13:58:08Z</time>
      </trkpt>
      <trkpt lat="48.98632" lon="1.12681">
        <ele>265.8</ele>
        <time>2017-10-21T13:58:12Z</time>
      </trkpt>
      <trkpt lat="48.9864" lon="1.12674">
        <ele>265.9</ele>
        <time>2017-10-21T13:58:16Z</time>
      </trkpt>
      <trkpt lat="48.98649" lon="1.12668">
        <ele>265.9</ele>
        <time>2017-10-21T13:58:19Z</time>
      </trkpt>
      <trkpt lat="48.98658" lon="1.12658">
        <ele>266</ele>
        <time>2017-10-21T13:58:22Z</time>
      </trkpt>
      <trkpt lat="48.98667" lon="1.1265">
        <ele>265.9</ele>
        <time>2017-10-21T13:58:25Z</time>
      </trkpt>
      <trkpt lat="48.98676" lon="1.12642">
        <ele>265.9</ele>
        <time>2017-10-21T13:58:28Z</time>
      </trkpt>
      <trkpt lat="48.98684" lon="1.12634">
        <ele>265.9</ele>
        <time>2017-10-21T13:58:31Z</time>
      </trkpt>
      <trkpt lat="48.98693" lon="1.12626">
        <ele>265.6</ele>
        <time>2017-10-21T13:58:34Z</time>
      </trkpt>
      <trkpt lat="48.98704" lon="1.12616">
        <ele>265.3</ele>
        <time>2017-10-21T13:58:37Z</time>
      </trkpt>
      <trkpt lat="48.98713" lon="1.12608">
        <ele>265.1</ele>
        <time>2017-10-21T13:58:40Z</time>
      </trkpt>
      <trkpt lat="48.98721" lon="1.12599">
        <ele>265.1</ele>
        <time>2017-10-21T13:58:43Z</time>
      </trkpt>
      <trkpt lat="48.9873" lon="1.12589">
        <ele>264.8</ele>
        <time>2017-10-21T13:58:46Z</time>
      </trkpt>
      <trkpt lat="48.98738" lon="1.1258">
        <ele>264.8</ele>
        <time>2017-10-21T13:58:49Z</time>
      </trkpt>
      <trkpt lat="48.98747" lon="1.1257">
        <ele>264.8</ele>
        <time>2017-10-21T13:58:52Z</time>
      </trkpt>
      <trkpt lat="48.98757" lon="1.1256">
        <ele>264.5</ele>
        <time>2017-10-21T13:58:55Z</time>
      </trkpt>
      <trkpt lat="48.98769" lon="1.1255">
        <ele>264.4</ele>
        <time>2017-10-21T13:58:58Z</time>
      </trkpt>
      <trkpt lat="48.98777" lon="1.12542">
        <ele>264.2</ele>
        <time>2017-10-21T13:59:00Z</time>
      </trkpt>
      <trkpt lat="48.98787" lon="1.12531">
        <ele>263.8</ele>
        <time>2017-10-21T13:59:02Z</time>
      </trkpt>
      <trkpt lat="48.98796" lon="1.12523">
        <ele>263.5</ele>
        <time>2017-10-21T13:59:04Z</time>
      </trkpt>
      <trkpt lat="48.98805" lon="1.12511">
        <ele>263.1</ele>
        <time>2017-10-21T13:59:07Z</time>
      </trkpt>
      <trkpt lat="48.98815" lon="1.12502">
        <ele>262.9</ele>
        <time>2017-10-21T13:59:10Z</time>
      </trkpt>
      <trkpt lat="48.98822" lon="1.12494">
        <ele>262.6</ele>
        <time>2017-10-21T13:59:12Z</time>
      </trkpt>
      <trkpt lat="48.98833" lon="1.12484">
        <ele>262.1</ele>
        <time>2017-10-21T13:59:15Z</time>
      </trkpt>
      <trkpt lat="48.98841" lon="1.12475">
        <ele>261.9</ele>
        <time>2017-10-21T13:59:17Z</time>
      </trkpt>
      <trkpt lat="48.98848" lon="1.12467">
        <ele>261.7</ele>
        <time>2017-10-21T13:59:19Z</time>
      </trkpt>
      <trkpt lat="48.98857" lon="1.12459">
        <ele>261.4</ele>
        <time>2017-10-21T13:59:21Z</time>
      </trkpt>
      <trkpt lat="48.98869" lon="1.12448">
        <ele>261.1</ele>
        <time>2017-10-21T13:59:24Z</time>
      </trkpt>
      <trkpt lat="48.98878" lon="1.1244">
        <ele>260.9</ele>
        <time>2017-10-21T13:59:26Z</time>
      </trkpt>
      <trkpt lat="48.98886" lon="1.12431">
        <ele>260.6</ele>
        <time>2017-10-21T13:59:28Z</time>
      </trkpt>
      <trkpt lat="48.98896" lon="1.12422">
        <ele>260.2</ele>
        <time>2017-10-21T13:59:30Z</time>
      </trkpt>
      <trkpt lat="48.98905" lon="1.12414">
        <ele>259.6</ele>
        <time>2017-10-21T13:59:32Z</time>
      </trkpt>
      <trkpt lat="48.98913" lon="1.12405">
        <ele>259.1</ele>
        <time>2017-10-21T13:59:34Z</time>
      </trkpt>
      <trkpt lat="48.98921" lon="1.12397">
        <ele>258.6</ele>
        <time>2017-10-21T13:59:36Z</time>
      </trkpt>
      <trkpt lat="48.98932" lon="1.12387">
        <ele>257.9</ele>
        <time>2017-10-21T13:59:39Z</time>
      </trkpt>
      <trkpt lat="48.9894" lon="1.12378">
        <ele>257.2</ele>
        <time>2017-10-21T13:59:41Z</time>
      </trkpt>
      <trkpt lat="48.98951" lon="1.12368">
        <ele>256.3</ele>
        <time>2017-10-21T13:59:44Z</time>
      </trkpt>
      <trkpt lat="48.98961" lon="1.12357">
        <ele>255.5</ele>
        <time>2017-10-21T13:59:47Z</time>
      </trkpt>
      <trkpt lat="48.98972" lon="1.12345">
        <ele>254.6</ele>
        <time>2017-10-21T13:59:50Z</time>
      </trkpt>
      <trkpt lat="48.9898" lon="1.12333">
        <ele>253.6</ele>
        <time>2017-10-21T13:59:53Z</time>
      </trkpt>
      <trkpt lat="48.98991" lon="1.12323">
        <ele>252.8</ele>
        <time>2017-10-21T13:59:56Z</time>
      </trkpt>
      <trkpt lat="48.98999" lon="1.12312">
        <ele>252.1</ele>
        <time>2017-10-21T13:59:58Z</time>
      </trkpt>
      <trkpt lat="48.99007" lon="1.12301">
        <ele>251.5</ele>
        <time>2017-10-21T14:00:00Z</time>
      </trkpt>
      <trkpt lat="48.99014" lon="1.12293">
        <ele>251</ele>
        <time>2017-10-21T14:00:02Z</time>
      </trkpt>
      <trkpt lat="48.99022" lon="1.12285">
        <ele>250.6</ele>
        <time>2017-10-21T14:00:05Z</time>
      </trkpt>
      <trkpt lat="48.99031" lon="1.12275">
        <ele>250</ele>
        <time>2017-10-21T14:00:10Z</time>
      </trkpt>
      <trkpt lat="48.99039" lon="1.12285">
        <ele>249</ele>
        <time>2017-10-21T14:00:16Z</time>
      </trkpt>
      <trkpt lat="48.99043" lon="1.12302">
        <ele>248.6</ele>
        <time>2017-10-21T14:00:20Z</time>
      </trkpt>
      <trkpt lat="48.99047" lon="1.12321">
        <ele>248.3</ele>
        <time>2017-10-21T14:00:23Z</time>
      </trkpt>
      <trkpt lat="48.99049" lon="1.12334">
        <ele>248.2</ele>
        <time>2017-10-21T14:00:25Z</time>
      </trkpt>
      <trkpt lat="48.99052" lon="1.1235">
        <ele>248</ele>
        <time>2017-10-21T14:00:27Z</time>
      </trkpt>
      <trkpt lat="48.99056" lon="1.12367">
        <ele>247.8</ele>
        <time>2017-10-21T14:00:29Z</time>
      </trkpt>
      <trkpt lat="48.99059" lon="1.12382">
        <ele>247.7</ele>
        <time>2017-10-21T14:00:31Z</time>
      </trkpt>
      <trkpt lat="48.99063" lon="1.12395">
        <ele>247.6</ele>
        <time>2017-10-21T14:00:33Z</time>
      </trkpt>
      <trkpt lat="48.99066" lon="1.1241">
        <ele>247.5</ele>
        <time>2017-10-21T14:00:35Z</time>
      </trkpt>
      <trkpt lat="48.99069" lon="1.12423">
        <ele>247.2</ele>
        <time>2017-10-21T14:00:37Z</time>
      </trkpt>
      <trkpt lat="48.99074" lon="1.12437">
        <ele>247</ele>
        <time>2017-10-21T14:00:39Z</time>
      </trkpt>
      <trkpt lat="48.99079" lon="1.1245">
        <ele>247</ele>
        <time>2017-10-21T14:00:41Z</time>
      </trkpt>
      <trkpt lat="48.99083" lon="1.12463">
        <ele>247.1</ele>
        <time>2017-10-21T14:00:43Z</time>
      </trkpt>
      <trkpt lat="48.99086" lon="1.12479">
        <ele>246.9</ele>
        <time>2017-10-21T14:00:45Z</time>
      </trkpt>
      <trkpt lat="48.99089" lon="1.12493">
        <ele>247</ele>
        <time>2017-10-21T14:00:47Z</time>
      </trkpt>
      <trkpt lat="48.99091" lon="1.12513">
        <ele>247.1</ele>
        <time>2017-10-21T14:00:50Z</time>
      </trkpt>
      <trkpt lat="48.99095" lon="1.12527">
        <ele>247</ele>
        <time>2017-10-21T14:00:52Z</time>
      </trkpt>
      <trkpt lat="48.99098" lon="1.12542">
        <ele>247.1</ele>
        <time>2017-10-21T14:00:54Z</time>
      </trkpt>
      <trkpt lat="48.99103" lon="1.12555">
        <ele>247</ele>
        <time>2017-10-21T14:00:56Z</time>
      </trkpt>
      <trkpt lat="48.99106" lon="1.12571">
        <ele>246.9</ele>
        <time>2017-10-21T14:00:58Z</time>
      </trkpt>
      <trkpt lat="48.99112" lon="1.12588">
        <ele>246.7</ele>
        <time>2017-10-21T14:01:01Z</time>
      </trkpt>
      <trkpt lat="48.99115" lon="1.12604">
        <ele>246.6</ele>
        <time>2017-10-21T14:01:03Z</time>
      </trkpt>
      <trkpt lat="48.99119" lon="1.12619">
        <ele>246.5</ele>
        <time>2017-10-21T14:01:05Z</time>
      </trkpt>
      <trkpt lat="48.99122" lon="1.12634">
        <ele>246.5</ele>
        <time>2017-10-21T14:01:07Z</time>
      </trkpt>
      <trkpt lat="48.99125" lon="1.12648">
        <ele>246.9</ele>
        <time>2017-10-21T14:01:09Z</time>
      </trkpt>
      <trkpt lat="48.99126" lon="1.12662">
        <ele>247.1</ele>
        <time>2017-10-21T14:01:11Z</time>
      </trkpt>
      <trkpt lat="48.9913" lon="1.1268">
        <ele>247.3</ele>
        <time>2017-10-21T14:01:14Z</time>
      </trkpt>
      <trkpt lat="48.99136" lon="1.12694">
        <ele>247.5</ele>
        <time>2017-10-21T14:01:17Z</time>
      </trkpt>
      <trkpt lat="48.99139" lon="1.12708">
        <ele>247.6</ele>
        <time>2017-10-21T14:01:20Z</time>
      </trkpt>
      <trkpt lat="48.99145" lon="1.12724">
        <ele>247.6</ele>
        <time>2017-10-21T14:01:24Z</time>
      </trkpt>
      <trkpt lat="48.99151" lon="1.12735">
        <ele>247.9</ele>
        <time>2017-10-21T14:02:19Z</time>
      </trkpt>
      <trkpt lat="48.99161" lon="1.12736">
        <ele>247.9</ele>
        <time>2017-10-21T14:02:24Z</time>
      </trkpt>
      <trkpt lat="48.99173" lon="1.12736">
        <ele>247.8</ele>
        <time>2017-10-21T14:02:27Z</time>
      </trkpt>
      <trkpt lat="48.99186" lon="1.12739">
        <ele>247.8</ele>
        <time>2017-10-21T14:02:30Z</time>
      </trkpt>
      <trkpt lat="48.99196" lon="1.1274">
        <ele>247.6</ele>
        <time>2017-10-21T14:02:34Z</time>
      </trkpt>
      <trkpt lat="48.99204" lon="1.12748">
        <ele>247.4</ele>
        <time>2017-10-21T14:02:38Z</time>
      </trkpt>
      <trkpt lat="48.99204" lon="1.12763">
        <ele>247.3</ele>
        <time>2017-10-21T14:02:43Z</time>
      </trkpt>
      <trkpt lat="48.99203" lon="1.12778">
        <ele>247.4</ele>
        <time>2017-10-21T14:02:48Z</time>
      </trkpt>
      <trkpt lat="48.99211" lon="1.1279">
        <ele>247.4</ele>
        <time>2017-10-21T14:02:52Z</time>
      </trkpt>
      <trkpt lat="48.99217" lon="1.12801">
        <ele>247.5</ele>
        <time>2017-10-21T14:02:57Z</time>
      </trkpt>
      <trkpt lat="48.99227" lon="1.12804">
        <ele>247.7</ele>
        <time>2017-10-21T14:03:04Z</time>
      </trkpt>
      <trkpt lat="48.99236" lon="1.12798">
        <ele>247.6</ele>
        <time>2017-10-21T14:03:11Z</time>
      </trkpt>
      <trkpt lat="48.99246" lon="1.12794">
        <ele>247.7</ele>
        <time>2017-10-21T14:03:18Z</time>
      </trkpt>
      <trkpt lat="48.99256" lon="1.12792">
        <ele>248.4</ele>
        <time>2017-10-21T14:03:25Z</time>
      </trkpt>
      <trkpt lat="48.99258" lon="1.12806">
        <ele>249.6</ele>
        <time>2017-10-21T14:03:31Z</time>
      </trkpt>
      <trkpt lat="48.99261" lon="1.1282">
        <ele>251.6</ele>
        <time>2017-10-21T14:03:37Z</time>
      </trkpt>
      <trkpt lat="48.99252" lon="1.12824">
        <ele>252.6</ele>
        <time>2017-10-21T14:17:07Z</time>
      </trkpt>
      <trkpt lat="48.99257" lon="1.12812">
        <ele>251.7</ele>
        <time>2017-10-21T14:20:36Z</time>
      </trkpt>
      <trkpt lat="48.99261" lon="1.12799">
        <ele>251.4</ele>
        <time>2017-10-21T14:20:42Z</time>
      </trkpt>
      <trkpt lat="48.99255" lon="1.12786">
        <ele>249.6</ele>
        <time>2017-10-21T14:20:48Z</time>
      </trkpt>
      <trkpt lat="48.9925" lon="1.12771">
        <ele>248.6</ele>
        <time>2017-10-21T14:20:52Z</time>
      </trkpt>
      <trkpt lat="48.99245" lon="1.12758">
        <ele>248</ele>
        <time>2017-10-21T14:20:55Z</time>
      </trkpt>
      <trkpt lat="48.99238" lon="1.12744">
        <ele>247.3</ele>
        <time>2017-10-21T14:20:59Z</time>
      </trkpt>
      <trkpt lat="48.99227" lon="1.1274">
        <ele>247.3</ele>
        <time>2017-10-21T14:21:03Z</time>
      </trkpt>
      <trkpt lat="48.99215" lon="1.1274">
        <ele>247.1</ele>
        <time>2017-10-21T14:21:07Z</time>
      </trkpt>
      <trkpt lat="48.99204" lon="1.12737">
        <ele>246.9</ele>
        <time>2017-10-21T14:21:11Z</time>
      </trkpt>
      <trkpt lat="48.99195" lon="1.12734">
        <ele>246.7</ele>
        <time>2017-10-21T14:21:15Z</time>
      </trkpt>
      <trkpt lat="48.99185" lon="1.12734">
        <ele>246.7</ele>
        <time>2017-10-21T14:21:18Z</time>
      </trkpt>
      <trkpt lat="48.99176" lon="1.12733">
        <ele>247</ele>
        <time>2017-10-21T14:21:21Z</time>
      </trkpt>
      <trkpt lat="48.99166" lon="1.12734">
        <ele>247.3</ele>
        <time>2017-10-21T14:21:24Z</time>
      </trkpt>
      <trkpt lat="48.99156" lon="1.12739">
        <ele>247.7</ele>
        <time>2017-10-21T14:21:29Z</time>
      </trkpt>
      <trkpt lat="48.99155" lon="1.12754">
        <ele>248</ele>
        <time>2017-10-21T14:21:33Z</time>
      </trkpt>
      <trkpt lat="48.9916" lon="1.12767">
        <ele>248.1</ele>
        <time>2017-10-21T14:21:37Z</time>
      </trkpt>
      <trkpt lat="48.99161" lon="1.12781">
        <ele>248.3</ele>
        <time>2017-10-21T14:21:40Z</time>
      </trkpt>
      <trkpt lat="48.99163" lon="1.12795">
        <ele>248.5</ele>
        <time>2017-10-21T14:21:43Z</time>
      </trkpt>
      <trkpt lat="48.99164" lon="1.12811">
        <ele>248.6</ele>
        <time>2017-10-21T14:21:47Z</time>
      </trkpt>
      <trkpt lat="48.99166" lon="1.12828">
        <ele>248.8</ele>
        <time>2017-10-21T14:21:50Z</time>
      </trkpt>
      <trkpt lat="48.99168" lon="1.12844">
        <ele>248.6</ele>
        <time>2017-10-21T14:21:53Z</time>
      </trkpt>
      <trkpt lat="48.99172" lon="1.12859">
        <ele>248.7</ele>
        <time>2017-10-21T14:21:56Z</time>
      </trkpt>
      <trkpt lat="48.99177" lon="1.12874">
        <ele>248.8</ele>
        <time>2017-10-21T14:21:59Z</time>
      </trkpt>
      <trkpt lat="48.99179" lon="1.12892">
        <ele>249</ele>
        <time>2017-10-21T14:22:02Z</time>
      </trkpt>
      <trkpt lat="48.9918" lon="1.12907">
        <ele>249.1</ele>
        <time>2017-10-21T14:22:05Z</time>
      </trkpt>
      <trkpt lat="48.99184" lon="1.12925">
        <ele>249.3</ele>
        <time>2017-10-21T14:22:08Z</time>
      </trkpt>
      <trkpt lat="48.99187" lon="1.12938">
        <ele>249.4</ele>
        <time>2017-10-21T14:22:10Z</time>
      </trkpt>
      <trkpt lat="48.99192" lon="1.12956">
        <ele>249.7</ele>
        <time>2017-10-21T14:22:13Z</time>
      </trkpt>
      <trkpt lat="48.99197" lon="1.12973">
        <ele>249.8</ele>
        <time>2017-10-21T14:22:16Z</time>
      </trkpt>
      <trkpt lat="48.99201" lon="1.12992">
        <ele>249.9</ele>
        <time>2017-10-21T14:22:19Z</time>
      </trkpt>
      <trkpt lat="48.99205" lon="1.13004">
        <ele>250</ele>
        <time>2017-10-21T14:22:21Z</time>
      </trkpt>
      <trkpt lat="48.99209" lon="1.13018">
        <ele>250.2</ele>
        <time>2017-10-21T14:22:23Z</time>
      </trkpt>
      <trkpt lat="48.99212" lon="1.13032">
        <ele>250.3</ele>
        <time>2017-10-21T14:22:25Z</time>
      </trkpt>
      <trkpt lat="48.99214" lon="1.13051">
        <ele>250.7</ele>
        <time>2017-10-21T14:22:28Z</time>
      </trkpt>
      <trkpt lat="48.99219" lon="1.13069">
        <ele>251</ele>
        <time>2017-10-21T14:22:31Z</time>
      </trkpt>
      <trkpt lat="48.99224" lon="1.13087">
        <ele>251.5</ele>
        <time>2017-10-21T14:22:34Z</time>
      </trkpt>
      <trkpt lat="48.99229" lon="1.13103">
        <ele>252</ele>
        <time>2017-10-21T14:22:37Z</time>
      </trkpt>
      <trkpt lat="48.99233" lon="1.13118">
        <ele>252.6</ele>
        <time>2017-10-21T14:22:40Z</time>
      </trkpt>
      <trkpt lat="48.99237" lon="1.13132">
        <ele>253.2</ele>
        <time>2017-10-21T14:22:43Z</time>
      </trkpt>
      <trkpt lat="48.99241" lon="1.13145">
        <ele>253.6</ele>
        <time>2017-10-21T14:22:46Z</time>
      </trkpt>
      <trkpt lat="48.99244" lon="1.1316">
        <ele>253.8</ele>
        <time>2017-10-21T14:22:49Z</time>
      </trkpt>
      <trkpt lat="48.99249" lon="1.13175">
        <ele>254.4</ele>
        <time>2017-10-21T14:22:52Z</time>
      </trkpt>
      <trkpt lat="48.99251" lon="1.13193">
        <ele>254.9</ele>
        <time>2017-10-21T14:22:55Z</time>
      </trkpt>
      <trkpt lat="48.99256" lon="1.1321">
        <ele>255.4</ele>
        <time>2017-10-21T14:22:58Z</time>
      </trkpt>
      <trkpt lat="48.9926" lon="1.13226">
        <ele>256</ele>
        <time>2017-10-21T14:23:01Z</time>
      </trkpt>
      <trkpt lat="48.99263" lon="1.13243">
        <ele>256.5</ele>
        <time>2017-10-21T14:23:04Z</time>
      </trkpt>
      <trkpt lat="48.99266" lon="1.1326">
        <ele>257.1</ele>
        <time>2017-10-21T14:23:07Z</time>
      </trkpt>
      <trkpt lat="48.99269" lon="1.13275">
        <ele>257.3</ele>
        <time>2017-10-21T14:23:10Z</time>
      </trkpt>
      <trkpt lat="48.99274" lon="1.13292">
        <ele>257.7</ele>
        <time>2017-10-21T14:23:13Z</time>
      </trkpt>
      <trkpt lat="48.99278" lon="1.13309">
        <ele>258</ele>
        <time>2017-10-21T14:23:16Z</time>
      </trkpt>
      <trkpt lat="48.9928" lon="1.13322">
        <ele>258.3</ele>
        <time>2017-10-21T14:23:18Z</time>
      </trkpt>
      <trkpt lat="48.99282" lon="1.13336">
        <ele>258.6</ele>
        <time>2017-10-21T14:23:20Z</time>
      </trkpt>
      <trkpt lat="48.99286" lon="1.13353">
        <ele>258.9</ele>
        <time>2017-10-21T14:23:23Z</time>
      </trkpt>
      <trkpt lat="48.9929" lon="1.1337">
        <ele>259.5</ele>
        <time>2017-10-21T14:23:26Z</time>
      </trkpt>
      <trkpt lat="48.99294" lon="1.13388">
        <ele>260</ele>
        <time>2017-10-21T14:23:29Z</time>
      </trkpt>
      <trkpt lat="48.99298" lon="1.13406">
        <ele>260.3</ele>
        <time>2017-10-21T14:23:32Z</time>
      </trkpt>
      <trkpt lat="48.99301" lon="1.13422">
        <ele>260.7</ele>
        <time>2017-10-21T14:23:35Z</time>
      </trkpt>
      <trkpt lat="48.99306" lon="1.13439">
        <ele>261</ele>
        <time>2017-10-21T14:23:38Z</time>
      </trkpt>
      <trkpt lat="48.9931" lon="1.13458">
        <ele>261.2</ele>
        <time>2017-10-21T14:23:41Z</time>
      </trkpt>
      <trkpt lat="48.99313" lon="1.13472">
        <ele>261.4</ele>
        <time>2017-10-21T14:23:43Z</time>
      </trkpt>
      <trkpt lat="48.99317" lon="1.1349">
        <ele>261.4</ele>
        <time>2017-10-21T14:23:46Z</time>
      </trkpt>
      <trkpt lat="48.99322" lon="1.13508">
        <ele>261.5</ele>
        <time>2017-10-21T14:23:49Z</time>
      </trkpt>
      <trkpt lat="48.99327" lon="1.1352">
        <ele>261.4</ele>
        <time>2017-10-21T14:23:51Z</time>
      </trkpt>
      <trkpt lat="48.99331" lon="1.13534">
        <ele>261.4</ele>
        <time>2017-10-21T14:23:53Z</time>
      </trkpt>
      <trkpt lat="48.99334" lon="1.13547">
        <ele>261.2</ele>
        <time>2017-10-21T14:23:55Z</time>
      </trkpt>
      <trkpt lat="48.99337" lon="1.1356">
        <ele>261.2</ele>
        <time>2017-10-21T14:23:57Z</time>
      </trkpt>
      <trkpt lat="48.9934" lon="1.1358">
        <ele>261.3</ele>
        <time>2017-10-21T14:24:00Z</time>
      </trkpt>
      <trkpt lat="48.99343" lon="1.13593">
        <ele>261.5</ele>
        <time>2017-10-21T14:24:02Z</time>
      </trkpt>
      <trkpt lat="48.99346" lon="1.13607">
        <ele>261.6</ele>
        <time>2017-10-21T14:24:04Z</time>
      </trkpt>
      <trkpt lat="48.99349" lon="1.1362">
        <ele>261.8</ele>
        <time>2017-10-21T14:24:06Z</time>
      </trkpt>
      <trkpt lat="48.99354" lon="1.13637">
        <ele>262.2</ele>
        <time>2017-10-21T14:24:09Z</time>
      </trkpt>
      <trkpt lat="48.99357" lon="1.13654">
        <ele>262.4</ele>
        <time>2017-10-21T14:24:12Z</time>
      </trkpt>
      <trkpt lat="48.9936" lon="1.13668">
        <ele>262.6</ele>
        <time>2017-10-21T14:24:14Z</time>
      </trkpt>
      <trkpt lat="48.99363" lon="1.13682">
        <ele>262.9</ele>
        <time>2017-10-21T14:24:16Z</time>
      </trkpt>
      <trkpt lat="48.99364" lon="1.13696">
        <ele>263.2</ele>
        <time>2017-10-21T14:24:18Z</time>
      </trkpt>
      <trkpt lat="48.99366" lon="1.13711">
        <ele>263.5</ele>
        <time>2017-10-21T14:24:20Z</time>
      </trkpt>
      <trkpt lat="48.99371" lon="1.13731">
        <ele>263.9</ele>
        <time>2017-10-21T14:24:23Z</time>
      </trkpt>
      <trkpt lat="48.99375" lon="1.1375">
        <ele>264</ele>
        <time>2017-10-21T14:24:26Z</time>
      </trkpt>
      <trkpt lat="48.99381" lon="1.13767">
        <ele>264.2</ele>
        <time>2017-10-21T14:24:29Z</time>
      </trkpt>
      <trkpt lat="48.99386" lon="1.13786">
        <ele>264.6</ele>
        <time>2017-10-21T14:24:32Z</time>
      </trkpt>
      <trkpt lat="48.9939" lon="1.138">
        <ele>264.9</ele>
        <time>2017-10-21T14:24:34Z</time>
      </trkpt>
      <trkpt lat="48.99395" lon="1.13819">
        <ele>265.5</ele>
        <time>2017-10-21T14:24:37Z</time>
      </trkpt>
      <trkpt lat="48.99398" lon="1.13832">
        <ele>265.8</ele>
        <time>2017-10-21T14:24:39Z</time>
      </trkpt>
      <trkpt lat="48.994" lon="1.13846">
        <ele>266</ele>
        <time>2017-10-21T14:24:41Z</time>
      </trkpt>
      <trkpt lat="48.99403" lon="1.13863">
        <ele>266.1</ele>
        <time>2017-10-21T14:24:44Z</time>
      </trkpt>
      <trkpt lat="48.99405" lon="1.13883">
        <ele>266.1</ele>
        <time>2017-10-21T14:24:47Z</time>
      </trkpt>
      <trkpt lat="48.99411" lon="1.13902">
        <ele>266.1</ele>
        <time>2017-10-21T14:24:50Z</time>
      </trkpt>
      <trkpt lat="48.99415" lon="1.13921">
        <ele>266.2</ele>
        <time>2017-10-21T14:24:53Z</time>
      </trkpt>
      <trkpt lat="48.99418" lon="1.13934">
        <ele>266.3</ele>
        <time>2017-10-21T14:24:55Z</time>
      </trkpt>
      <trkpt lat="48.99422" lon="1.13947">
        <ele>266.3</ele>
        <time>2017-10-21T14:24:57Z</time>
      </trkpt>
      <trkpt lat="48.99426" lon="1.1396">
        <ele>266.2</ele>
        <time>2017-10-21T14:24:59Z</time>
      </trkpt>
      <trkpt lat="48.99429" lon="1.13973">
        <ele>266.3</ele>
        <time>2017-10-21T14:25:01Z</time>
      </trkpt>
      <trkpt lat="48.99433" lon="1.13987">
        <ele>266.4</ele>
        <time>2017-10-21T14:25:03Z</time>
      </trkpt>
      <trkpt lat="48.99437" lon="1.14">
        <ele>266.7</ele>
        <time>2017-10-21T14:25:05Z</time>
      </trkpt>
      <trkpt lat="48.99437" lon="1.14014">
        <ele>266.8</ele>
        <time>2017-10-21T14:25:07Z</time>
      </trkpt>
      <trkpt lat="48.9944" lon="1.14033">
        <ele>266.9</ele>
        <time>2017-10-21T14:25:10Z</time>
      </trkpt>
      <trkpt lat="48.99446" lon="1.14047">
        <ele>267</ele>
        <time>2017-10-21T14:25:12Z</time>
      </trkpt>
      <trkpt lat="48.99449" lon="1.1406">
        <ele>267</ele>
        <time>2017-10-21T14:25:14Z</time>
      </trkpt>
      <trkpt lat="48.99453" lon="1.14077">
        <ele>267</ele>
        <time>2017-10-21T14:25:16Z</time>
      </trkpt>
      <trkpt lat="48.99456" lon="1.14091">
        <ele>266.9</ele>
        <time>2017-10-21T14:25:18Z</time>
      </trkpt>
      <trkpt lat="48.99459" lon="1.14108">
        <ele>266.7</ele>
        <time>2017-10-21T14:25:20Z</time>
      </trkpt>
      <trkpt lat="48.99463" lon="1.14121">
        <ele>266.6</ele>
        <time>2017-10-21T14:25:22Z</time>
      </trkpt>
      <trkpt lat="48.99467" lon="1.14136">
        <ele>266.5</ele>
        <time>2017-10-21T14:25:24Z</time>
      </trkpt>
      <trkpt lat="48.99471" lon="1.14152">
        <ele>266.4</ele>
        <time>2017-10-21T14:25:26Z</time>
      </trkpt>
      <trkpt lat="48.99473" lon="1.14167">
        <ele>266.3</ele>
        <time>2017-10-21T14:25:28Z</time>
      </trkpt>
      <trkpt lat="48.99478" lon="1.1418">
        <ele>266.2</ele>
        <time>2017-10-21T14:25:30Z</time>
      </trkpt>
      <trkpt lat="48.99482" lon="1.14194">
        <ele>265.9</ele>
        <time>2017-10-21T14:25:32Z</time>
      </trkpt>
      <trkpt lat="48.99485" lon="1.14209">
        <ele>265.7</ele>
        <time>2017-10-21T14:25:34Z</time>
      </trkpt>
      <trkpt lat="48.99489" lon="1.14227">
        <ele>265.4</ele>
        <time>2017-10-21T14:25:36Z</time>
      </trkpt>
      <trkpt lat="48.99493" lon="1.14242">
        <ele>265.1</ele>
        <time>2017-10-21T14:25:38Z</time>
      </trkpt>
      <trkpt lat="48.99496" lon="1.14255">
        <ele>264.9</ele>
        <time>2017-10-21T14:25:40Z</time>
      </trkpt>
      <trkpt lat="48.995" lon="1.14268">
        <ele>264.7</ele>
        <time>2017-10-21T14:25:42Z</time>
      </trkpt>
      <trkpt lat="48.99504" lon="1.14285">
        <ele>264.5</ele>
        <time>2017-10-21T14:25:44Z</time>
      </trkpt>
      <trkpt lat="48.99505" lon="1.14299">
        <ele>264.2</ele>
        <time>2017-10-21T14:25:46Z</time>
      </trkpt>
      <trkpt lat="48.99516" lon="1.14302">
        <ele>264.3</ele>
        <time>2017-10-21T14:25:50Z</time>
      </trkpt>
      <trkpt lat="48.99526" lon="1.143">
        <ele>264.3</ele>
        <time>2017-10-21T14:25:53Z</time>
      </trkpt>
      <trkpt lat="48.99536" lon="1.14295">
        <ele>264.4</ele>
        <time>2017-10-21T14:25:56Z</time>
      </trkpt>
      <trkpt lat="48.99547" lon="1.14292">
        <ele>264.8</ele>
        <time>2017-10-21T14:25:59Z</time>
      </trkpt>
      <trkpt lat="48.99557" lon="1.14288">
        <ele>265.2</ele>
        <time>2017-10-21T14:26:02Z</time>
      </trkpt>
      <trkpt lat="48.99567" lon="1.14283">
        <ele>265.7</ele>
        <time>2017-10-21T14:26:05Z</time>
      </trkpt>
      <trkpt lat="48.99575" lon="1.14278">
        <ele>265.9</ele>
        <time>2017-10-21T14:26:08Z</time>
      </trkpt>
      <trkpt lat="48.99585" lon="1.14274">
        <ele>266.3</ele>
        <time>2017-10-21T14:26:11Z</time>
      </trkpt>
      <trkpt lat="48.99597" lon="1.1427">
        <ele>266.4</ele>
        <time>2017-10-21T14:26:14Z</time>
      </trkpt>
      <trkpt lat="48.99606" lon="1.14266">
        <ele>266.6</ele>
        <time>2017-10-21T14:26:16Z</time>
      </trkpt>
      <trkpt lat="48.99616" lon="1.14261">
        <ele>267</ele>
        <time>2017-10-21T14:26:19Z</time>
      </trkpt>
      <trkpt lat="48.99626" lon="1.14257">
        <ele>267.3</ele>
        <time>2017-10-21T14:26:22Z</time>
      </trkpt>
      <trkpt lat="48.99637" lon="1.1425">
        <ele>267.5</ele>
        <time>2017-10-21T14:26:25Z</time>
      </trkpt>
      <trkpt lat="48.99647" lon="1.14243">
        <ele>267.7</ele>
        <time>2017-10-21T14:26:28Z</time>
      </trkpt>
      <trkpt lat="48.99658" lon="1.14236">
        <ele>267.8</ele>
        <time>2017-10-21T14:26:31Z</time>
      </trkpt>
      <trkpt lat="48.99668" lon="1.14229">
        <ele>267.9</ele>
        <time>2017-10-21T14:26:34Z</time>
      </trkpt>
      <trkpt lat="48.99681" lon="1.14222">
        <ele>268.1</ele>
        <time>2017-10-21T14:26:37Z</time>
      </trkpt>
      <trkpt lat="48.9969" lon="1.14218">
        <ele>268.2</ele>
        <time>2017-10-21T14:26:39Z</time>
      </trkpt>
      <trkpt lat="48.99704" lon="1.14213">
        <ele>268.4</ele>
        <time>2017-10-21T14:26:42Z</time>
      </trkpt>
      <trkpt lat="48.99713" lon="1.14209">
        <ele>268.5</ele>
        <time>2017-10-21T14:26:44Z</time>
      </trkpt>
      <trkpt lat="48.99724" lon="1.14201">
        <ele>268.6</ele>
        <time>2017-10-21T14:26:47Z</time>
      </trkpt>
      <trkpt lat="48.99733" lon="1.14195">
        <ele>269.1</ele>
        <time>2017-10-21T14:26:50Z</time>
      </trkpt>
      <trkpt lat="48.99743" lon="1.14191">
        <ele>269</ele>
        <time>2017-10-21T14:26:52Z</time>
      </trkpt>
      <trkpt lat="48.99751" lon="1.14185">
        <ele>269</ele>
        <time>2017-10-21T14:26:54Z</time>
      </trkpt>
      <trkpt lat="48.99758" lon="1.14171">
        <ele>268.8</ele>
        <time>2017-10-21T14:26:57Z</time>
      </trkpt>
      <trkpt lat="48.99761" lon="1.14156">
        <ele>269.2</ele>
        <time>2017-10-21T14:27:01Z</time>
      </trkpt>
      <trkpt lat="48.99762" lon="1.14141">
        <ele>269.3</ele>
        <time>2017-10-21T14:27:05Z</time>
      </trkpt>
      <trkpt lat="48.9976" lon="1.14123">
        <ele>269.6</ele>
        <time>2017-10-21T14:27:10Z</time>
      </trkpt>
      <trkpt lat="48.99759" lon="1.14105">
        <ele>270</ele>
        <time>2017-10-21T14:27:14Z</time>
      </trkpt>
      <trkpt lat="48.99757" lon="1.14089">
        <ele>270</ele>
        <time>2017-10-21T14:27:17Z</time>
      </trkpt>
      <trkpt lat="48.99754" lon="1.14075">
        <ele>270.1</ele>
        <time>2017-10-21T14:27:20Z</time>
      </trkpt>
      <trkpt lat="48.99751" lon="1.14059">
        <ele>270.1</ele>
        <time>2017-10-21T14:27:23Z</time>
      </trkpt>
      <trkpt lat="48.99748" lon="1.1404">
        <ele>270.1</ele>
        <time>2017-10-21T14:27:26Z</time>
      </trkpt>
      <trkpt lat="48.99744" lon="1.14021">
        <ele>270</ele>
        <time>2017-10-21T14:27:29Z</time>
      </trkpt>
      <trkpt lat="48.9974" lon="1.14004">
        <ele>270.1</ele>
        <time>2017-10-21T14:27:32Z</time>
      </trkpt>
      <trkpt lat="48.9973" lon="1.13997">
        <ele>269.6</ele>
        <time>2017-10-21T14:27:36Z</time>
      </trkpt>
      <trkpt lat="48.99717" lon="1.13992">
        <ele>269.4</ele>
        <time>2017-10-21T14:27:40Z</time>
      </trkpt>
      <trkpt lat="48.99706" lon="1.1399">
        <ele>269.5</ele>
        <time>2017-10-21T14:27:43Z</time>
      </trkpt>
      <trkpt lat="48.99694" lon="1.13985">
        <ele>269.8</ele>
        <time>2017-10-21T14:27:46Z</time>
      </trkpt>
      <trkpt lat="48.99683" lon="1.13983">
        <ele>270.4</ele>
        <time>2017-10-21T14:27:49Z</time>
      </trkpt>
      <trkpt lat="48.9967" lon="1.13981">
        <ele>270.6</ele>
        <time>2017-10-21T14:27:52Z</time>
      </trkpt>
      <trkpt lat="48.99661" lon="1.13979">
        <ele>270.7</ele>
        <time>2017-10-21T14:27:54Z</time>
      </trkpt>
      <trkpt lat="48.99652" lon="1.13976">
        <ele>271</ele>
        <time>2017-10-21T14:27:56Z</time>
      </trkpt>
      <trkpt lat="48.9964" lon="1.13972">
        <ele>271.2</ele>
        <time>2017-10-21T14:27:59Z</time>
      </trkpt>
      <trkpt lat="48.99628" lon="1.13971">
        <ele>271.1</ele>
        <time>2017-10-21T14:28:02Z</time>
      </trkpt>
      <trkpt lat="48.99617" lon="1.1397">
        <ele>271.2</ele>
        <time>2017-10-21T14:28:04Z</time>
      </trkpt>
      <trkpt lat="48.99607" lon="1.13961">
        <ele>270.9</ele>
        <time>2017-10-21T14:28:07Z</time>
      </trkpt>
      <trkpt lat="48.99596" lon="1.13955">
        <ele>270.6</ele>
        <time>2017-10-21T14:28:10Z</time>
      </trkpt>
      <trkpt lat="48.99584" lon="1.13953">
        <ele>270.7</ele>
        <time>2017-10-21T14:28:13Z</time>
      </trkpt>
      <trkpt lat="48.9957" lon="1.13949">
        <ele>270.3</ele>
        <time>2017-10-21T14:28:16Z</time>
      </trkpt>
      <trkpt lat="48.99561" lon="1.13944">
        <ele>270.1</ele>
        <time>2017-10-21T14:28:18Z</time>
      </trkpt>
      <trkpt lat="48.99551" lon="1.1394">
        <ele>270.1</ele>
        <time>2017-10-21T14:28:20Z</time>
      </trkpt>
      <trkpt lat="48.99538" lon="1.13933">
        <ele>270</ele>
        <time>2017-10-21T14:28:23Z</time>
      </trkpt>
      <trkpt lat="48.99527" lon="1.13931">
        <ele>269.9</ele>
        <time>2017-10-21T14:28:25Z</time>
      </trkpt>
      <trkpt lat="48.99517" lon="1.13926">
        <ele>269.7</ele>
        <time>2017-10-21T14:28:27Z</time>
      </trkpt>
      <trkpt lat="48.99507" lon="1.13921">
        <ele>269.6</ele>
        <time>2017-10-21T14:28:29Z</time>
      </trkpt>
      <trkpt lat="48.99497" lon="1.13916">
        <ele>269.5</ele>
        <time>2017-10-21T14:28:31Z</time>
      </trkpt>
      <trkpt lat="48.99488" lon="1.13912">
        <ele>269.3</ele>
        <time>2017-10-21T14:28:33Z</time>
      </trkpt>
      <trkpt lat="48.99476" lon="1.13908">
        <ele>269</ele>
        <time>2017-10-21T14:28:35Z</time>
      </trkpt>
      <trkpt lat="48.99466" lon="1.13902">
        <ele>268.5</ele>
        <time>2017-10-21T14:28:37Z</time>
      </trkpt>
      <trkpt lat="48.99455" lon="1.13895">
        <ele>268.2</ele>
        <time>2017-10-21T14:28:39Z</time>
      </trkpt>
      <trkpt lat="48.99446" lon="1.13888">
        <ele>267.9</ele>
        <time>2017-10-21T14:28:41Z</time>
      </trkpt>
      <trkpt lat="48.99438" lon="1.13881">
        <ele>267.5</ele>
        <time>2017-10-21T14:28:43Z</time>
      </trkpt>
      <trkpt lat="48.99426" lon="1.13877">
        <ele>266.9</ele>
        <time>2017-10-21T14:28:46Z</time>
      </trkpt>
      <trkpt lat="48.99418" lon="1.13872">
        <ele>266.4</ele>
        <time>2017-10-21T14:28:50Z</time>
      </trkpt>
      <trkpt lat="48.99412" lon="1.13859">
        <ele>266.4</ele>
        <time>2017-10-21T14:28:57Z</time>
      </trkpt>
      <trkpt lat="48.99407" lon="1.13847">
        <ele>266</ele>
        <time>2017-10-21T14:29:02Z</time>
      </trkpt>
      <trkpt lat="48.99404" lon="1.13834">
        <ele>265.6</ele>
        <time>2017-10-21T14:29:06Z</time>
      </trkpt>
      <trkpt lat="48.994" lon="1.13821">
        <ele>265.6</ele>
        <time>2017-10-21T14:29:10Z</time>
      </trkpt>
      <trkpt lat="48.99395" lon="1.13808">
        <ele>265.7</ele>
        <time>2017-10-21T14:29:14Z</time>
      </trkpt>
      <trkpt lat="48.99392" lon="1.13794">
        <ele>265.5</ele>
        <time>2017-10-21T14:29:18Z</time>
      </trkpt>
      <trkpt lat="48.99387" lon="1.13779">
        <ele>264.9</ele>
        <time>2017-10-21T14:29:22Z</time>
      </trkpt>
      <trkpt lat="48.99384" lon="1.13765">
        <ele>264.5</ele>
        <time>2017-10-21T14:29:26Z</time>
      </trkpt>
      <trkpt lat="48.9938" lon="1.13751">
        <ele>264.3</ele>
        <time>2017-10-21T14:29:30Z</time>
      </trkpt>
      <trkpt lat="48.99378" lon="1.13737">
        <ele>263.8</ele>
        <time>2017-10-21T14:29:34Z</time>
      </trkpt>
      <trkpt lat="48.99387" lon="1.13736">
        <ele>263.8</ele>
        <time>2017-10-21T14:29:41Z</time>
      </trkpt>
      <trkpt lat="48.99398" lon="1.13732">
        <ele>264.3</ele>
        <time>2017-10-21T14:29:48Z</time>
      </trkpt>
      <trkpt lat="48.99408" lon="1.13728">
        <ele>265</ele>
        <time>2017-10-21T14:29:52Z</time>
      </trkpt>
      <trkpt lat="48.99419" lon="1.13723">
        <ele>265.4</ele>
        <time>2017-10-21T14:29:55Z</time>
      </trkpt>
      <trkpt lat="48.99432" lon="1.1372">
        <ele>265.9</ele>
        <time>2017-10-21T14:29:58Z</time>
      </trkpt>
      <trkpt lat="48.99443" lon="1.13715">
        <ele>266.4</ele>
        <time>2017-10-21T14:30:01Z</time>
      </trkpt>
      <trkpt lat="48.99456" lon="1.13711">
        <ele>266.9</ele>
        <time>2017-10-21T14:30:04Z</time>
      </trkpt>
      <trkpt lat="48.99468" lon="1.13706">
        <ele>267.4</ele>
        <time>2017-10-21T14:30:07Z</time>
      </trkpt>
      <trkpt lat="48.99481" lon="1.13702">
        <ele>267.9</ele>
        <time>2017-10-21T14:30:10Z</time>
      </trkpt>
      <trkpt lat="48.99494" lon="1.13698">
        <ele>268</ele>
        <time>2017-10-21T14:30:13Z</time>
      </trkpt>
      <trkpt lat="48.99503" lon="1.13695">
        <ele>268.1</ele>
        <time>2017-10-21T14:30:15Z</time>
      </trkpt>
      <trkpt lat="48.99513" lon="1.13691">
        <ele>268.4</ele>
        <time>2017-10-21T14:30:18Z</time>
      </trkpt>
      <trkpt lat="48.99523" lon="1.13684">
        <ele>268.8</ele>
        <time>2017-10-21T14:30:21Z</time>
      </trkpt>
      <trkpt lat="48.99534" lon="1.1368">
        <ele>268.9</ele>
        <time>2017-10-21T14:30:24Z</time>
      </trkpt>
      <trkpt lat="48.99545" lon="1.13669">
        <ele>269.1</ele>
        <time>2017-10-21T14:30:27Z</time>
      </trkpt>
      <trkpt lat="48.99544" lon="1.13651">
        <ele>269.1</ele>
        <time>2017-10-21T14:30:30Z</time>
      </trkpt>
      <trkpt lat="48.99543" lon="1.13637">
        <ele>269.1</ele>
        <time>2017-10-21T14:30:32Z</time>
      </trkpt>
      <trkpt lat="48.99544" lon="1.13623">
        <ele>269</ele>
        <time>2017-10-21T14:30:34Z</time>
      </trkpt>
      <trkpt lat="48.99542" lon="1.13609">
        <ele>268.7</ele>
        <time>2017-10-21T14:30:36Z</time>
      </trkpt>
      <trkpt lat="48.99544" lon="1.13594">
        <ele>269.3</ele>
        <time>2017-10-21T14:30:39Z</time>
      </trkpt>
      <trkpt lat="48.99553" lon="1.13584">
        <ele>269.4</ele>
        <time>2017-10-21T14:30:44Z</time>
      </trkpt>
      <trkpt lat="48.99562" lon="1.13574">
        <ele>269.6</ele>
        <time>2017-10-21T14:30:47Z</time>
      </trkpt>
      <trkpt lat="48.99572" lon="1.13561">
        <ele>269.8</ele>
        <time>2017-10-21T14:30:50Z</time>
      </trkpt>
      <trkpt lat="48.99581" lon="1.13548">
        <ele>269.5</ele>
        <time>2017-10-21T14:30:53Z</time>
      </trkpt>
      <trkpt lat="48.99588" lon="1.1354">
        <ele>269.5</ele>
        <time>2017-10-21T14:30:55Z</time>
      </trkpt>
      <trkpt lat="48.99595" lon="1.1353">
        <ele>269.4</ele>
        <time>2017-10-21T14:30:57Z</time>
      </trkpt>
      <trkpt lat="48.99604" lon="1.13521">
        <ele>269.4</ele>
        <time>2017-10-21T14:30:59Z</time>
      </trkpt>
      <trkpt lat="48.99613" lon="1.13508">
        <ele>269.2</ele>
        <time>2017-10-21T14:31:02Z</time>
      </trkpt>
      <trkpt lat="48.99624" lon="1.13495">
        <ele>269.2</ele>
        <time>2017-10-21T14:31:05Z</time>
      </trkpt>
      <trkpt lat="48.99633" lon="1.13483">
        <ele>269</ele>
        <time>2017-10-21T14:31:08Z</time>
      </trkpt>
      <trkpt lat="48.99645" lon="1.13472">
        <ele>269.3</ele>
        <time>2017-10-21T14:31:11Z</time>
      </trkpt>
      <trkpt lat="48.99654" lon="1.13467">
        <ele>269.3</ele>
        <time>2017-10-21T14:31:13Z</time>
      </trkpt>
      <trkpt lat="48.99666" lon="1.13457">
        <ele>269.4</ele>
        <time>2017-10-21T14:31:16Z</time>
      </trkpt>
      <trkpt lat="48.99677" lon="1.13448">
        <ele>269.4</ele>
        <time>2017-10-21T14:31:18Z</time>
      </trkpt>
      <trkpt lat="48.99687" lon="1.1344">
        <ele>269.3</ele>
        <time>2017-10-21T14:31:20Z</time>
      </trkpt>
      <trkpt lat="48.99696" lon="1.13433">
        <ele>269.3</ele>
        <time>2017-10-21T14:31:22Z</time>
      </trkpt>
      <trkpt lat="48.99707" lon="1.13426">
        <ele>269</ele>
        <time>2017-10-21T14:31:24Z</time>
      </trkpt>
      <trkpt lat="48.99716" lon="1.13419">
        <ele>268.8</ele>
        <time>2017-10-21T14:31:26Z</time>
      </trkpt>
      <trkpt lat="48.99725" lon="1.13412">
        <ele>268.8</ele>
        <time>2017-10-21T14:31:28Z</time>
      </trkpt>
      <trkpt lat="48.99734" lon="1.13404">
        <ele>268.8</ele>
        <time>2017-10-21T14:31:30Z</time>
      </trkpt>
      <trkpt lat="48.99743" lon="1.13397">
        <ele>268.6</ele>
        <time>2017-10-21T14:31:32Z</time>
      </trkpt>
      <trkpt lat="48.99752" lon="1.13391">
        <ele>268.5</ele>
        <time>2017-10-21T14:31:34Z</time>
      </trkpt>
      <trkpt lat="48.99761" lon="1.13385">
        <ele>268.2</ele>
        <time>2017-10-21T14:31:36Z</time>
      </trkpt>
      <trkpt lat="48.9977" lon="1.13377">
        <ele>268.1</ele>
        <time>2017-10-21T14:31:38Z</time>
      </trkpt>
      <trkpt lat="48.99773" lon="1.13363">
        <ele>267.8</ele>
        <time>2017-10-21T14:31:41Z</time>
      </trkpt>
      <trkpt lat="48.99772" lon="1.13346">
        <ele>267.4</ele>
        <time>2017-10-21T14:31:45Z</time>
      </trkpt>
      <trkpt lat="48.99772" lon="1.1333">
        <ele>267.7</ele>
        <time>2017-10-21T14:31:49Z</time>
      </trkpt>
      <trkpt lat="48.99771" lon="1.13312">
        <ele>268</ele>
        <time>2017-10-21T14:31:53Z</time>
      </trkpt>
      <trkpt lat="48.9977" lon="1.13296">
        <ele>268.4</ele>
        <time>2017-10-21T14:31:56Z</time>
      </trkpt>
      <trkpt lat="48.99768" lon="1.13279">
        <ele>268.7</ele>
        <time>2017-10-21T14:31:59Z</time>
      </trkpt>
      <trkpt lat="48.99765" lon="1.1326">
        <ele>268.8</ele>
        <time>2017-10-21T14:32:02Z</time>
      </trkpt>
      <trkpt lat="48.99763" lon="1.13246">
        <ele>268.6</ele>
        <time>2017-10-21T14:32:04Z</time>
      </trkpt>
      <trkpt lat="48.9976" lon="1.1323">
        <ele>268.4</ele>
        <time>2017-10-21T14:32:06Z</time>
      </trkpt>
      <trkpt lat="48.99758" lon="1.13216">
        <ele>268</ele>
        <time>2017-10-21T14:32:08Z</time>
      </trkpt>
      <trkpt lat="48.99755" lon="1.13199">
        <ele>268.3</ele>
        <time>2017-10-21T14:32:10Z</time>
      </trkpt>
      <trkpt lat="48.99754" lon="1.13183">
        <ele>268.5</ele>
        <time>2017-10-21T14:32:12Z</time>
      </trkpt>
      <trkpt lat="48.99751" lon="1.13166">
        <ele>268.5</ele>
        <time>2017-10-21T14:32:14Z</time>
      </trkpt>
      <trkpt lat="48.99749" lon="1.13149">
        <ele>268.3</ele>
        <time>2017-10-21T14:32:16Z</time>
      </trkpt>
      <trkpt lat="48.99747" lon="1.13133">
        <ele>267.8</ele>
        <time>2017-10-21T14:32:18Z</time>
      </trkpt>
      <trkpt lat="48.99744" lon="1.13117">
        <ele>267.6</ele>
        <time>2017-10-21T14:32:20Z</time>
      </trkpt>
      <trkpt lat="48.99742" lon="1.13099">
        <ele>267.5</ele>
        <time>2017-10-21T14:32:22Z</time>
      </trkpt>
      <trkpt lat="48.9974" lon="1.13083">
        <ele>266.8</ele>
        <time>2017-10-21T14:32:24Z</time>
      </trkpt>
      <trkpt lat="48.99738" lon="1.13068">
        <ele>266.5</ele>
        <time>2017-10-21T14:32:26Z</time>
      </trkpt>
      <trkpt lat="48.99736" lon="1.13052">
        <ele>266.6</ele>
        <time>2017-10-21T14:32:28Z</time>
      </trkpt>
      <trkpt lat="48.99733" lon="1.13036">
        <ele>266.6</ele>
        <time>2017-10-21T14:32:30Z</time>
      </trkpt>
      <trkpt lat="48.99731" lon="1.13019">
        <ele>266.1</ele>
        <time>2017-10-21T14:32:32Z</time>
      </trkpt>
      <trkpt lat="48.99729" lon="1.13003">
        <ele>265.6</ele>
        <time>2017-10-21T14:32:34Z</time>
      </trkpt>
      <trkpt lat="48.99727" lon="1.12986">
        <ele>265.5</ele>
        <time>2017-10-21T14:32:36Z</time>
      </trkpt>
      <trkpt lat="48.99724" lon="1.12971">
        <ele>265.5</ele>
        <time>2017-10-21T14:32:38Z</time>
      </trkpt>
      <trkpt lat="48.99722" lon="1.12953">
        <ele>265.4</ele>
        <time>2017-10-21T14:32:40Z</time>
      </trkpt>
      <trkpt lat="48.99721" lon="1.12936">
        <ele>265.1</ele>
        <time>2017-10-21T14:32:42Z</time>
      </trkpt>
      <trkpt lat="48.99718" lon="1.12921">
        <ele>264.8</ele>
        <time>2017-10-21T14:32:44Z</time>
      </trkpt>
      <trkpt lat="48.99716" lon="1.12903">
        <ele>264.3</ele>
        <time>2017-10-21T14:32:46Z</time>
      </trkpt>
      <trkpt lat="48.99713" lon="1.12884">
        <ele>263.5</ele>
        <time>2017-10-21T14:32:48Z</time>
      </trkpt>
      <trkpt lat="48.99712" lon="1.12867">
        <ele>262.8</ele>
        <time>2017-10-21T14:32:50Z</time>
      </trkpt>
      <trkpt lat="48.99713" lon="1.1285">
        <ele>262.1</ele>
        <time>2017-10-21T14:32:52Z</time>
      </trkpt>
      <trkpt lat="48.99716" lon="1.12832">
        <ele>261.8</ele>
        <time>2017-10-21T14:32:54Z</time>
      </trkpt>
      <trkpt lat="48.99721" lon="1.12814">
        <ele>261.5</ele>
        <time>2017-10-21T14:32:56Z</time>
      </trkpt>
      <trkpt lat="48.99723" lon="1.128">
        <ele>261</ele>
        <time>2017-10-21T14:32:58Z</time>
      </trkpt>
      <trkpt lat="48.99724" lon="1.12786">
        <ele>260.6</ele>
        <time>2017-10-21T14:33:00Z</time>
      </trkpt>
      <trkpt lat="48.99724" lon="1.1277">
        <ele>260.5</ele>
        <time>2017-10-21T14:33:02Z</time>
      </trkpt>
      <trkpt lat="48.99721" lon="1.12752">
        <ele>260.4</ele>
        <time>2017-10-21T14:33:04Z</time>
      </trkpt>
      <trkpt lat="48.99718" lon="1.12736">
        <ele>260.3</ele>
        <time>2017-10-21T14:33:06Z</time>
      </trkpt>
      <trkpt lat="48.99715" lon="1.12718">
        <ele>260.3</ele>
        <time>2017-10-21T14:33:08Z</time>
      </trkpt>
      <trkpt lat="48.99712" lon="1.12699">
        <ele>260</ele>
        <time>2017-10-21T14:33:10Z</time>
      </trkpt>
      <trkpt lat="48.99708" lon="1.1268">
        <ele>259.6</ele>
        <time>2017-10-21T14:33:12Z</time>
      </trkpt>
      <trkpt lat="48.99706" lon="1.12661">
        <ele>258.9</ele>
        <time>2017-10-21T14:33:14Z</time>
      </trkpt>
      <trkpt lat="48.99703" lon="1.12641">
        <ele>258.2</ele>
        <time>2017-10-21T14:33:16Z</time>
      </trkpt>
      <trkpt lat="48.99701" lon="1.1262">
        <ele>257.4</ele>
        <time>2017-10-21T14:33:18Z</time>
      </trkpt>
      <trkpt lat="48.99698" lon="1.12601">
        <ele>256.6</ele>
        <time>2017-10-21T14:33:20Z</time>
      </trkpt>
      <trkpt lat="48.99695" lon="1.12582">
        <ele>256.1</ele>
        <time>2017-10-21T14:33:22Z</time>
      </trkpt>
      <trkpt lat="48.99692" lon="1.12568">
        <ele>256.1</ele>
        <time>2017-10-21T14:33:24Z</time>
      </trkpt>
      <trkpt lat="48.99702" lon="1.12572">
        <ele>255.2</ele>
        <time>2017-10-21T14:33:32Z</time>
      </trkpt>
      <trkpt lat="48.9971" lon="1.12581">
        <ele>255</ele>
        <time>2017-10-21T14:33:36Z</time>
      </trkpt>
      <trkpt lat="48.99722" lon="1.12589">
        <ele>255</ele>
        <time>2017-10-21T14:33:39Z</time>
      </trkpt>
      <trkpt lat="48.9973" lon="1.12596">
        <ele>255.1</ele>
        <time>2017-10-21T14:33:41Z</time>
      </trkpt>
      <trkpt lat="48.99741" lon="1.12606">
        <ele>255.4</ele>
        <time>2017-10-21T14:33:44Z</time>
      </trkpt>
      <trkpt lat="48.99751" lon="1.12614">
        <ele>255.8</ele>
        <time>2017-10-21T14:33:46Z</time>
      </trkpt>
      <trkpt lat="48.99759" lon="1.1262">
        <ele>255.8</ele>
        <time>2017-10-21T14:33:48Z</time>
      </trkpt>
      <trkpt lat="48.99767" lon="1.12627">
        <ele>255.8</ele>
        <time>2017-10-21T14:33:50Z</time>
      </trkpt>
      <trkpt lat="48.99778" lon="1.12634">
        <ele>255.6</ele>
        <time>2017-10-21T14:33:52Z</time>
      </trkpt>
      <trkpt lat="48.99788" lon="1.12642">
        <ele>255.6</ele>
        <time>2017-10-21T14:33:54Z</time>
      </trkpt>
      <trkpt lat="48.99798" lon="1.12649">
        <ele>255.5</ele>
        <time>2017-10-21T14:33:56Z</time>
      </trkpt>
      <trkpt lat="48.99807" lon="1.12656">
        <ele>255.6</ele>
        <time>2017-10-21T14:33:58Z</time>
      </trkpt>
      <trkpt lat="48.99817" lon="1.12664">
        <ele>255.6</ele>
        <time>2017-10-21T14:34:00Z</time>
      </trkpt>
      <trkpt lat="48.99827" lon="1.12677">
        <ele>255.9</ele>
        <time>2017-10-21T14:34:03Z</time>
      </trkpt>
      <trkpt lat="48.99836" lon="1.12687">
        <ele>256.3</ele>
        <time>2017-10-21T14:34:05Z</time>
      </trkpt>
      <trkpt lat="48.99844" lon="1.12696">
        <ele>256.8</ele>
        <time>2017-10-21T14:34:07Z</time>
      </trkpt>
      <trkpt lat="48.99851" lon="1.12705">
        <ele>257.3</ele>
        <time>2017-10-21T14:34:09Z</time>
      </trkpt>
      <trkpt lat="48.99858" lon="1.12714">
        <ele>257.6</ele>
        <time>2017-10-21T14:34:11Z</time>
      </trkpt>
      <trkpt lat="48.99866" lon="1.12722">
        <ele>258</ele>
        <time>2017-10-21T14:34:13Z</time>
      </trkpt>
      <trkpt lat="48.99876" lon="1.12732">
        <ele>258</ele>
        <time>2017-10-21T14:34:16Z</time>
      </trkpt>
      <trkpt lat="48.99888" lon="1.12737">
        <ele>258.1</ele>
        <time>2017-10-21T14:34:19Z</time>
      </trkpt>
      <trkpt lat="48.99899" lon="1.12744">
        <ele>258.4</ele>
        <time>2017-10-21T14:34:22Z</time>
      </trkpt>
      <trkpt lat="48.9991" lon="1.12752">
        <ele>258.6</ele>
        <time>2017-10-21T14:34:25Z</time>
      </trkpt>
      <trkpt lat="48.99924" lon="1.12759">
        <ele>258.6</ele>
        <time>2017-10-21T14:34:28Z</time>
      </trkpt>
      <trkpt lat="48.99933" lon="1.12763">
        <ele>258.5</ele>
        <time>2017-10-21T14:34:30Z</time>
      </trkpt>
      <trkpt lat="48.99946" lon="1.12767">
        <ele>258.3</ele>
        <time>2017-10-21T14:34:33Z</time>
      </trkpt>
      <trkpt lat="48.99957" lon="1.12769">
        <ele>258.3</ele>
        <time>2017-10-21T14:34:36Z</time>
      </trkpt>
      <trkpt lat="48.99966" lon="1.12761">
        <ele>258.5</ele>
        <time>2017-10-21T14:34:39Z</time>
      </trkpt>
      <trkpt lat="48.99974" lon="1.12748">
        <ele>258.4</ele>
        <time>2017-10-21T14:34:42Z</time>
      </trkpt>
      <trkpt lat="48.99981" lon="1.12731">
        <ele>256.7</ele>
        <time>2017-10-21T14:34:45Z</time>
      </trkpt>
      <trkpt lat="48.9999" lon="1.12724">
        <ele>255.4</ele>
        <time>2017-10-21T14:34:48Z</time>
      </trkpt>
      <trkpt lat="49.00002" lon="1.12731">
        <ele>255.4</ele>
        <time>2017-10-21T14:34:51Z</time>
      </trkpt>
      <trkpt lat="49.00015" lon="1.12729">
        <ele>255.1</ele>
        <time>2017-10-21T14:34:54Z</time>
      </trkpt>
      <trkpt lat="49.00015" lon="1.12713">
        <ele>254.9</ele>
        <time>2017-10-21T14:34:57Z</time>
      </trkpt>
      <trkpt lat="49.00013" lon="1.12698">
        <ele>254</ele>
        <time>2017-10-21T14:35:01Z</time>
      </trkpt>
      <trkpt lat="49.00016" lon="1.12681">
        <ele>253.7</ele>
        <time>2017-10-21T14:35:04Z</time>
      </trkpt>
      <trkpt lat="49.00017" lon="1.12667">
        <ele>252.8</ele>
        <time>2017-10-21T14:35:07Z</time>
      </trkpt>
      <trkpt lat="49.00023" lon="1.12653">
        <ele>252.2</ele>
        <time>2017-10-21T14:35:11Z</time>
      </trkpt>
      <trkpt lat="49.00026" lon="1.12638">
        <ele>251.6</ele>
        <time>2017-10-21T14:35:15Z</time>
      </trkpt>
      <trkpt lat="49.00025" lon="1.1262">
        <ele>251.3</ele>
        <time>2017-10-21T14:35:19Z</time>
      </trkpt>
      <trkpt lat="49.00025" lon="1.12605">
        <ele>250.1</ele>
        <time>2017-10-21T14:35:22Z</time>
      </trkpt>
      <trkpt lat="49.00028" lon="1.12592">
        <ele>249.2</ele>
        <time>2017-10-21T14:35:25Z</time>
      </trkpt>
      <trkpt lat="49.00031" lon="1.12577">
        <ele>248.8</ele>
        <time>2017-10-21T14:35:28Z</time>
      </trkpt>
      <trkpt lat="49.00034" lon="1.12561">
        <ele>247.4</ele>
        <time>2017-10-21T14:35:32Z</time>
      </trkpt>
      <trkpt lat="49.00037" lon="1.12545">
        <ele>246.8</ele>
        <time>2017-10-21T14:35:37Z</time>
      </trkpt>
      <trkpt lat="49.0004" lon="1.12531">
        <ele>244.5</ele>
        <time>2017-10-21T14:36:12Z</time>
      </trkpt>
      <trkpt lat="49.00038" lon="1.12515">
        <ele>244.1</ele>
        <time>2017-10-21T14:36:17Z</time>
      </trkpt>
      <trkpt lat="49.00038" lon="1.125">
        <ele>243.2</ele>
        <time>2017-10-21T14:36:22Z</time>
      </trkpt>
      <trkpt lat="49.00042" lon="1.12485">
        <ele>242.4</ele>
        <time>2017-10-21T14:36:26Z</time>
      </trkpt>
      <trkpt lat="49.00043" lon="1.12469">
        <ele>242</ele>
        <time>2017-10-21T14:36:30Z</time>
      </trkpt>
      <trkpt lat="49.00041" lon="1.12454">
        <ele>241.6</ele>
        <time>2017-10-21T14:36:34Z</time>
      </trkpt>
      <trkpt lat="49.00033" lon="1.12444">
        <ele>242.1</ele>
        <time>2017-10-21T14:36:41Z</time>
      </trkpt>
      <trkpt lat="49.00024" lon="1.12446">
        <ele>242.2</ele>
        <time>2017-10-21T14:36:45Z</time>
      </trkpt>
      <trkpt lat="49.00015" lon="1.1245">
        <ele>242.9</ele>
        <time>2017-10-21T14:36:49Z</time>
      </trkpt>
      <trkpt lat="49.00007" lon="1.12462">
        <ele>243.2</ele>
        <time>2017-10-21T14:36:53Z</time>
      </trkpt>
      <trkpt lat="49.00001" lon="1.12476">
        <ele>243</ele>
        <time>2017-10-21T14:36:56Z</time>
      </trkpt>
      <trkpt lat="48.99999" lon="1.12491">
        <ele>242.9</ele>
        <time>2017-10-21T14:36:59Z</time>
      </trkpt>
      <trkpt lat="48.99996" lon="1.12504">
        <ele>243.1</ele>
        <time>2017-10-21T14:37:02Z</time>
      </trkpt>
      <trkpt lat="48.99993" lon="1.12521">
        <ele>244</ele>
        <time>2017-10-21T14:37:06Z</time>
      </trkpt>
      <trkpt lat="48.9999" lon="1.12535">
        <ele>245.6</ele>
        <time>2017-10-21T14:37:10Z</time>
      </trkpt>
      <trkpt lat="48.99988" lon="1.12548">
        <ele>247.1</ele>
        <time>2017-10-21T14:37:14Z</time>
      </trkpt>
      <trkpt lat="48.99985" lon="1.12562">
        <ele>248.6</ele>
        <time>2017-10-21T14:37:18Z</time>
      </trkpt>
      <trkpt lat="48.99979" lon="1.12574">
        <ele>249</ele>
        <time>2017-10-21T14:37:23Z</time>
      </trkpt>
      <trkpt lat="48.99974" lon="1.12587">
        <ele>249.4</ele>
        <time>2017-10-21T14:37:28Z</time>
      </trkpt>
      <trkpt lat="48.99971" lon="1.12601">
        <ele>251</ele>
        <time>2017-10-21T14:37:33Z</time>
      </trkpt>
      <trkpt lat="48.99969" lon="1.12616">
        <ele>252.6</ele>
        <time>2017-10-21T14:37:38Z</time>
      </trkpt>
      <trkpt lat="48.99966" lon="1.1263">
        <ele>253.2</ele>
        <time>2017-10-21T14:37:43Z</time>
      </trkpt>
      <trkpt lat="48.99961" lon="1.12644">
        <ele>253.8</ele>
        <time>2017-10-21T14:37:48Z</time>
      </trkpt>
      <trkpt lat="48.99954" lon="1.12652">
        <ele>254.4</ele>
        <time>2017-10-21T14:37:53Z</time>
      </trkpt>
      <trkpt lat="48.99945" lon="1.12644">
        <ele>254.7</ele>
        <time>2017-10-21T14:37:59Z</time>
      </trkpt>
      <trkpt lat="48.99935" lon="1.12648">
        <ele>255</ele>
        <time>2017-10-21T14:38:04Z</time>
      </trkpt>
      <trkpt lat="48.99925" lon="1.12647">
        <ele>255.2</ele>
        <time>2017-10-21T14:38:09Z</time>
      </trkpt>
      <trkpt lat="48.9992" lon="1.12633">
        <ele>255.4</ele>
        <time>2017-10-21T14:38:14Z</time>
      </trkpt>
      <trkpt lat="48.99917" lon="1.1262">
        <ele>255.2</ele>
        <time>2017-10-21T14:38:18Z</time>
      </trkpt>
      <trkpt lat="48.99916" lon="1.12604">
        <ele>255.7</ele>
        <time>2017-10-21T14:38:23Z</time>
      </trkpt>
      <trkpt lat="48.99921" lon="1.12593">
        <ele>256.9</ele>
        <time>2017-10-21T14:38:27Z</time>
      </trkpt>
      <trkpt lat="48.99926" lon="1.12577">
        <ele>256.5</ele>
        <time>2017-10-21T14:38:32Z</time>
      </trkpt>
      <trkpt lat="48.99926" lon="1.12564">
        <ele>256</ele>
        <time>2017-10-21T14:38:36Z</time>
      </trkpt>
      <trkpt lat="48.99917" lon="1.12559">
        <ele>255.2</ele>
        <time>2017-10-21T14:38:41Z</time>
      </trkpt>
      <trkpt lat="48.99909" lon="1.1257">
        <ele>255.5</ele>
        <time>2017-10-21T14:38:46Z</time>
      </trkpt>
      <trkpt lat="48.99904" lon="1.12584">
        <ele>255.6</ele>
        <time>2017-10-21T14:38:51Z</time>
      </trkpt>
      <trkpt lat="48.99901" lon="1.12599">
        <ele>256.1</ele>
        <time>2017-10-21T14:38:56Z</time>
      </trkpt>
      <trkpt lat="48.99908" lon="1.12611">
        <ele>256.8</ele>
        <time>2017-10-21T14:39:03Z</time>
      </trkpt>
      <trkpt lat="48.99917" lon="1.12621">
        <ele>256.7</ele>
        <time>2017-10-21T14:39:10Z</time>
      </trkpt>
      <trkpt lat="48.99914" lon="1.12636">
        <ele>255.9</ele>
        <time>2017-10-21T14:39:15Z</time>
      </trkpt>
      <trkpt lat="48.99905" lon="1.12632">
        <ele>255.3</ele>
        <time>2017-10-21T14:39:20Z</time>
      </trkpt>
      <trkpt lat="48.99894" lon="1.12631">
        <ele>255.4</ele>
        <time>2017-10-21T14:39:25Z</time>
      </trkpt>
      <trkpt lat="48.99886" lon="1.12622">
        <ele>255.3</ele>
        <time>2017-10-21T14:39:30Z</time>
      </trkpt>
      <trkpt lat="48.99883" lon="1.12606">
        <ele>254.7</ele>
        <time>2017-10-21T14:39:34Z</time>
      </trkpt>
      <trkpt lat="48.9988" lon="1.12591">
        <ele>254.3</ele>
        <time>2017-10-21T14:39:37Z</time>
      </trkpt>
      <trkpt lat="48.99877" lon="1.12572">
        <ele>254.3</ele>
        <time>2017-10-21T14:39:40Z</time>
      </trkpt>
      <trkpt lat="48.99876" lon="1.12558">
        <ele>254.3</ele>
        <time>2017-10-21T14:39:42Z</time>
      </trkpt>
      <trkpt lat="48.99874" lon="1.12544">
        <ele>253.7</ele>
        <time>2017-10-21T14:39:44Z</time>
      </trkpt>
      <trkpt lat="48.99871" lon="1.12529">
        <ele>253.1</ele>
        <time>2017-10-21T14:39:46Z</time>
      </trkpt>
      <trkpt lat="48.99869" lon="1.12516">
        <ele>252.4</ele>
        <time>2017-10-21T14:39:48Z</time>
      </trkpt>
      <trkpt lat="48.99867" lon="1.12501">
        <ele>252</ele>
        <time>2017-10-21T14:39:50Z</time>
      </trkpt>
      <trkpt lat="48.99864" lon="1.12485">
        <ele>251.4</ele>
        <time>2017-10-21T14:39:52Z</time>
      </trkpt>
      <trkpt lat="48.9986" lon="1.1247">
        <ele>251.1</ele>
        <time>2017-10-21T14:39:54Z</time>
      </trkpt>
      <trkpt lat="48.99857" lon="1.12455">
        <ele>250.7</ele>
        <time>2017-10-21T14:39:56Z</time>
      </trkpt>
      <trkpt lat="48.99852" lon="1.12436">
        <ele>250.2</ele>
        <time>2017-10-21T14:39:59Z</time>
      </trkpt>
      <trkpt lat="48.99856" lon="1.12422">
        <ele>250</ele>
        <time>2017-10-21T14:40:03Z</time>
      </trkpt>
      <trkpt lat="48.99863" lon="1.12412">
        <ele>249.8</ele>
        <time>2017-10-21T14:40:10Z</time>
      </trkpt>
      <trkpt lat="48.99872" lon="1.12403">
        <ele>249.9</ele>
        <time>2017-10-21T14:40:16Z</time>
      </trkpt>
      <trkpt lat="48.9988" lon="1.12396">
        <ele>249.8</ele>
        <time>2017-10-21T14:40:34Z</time>
      </trkpt>
      <trkpt lat="48.99888" lon="1.12388">
        <ele>249.6</ele>
        <time>2017-10-21T14:40:37Z</time>
      </trkpt>
      <trkpt lat="48.99895" lon="1.12375">
        <ele>249.4</ele>
        <time>2017-10-21T14:40:40Z</time>
      </trkpt>
      <trkpt lat="48.99902" lon="1.12365">
        <ele>249</ele>
        <time>2017-10-21T14:40:42Z</time>
      </trkpt>
      <trkpt lat="48.99914" lon="1.12353">
        <ele>248.4</ele>
        <time>2017-10-21T14:40:45Z</time>
      </trkpt>
      <trkpt lat="48.99924" lon="1.12349">
        <ele>247.6</ele>
        <time>2017-10-21T14:40:48Z</time>
      </trkpt>
      <trkpt lat="48.99932" lon="1.12341">
        <ele>247.2</ele>
        <time>2017-10-21T14:40:50Z</time>
      </trkpt>
      <trkpt lat="48.99942" lon="1.12332">
        <ele>247.2</ele>
        <time>2017-10-21T14:40:52Z</time>
      </trkpt>
      <trkpt lat="48.99952" lon="1.12321">
        <ele>246.7</ele>
        <time>2017-10-21T14:40:55Z</time>
      </trkpt>
      <trkpt lat="48.99963" lon="1.12314">
        <ele>246.6</ele>
        <time>2017-10-21T14:40:57Z</time>
      </trkpt>
      <trkpt lat="48.99975" lon="1.12311">
        <ele>246.4</ele>
        <time>2017-10-21T14:40:59Z</time>
      </trkpt>
      <trkpt lat="48.99984" lon="1.12309">
        <ele>246.5</ele>
        <time>2017-10-21T14:41:01Z</time>
      </trkpt>
      <trkpt lat="48.99997" lon="1.12306">
        <ele>246.4</ele>
        <time>2017-10-21T14:41:03Z</time>
      </trkpt>
      <trkpt lat="49.00005" lon="1.12297">
        <ele>245.5</ele>
        <time>2017-10-21T14:41:05Z</time>
      </trkpt>
      <trkpt lat="49.00015" lon="1.12278">
        <ele>244.9</ele>
        <time>2017-10-21T14:41:08Z</time>
      </trkpt>
      <trkpt lat="49.00022" lon="1.12266">
        <ele>244.2</ele>
        <time>2017-10-21T14:41:10Z</time>
      </trkpt>
      <trkpt lat="49.00033" lon="1.12263">
        <ele>243</ele>
        <time>2017-10-21T14:41:13Z</time>
      </trkpt>
      <trkpt lat="49.00042" lon="1.12262">
        <ele>242.5</ele>
        <time>2017-10-21T14:41:15Z</time>
      </trkpt>
      <trkpt lat="49.00052" lon="1.12252">
        <ele>242</ele>
        <time>2017-10-21T14:41:17Z</time>
      </trkpt>
      <trkpt lat="49.00054" lon="1.12235">
        <ele>241.4</ele>
        <time>2017-10-21T14:41:20Z</time>
      </trkpt>
      <trkpt lat="49.00061" lon="1.12224">
        <ele>240.9</ele>
        <time>2017-10-21T14:41:22Z</time>
      </trkpt>
      <trkpt lat="49.00069" lon="1.12213">
        <ele>240.3</ele>
        <time>2017-10-21T14:41:24Z</time>
      </trkpt>
      <trkpt lat="49.00075" lon="1.12199">
        <ele>239.6</ele>
        <time>2017-10-21T14:41:26Z</time>
      </trkpt>
      <trkpt lat="49.00078" lon="1.12185">
        <ele>239</ele>
        <time>2017-10-21T14:41:28Z</time>
      </trkpt>
      <trkpt lat="49.00078" lon="1.12167">
        <ele>238.6</ele>
        <time>2017-10-21T14:41:30Z</time>
      </trkpt>
      <trkpt lat="49.00081" lon="1.12151">
        <ele>237.6</ele>
        <time>2017-10-21T14:41:32Z</time>
      </trkpt>
      <trkpt lat="49.00083" lon="1.12133">
        <ele>237</ele>
        <time>2017-10-21T14:41:34Z</time>
      </trkpt>
      <trkpt lat="49.00086" lon="1.12118">
        <ele>236.4</ele>
        <time>2017-10-21T14:41:36Z</time>
      </trkpt>
      <trkpt lat="49.00091" lon="1.12101">
        <ele>235.9</ele>
        <time>2017-10-21T14:41:39Z</time>
      </trkpt>
      <trkpt lat="49.00092" lon="1.12087">
        <ele>235.1</ele>
        <time>2017-10-21T14:41:42Z</time>
      </trkpt>
      <trkpt lat="49.00096" lon="1.12072">
        <ele>233.8</ele>
        <time>2017-10-21T14:41:45Z</time>
      </trkpt>
      <trkpt lat="49.00099" lon="1.12053">
        <ele>230.1</ele>
        <time>2017-10-21T14:41:49Z</time>
      </trkpt>
      <trkpt lat="49.00104" lon="1.12041">
        <ele>224.5</ele>
        <time>2017-10-21T14:41:56Z</time>
      </trkpt>
      <trkpt lat="49.00106" lon="1.12055">
        <ele>223.6</ele>
        <time>2017-10-21T14:42:07Z</time>
      </trkpt>
      <trkpt lat="49.00115" lon="1.12062">
        <ele>224.8</ele>
        <time>2017-10-21T14:42:12Z</time>
      </trkpt>
      <trkpt lat="49.00123" lon="1.12071">
        <ele>225.8</ele>
        <time>2017-10-21T14:42:16Z</time>
      </trkpt>
      <trkpt lat="49.00127" lon="1.12084">
        <ele>227.1</ele>
        <time>2017-10-21T14:42:21Z</time>
      </trkpt>
      <trkpt lat="49.00128" lon="1.12099">
        <ele>229.2</ele>
        <time>2017-10-21T14:42:27Z</time>
      </trkpt>
      <trkpt lat="49.00127" lon="1.12114">
        <ele>230.9</ele>
        <time>2017-10-21T14:42:33Z</time>
      </trkpt>
      <trkpt lat="49.0013" lon="1.12127">
        <ele>231.6</ele>
        <time>2017-10-21T14:42:40Z</time>
      </trkpt>
      <trkpt lat="49.00138" lon="1.12135">
        <ele>232.7</ele>
        <time>2017-10-21T14:44:49Z</time>
      </trkpt>
      <trkpt lat="49.00147" lon="1.12144">
        <ele>232.7</ele>
        <time>2017-10-21T14:44:54Z</time>
      </trkpt>
      <trkpt lat="49.00155" lon="1.12151">
        <ele>232.5</ele>
        <time>2017-10-21T14:44:58Z</time>
      </trkpt>
      <trkpt lat="49.00166" lon="1.1216">
        <ele>232.2</ele>
        <time>2017-10-21T14:45:02Z</time>
      </trkpt>
      <trkpt lat="49.00174" lon="1.12167">
        <ele>232.1</ele>
        <time>2017-10-21T14:45:05Z</time>
      </trkpt>
      <trkpt lat="49.00183" lon="1.12174">
        <ele>231.9</ele>
        <time>2017-10-21T14:45:08Z</time>
      </trkpt>
      <trkpt lat="49.00193" lon="1.12183">
        <ele>231.8</ele>
        <time>2017-10-21T14:45:11Z</time>
      </trkpt>
      <trkpt lat="49.00202" lon="1.12192">
        <ele>231.5</ele>
        <time>2017-10-21T14:45:14Z</time>
      </trkpt>
      <trkpt lat="49.0021" lon="1.122">
        <ele>232.9</ele>
        <time>2017-10-21T14:45:18Z</time>
      </trkpt>
      <trkpt lat="49.0022" lon="1.12204">
        <ele>234.5</ele>
        <time>2017-10-21T14:45:23Z</time>
      </trkpt>
      <trkpt lat="49.00228" lon="1.12195">
        <ele>234.7</ele>
        <time>2017-10-21T14:45:27Z</time>
      </trkpt>
      <trkpt lat="49.00236" lon="1.12188">
        <ele>233.2</ele>
        <time>2017-10-21T14:45:32Z</time>
      </trkpt>
      <trkpt lat="49.00244" lon="1.12178">
        <ele>231.1</ele>
        <time>2017-10-21T14:45:35Z</time>
      </trkpt>
      <trkpt lat="49.00252" lon="1.12168">
        <ele>227.8</ele>
        <time>2017-10-21T14:45:38Z</time>
      </trkpt>
      <trkpt lat="49.00262" lon="1.12165">
        <ele>224.4</ele>
        <time>2017-10-21T14:45:45Z</time>
      </trkpt>
      <trkpt lat="49.00271" lon="1.12166">
        <ele>224.2</ele>
        <time>2017-10-21T14:46:13Z</time>
      </trkpt>
      <trkpt lat="49.0028" lon="1.12174">
        <ele>224.8</ele>
        <time>2017-10-21T14:47:12Z</time>
      </trkpt>
      <trkpt lat="49.00288" lon="1.12181">
        <ele>225.7</ele>
        <time>2017-10-21T14:47:17Z</time>
      </trkpt>
      <trkpt lat="49.00298" lon="1.12187">
        <ele>227.1</ele>
        <time>2017-10-21T14:47:22Z</time>
      </trkpt>
      <trkpt lat="49.00306" lon="1.12194">
        <ele>228.4</ele>
        <time>2017-10-21T14:47:27Z</time>
      </trkpt>
      <trkpt lat="49.00315" lon="1.12201">
        <ele>229.7</ele>
        <time>2017-10-21T14:47:32Z</time>
      </trkpt>
      <trkpt lat="49.00324" lon="1.12208">
        <ele>230.7</ele>
        <time>2017-10-21T14:47:36Z</time>
      </trkpt>
      <trkpt lat="49.00332" lon="1.12215">
        <ele>231.7</ele>
        <time>2017-10-21T14:47:40Z</time>
      </trkpt>
      <trkpt lat="49.00342" lon="1.12221">
        <ele>232.8</ele>
        <time>2017-10-21T14:47:44Z</time>
      </trkpt>
      <trkpt lat="49.00351" lon="1.12226">
        <ele>233.5</ele>
        <time>2017-10-21T14:47:48Z</time>
      </trkpt>
      <trkpt lat="49.00361" lon="1.12232">
        <ele>234.5</ele>
        <time>2017-10-21T14:47:53Z</time>
      </trkpt>
      <trkpt lat="49.00369" lon="1.12238">
        <ele>235.3</ele>
        <time>2017-10-21T14:47:57Z</time>
      </trkpt>
      <trkpt lat="49.00378" lon="1.12244">
        <ele>236.1</ele>
        <time>2017-10-21T14:48:01Z</time>
      </trkpt>
      <trkpt lat="49.00387" lon="1.12251">
        <ele>236.8</ele>
        <time>2017-10-21T14:48:05Z</time>
      </trkpt>
      <trkpt lat="49.00398" lon="1.12257">
        <ele>237.8</ele>
        <time>2017-10-21T14:48:10Z</time>
      </trkpt>
      <trkpt lat="49.00407" lon="1.12262">
        <ele>238.5</ele>
        <time>2017-10-21T14:48:14Z</time>
      </trkpt>
      <trkpt lat="49.00416" lon="1.12265">
        <ele>239.5</ele>
        <time>2017-10-21T14:48:18Z</time>
      </trkpt>
      <trkpt lat="49.00426" lon="1.12268">
        <ele>240.6</ele>
        <time>2017-10-21T14:48:23Z</time>
      </trkpt>
      <trkpt lat="49.00438" lon="1.12268">
        <ele>241.5</ele>
        <time>2017-10-21T14:48:28Z</time>
      </trkpt>
      <trkpt lat="49.00447" lon="1.12263">
        <ele>242.3</ele>
        <time>2017-10-21T14:48:33Z</time>
      </trkpt>
      <trkpt lat="49.00456" lon="1.12267">
        <ele>243.2</ele>
        <time>2017-10-21T14:49:09Z</time>
      </trkpt>
      <trkpt lat="49.00466" lon="1.12263">
        <ele>243.2</ele>
        <time>2017-10-21T14:49:13Z</time>
      </trkpt>
      <trkpt lat="49.00476" lon="1.12261">
        <ele>243.3</ele>
        <time>2017-10-21T14:49:17Z</time>
      </trkpt>
      <trkpt lat="49.00488" lon="1.12257">
        <ele>243.8</ele>
        <time>2017-10-21T14:49:21Z</time>
      </trkpt>
      <trkpt lat="49.00499" lon="1.12257">
        <ele>243.8</ele>
        <time>2017-10-21T14:49:25Z</time>
      </trkpt>
      <trkpt lat="49.0051" lon="1.12256">
        <ele>244.2</ele>
        <time>2017-10-21T14:49:29Z</time>
      </trkpt>
      <trkpt lat="49.00521" lon="1.1225">
        <ele>244.6</ele>
        <time>2017-10-21T14:49:32Z</time>
      </trkpt>
      <trkpt lat="49.00529" lon="1.12241">
        <ele>244.7</ele>
        <time>2017-10-21T14:49:36Z</time>
      </trkpt>
      <trkpt lat="49.00537" lon="1.12233">
        <ele>244.9</ele>
        <time>2017-10-21T14:49:39Z</time>
      </trkpt>
      <trkpt lat="49.00547" lon="1.12236">
        <ele>245.2</ele>
        <time>2017-10-21T14:49:47Z</time>
      </trkpt>
      <trkpt lat="49.00556" lon="1.12244">
        <ele>245.2</ele>
        <time>2017-10-21T14:49:50Z</time>
      </trkpt>
      <trkpt lat="49.00561" lon="1.12255">
        <ele>245.7</ele>
        <time>2017-10-21T14:49:53Z</time>
      </trkpt>
      <trkpt lat="49.00568" lon="1.12266">
        <ele>246.3</ele>
        <time>2017-10-21T14:49:56Z</time>
      </trkpt>
      <trkpt lat="49.00575" lon="1.1228">
        <ele>247.1</ele>
        <time>2017-10-21T14:50:00Z</time>
      </trkpt>
      <trkpt lat="49.00579" lon="1.12294">
        <ele>247.6</ele>
        <time>2017-10-21T14:50:05Z</time>
      </trkpt>
      <trkpt lat="49.00584" lon="1.12309">
        <ele>247.7</ele>
        <time>2017-10-21T14:50:08Z</time>
      </trkpt>
      <trkpt lat="49.00591" lon="1.12323">
        <ele>247.7</ele>
        <time>2017-10-21T14:50:11Z</time>
      </trkpt>
      <trkpt lat="49.00595" lon="1.1234">
        <ele>247.8</ele>
        <time>2017-10-21T14:50:14Z</time>
      </trkpt>
      <trkpt lat="49.00598" lon="1.12356">
        <ele>247.9</ele>
        <time>2017-10-21T14:50:17Z</time>
      </trkpt>
      <trkpt lat="49.00599" lon="1.12372">
        <ele>247.8</ele>
        <time>2017-10-21T14:50:20Z</time>
      </trkpt>
      <trkpt lat="49.00604" lon="1.12387">
        <ele>247.8</ele>
        <time>2017-10-21T14:50:23Z</time>
      </trkpt>
      <trkpt lat="49.00608" lon="1.12402">
        <ele>248.2</ele>
        <time>2017-10-21T14:50:26Z</time>
      </trkpt>
      <trkpt lat="49.00613" lon="1.12421">
        <ele>248.4</ele>
        <time>2017-10-21T14:50:29Z</time>
      </trkpt>
      <trkpt lat="49.00617" lon="1.12439">
        <ele>248.6</ele>
        <time>2017-10-21T14:50:32Z</time>
      </trkpt>
      <trkpt lat="49.00619" lon="1.12455">
        <ele>248.9</ele>
        <time>2017-10-21T14:50:35Z</time>
      </trkpt>
      <trkpt lat="49.00623" lon="1.12468">
        <ele>249</ele>
        <time>2017-10-21T14:50:37Z</time>
      </trkpt>
      <trkpt lat="49.00627" lon="1.12483">
        <ele>249</ele>
        <time>2017-10-21T14:50:40Z</time>
      </trkpt>
      <trkpt lat="49.0063" lon="1.12497">
        <ele>249.2</ele>
        <time>2017-10-21T14:50:43Z</time>
      </trkpt>
      <trkpt lat="49.00633" lon="1.12511">
        <ele>249.5</ele>
        <time>2017-10-21T14:50:46Z</time>
      </trkpt>
      <trkpt lat="49.00637" lon="1.12526">
        <ele>249.7</ele>
        <time>2017-10-21T14:50:49Z</time>
      </trkpt>
      <trkpt lat="49.0064" lon="1.1254">
        <ele>250</ele>
        <time>2017-10-21T14:50:52Z</time>
      </trkpt>
      <trkpt lat="49.00643" lon="1.12557">
        <ele>250.2</ele>
        <time>2017-10-21T14:50:55Z</time>
      </trkpt>
      <trkpt lat="49.00648" lon="1.12572">
        <ele>250.5</ele>
        <time>2017-10-21T14:50:58Z</time>
      </trkpt>
      <trkpt lat="49.00653" lon="1.12586">
        <ele>250.6</ele>
        <time>2017-10-21T14:51:01Z</time>
      </trkpt>
      <trkpt lat="49.00658" lon="1.12599">
        <ele>250.7</ele>
        <time>2017-10-21T14:51:04Z</time>
      </trkpt>
      <trkpt lat="49.00662" lon="1.12613">
        <ele>251</ele>
        <time>2017-10-21T14:51:07Z</time>
      </trkpt>
      <trkpt lat="49.00665" lon="1.12627">
        <ele>251.3</ele>
        <time>2017-10-21T14:51:10Z</time>
      </trkpt>
      <trkpt lat="49.00669" lon="1.12644">
        <ele>251.5</ele>
        <time>2017-10-21T14:51:13Z</time>
      </trkpt>
      <trkpt lat="49.00674" lon="1.1266">
        <ele>251.5</ele>
        <time>2017-10-21T14:51:16Z</time>
      </trkpt>
      <trkpt lat="49.00678" lon="1.12672">
        <ele>251.5</ele>
        <time>2017-10-21T14:51:18Z</time>
      </trkpt>
      <trkpt lat="49.00685" lon="1.12689">
        <ele>251.7</ele>
        <time>2017-10-21T14:51:21Z</time>
      </trkpt>
      <trkpt lat="49.00689" lon="1.12703">
        <ele>251.8</ele>
        <time>2017-10-21T14:51:24Z</time>
      </trkpt>
      <trkpt lat="49.00699" lon="1.12703">
        <ele>251.7</ele>
        <time>2017-10-21T14:51:27Z</time>
      </trkpt>
      <trkpt lat="49.00709" lon="1.127">
        <ele>251.8</ele>
        <time>2017-10-21T14:51:30Z</time>
      </trkpt>
      <trkpt lat="49.00722" lon="1.12696">
        <ele>251.7</ele>
        <time>2017-10-21T14:51:33Z</time>
      </trkpt>
      <trkpt lat="49.00735" lon="1.12692">
        <ele>251.6</ele>
        <time>2017-10-21T14:51:36Z</time>
      </trkpt>
      <trkpt lat="49.00745" lon="1.12686">
        <ele>252</ele>
        <time>2017-10-21T14:51:39Z</time>
      </trkpt>
      <trkpt lat="49.00754" lon="1.1268">
        <ele>252.3</ele>
        <time>2017-10-21T14:51:42Z</time>
      </trkpt>
      <trkpt lat="49.00766" lon="1.12675">
        <ele>252.3</ele>
        <time>2017-10-21T14:51:45Z</time>
      </trkpt>
      <trkpt lat="49.00775" lon="1.12669">
        <ele>252.2</ele>
        <time>2017-10-21T14:51:48Z</time>
      </trkpt>
      <trkpt lat="49.00786" lon="1.12664">
        <ele>252.5</ele>
        <time>2017-10-21T14:51:51Z</time>
      </trkpt>
      <trkpt lat="49.00799" lon="1.12659">
        <ele>252.6</ele>
        <time>2017-10-21T14:51:54Z</time>
      </trkpt>
      <trkpt lat="49.0081" lon="1.12653">
        <ele>252.9</ele>
        <time>2017-10-21T14:51:57Z</time>
      </trkpt>
      <trkpt lat="49.00819" lon="1.12649">
        <ele>253.1</ele>
        <time>2017-10-21T14:52:00Z</time>
      </trkpt>
      <trkpt lat="49.00828" lon="1.12645">
        <ele>253.1</ele>
        <time>2017-10-21T14:52:03Z</time>
      </trkpt>
      <trkpt lat="49.00837" lon="1.12656">
        <ele>253</ele>
        <time>2017-10-21T14:52:06Z</time>
      </trkpt>
      <trkpt lat="49.00842" lon="1.12675">
        <ele>253</ele>
        <time>2017-10-21T14:52:09Z</time>
      </trkpt>
      <trkpt lat="49.00849" lon="1.12692">
        <ele>252.7</ele>
        <time>2017-10-21T14:52:12Z</time>
      </trkpt>
      <trkpt lat="49.00854" lon="1.12708">
        <ele>252.6</ele>
        <time>2017-10-21T14:52:15Z</time>
      </trkpt>
      <trkpt lat="49.00861" lon="1.12726">
        <ele>252.6</ele>
        <time>2017-10-21T14:52:18Z</time>
      </trkpt>
      <trkpt lat="49.00867" lon="1.12743">
        <ele>252.6</ele>
        <time>2017-10-21T14:52:21Z</time>
      </trkpt>
      <trkpt lat="49.00872" lon="1.12756">
        <ele>252.2</ele>
        <time>2017-10-21T14:52:24Z</time>
      </trkpt>
      <trkpt lat="49.00873" lon="1.12772">
        <ele>251.8</ele>
        <time>2017-10-21T14:52:27Z</time>
      </trkpt>
      <trkpt lat="49.00874" lon="1.12791">
        <ele>251.3</ele>
        <time>2017-10-21T14:52:30Z</time>
      </trkpt>
      <trkpt lat="49.00876" lon="1.12804">
        <ele>251</ele>
        <time>2017-10-21T14:52:33Z</time>
      </trkpt>
      <trkpt lat="49.0088" lon="1.12817">
        <ele>251</ele>
        <time>2017-10-21T14:52:35Z</time>
      </trkpt>
      <trkpt lat="49.00884" lon="1.12832">
        <ele>250.8</ele>
        <time>2017-10-21T14:52:38Z</time>
      </trkpt>
      <trkpt lat="49.00885" lon="1.12851">
        <ele>250.6</ele>
        <time>2017-10-21T14:52:41Z</time>
      </trkpt>
      <trkpt lat="49.00889" lon="1.12864">
        <ele>250.2</ele>
        <time>2017-10-21T14:52:43Z</time>
      </trkpt>
      <trkpt lat="49.00892" lon="1.12878">
        <ele>250</ele>
        <time>2017-10-21T14:52:45Z</time>
      </trkpt>
      <trkpt lat="49.00903" lon="1.12888">
        <ele>249.9</ele>
        <time>2017-10-21T14:52:47Z</time>
      </trkpt>
      <trkpt lat="49.00913" lon="1.12893">
        <ele>249.7</ele>
        <time>2017-10-21T14:52:49Z</time>
      </trkpt>
      <trkpt lat="49.00925" lon="1.12896">
        <ele>249.6</ele>
        <time>2017-10-21T14:52:51Z</time>
      </trkpt>
      <trkpt lat="49.00937" lon="1.129">
        <ele>249.4</ele>
        <time>2017-10-21T14:52:53Z</time>
      </trkpt>
      <trkpt lat="49.00948" lon="1.12903">
        <ele>249.2</ele>
        <time>2017-10-21T14:52:55Z</time>
      </trkpt>
      <trkpt lat="49.0096" lon="1.12906">
        <ele>249.1</ele>
        <time>2017-10-21T14:52:57Z</time>
      </trkpt>
      <trkpt lat="49.00972" lon="1.12908">
        <ele>248.9</ele>
        <time>2017-10-21T14:52:59Z</time>
      </trkpt>
      <trkpt lat="49.00986" lon="1.12911">
        <ele>248.7</ele>
        <time>2017-10-21T14:53:01Z</time>
      </trkpt>
      <trkpt lat="49.01" lon="1.12914">
        <ele>248.5</ele>
        <time>2017-10-21T14:53:03Z</time>
      </trkpt>
      <trkpt lat="49.01013" lon="1.12916">
        <ele>248.3</ele>
        <time>2017-10-21T14:53:05Z</time>
      </trkpt>
      <trkpt lat="49.01026" lon="1.12918">
        <ele>248.1</ele>
        <time>2017-10-21T14:53:07Z</time>
      </trkpt>
      <trkpt lat="49.01039" lon="1.1292">
        <ele>248.1</ele>
        <time>2017-10-21T14:53:09Z</time>
      </trkpt>
      <trkpt lat="49.0105" lon="1.12922">
        <ele>248.1</ele>
        <time>2017-10-21T14:53:11Z</time>
      </trkpt>
      <trkpt lat="49.0106" lon="1.12925">
        <ele>248.2</ele>
        <time>2017-10-21T14:53:13Z</time>
      </trkpt>
      <trkpt lat="49.0107" lon="1.12927">
        <ele>247.4</ele>
        <time>2017-10-21T14:53:15Z</time>
      </trkpt>
      <trkpt lat="49.0108" lon="1.12931">
        <ele>247.5</ele>
        <time>2017-10-21T14:53:17Z</time>
      </trkpt>
      <trkpt lat="49.01091" lon="1.12932">
        <ele>247.6</ele>
        <time>2017-10-21T14:53:19Z</time>
      </trkpt>
      <trkpt lat="49.01101" lon="1.12933">
        <ele>247.6</ele>
        <time>2017-10-21T14:53:21Z</time>
      </trkpt>
      <trkpt lat="49.01112" lon="1.12935">
        <ele>247.7</ele>
        <time>2017-10-21T14:53:24Z</time>
      </trkpt>
      <trkpt lat="49.01121" lon="1.12935">
        <ele>247.6</ele>
        <time>2017-10-21T14:53:28Z</time>
      </trkpt>
      <trkpt lat="49.01132" lon="1.12939">
        <ele>247.7</ele>
        <time>2017-10-21T14:53:33Z</time>
      </trkpt>
      <trkpt lat="49.01142" lon="1.12941">
        <ele>247.6</ele>
        <time>2017-10-21T14:53:36Z</time>
      </trkpt>
      <trkpt lat="49.01153" lon="1.12942">
        <ele>247.5</ele>
        <time>2017-10-21T14:53:39Z</time>
      </trkpt>
      <trkpt lat="49.01165" lon="1.12944">
        <ele>247.2</ele>
        <time>2017-10-21T14:53:42Z</time>
      </trkpt>
      <trkpt lat="49.01177" lon="1.12945">
        <ele>247</ele>
        <time>2017-10-21T14:53:45Z</time>
      </trkpt>
      <trkpt lat="49.01191" lon="1.12947">
        <ele>246.5</ele>
        <time>2017-10-21T14:53:48Z</time>
      </trkpt>
      <trkpt lat="49.01204" lon="1.12949">
        <ele>246.1</ele>
        <time>2017-10-21T14:53:50Z</time>
      </trkpt>
      <trkpt lat="49.01217" lon="1.12949">
        <ele>245.6</ele>
        <time>2017-10-21T14:53:52Z</time>
      </trkpt>
      <trkpt lat="49.0123" lon="1.12947">
        <ele>245.2</ele>
        <time>2017-10-21T14:53:54Z</time>
      </trkpt>
      <trkpt lat="49.01242" lon="1.12941">
        <ele>244.9</ele>
        <time>2017-10-21T14:53:56Z</time>
      </trkpt>
      <trkpt lat="49.01252" lon="1.12928">
        <ele>244.8</ele>
        <time>2017-10-21T14:53:58Z</time>
      </trkpt>
      <trkpt lat="49.01263" lon="1.12916">
        <ele>244.4</ele>
        <time>2017-10-21T14:54:00Z</time>
      </trkpt>
      <trkpt lat="49.01273" lon="1.12904">
        <ele>243.9</ele>
        <time>2017-10-21T14:54:02Z</time>
      </trkpt>
      <trkpt lat="49.01283" lon="1.12892">
        <ele>243.5</ele>
        <time>2017-10-21T14:54:04Z</time>
      </trkpt>
      <trkpt lat="49.01295" lon="1.12879">
        <ele>243.3</ele>
        <time>2017-10-21T14:54:06Z</time>
      </trkpt>
      <trkpt lat="49.01304" lon="1.12867">
        <ele>243.2</ele>
        <time>2017-10-21T14:54:08Z</time>
      </trkpt>
      <trkpt lat="49.01314" lon="1.12856">
        <ele>243.3</ele>
        <time>2017-10-21T14:54:10Z</time>
      </trkpt>
      <trkpt lat="49.01324" lon="1.12846">
        <ele>243.2</ele>
        <time>2017-10-21T14:54:12Z</time>
      </trkpt>
      <trkpt lat="49.01333" lon="1.12836">
        <ele>243.2</ele>
        <time>2017-10-21T14:54:14Z</time>
      </trkpt>
      <trkpt lat="49.01343" lon="1.12824">
        <ele>243.1</ele>
        <time>2017-10-21T14:54:16Z</time>
      </trkpt>
      <trkpt lat="49.01353" lon="1.12811">
        <ele>242.7</ele>
        <time>2017-10-21T14:54:18Z</time>
      </trkpt>
      <trkpt lat="49.01365" lon="1.12796">
        <ele>242.3</ele>
        <time>2017-10-21T14:54:20Z</time>
      </trkpt>
      <trkpt lat="49.01379" lon="1.12782">
        <ele>241.3</ele>
        <time>2017-10-21T14:54:22Z</time>
      </trkpt>
      <trkpt lat="49.0139" lon="1.12768">
        <ele>240</ele>
        <time>2017-10-21T14:54:24Z</time>
      </trkpt>
      <trkpt lat="49.014" lon="1.12759">
        <ele>237.4</ele>
        <time>2017-10-21T14:54:27Z</time>
      </trkpt>
      <trkpt lat="49.0141" lon="1.12764">
        <ele>234.6</ele>
        <time>2017-10-21T14:54:33Z</time>
      </trkpt>
      <trkpt lat="49.01415" lon="1.12778">
        <ele>233.5</ele>
        <time>2017-10-21T14:54:38Z</time>
      </trkpt>
      <trkpt lat="49.01419" lon="1.12792">
        <ele>232.7</ele>
        <time>2017-10-21T14:54:41Z</time>
      </trkpt>
      <trkpt lat="49.01425" lon="1.12807">
        <ele>232</ele>
        <time>2017-10-21T14:54:44Z</time>
      </trkpt>
      <trkpt lat="49.01428" lon="1.1282">
        <ele>231</ele>
        <time>2017-10-21T14:54:47Z</time>
      </trkpt>
      <trkpt lat="49.01434" lon="1.12836">
        <ele>230.1</ele>
        <time>2017-10-21T14:54:51Z</time>
      </trkpt>
      <trkpt lat="49.01435" lon="1.12852">
        <ele>229.3</ele>
        <time>2017-10-21T14:54:54Z</time>
      </trkpt>
      <trkpt lat="49.01437" lon="1.12866">
        <ele>227.9</ele>
        <time>2017-10-21T14:54:58Z</time>
      </trkpt>
      <trkpt lat="49.0144" lon="1.12884">
        <ele>226.1</ele>
        <time>2017-10-21T14:55:02Z</time>
      </trkpt>
      <trkpt lat="49.01443" lon="1.12902">
        <ele>224.7</ele>
        <time>2017-10-21T14:55:05Z</time>
      </trkpt>
      <trkpt lat="49.01451" lon="1.1291">
        <ele>223.5</ele>
        <time>2017-10-21T14:55:09Z</time>
      </trkpt>
      <trkpt lat="49.01456" lon="1.12895">
        <ele>222.1</ele>
        <time>2017-10-21T14:55:14Z</time>
      </trkpt>
      <trkpt lat="49.01458" lon="1.1288">
        <ele>221.7</ele>
        <time>2017-10-21T14:55:16Z</time>
      </trkpt>
      <trkpt lat="49.01462" lon="1.12864">
        <ele>220.7</ele>
        <time>2017-10-21T14:55:19Z</time>
      </trkpt>
      <trkpt lat="49.01465" lon="1.12846">
        <ele>219.4</ele>
        <time>2017-10-21T14:55:22Z</time>
      </trkpt>
      <trkpt lat="49.01468" lon="1.12827">
        <ele>217.9</ele>
        <time>2017-10-21T14:55:25Z</time>
      </trkpt>
      <trkpt lat="49.01471" lon="1.12809">
        <ele>216.6</ele>
        <time>2017-10-21T14:55:28Z</time>
      </trkpt>
      <trkpt lat="49.01475" lon="1.12793">
        <ele>215.1</ele>
        <time>2017-10-21T14:55:31Z</time>
      </trkpt>
      <trkpt lat="49.01478" lon="1.12777">
        <ele>213.6</ele>
        <time>2017-10-21T14:55:34Z</time>
      </trkpt>
      <trkpt lat="49.01483" lon="1.12762">
        <ele>211.6</ele>
        <time>2017-10-21T14:55:37Z</time>
      </trkpt>
      <trkpt lat="49.01486" lon="1.12743">
        <ele>210</ele>
        <time>2017-10-21T14:55:40Z</time>
      </trkpt>
      <trkpt lat="49.01488" lon="1.1273">
        <ele>208.8</ele>
        <time>2017-10-21T14:55:43Z</time>
      </trkpt>
      <trkpt lat="49.01489" lon="1.12716">
        <ele>206.4</ele>
        <time>2017-10-21T14:55:55Z</time>
      </trkpt>
      <trkpt lat="49.01499" lon="1.12714">
        <ele>205.8</ele>
        <time>2017-10-21T14:55:58Z</time>
      </trkpt>
      <trkpt lat="49.01511" lon="1.1271">
        <ele>204.5</ele>
        <time>2017-10-21T14:56:01Z</time>
      </trkpt>
      <trkpt lat="49.01522" lon="1.12705">
        <ele>202.7</ele>
        <time>2017-10-21T14:56:04Z</time>
      </trkpt>
      <trkpt lat="49.01534" lon="1.12698">
        <ele>200.2</ele>
        <time>2017-10-21T14:56:07Z</time>
      </trkpt>
      <trkpt lat="49.01542" lon="1.12686">
        <ele>199</ele>
        <time>2017-10-21T14:56:09Z</time>
      </trkpt>
      <trkpt lat="49.01554" lon="1.12682">
        <ele>197.7</ele>
        <time>2017-10-21T14:56:11Z</time>
      </trkpt>
      <trkpt lat="49.01563" lon="1.12686">
        <ele>195.9</ele>
        <time>2017-10-21T14:56:14Z</time>
      </trkpt>
      <trkpt lat="49.0156" lon="1.12702">
        <ele>194.6</ele>
        <time>2017-10-21T14:56:18Z</time>
      </trkpt>
      <trkpt lat="49.01557" lon="1.1272">
        <ele>194.1</ele>
        <time>2017-10-21T14:56:21Z</time>
      </trkpt>
      <trkpt lat="49.01555" lon="1.12734">
        <ele>194</ele>
        <time>2017-10-21T14:56:23Z</time>
      </trkpt>
      <trkpt lat="49.01553" lon="1.12749">
        <ele>194</ele>
        <time>2017-10-21T14:56:25Z</time>
      </trkpt>
      <trkpt lat="49.01551" lon="1.12764">
        <ele>194.1</ele>
        <time>2017-10-21T14:56:27Z</time>
      </trkpt>
      <trkpt lat="49.01549" lon="1.1278">
        <ele>194.2</ele>
        <time>2017-10-21T14:56:29Z</time>
      </trkpt>
      <trkpt lat="49.01547" lon="1.12795">
        <ele>194.4</ele>
        <time>2017-10-21T14:56:31Z</time>
      </trkpt>
      <trkpt lat="49.01546" lon="1.1281">
        <ele>194.5</ele>
        <time>2017-10-21T14:56:33Z</time>
      </trkpt>
      <trkpt lat="49.01544" lon="1.12826">
        <ele>194.6</ele>
        <time>2017-10-21T14:56:35Z</time>
      </trkpt>
      <trkpt lat="49.01542" lon="1.12841">
        <ele>194.7</ele>
        <time>2017-10-21T14:56:37Z</time>
      </trkpt>
      <trkpt lat="49.01541" lon="1.12856">
        <ele>194.8</ele>
        <time>2017-10-21T14:56:39Z</time>
      </trkpt>
      <trkpt lat="49.0154" lon="1.12871">
        <ele>195</ele>
        <time>2017-10-21T14:56:41Z</time>
      </trkpt>
      <trkpt lat="49.01537" lon="1.12887">
        <ele>195.2</ele>
        <time>2017-10-21T14:56:43Z</time>
      </trkpt>
      <trkpt lat="49.01536" lon="1.12903">
        <ele>195.6</ele>
        <time>2017-10-21T14:56:45Z</time>
      </trkpt>
      <trkpt lat="49.01537" lon="1.12919">
        <ele>195.9</ele>
        <time>2017-10-21T14:56:47Z</time>
      </trkpt>
      <trkpt lat="49.01538" lon="1.12935">
        <ele>196.1</ele>
        <time>2017-10-21T14:56:49Z</time>
      </trkpt>
      <trkpt lat="49.01537" lon="1.12951">
        <ele>196.4</ele>
        <time>2017-10-21T14:56:51Z</time>
      </trkpt>
      <trkpt lat="49.01537" lon="1.12971">
        <ele>196.9</ele>
        <time>2017-10-21T14:56:54Z</time>
      </trkpt>
      <trkpt lat="49.0154" lon="1.12989">
        <ele>197.3</ele>
        <time>2017-10-21T14:56:57Z</time>
      </trkpt>
      <trkpt lat="49.01548" lon="1.12996">
        <ele>197.9</ele>
        <time>2017-10-21T14:57:02Z</time>
      </trkpt>
      <trkpt lat="49.01557" lon="1.12995">
        <ele>198.7</ele>
        <time>2017-10-21T14:57:06Z</time>
      </trkpt>
      <trkpt lat="49.01567" lon="1.12991">
        <ele>198.8</ele>
        <time>2017-10-21T14:57:10Z</time>
      </trkpt>
      <trkpt lat="49.01577" lon="1.12986">
        <ele>198.2</ele>
        <time>2017-10-21T14:57:13Z</time>
      </trkpt>
      <trkpt lat="49.01584" lon="1.12976">
        <ele>197.8</ele>
        <time>2017-10-21T14:57:17Z</time>
      </trkpt>
      <trkpt lat="49.01582" lon="1.12961">
        <ele>197.4</ele>
        <time>2017-10-21T14:57:23Z</time>
      </trkpt>
      <trkpt lat="49.01585" lon="1.12947">
        <ele>196.4</ele>
        <time>2017-10-21T14:57:27Z</time>
      </trkpt>
      <trkpt lat="49.01596" lon="1.12935">
        <ele>195.8</ele>
        <time>2017-10-21T14:57:31Z</time>
      </trkpt>
      <trkpt lat="49.01607" lon="1.12928">
        <ele>194.9</ele>
        <time>2017-10-21T14:57:33Z</time>
      </trkpt>
      <trkpt lat="49.01619" lon="1.1292">
        <ele>193.9</ele>
        <time>2017-10-21T14:57:35Z</time>
      </trkpt>
      <trkpt lat="49.01631" lon="1.12916">
        <ele>192.7</ele>
        <time>2017-10-21T14:57:37Z</time>
      </trkpt>
      <trkpt lat="49.01642" lon="1.12911">
        <ele>191.7</ele>
        <time>2017-10-21T14:57:39Z</time>
      </trkpt>
      <trkpt lat="49.0165" lon="1.12907">
        <ele>190.6</ele>
        <time>2017-10-21T14:57:41Z</time>
      </trkpt>
      <trkpt lat="49.01661" lon="1.12913">
        <ele>190.1</ele>
        <time>2017-10-21T14:57:44Z</time>
      </trkpt>
      <trkpt lat="49.01663" lon="1.12932">
        <ele>189.9</ele>
        <time>2017-10-21T14:57:47Z</time>
      </trkpt>
      <trkpt lat="49.01653" lon="1.1294">
        <ele>189.8</ele>
        <time>2017-10-21T14:57:50Z</time>
      </trkpt>
      <trkpt lat="49.01652" lon="1.12956">
        <ele>189.9</ele>
        <time>2017-10-21T14:57:53Z</time>
      </trkpt>
      <trkpt lat="49.01655" lon="1.12972">
        <ele>190.3</ele>
        <time>2017-10-21T14:57:56Z</time>
      </trkpt>
      <trkpt lat="49.01666" lon="1.1298">
        <ele>190.4</ele>
        <time>2017-10-21T14:57:59Z</time>
      </trkpt>
      <trkpt lat="49.01674" lon="1.12991">
        <ele>190.5</ele>
        <time>2017-10-21T14:58:03Z</time>
      </trkpt>
      <trkpt lat="49.01686" lon="1.12989">
        <ele>190</ele>
        <time>2017-10-21T14:58:06Z</time>
      </trkpt>
      <trkpt lat="49.01699" lon="1.12985">
        <ele>189.9</ele>
        <time>2017-10-21T14:58:09Z</time>
      </trkpt>
      <trkpt lat="49.01708" lon="1.12983">
        <ele>189.6</ele>
        <time>2017-10-21T14:58:11Z</time>
      </trkpt>
      <trkpt lat="49.01717" lon="1.12979">
        <ele>189.5</ele>
        <time>2017-10-21T14:58:13Z</time>
      </trkpt>
      <trkpt lat="49.01727" lon="1.12978">
        <ele>189.4</ele>
        <time>2017-10-21T14:58:15Z</time>
      </trkpt>
      <trkpt lat="49.01736" lon="1.12975">
        <ele>189.3</ele>
        <time>2017-10-21T14:58:17Z</time>
      </trkpt>
      <trkpt lat="49.01748" lon="1.1297">
        <ele>189.6</ele>
        <time>2017-10-21T14:58:20Z</time>
      </trkpt>
      <trkpt lat="49.01759" lon="1.12974">
        <ele>189.5</ele>
        <time>2017-10-21T14:58:23Z</time>
      </trkpt>
      <trkpt lat="49.01765" lon="1.12992">
        <ele>189.3</ele>
        <time>2017-10-21T14:58:26Z</time>
      </trkpt>
      <trkpt lat="49.01767" lon="1.13007">
        <ele>189.4</ele>
        <time>2017-10-21T14:58:28Z</time>
      </trkpt>
      <trkpt lat="49.0177" lon="1.13021">
        <ele>189.4</ele>
        <time>2017-10-21T14:58:30Z</time>
      </trkpt>
      <trkpt lat="49.01774" lon="1.13035">
        <ele>189.2</ele>
        <time>2017-10-21T14:58:32Z</time>
      </trkpt>
      <trkpt lat="49.01777" lon="1.1305">
        <ele>189.2</ele>
        <time>2017-10-21T14:58:34Z</time>
      </trkpt>
      <trkpt lat="49.0178" lon="1.13065">
        <ele>190</ele>
        <time>2017-10-21T14:58:36Z</time>
      </trkpt>
      <trkpt lat="49.01784" lon="1.1308">
        <ele>190.5</ele>
        <time>2017-10-21T14:58:38Z</time>
      </trkpt>
      <trkpt lat="49.01786" lon="1.13098">
        <ele>190</ele>
        <time>2017-10-21T14:58:40Z</time>
      </trkpt>
      <trkpt lat="49.0179" lon="1.13124">
        <ele>190.5</ele>
        <time>2017-10-21T14:58:43Z</time>
      </trkpt>
      <trkpt lat="49.01794" lon="1.13142">
        <ele>190.5</ele>
        <time>2017-10-21T14:58:45Z</time>
      </trkpt>
      <trkpt lat="49.01798" lon="1.13159">
        <ele>190.3</ele>
        <time>2017-10-21T14:58:47Z</time>
      </trkpt>
      <trkpt lat="49.01801" lon="1.13175">
        <ele>190.2</ele>
        <time>2017-10-21T14:58:49Z</time>
      </trkpt>
      <trkpt lat="49.01804" lon="1.1319">
        <ele>190.2</ele>
        <time>2017-10-21T14:58:51Z</time>
      </trkpt>
      <trkpt lat="49.01806" lon="1.13204">
        <ele>190.1</ele>
        <time>2017-10-21T14:58:53Z</time>
      </trkpt>
      <trkpt lat="49.01809" lon="1.13218">
        <ele>190</ele>
        <time>2017-10-21T14:58:55Z</time>
      </trkpt>
      <trkpt lat="49.01813" lon="1.13232">
        <ele>189.9</ele>
        <time>2017-10-21T14:58:57Z</time>
      </trkpt>
      <trkpt lat="49.01816" lon="1.13246">
        <ele>189.6</ele>
        <time>2017-10-21T14:58:59Z</time>
      </trkpt>
      <trkpt lat="49.01819" lon="1.13261">
        <ele>189.2</ele>
        <time>2017-10-21T14:59:01Z</time>
      </trkpt>
      <trkpt lat="49.01823" lon="1.13276">
        <ele>188.9</ele>
        <time>2017-10-21T14:59:03Z</time>
      </trkpt>
      <trkpt lat="49.01826" lon="1.1329">
        <ele>188.7</ele>
        <time>2017-10-21T14:59:05Z</time>
      </trkpt>
      <trkpt lat="49.01832" lon="1.13307">
        <ele>188.7</ele>
        <time>2017-10-21T14:59:08Z</time>
      </trkpt>
      <trkpt lat="49.01843" lon="1.13313">
        <ele>188.7</ele>
        <time>2017-10-21T14:59:11Z</time>
      </trkpt>
      <trkpt lat="49.01856" lon="1.13314">
        <ele>188.7</ele>
        <time>2017-10-21T14:59:14Z</time>
      </trkpt>
      <trkpt lat="49.01867" lon="1.13318">
        <ele>188.9</ele>
        <time>2017-10-21T14:59:17Z</time>
      </trkpt>
      <trkpt lat="49.01877" lon="1.13322">
        <ele>188.9</ele>
        <time>2017-10-21T14:59:20Z</time>
      </trkpt>
      <trkpt lat="49.01887" lon="1.13317">
        <ele>188.9</ele>
        <time>2017-10-21T14:59:23Z</time>
      </trkpt>
      <trkpt lat="49.01895" lon="1.13308">
        <ele>188.7</ele>
        <time>2017-10-21T14:59:26Z</time>
      </trkpt>
      <trkpt lat="49.01889" lon="1.13292">
        <ele>188.3</ele>
        <time>2017-10-21T14:59:29Z</time>
      </trkpt>
      <trkpt lat="49.0189" lon="1.13278">
        <ele>188</ele>
        <time>2017-10-21T14:59:32Z</time>
      </trkpt>
      <trkpt lat="49.01901" lon="1.13291">
        <ele>188.6</ele>
        <time>2017-10-21T14:59:35Z</time>
      </trkpt>
      <trkpt lat="49.01907" lon="1.13306">
        <ele>188.7</ele>
        <time>2017-10-21T14:59:37Z</time>
      </trkpt>
      <trkpt lat="49.01913" lon="1.1332">
        <ele>188.4</ele>
        <time>2017-10-21T14:59:39Z</time>
      </trkpt>
      <trkpt lat="49.01922" lon="1.13315">
        <ele>188.3</ele>
        <time>2017-10-21T14:59:42Z</time>
      </trkpt>
      <trkpt lat="49.01931" lon="1.13301">
        <ele>188.5</ele>
        <time>2017-10-21T14:59:45Z</time>
      </trkpt>
      <trkpt lat="49.0194" lon="1.133">
        <ele>188.6</ele>
        <time>2017-10-21T14:59:47Z</time>
      </trkpt>
      <trkpt lat="49.01949" lon="1.13298">
        <ele>189.1</ele>
        <time>2017-10-21T14:59:49Z</time>
      </trkpt>
      <trkpt lat="49.01962" lon="1.13296">
        <ele>189</ele>
        <time>2017-10-21T14:59:52Z</time>
      </trkpt>
      <trkpt lat="49.01973" lon="1.13295">
        <ele>188.7</ele>
        <time>2017-10-21T14:59:55Z</time>
      </trkpt>
      <trkpt lat="49.01985" lon="1.13293">
        <ele>188.2</ele>
        <time>2017-10-21T14:59:58Z</time>
      </trkpt>
      <trkpt lat="49.01996" lon="1.13291">
        <ele>188.4</ele>
        <time>2017-10-21T15:00:01Z</time>
      </trkpt>
      <trkpt lat="49.02006" lon="1.13287">
        <ele>188.4</ele>
        <time>2017-10-21T15:00:04Z</time>
      </trkpt>
      <trkpt lat="49.02014" lon="1.13281">
        <ele>188.1</ele>
        <time>2017-10-21T15:00:07Z</time>
      </trkpt>
      <trkpt lat="49.02024" lon="1.13276">
        <ele>188.4</ele>
        <time>2017-10-21T15:00:12Z</time>
      </trkpt>
      <trkpt lat="49.02036" lon="1.13276">
        <ele>188.3</ele>
        <time>2017-10-21T15:00:16Z</time>
      </trkpt>
      <trkpt lat="49.02047" lon="1.13271">
        <ele>188.3</ele>
        <time>2017-10-21T15:00:19Z</time>
      </trkpt>
      <trkpt lat="49.02056" lon="1.13265">
        <ele>188.7</ele>
        <time>2017-10-21T15:00:22Z</time>
      </trkpt>
      <trkpt lat="49.02065" lon="1.13261">
        <ele>189.2</ele>
        <time>2017-10-21T15:00:30Z</time>
      </trkpt>
      <trkpt lat="49.02074" lon="1.13268">
        <ele>189.1</ele>
        <time>2017-10-21T15:00:38Z</time>
      </trkpt>
      <trkpt lat="49.02079" lon="1.13283">
        <ele>188.4</ele>
        <time>2017-10-21T15:00:41Z</time>
      </trkpt>
      <trkpt lat="49.02081" lon="1.133">
        <ele>188.2</ele>
        <time>2017-10-21T15:00:44Z</time>
      </trkpt>
      <trkpt lat="49.02082" lon="1.13319">
        <ele>188.3</ele>
        <time>2017-10-21T15:00:47Z</time>
      </trkpt>
      <trkpt lat="49.02086" lon="1.13332">
        <ele>188.4</ele>
        <time>2017-10-21T15:00:49Z</time>
      </trkpt>
      <trkpt lat="49.02089" lon="1.13345">
        <ele>188.5</ele>
        <time>2017-10-21T15:00:51Z</time>
      </trkpt>
      <trkpt lat="49.02093" lon="1.13363">
        <ele>188.4</ele>
        <time>2017-10-21T15:00:54Z</time>
      </trkpt>
      <trkpt lat="49.02096" lon="1.13376">
        <ele>188.6</ele>
        <time>2017-10-21T15:00:56Z</time>
      </trkpt>
      <trkpt lat="49.02099" lon="1.13391">
        <ele>188.6</ele>
        <time>2017-10-21T15:00:58Z</time>
      </trkpt>
      <trkpt lat="49.02103" lon="1.13404">
        <ele>188.7</ele>
        <time>2017-10-21T15:01:00Z</time>
      </trkpt>
      <trkpt lat="49.02107" lon="1.13423">
        <ele>188.8</ele>
        <time>2017-10-21T15:01:03Z</time>
      </trkpt>
      <trkpt lat="49.0211" lon="1.13436">
        <ele>188.8</ele>
        <time>2017-10-21T15:01:06Z</time>
      </trkpt>
      <trkpt lat="49.02113" lon="1.1345">
        <ele>188.8</ele>
        <time>2017-10-21T15:01:09Z</time>
      </trkpt>
      <trkpt lat="49.02119" lon="1.13467">
        <ele>188.6</ele>
        <time>2017-10-21T15:01:12Z</time>
      </trkpt>
      <trkpt lat="49.02124" lon="1.13485">
        <ele>188.4</ele>
        <time>2017-10-21T15:01:15Z</time>
      </trkpt>
      <trkpt lat="49.0213" lon="1.13504">
        <ele>188.5</ele>
        <time>2017-10-21T15:01:18Z</time>
      </trkpt>
      <trkpt lat="49.02134" lon="1.13517">
        <ele>188.7</ele>
        <time>2017-10-21T15:01:20Z</time>
      </trkpt>
      <trkpt lat="49.02137" lon="1.13531">
        <ele>188.8</ele>
        <time>2017-10-21T15:01:22Z</time>
      </trkpt>
      <trkpt lat="49.02139" lon="1.13545">
        <ele>188.7</ele>
        <time>2017-10-21T15:01:24Z</time>
      </trkpt>
      <trkpt lat="49.02141" lon="1.13567">
        <ele>188.9</ele>
        <time>2017-10-21T15:01:27Z</time>
      </trkpt>
      <trkpt lat="49.02142" lon="1.13582">
        <ele>189</ele>
        <time>2017-10-21T15:01:29Z</time>
      </trkpt>
      <trkpt lat="49.02142" lon="1.13596">
        <ele>188.9</ele>
        <time>2017-10-21T15:01:31Z</time>
      </trkpt>
      <trkpt lat="49.02143" lon="1.13616">
        <ele>188.8</ele>
        <time>2017-10-21T15:01:34Z</time>
      </trkpt>
      <trkpt lat="49.02145" lon="1.1363">
        <ele>188.7</ele>
        <time>2017-10-21T15:01:36Z</time>
      </trkpt>
      <trkpt lat="49.02148" lon="1.13644">
        <ele>188.6</ele>
        <time>2017-10-21T15:01:38Z</time>
      </trkpt>
      <trkpt lat="49.02152" lon="1.13657">
        <ele>188.7</ele>
        <time>2017-10-21T15:01:40Z</time>
      </trkpt>
      <trkpt lat="49.02155" lon="1.13675">
        <ele>188.7</ele>
        <time>2017-10-21T15:01:43Z</time>
      </trkpt>
      <trkpt lat="49.0216" lon="1.1369">
        <ele>188.6</ele>
        <time>2017-10-21T15:01:46Z</time>
      </trkpt>
      <trkpt lat="49.02165" lon="1.13703">
        <ele>188.7</ele>
        <time>2017-10-21T15:01:49Z</time>
      </trkpt>
      <trkpt lat="49.0217" lon="1.13718">
        <ele>188.8</ele>
        <time>2017-10-21T15:01:54Z</time>
      </trkpt>
      <trkpt lat="49.02174" lon="1.13732">
        <ele>188.8</ele>
        <time>2017-10-21T15:01:57Z</time>
      </trkpt>
      <trkpt lat="49.02178" lon="1.13744">
        <ele>188.9</ele>
        <time>2017-10-21T15:02:00Z</time>
      </trkpt>
      <trkpt lat="49.02173" lon="1.13759">
        <ele>188.9</ele>
        <time>2017-10-21T15:02:05Z</time>
      </trkpt>
      <trkpt lat="49.02175" lon="1.13777">
        <ele>188.9</ele>
        <time>2017-10-21T15:02:08Z</time>
      </trkpt>
      <trkpt lat="49.02179" lon="1.13792">
        <ele>188.6</ele>
        <time>2017-10-21T15:02:11Z</time>
      </trkpt>
      <trkpt lat="49.02182" lon="1.13807">
        <ele>188.7</ele>
        <time>2017-10-21T15:02:15Z</time>
      </trkpt>
      <trkpt lat="49.02184" lon="1.13821">
        <ele>188.7</ele>
        <time>2017-10-21T15:02:18Z</time>
      </trkpt>
      <trkpt lat="49.02187" lon="1.13836">
        <ele>188.7</ele>
        <time>2017-10-21T15:02:21Z</time>
      </trkpt>
      <trkpt lat="49.02187" lon="1.13853">
        <ele>188.7</ele>
        <time>2017-10-21T15:02:25Z</time>
      </trkpt>
      <trkpt lat="49.02192" lon="1.13865">
        <ele>188.9</ele>
        <time>2017-10-21T15:02:28Z</time>
      </trkpt>
      <trkpt lat="49.02198" lon="1.13876">
        <ele>189.2</ele>
        <time>2017-10-21T15:02:31Z</time>
      </trkpt>
      <trkpt lat="49.02204" lon="1.13889">
        <ele>189.3</ele>
        <time>2017-10-21T15:02:35Z</time>
      </trkpt>
      <trkpt lat="49.02207" lon="1.13903">
        <ele>189.4</ele>
        <time>2017-10-21T15:02:38Z</time>
      </trkpt>
      <trkpt lat="49.02212" lon="1.13917">
        <ele>189.5</ele>
        <time>2017-10-21T15:02:41Z</time>
      </trkpt>
      <trkpt lat="49.02216" lon="1.13933">
        <ele>189.5</ele>
        <time>2017-10-21T15:02:45Z</time>
      </trkpt>
      <trkpt lat="49.02213" lon="1.13949">
        <ele>189.2</ele>
        <time>2017-10-21T15:02:51Z</time>
      </trkpt>
      <trkpt lat="49.02202" lon="1.13958">
        <ele>188.6</ele>
        <time>2017-10-21T15:02:54Z</time>
      </trkpt>
      <trkpt lat="49.02202" lon="1.13975">
        <ele>187.6</ele>
        <time>2017-10-21T15:02:58Z</time>
      </trkpt>
      <trkpt lat="49.02196" lon="1.13986">
        <ele>187.2</ele>
        <time>2017-10-21T15:03:03Z</time>
      </trkpt>
      <trkpt lat="49.02194" lon="1.14">
        <ele>187</ele>
        <time>2017-10-21T15:03:09Z</time>
      </trkpt>
      <trkpt lat="49.02201" lon="1.1401">
        <ele>186.9</ele>
        <time>2017-10-21T15:05:28Z</time>
      </trkpt>
      <trkpt lat="49.02206" lon="1.13997">
        <ele>186</ele>
        <time>2017-10-21T15:12:26Z</time>
      </trkpt>
      <trkpt lat="49.02206" lon="1.13982">
        <ele>186.2</ele>
        <time>2017-10-21T15:12:30Z</time>
      </trkpt>
      <trkpt lat="49.02208" lon="1.13968">
        <ele>185.9</ele>
        <time>2017-10-21T15:12:33Z</time>
      </trkpt>
      <trkpt lat="49.02194" lon="1.13977">
        <ele>185.9</ele>
        <time>2017-10-21T15:12:43Z</time>
      </trkpt>
      <trkpt lat="49.02174" lon="1.1399">
        <ele>185.6</ele>
        <time>2017-10-21T15:12:48Z</time>
      </trkpt>
      <trkpt lat="49.02163" lon="1.13995">
        <ele>185.6</ele>
        <time>2017-10-21T15:12:51Z</time>
      </trkpt>
      <trkpt lat="49.02153" lon="1.13988">
        <ele>185.3</ele>
        <time>2017-10-21T15:12:54Z</time>
      </trkpt>
      <trkpt lat="49.02147" lon="1.13971">
        <ele>184.9</ele>
        <time>2017-10-21T15:12:57Z</time>
      </trkpt>
      <trkpt lat="49.02147" lon="1.13953">
        <ele>184.6</ele>
        <time>2017-10-21T15:13:00Z</time>
      </trkpt>
      <trkpt lat="49.02148" lon="1.13936">
        <ele>184.6</ele>
        <time>2017-10-21T15:13:03Z</time>
      </trkpt>
      <trkpt lat="49.02147" lon="1.13918">
        <ele>184.5</ele>
        <time>2017-10-21T15:13:06Z</time>
      </trkpt>
      <trkpt lat="49.02142" lon="1.13902">
        <ele>184.7</ele>
        <time>2017-10-21T15:13:09Z</time>
      </trkpt>
      <trkpt lat="49.02136" lon="1.13885">
        <ele>185</ele>
        <time>2017-10-21T15:13:12Z</time>
      </trkpt>
      <trkpt lat="49.02133" lon="1.13872">
        <ele>185.2</ele>
        <time>2017-10-21T15:13:14Z</time>
      </trkpt>
      <trkpt lat="49.02127" lon="1.13854">
        <ele>185.6</ele>
        <time>2017-10-21T15:13:17Z</time>
      </trkpt>
      <trkpt lat="49.02123" lon="1.13835">
        <ele>185.7</ele>
        <time>2017-10-21T15:13:20Z</time>
      </trkpt>
      <trkpt lat="49.0213" lon="1.13817">
        <ele>185.9</ele>
        <time>2017-10-21T15:13:23Z</time>
      </trkpt>
      <trkpt lat="49.0214" lon="1.1381">
        <ele>185.7</ele>
        <time>2017-10-21T15:13:25Z</time>
      </trkpt>
      <trkpt lat="49.02148" lon="1.13803">
        <ele>185.9</ele>
        <time>2017-10-21T15:13:27Z</time>
      </trkpt>
      <trkpt lat="49.02155" lon="1.13795">
        <ele>186.3</ele>
        <time>2017-10-21T15:13:29Z</time>
      </trkpt>
      <trkpt lat="49.02164" lon="1.13788">
        <ele>186.9</ele>
        <time>2017-10-21T15:13:32Z</time>
      </trkpt>
      <trkpt lat="49.02173" lon="1.13781">
        <ele>187.4</ele>
        <time>2017-10-21T15:13:36Z</time>
      </trkpt>
      <trkpt lat="49.02172" lon="1.13764">
        <ele>187.6</ele>
        <time>2017-10-21T15:13:39Z</time>
      </trkpt>
      <trkpt lat="49.02169" lon="1.1375">
        <ele>187.8</ele>
        <time>2017-10-21T15:13:41Z</time>
      </trkpt>
      <trkpt lat="49.02165" lon="1.13735">
        <ele>187.9</ele>
        <time>2017-10-21T15:13:43Z</time>
      </trkpt>
      <trkpt lat="49.0216" lon="1.13719">
        <ele>187.8</ele>
        <time>2017-10-21T15:13:45Z</time>
      </trkpt>
      <trkpt lat="49.02156" lon="1.13703">
        <ele>187.7</ele>
        <time>2017-10-21T15:13:47Z</time>
      </trkpt>
      <trkpt lat="49.02151" lon="1.13688">
        <ele>187.5</ele>
        <time>2017-10-21T15:13:49Z</time>
      </trkpt>
      <trkpt lat="49.02146" lon="1.13674">
        <ele>187.3</ele>
        <time>2017-10-21T15:13:51Z</time>
      </trkpt>
      <trkpt lat="49.02141" lon="1.13659">
        <ele>187.3</ele>
        <time>2017-10-21T15:13:53Z</time>
      </trkpt>
      <trkpt lat="49.02137" lon="1.13643">
        <ele>187.2</ele>
        <time>2017-10-21T15:13:55Z</time>
      </trkpt>
      <trkpt lat="49.02134" lon="1.13628">
        <ele>187</ele>
        <time>2017-10-21T15:13:57Z</time>
      </trkpt>
      <trkpt lat="49.0213" lon="1.13613">
        <ele>186.9</ele>
        <time>2017-10-21T15:13:59Z</time>
      </trkpt>
      <trkpt lat="49.02126" lon="1.13597">
        <ele>186.9</ele>
        <time>2017-10-21T15:14:01Z</time>
      </trkpt>
      <trkpt lat="49.02122" lon="1.13582">
        <ele>186.7</ele>
        <time>2017-10-21T15:14:03Z</time>
      </trkpt>
      <trkpt lat="49.02118" lon="1.13566">
        <ele>186.2</ele>
        <time>2017-10-21T15:14:05Z</time>
      </trkpt>
      <trkpt lat="49.02115" lon="1.13551">
        <ele>186.1</ele>
        <time>2017-10-21T15:14:07Z</time>
      </trkpt>
      <trkpt lat="49.02111" lon="1.13537">
        <ele>185.9</ele>
        <time>2017-10-21T15:14:09Z</time>
      </trkpt>
      <trkpt lat="49.02107" lon="1.13521">
        <ele>186</ele>
        <time>2017-10-21T15:14:11Z</time>
      </trkpt>
      <trkpt lat="49.02104" lon="1.13506">
        <ele>186.1</ele>
        <time>2017-10-21T15:14:13Z</time>
      </trkpt>
      <trkpt lat="49.02101" lon="1.1349">
        <ele>186.1</ele>
        <time>2017-10-21T15:14:15Z</time>
      </trkpt>
      <trkpt lat="49.02097" lon="1.13474">
        <ele>186.3</ele>
        <time>2017-10-21T15:14:17Z</time>
      </trkpt>
      <trkpt lat="49.02093" lon="1.13458">
        <ele>186.5</ele>
        <time>2017-10-21T15:14:19Z</time>
      </trkpt>
      <trkpt lat="49.02089" lon="1.13442">
        <ele>186.5</ele>
        <time>2017-10-21T15:14:21Z</time>
      </trkpt>
      <trkpt lat="49.02084" lon="1.13425">
        <ele>186.5</ele>
        <time>2017-10-21T15:14:23Z</time>
      </trkpt>
      <trkpt lat="49.0208" lon="1.13409">
        <ele>186.6</ele>
        <time>2017-10-21T15:14:25Z</time>
      </trkpt>
      <trkpt lat="49.02076" lon="1.13392">
        <ele>186.6</ele>
        <time>2017-10-21T15:14:27Z</time>
      </trkpt>
      <trkpt lat="49.02071" lon="1.13376">
        <ele>186.6</ele>
        <time>2017-10-21T15:14:29Z</time>
      </trkpt>
      <trkpt lat="49.02067" lon="1.1336">
        <ele>186.5</ele>
        <time>2017-10-21T15:14:31Z</time>
      </trkpt>
      <trkpt lat="49.02062" lon="1.13345">
        <ele>186.6</ele>
        <time>2017-10-21T15:14:33Z</time>
      </trkpt>
      <trkpt lat="49.02057" lon="1.13329">
        <ele>186.7</ele>
        <time>2017-10-21T15:14:35Z</time>
      </trkpt>
      <trkpt lat="49.02051" lon="1.13314">
        <ele>186.7</ele>
        <time>2017-10-21T15:14:37Z</time>
      </trkpt>
      <trkpt lat="49.02046" lon="1.13299">
        <ele>186.5</ele>
        <time>2017-10-21T15:14:39Z</time>
      </trkpt>
      <trkpt lat="49.02041" lon="1.13285">
        <ele>186.4</ele>
        <time>2017-10-21T15:14:41Z</time>
      </trkpt>
      <trkpt lat="49.02036" lon="1.1327">
        <ele>186.2</ele>
        <time>2017-10-21T15:14:43Z</time>
      </trkpt>
      <trkpt lat="49.0203" lon="1.13255">
        <ele>186.1</ele>
        <time>2017-10-21T15:14:45Z</time>
      </trkpt>
      <trkpt lat="49.02024" lon="1.13242">
        <ele>185.8</ele>
        <time>2017-10-21T15:14:47Z</time>
      </trkpt>
      <trkpt lat="49.02017" lon="1.13229">
        <ele>185.9</ele>
        <time>2017-10-21T15:14:49Z</time>
      </trkpt>
      <trkpt lat="49.02011" lon="1.13215">
        <ele>186</ele>
        <time>2017-10-21T15:14:51Z</time>
      </trkpt>
      <trkpt lat="49.02004" lon="1.13202">
        <ele>186.1</ele>
        <time>2017-10-21T15:14:53Z</time>
      </trkpt>
      <trkpt lat="49.01997" lon="1.13189">
        <ele>186.2</ele>
        <time>2017-10-21T15:14:55Z</time>
      </trkpt>
      <trkpt lat="49.0199" lon="1.13177">
        <ele>186</ele>
        <time>2017-10-21T15:14:57Z</time>
      </trkpt>
      <trkpt lat="49.01984" lon="1.13164">
        <ele>186.1</ele>
        <time>2017-10-21T15:14:59Z</time>
      </trkpt>
      <trkpt lat="49.01978" lon="1.13151">
        <ele>186.2</ele>
        <time>2017-10-21T15:15:01Z</time>
      </trkpt>
      <trkpt lat="49.01971" lon="1.13139">
        <ele>186.1</ele>
        <time>2017-10-21T15:15:03Z</time>
      </trkpt>
      <trkpt lat="49.01964" lon="1.13126">
        <ele>186.1</ele>
        <time>2017-10-21T15:15:05Z</time>
      </trkpt>
      <trkpt lat="49.01958" lon="1.13113">
        <ele>186.1</ele>
        <time>2017-10-21T15:15:07Z</time>
      </trkpt>
      <trkpt lat="49.01952" lon="1.131">
        <ele>186.4</ele>
        <time>2017-10-21T15:15:09Z</time>
      </trkpt>
      <trkpt lat="49.01946" lon="1.13086">
        <ele>186.6</ele>
        <time>2017-10-21T15:15:11Z</time>
      </trkpt>
      <trkpt lat="49.01941" lon="1.13071">
        <ele>186.6</ele>
        <time>2017-10-21T15:15:13Z</time>
      </trkpt>
      <trkpt lat="49.01937" lon="1.13056">
        <ele>186.6</ele>
        <time>2017-10-21T15:15:15Z</time>
      </trkpt>
      <trkpt lat="49.01934" lon="1.13039">
        <ele>186.6</ele>
        <time>2017-10-21T15:15:17Z</time>
      </trkpt>
      <trkpt lat="49.01931" lon="1.13022">
        <ele>186.7</ele>
        <time>2017-10-21T15:15:19Z</time>
      </trkpt>
      <trkpt lat="49.01929" lon="1.13006">
        <ele>186.7</ele>
        <time>2017-10-21T15:15:21Z</time>
      </trkpt>
      <trkpt lat="49.01927" lon="1.12989">
        <ele>186.7</ele>
        <time>2017-10-21T15:15:23Z</time>
      </trkpt>
      <trkpt lat="49.01924" lon="1.12972">
        <ele>186.6</ele>
        <time>2017-10-21T15:15:25Z</time>
      </trkpt>
      <trkpt lat="49.01921" lon="1.12956">
        <ele>186.6</ele>
        <time>2017-10-21T15:15:27Z</time>
      </trkpt>
      <trkpt lat="49.01919" lon="1.12941">
        <ele>186.6</ele>
        <time>2017-10-21T15:15:29Z</time>
      </trkpt>
      <trkpt lat="49.01919" lon="1.12924">
        <ele>186.5</ele>
        <time>2017-10-21T15:15:31Z</time>
      </trkpt>
      <trkpt lat="49.01914" lon="1.1289">
        <ele>186.5</ele>
        <time>2017-10-21T15:15:36Z</time>
      </trkpt>
      <trkpt lat="49.01911" lon="1.12875">
        <ele>186.5</ele>
        <time>2017-10-21T15:15:38Z</time>
      </trkpt>
      <trkpt lat="49.01908" lon="1.1286">
        <ele>186.6</ele>
        <time>2017-10-21T15:15:40Z</time>
      </trkpt>
      <trkpt lat="49.01907" lon="1.12843">
        <ele>186.7</ele>
        <time>2017-10-21T15:15:42Z</time>
      </trkpt>
      <trkpt lat="49.01904" lon="1.12828">
        <ele>186.5</ele>
        <time>2017-10-21T15:15:44Z</time>
      </trkpt>
      <trkpt lat="49.01901" lon="1.12814">
        <ele>186.5</ele>
        <time>2017-10-21T15:15:46Z</time>
      </trkpt>
      <trkpt lat="49.01898" lon="1.12799">
        <ele>186.7</ele>
        <time>2017-10-21T15:15:48Z</time>
      </trkpt>
      <trkpt lat="49.01895" lon="1.12784">
        <ele>186.8</ele>
        <time>2017-10-21T15:15:50Z</time>
      </trkpt>
      <trkpt lat="49.01892" lon="1.12769">
        <ele>186.7</ele>
        <time>2017-10-21T15:15:52Z</time>
      </trkpt>
      <trkpt lat="49.01889" lon="1.12755">
        <ele>186.8</ele>
        <time>2017-10-21T15:15:54Z</time>
      </trkpt>
      <trkpt lat="49.01885" lon="1.1274">
        <ele>186.9</ele>
        <time>2017-10-21T15:15:56Z</time>
      </trkpt>
      <trkpt lat="49.01882" lon="1.12724">
        <ele>186.8</ele>
        <time>2017-10-21T15:15:58Z</time>
      </trkpt>
      <trkpt lat="49.01879" lon="1.1271">
        <ele>186.8</ele>
        <time>2017-10-21T15:16:00Z</time>
      </trkpt>
      <trkpt lat="49.01875" lon="1.12695">
        <ele>186.8</ele>
        <time>2017-10-21T15:16:02Z</time>
      </trkpt>
      <trkpt lat="49.01871" lon="1.12682">
        <ele>186.8</ele>
        <time>2017-10-21T15:16:04Z</time>
      </trkpt>
      <trkpt lat="49.01866" lon="1.12669">
        <ele>186.8</ele>
        <time>2017-10-21T15:16:06Z</time>
      </trkpt>
      <trkpt lat="49.01863" lon="1.12656">
        <ele>186.7</ele>
        <time>2017-10-21T15:16:08Z</time>
      </trkpt>
      <trkpt lat="49.01859" lon="1.12643">
        <ele>186.6</ele>
        <time>2017-10-21T15:16:10Z</time>
      </trkpt>
      <trkpt lat="49.01855" lon="1.12631">
        <ele>186.5</ele>
        <time>2017-10-21T15:16:12Z</time>
      </trkpt>
      <trkpt lat="49.01851" lon="1.12618">
        <ele>186.5</ele>
        <time>2017-10-21T15:16:14Z</time>
      </trkpt>
      <trkpt lat="49.01847" lon="1.12605">
        <ele>186.6</ele>
        <time>2017-10-21T15:16:16Z</time>
      </trkpt>
      <trkpt lat="49.01843" lon="1.12593">
        <ele>186.6</ele>
        <time>2017-10-21T15:16:18Z</time>
      </trkpt>
      <trkpt lat="49.01839" lon="1.1258">
        <ele>186.7</ele>
        <time>2017-10-21T15:16:20Z</time>
      </trkpt>
      <trkpt lat="49.01834" lon="1.12567">
        <ele>186.9</ele>
        <time>2017-10-21T15:16:22Z</time>
      </trkpt>
      <trkpt lat="49.0183" lon="1.12554">
        <ele>187</ele>
        <time>2017-10-21T15:16:24Z</time>
      </trkpt>
      <trkpt lat="49.01825" lon="1.1254">
        <ele>187.1</ele>
        <time>2017-10-21T15:16:26Z</time>
      </trkpt>
      <trkpt lat="49.01821" lon="1.12526">
        <ele>187.2</ele>
        <time>2017-10-21T15:16:28Z</time>
      </trkpt>
      <trkpt lat="49.01816" lon="1.12512">
        <ele>187.4</ele>
        <time>2017-10-21T15:16:30Z</time>
      </trkpt>
      <trkpt lat="49.01811" lon="1.12499">
        <ele>187.4</ele>
        <time>2017-10-21T15:16:32Z</time>
      </trkpt>
      <trkpt lat="49.01805" lon="1.12486">
        <ele>187.4</ele>
        <time>2017-10-21T15:16:34Z</time>
      </trkpt>
      <trkpt lat="49.01798" lon="1.12473">
        <ele>187.5</ele>
        <time>2017-10-21T15:16:36Z</time>
      </trkpt>
      <trkpt lat="49.01791" lon="1.12461">
        <ele>187.6</ele>
        <time>2017-10-21T15:16:38Z</time>
      </trkpt>
      <trkpt lat="49.01783" lon="1.12449">
        <ele>187.6</ele>
        <time>2017-10-21T15:16:40Z</time>
      </trkpt>
      <trkpt lat="49.01775" lon="1.12438">
        <ele>187.5</ele>
        <time>2017-10-21T15:16:42Z</time>
      </trkpt>
      <trkpt lat="49.01767" lon="1.12427">
        <ele>187.5</ele>
        <time>2017-10-21T15:16:44Z</time>
      </trkpt>
      <trkpt lat="49.01759" lon="1.12417">
        <ele>187.4</ele>
        <time>2017-10-21T15:16:46Z</time>
      </trkpt>
      <trkpt lat="49.01751" lon="1.12407">
        <ele>187.4</ele>
        <time>2017-10-21T15:16:48Z</time>
      </trkpt>
      <trkpt lat="49.01743" lon="1.12397">
        <ele>187.4</ele>
        <time>2017-10-21T15:16:50Z</time>
      </trkpt>
      <trkpt lat="49.01735" lon="1.12388">
        <ele>187.5</ele>
        <time>2017-10-21T15:16:52Z</time>
      </trkpt>
      <trkpt lat="49.01727" lon="1.12378">
        <ele>187.5</ele>
        <time>2017-10-21T15:16:54Z</time>
      </trkpt>
      <trkpt lat="49.01719" lon="1.12369">
        <ele>187.5</ele>
        <time>2017-10-21T15:16:56Z</time>
      </trkpt>
      <trkpt lat="49.01711" lon="1.12359">
        <ele>187.5</ele>
        <time>2017-10-21T15:16:58Z</time>
      </trkpt>
      <trkpt lat="49.01702" lon="1.12346">
        <ele>187.5</ele>
        <time>2017-10-21T15:17:01Z</time>
      </trkpt>
      <trkpt lat="49.01694" lon="1.12336">
        <ele>187.5</ele>
        <time>2017-10-21T15:17:04Z</time>
      </trkpt>
      <trkpt lat="49.01686" lon="1.12326">
        <ele>187.4</ele>
        <time>2017-10-21T15:17:08Z</time>
      </trkpt>
      <trkpt lat="49.0168" lon="1.12314">
        <ele>187.6</ele>
        <time>2017-10-21T15:17:14Z</time>
      </trkpt>
      <trkpt lat="49.01671" lon="1.12301">
        <ele>187.5</ele>
        <time>2017-10-21T15:17:17Z</time>
      </trkpt>
      <trkpt lat="49.01665" lon="1.1229">
        <ele>187.4</ele>
        <time>2017-10-21T15:17:19Z</time>
      </trkpt>
      <trkpt lat="49.01657" lon="1.12278">
        <ele>187.2</ele>
        <time>2017-10-21T15:17:21Z</time>
      </trkpt>
      <trkpt lat="49.0165" lon="1.12265">
        <ele>187.1</ele>
        <time>2017-10-21T15:17:23Z</time>
      </trkpt>
      <trkpt lat="49.01642" lon="1.12253">
        <ele>187</ele>
        <time>2017-10-21T15:17:25Z</time>
      </trkpt>
      <trkpt lat="49.01635" lon="1.1224">
        <ele>187.1</ele>
        <time>2017-10-21T15:17:27Z</time>
      </trkpt>
      <trkpt lat="49.01628" lon="1.12227">
        <ele>187.4</ele>
        <time>2017-10-21T15:17:29Z</time>
      </trkpt>
      <trkpt lat="49.0162" lon="1.12214">
        <ele>187.7</ele>
        <time>2017-10-21T15:17:31Z</time>
      </trkpt>
      <trkpt lat="49.01613" lon="1.12201">
        <ele>187.7</ele>
        <time>2017-10-21T15:17:33Z</time>
      </trkpt>
      <trkpt lat="49.01605" lon="1.12189">
        <ele>187.8</ele>
        <time>2017-10-21T15:17:35Z</time>
      </trkpt>
      <trkpt lat="49.01597" lon="1.12177">
        <ele>188</ele>
        <time>2017-10-21T15:17:37Z</time>
      </trkpt>
      <trkpt lat="49.0159" lon="1.12164">
        <ele>188.1</ele>
        <time>2017-10-21T15:17:39Z</time>
      </trkpt>
      <trkpt lat="49.01582" lon="1.12152">
        <ele>188.4</ele>
        <time>2017-10-21T15:17:41Z</time>
      </trkpt>
      <trkpt lat="49.01574" lon="1.12139">
        <ele>188.5</ele>
        <time>2017-10-21T15:17:43Z</time>
      </trkpt>
      <trkpt lat="49.01566" lon="1.12127">
        <ele>188.3</ele>
        <time>2017-10-21T15:17:45Z</time>
      </trkpt>
      <trkpt lat="49.01558" lon="1.12115">
        <ele>188.4</ele>
        <time>2017-10-21T15:17:47Z</time>
      </trkpt>
      <trkpt lat="49.01551" lon="1.12103">
        <ele>188.4</ele>
        <time>2017-10-21T15:17:49Z</time>
      </trkpt>
      <trkpt lat="49.01543" lon="1.12092">
        <ele>188.4</ele>
        <time>2017-10-21T15:17:51Z</time>
      </trkpt>
      <trkpt lat="49.01536" lon="1.1208">
        <ele>188.4</ele>
        <time>2017-10-21T15:17:53Z</time>
      </trkpt>
      <trkpt lat="49.01529" lon="1.12069">
        <ele>188.6</ele>
        <time>2017-10-21T15:17:55Z</time>
      </trkpt>
      <trkpt lat="49.01522" lon="1.12058">
        <ele>188.6</ele>
        <time>2017-10-21T15:17:57Z</time>
      </trkpt>
      <trkpt lat="49.01515" lon="1.12047">
        <ele>188.9</ele>
        <time>2017-10-21T15:17:59Z</time>
      </trkpt>
      <trkpt lat="49.01507" lon="1.12036">
        <ele>189.1</ele>
        <time>2017-10-21T15:18:01Z</time>
      </trkpt>
      <trkpt lat="49.015" lon="1.12025">
        <ele>189.3</ele>
        <time>2017-10-21T15:18:03Z</time>
      </trkpt>
      <trkpt lat="49.01493" lon="1.12014">
        <ele>189.5</ele>
        <time>2017-10-21T15:18:05Z</time>
      </trkpt>
      <trkpt lat="49.01486" lon="1.12004">
        <ele>189.6</ele>
        <time>2017-10-21T15:18:07Z</time>
      </trkpt>
      <trkpt lat="49.01477" lon="1.11994">
        <ele>190.1</ele>
        <time>2017-10-21T15:18:09Z</time>
      </trkpt>
      <trkpt lat="49.01468" lon="1.11986">
        <ele>190.3</ele>
        <time>2017-10-21T15:18:11Z</time>
      </trkpt>
      <trkpt lat="49.01459" lon="1.1198">
        <ele>190.4</ele>
        <time>2017-10-21T15:18:13Z</time>
      </trkpt>
      <trkpt lat="49.0145" lon="1.11974">
        <ele>190.3</ele>
        <time>2017-10-21T15:18:15Z</time>
      </trkpt>
      <trkpt lat="49.0144" lon="1.11969">
        <ele>190.4</ele>
        <time>2017-10-21T15:18:17Z</time>
      </trkpt>
      <trkpt lat="49.01431" lon="1.11964">
        <ele>190.4</ele>
        <time>2017-10-21T15:18:19Z</time>
      </trkpt>
      <trkpt lat="49.01422" lon="1.11958">
        <ele>190.5</ele>
        <time>2017-10-21T15:18:21Z</time>
      </trkpt>
      <trkpt lat="49.01413" lon="1.11953">
        <ele>190.8</ele>
        <time>2017-10-21T15:18:23Z</time>
      </trkpt>
      <trkpt lat="49.01403" lon="1.11948">
        <ele>190.9</ele>
        <time>2017-10-21T15:18:25Z</time>
      </trkpt>
      <trkpt lat="49.01394" lon="1.11942">
        <ele>191</ele>
        <time>2017-10-21T15:18:27Z</time>
      </trkpt>
      <trkpt lat="49.01384" lon="1.11937">
        <ele>191</ele>
        <time>2017-10-21T15:18:29Z</time>
      </trkpt>
      <trkpt lat="49.01374" lon="1.11932">
        <ele>191</ele>
        <time>2017-10-21T15:18:31Z</time>
      </trkpt>
      <trkpt lat="49.01365" lon="1.11927">
        <ele>190.9</ele>
        <time>2017-10-21T15:18:33Z</time>
      </trkpt>
      <trkpt lat="49.01356" lon="1.11921">
        <ele>191.1</ele>
        <time>2017-10-21T15:18:35Z</time>
      </trkpt>
      <trkpt lat="49.01346" lon="1.11916">
        <ele>191.2</ele>
        <time>2017-10-21T15:18:37Z</time>
      </trkpt>
      <trkpt lat="49.01337" lon="1.11911">
        <ele>191.3</ele>
        <time>2017-10-21T15:18:39Z</time>
      </trkpt>
      <trkpt lat="49.01327" lon="1.11906">
        <ele>191.4</ele>
        <time>2017-10-21T15:18:41Z</time>
      </trkpt>
      <trkpt lat="49.01317" lon="1.11901">
        <ele>191.3</ele>
        <time>2017-10-21T15:18:43Z</time>
      </trkpt>
      <trkpt lat="49.01306" lon="1.11896">
        <ele>191.3</ele>
        <time>2017-10-21T15:18:45Z</time>
      </trkpt>
      <trkpt lat="49.01297" lon="1.1189">
        <ele>191.1</ele>
        <time>2017-10-21T15:18:47Z</time>
      </trkpt>
      <trkpt lat="49.01288" lon="1.11885">
        <ele>190.6</ele>
        <time>2017-10-21T15:18:49Z</time>
      </trkpt>
      <trkpt lat="49.01278" lon="1.1188">
        <ele>190.4</ele>
        <time>2017-10-21T15:18:51Z</time>
      </trkpt>
      <trkpt lat="49.01268" lon="1.11875">
        <ele>190.5</ele>
        <time>2017-10-21T15:18:53Z</time>
      </trkpt>
      <trkpt lat="49.01259" lon="1.11869">
        <ele>190.4</ele>
        <time>2017-10-21T15:18:55Z</time>
      </trkpt>
      <trkpt lat="49.0125" lon="1.11864">
        <ele>190.4</ele>
        <time>2017-10-21T15:18:57Z</time>
      </trkpt>
      <trkpt lat="49.01241" lon="1.11858">
        <ele>190.1</ele>
        <time>2017-10-21T15:18:59Z</time>
      </trkpt>
      <trkpt lat="49.01233" lon="1.11853">
        <ele>190</ele>
        <time>2017-10-21T15:19:01Z</time>
      </trkpt>
      <trkpt lat="49.01224" lon="1.11847">
        <ele>189.9</ele>
        <time>2017-10-21T15:19:03Z</time>
      </trkpt>
      <trkpt lat="49.01215" lon="1.11842">
        <ele>190.1</ele>
        <time>2017-10-21T15:19:05Z</time>
      </trkpt>
      <trkpt lat="49.01206" lon="1.11837">
        <ele>190.2</ele>
        <time>2017-10-21T15:19:07Z</time>
      </trkpt>
      <trkpt lat="49.01197" lon="1.11831">
        <ele>190</ele>
        <time>2017-10-21T15:19:09Z</time>
      </trkpt>
      <trkpt lat="49.01188" lon="1.11826">
        <ele>190</ele>
        <time>2017-10-21T15:19:11Z</time>
      </trkpt>
      <trkpt lat="49.01179" lon="1.1182">
        <ele>190</ele>
        <time>2017-10-21T15:19:13Z</time>
      </trkpt>
      <trkpt lat="49.01169" lon="1.11816">
        <ele>190.2</ele>
        <time>2017-10-21T15:19:15Z</time>
      </trkpt>
      <trkpt lat="49.0116" lon="1.1181">
        <ele>190.1</ele>
        <time>2017-10-21T15:19:17Z</time>
      </trkpt>
      <trkpt lat="49.01151" lon="1.11806">
        <ele>190.1</ele>
        <time>2017-10-21T15:19:19Z</time>
      </trkpt>
      <trkpt lat="49.01142" lon="1.11801">
        <ele>189.9</ele>
        <time>2017-10-21T15:19:21Z</time>
      </trkpt>
      <trkpt lat="49.01133" lon="1.11796">
        <ele>189.9</ele>
        <time>2017-10-21T15:19:23Z</time>
      </trkpt>
      <trkpt lat="49.01124" lon="1.1179">
        <ele>190</ele>
        <time>2017-10-21T15:19:25Z</time>
      </trkpt>
      <trkpt lat="49.01115" lon="1.11784">
        <ele>189.8</ele>
        <time>2017-10-21T15:19:27Z</time>
      </trkpt>
      <trkpt lat="49.01105" lon="1.11778">
        <ele>189.7</ele>
        <time>2017-10-21T15:19:29Z</time>
      </trkpt>
      <trkpt lat="49.01095" lon="1.11773">
        <ele>189.9</ele>
        <time>2017-10-21T15:19:31Z</time>
      </trkpt>
      <trkpt lat="49.01086" lon="1.11767">
        <ele>189.8</ele>
        <time>2017-10-21T15:19:33Z</time>
      </trkpt>
      <trkpt lat="49.01076" lon="1.11761">
        <ele>189.8</ele>
        <time>2017-10-21T15:19:35Z</time>
      </trkpt>
      <trkpt lat="49.01067" lon="1.11755">
        <ele>189.8</ele>
        <time>2017-10-21T15:19:37Z</time>
      </trkpt>
      <trkpt lat="49.01057" lon="1.11749">
        <ele>189.9</ele>
        <time>2017-10-21T15:19:39Z</time>
      </trkpt>
      <trkpt lat="49.01047" lon="1.11743">
        <ele>190.2</ele>
        <time>2017-10-21T15:19:41Z</time>
      </trkpt>
      <trkpt lat="49.01038" lon="1.11736">
        <ele>190.5</ele>
        <time>2017-10-21T15:19:43Z</time>
      </trkpt>
      <trkpt lat="49.01028" lon="1.11729">
        <ele>190.5</ele>
        <time>2017-10-21T15:19:45Z</time>
      </trkpt>
      <trkpt lat="49.01017" lon="1.11723">
        <ele>190.5</ele>
        <time>2017-10-21T15:19:47Z</time>
      </trkpt>
      <trkpt lat="49.01007" lon="1.11717">
        <ele>190.3</ele>
        <time>2017-10-21T15:19:49Z</time>
      </trkpt>
      <trkpt lat="49.00997" lon="1.11711">
        <ele>190.3</ele>
        <time>2017-10-21T15:19:51Z</time>
      </trkpt>
      <trkpt lat="49.00988" lon="1.11704">
        <ele>190.2</ele>
        <time>2017-10-21T15:19:53Z</time>
      </trkpt>
      <trkpt lat="49.00978" lon="1.11698">
        <ele>190.1</ele>
        <time>2017-10-21T15:19:55Z</time>
      </trkpt>
      <trkpt lat="49.00968" lon="1.11691">
        <ele>190</ele>
        <time>2017-10-21T15:19:57Z</time>
      </trkpt>
      <trkpt lat="49.00959" lon="1.11684">
        <ele>190</ele>
        <time>2017-10-21T15:19:59Z</time>
      </trkpt>
      <trkpt lat="49.00949" lon="1.11678">
        <ele>189.9</ele>
        <time>2017-10-21T15:20:01Z</time>
      </trkpt>
      <trkpt lat="49.0094" lon="1.11672">
        <ele>189.7</ele>
        <time>2017-10-21T15:20:03Z</time>
      </trkpt>
      <trkpt lat="49.0093" lon="1.11665">
        <ele>190.1</ele>
        <time>2017-10-21T15:20:05Z</time>
      </trkpt>
      <trkpt lat="49.00921" lon="1.11659">
        <ele>190.3</ele>
        <time>2017-10-21T15:20:07Z</time>
      </trkpt>
      <trkpt lat="49.00911" lon="1.11653">
        <ele>190.1</ele>
        <time>2017-10-21T15:20:09Z</time>
      </trkpt>
      <trkpt lat="49.009" lon="1.11648">
        <ele>189.9</ele>
        <time>2017-10-21T15:20:11Z</time>
      </trkpt>
      <trkpt lat="49.00889" lon="1.11642">
        <ele>190.2</ele>
        <time>2017-10-21T15:20:13Z</time>
      </trkpt>
      <trkpt lat="49.00879" lon="1.11636">
        <ele>190.3</ele>
        <time>2017-10-21T15:20:15Z</time>
      </trkpt>
      <trkpt lat="49.00869" lon="1.11629">
        <ele>190.6</ele>
        <time>2017-10-21T15:20:17Z</time>
      </trkpt>
      <trkpt lat="49.00859" lon="1.11623">
        <ele>190.7</ele>
        <time>2017-10-21T15:20:19Z</time>
      </trkpt>
      <trkpt lat="49.0085" lon="1.11616">
        <ele>190.8</ele>
        <time>2017-10-21T15:20:21Z</time>
      </trkpt>
      <trkpt lat="49.0084" lon="1.11608">
        <ele>190.9</ele>
        <time>2017-10-21T15:20:23Z</time>
      </trkpt>
      <trkpt lat="49.00831" lon="1.116">
        <ele>190.8</ele>
        <time>2017-10-21T15:20:25Z</time>
      </trkpt>
      <trkpt lat="49.00822" lon="1.11591">
        <ele>190.8</ele>
        <time>2017-10-21T15:20:27Z</time>
      </trkpt>
      <trkpt lat="49.00814" lon="1.11581">
        <ele>191</ele>
        <time>2017-10-21T15:20:29Z</time>
      </trkpt>
      <trkpt lat="49.00806" lon="1.1157">
        <ele>191.1</ele>
        <time>2017-10-21T15:20:31Z</time>
      </trkpt>
      <trkpt lat="49.00798" lon="1.11558">
        <ele>191.2</ele>
        <time>2017-10-21T15:20:33Z</time>
      </trkpt>
      <trkpt lat="49.0079" lon="1.11546">
        <ele>191.6</ele>
        <time>2017-10-21T15:20:35Z</time>
      </trkpt>
      <trkpt lat="49.00781" lon="1.11535">
        <ele>191.8</ele>
        <time>2017-10-21T15:20:37Z</time>
      </trkpt>
      <trkpt lat="49.00773" lon="1.11524">
        <ele>191.9</ele>
        <time>2017-10-21T15:20:39Z</time>
      </trkpt>
      <trkpt lat="49.00765" lon="1.11514">
        <ele>192.1</ele>
        <time>2017-10-21T15:20:41Z</time>
      </trkpt>
      <trkpt lat="49.00756" lon="1.11504">
        <ele>192.3</ele>
        <time>2017-10-21T15:20:43Z</time>
      </trkpt>
      <trkpt lat="49.00748" lon="1.11496">
        <ele>192.5</ele>
        <time>2017-10-21T15:20:45Z</time>
      </trkpt>
      <trkpt lat="49.00741" lon="1.11487">
        <ele>192.6</ele>
        <time>2017-10-21T15:20:47Z</time>
      </trkpt>
      <trkpt lat="49.00733" lon="1.1148">
        <ele>192.8</ele>
        <time>2017-10-21T15:20:49Z</time>
      </trkpt>
      <trkpt lat="49.00725" lon="1.11472">
        <ele>193</ele>
        <time>2017-10-21T15:20:51Z</time>
      </trkpt>
      <trkpt lat="49.00716" lon="1.11466">
        <ele>193.2</ele>
        <time>2017-10-21T15:20:53Z</time>
      </trkpt>
      <trkpt lat="49.00707" lon="1.1146">
        <ele>193.6</ele>
        <time>2017-10-21T15:20:55Z</time>
      </trkpt>
      <trkpt lat="49.00697" lon="1.11456">
        <ele>193.7</ele>
        <time>2017-10-21T15:20:57Z</time>
      </trkpt>
      <trkpt lat="49.00688" lon="1.11451">
        <ele>194</ele>
        <time>2017-10-21T15:20:59Z</time>
      </trkpt>
      <trkpt lat="49.00677" lon="1.11449">
        <ele>194.5</ele>
        <time>2017-10-21T15:21:01Z</time>
      </trkpt>
      <trkpt lat="49.00667" lon="1.11444">
        <ele>194.8</ele>
        <time>2017-10-21T15:21:03Z</time>
      </trkpt>
      <trkpt lat="49.00658" lon="1.11442">
        <ele>195.1</ele>
        <time>2017-10-21T15:21:05Z</time>
      </trkpt>
      <trkpt lat="49.00646" lon="1.11433">
        <ele>195.6</ele>
        <time>2017-10-21T15:21:08Z</time>
      </trkpt>
      <trkpt lat="49.00634" lon="1.11425">
        <ele>196</ele>
        <time>2017-10-21T15:21:11Z</time>
      </trkpt>
      <trkpt lat="49.00622" lon="1.11418">
        <ele>196.5</ele>
        <time>2017-10-21T15:21:14Z</time>
      </trkpt>
      <trkpt lat="49.00611" lon="1.11411">
        <ele>196.8</ele>
        <time>2017-10-21T15:21:17Z</time>
      </trkpt>
      <trkpt lat="49.00601" lon="1.11402">
        <ele>197.1</ele>
        <time>2017-10-21T15:21:20Z</time>
      </trkpt>
      <trkpt lat="49.0059" lon="1.11394">
        <ele>197.2</ele>
        <time>2017-10-21T15:21:23Z</time>
      </trkpt>
      <trkpt lat="49.00578" lon="1.11387">
        <ele>197.3</ele>
        <time>2017-10-21T15:21:26Z</time>
      </trkpt>
      <trkpt lat="49.00566" lon="1.1138">
        <ele>197.5</ele>
        <time>2017-10-21T15:21:29Z</time>
      </trkpt>
      <trkpt lat="49.00554" lon="1.11373">
        <ele>197.6</ele>
        <time>2017-10-21T15:21:32Z</time>
      </trkpt>
      <trkpt lat="49.00542" lon="1.11364">
        <ele>197.8</ele>
        <time>2017-10-21T15:21:35Z</time>
      </trkpt>
      <trkpt lat="49.00534" lon="1.11359">
        <ele>198</ele>
        <time>2017-10-21T15:21:37Z</time>
      </trkpt>
      <trkpt lat="49.00525" lon="1.11354">
        <ele>198</ele>
        <time>2017-10-21T15:21:39Z</time>
      </trkpt>
      <trkpt lat="49.00516" lon="1.11349">
        <ele>198.1</ele>
        <time>2017-10-21T15:21:41Z</time>
      </trkpt>
      <trkpt lat="49.00507" lon="1.11343">
        <ele>198.2</ele>
        <time>2017-10-21T15:21:43Z</time>
      </trkpt>
      <trkpt lat="49.00498" lon="1.11337">
        <ele>198.2</ele>
        <time>2017-10-21T15:21:45Z</time>
      </trkpt>
      <trkpt lat="49.00489" lon="1.11332">
        <ele>198.1</ele>
        <time>2017-10-21T15:21:47Z</time>
      </trkpt>
      <trkpt lat="49.0048" lon="1.11326">
        <ele>198.2</ele>
        <time>2017-10-21T15:21:49Z</time>
      </trkpt>
      <trkpt lat="49.0047" lon="1.1132">
        <ele>198</ele>
        <time>2017-10-21T15:21:51Z</time>
      </trkpt>
      <trkpt lat="49.0046" lon="1.11314">
        <ele>197.9</ele>
        <time>2017-10-21T15:21:53Z</time>
      </trkpt>
      <trkpt lat="49.0045" lon="1.11308">
        <ele>197.7</ele>
        <time>2017-10-21T15:21:55Z</time>
      </trkpt>
      <trkpt lat="49.00441" lon="1.11302">
        <ele>197.8</ele>
        <time>2017-10-21T15:21:57Z</time>
      </trkpt>
      <trkpt lat="49.00431" lon="1.11296">
        <ele>198</ele>
        <time>2017-10-21T15:21:59Z</time>
      </trkpt>
      <trkpt lat="49.00422" lon="1.11291">
        <ele>198.1</ele>
        <time>2017-10-21T15:22:01Z</time>
      </trkpt>
      <trkpt lat="49.00413" lon="1.11286">
        <ele>198.4</ele>
        <time>2017-10-21T15:22:03Z</time>
      </trkpt>
      <trkpt lat="49.00404" lon="1.1128">
        <ele>198.9</ele>
        <time>2017-10-21T15:22:05Z</time>
      </trkpt>
      <trkpt lat="49.00395" lon="1.11274">
        <ele>199.2</ele>
        <time>2017-10-21T15:22:07Z</time>
      </trkpt>
      <trkpt lat="49.00386" lon="1.11269">
        <ele>199.4</ele>
        <time>2017-10-21T15:22:09Z</time>
      </trkpt>
      <trkpt lat="49.00377" lon="1.11263">
        <ele>199.7</ele>
        <time>2017-10-21T15:22:11Z</time>
      </trkpt>
      <trkpt lat="49.00368" lon="1.11258">
        <ele>199.9</ele>
        <time>2017-10-21T15:22:13Z</time>
      </trkpt>
      <trkpt lat="49.00359" lon="1.11253">
        <ele>200</ele>
        <time>2017-10-21T15:22:15Z</time>
      </trkpt>
      <trkpt lat="49.0035" lon="1.11248">
        <ele>200.1</ele>
        <time>2017-10-21T15:22:17Z</time>
      </trkpt>
      <trkpt lat="49.00341" lon="1.11243">
        <ele>200.2</ele>
        <time>2017-10-21T15:22:19Z</time>
      </trkpt>
      <trkpt lat="49.00329" lon="1.11236">
        <ele>200.5</ele>
        <time>2017-10-21T15:22:22Z</time>
      </trkpt>
      <trkpt lat="49.00316" lon="1.11228">
        <ele>200.9</ele>
        <time>2017-10-21T15:22:25Z</time>
      </trkpt>
      <trkpt lat="49.00304" lon="1.11221">
        <ele>201.1</ele>
        <time>2017-10-21T15:22:28Z</time>
      </trkpt>
      <trkpt lat="49.00292" lon="1.11214">
        <ele>201.3</ele>
        <time>2017-10-21T15:22:31Z</time>
      </trkpt>
      <trkpt lat="49.00281" lon="1.11207">
        <ele>201.6</ele>
        <time>2017-10-21T15:22:34Z</time>
      </trkpt>
      <trkpt lat="49.00269" lon="1.112">
        <ele>201.7</ele>
        <time>2017-10-21T15:22:37Z</time>
      </trkpt>
      <trkpt lat="49.00258" lon="1.11191">
        <ele>201.9</ele>
        <time>2017-10-21T15:22:40Z</time>
      </trkpt>
      <trkpt lat="49.00247" lon="1.11182">
        <ele>202</ele>
        <time>2017-10-21T15:22:43Z</time>
      </trkpt>
      <trkpt lat="49.00235" lon="1.11171">
        <ele>202.2</ele>
        <time>2017-10-21T15:22:46Z</time>
      </trkpt>
      <trkpt lat="49.00225" lon="1.11158">
        <ele>202.2</ele>
        <time>2017-10-21T15:22:49Z</time>
      </trkpt>
      <trkpt lat="49.00218" lon="1.1115">
        <ele>202.2</ele>
        <time>2017-10-21T15:22:51Z</time>
      </trkpt>
      <trkpt lat="49.00211" lon="1.11141">
        <ele>202.1</ele>
        <time>2017-10-21T15:22:53Z</time>
      </trkpt>
      <trkpt lat="49.00204" lon="1.11132">
        <ele>202</ele>
        <time>2017-10-21T15:22:55Z</time>
      </trkpt>
      <trkpt lat="49.00196" lon="1.11123">
        <ele>202.1</ele>
        <time>2017-10-21T15:22:57Z</time>
      </trkpt>
      <trkpt lat="49.00189" lon="1.11114">
        <ele>202.2</ele>
        <time>2017-10-21T15:22:59Z</time>
      </trkpt>
      <trkpt lat="49.00181" lon="1.11105">
        <ele>202.2</ele>
        <time>2017-10-21T15:23:01Z</time>
      </trkpt>
      <trkpt lat="49.00173" lon="1.11096">
        <ele>202.2</ele>
        <time>2017-10-21T15:23:03Z</time>
      </trkpt>
      <trkpt lat="49.00165" lon="1.11087">
        <ele>202.3</ele>
        <time>2017-10-21T15:23:05Z</time>
      </trkpt>
      <trkpt lat="49.00157" lon="1.11078">
        <ele>202.3</ele>
        <time>2017-10-21T15:23:07Z</time>
      </trkpt>
      <trkpt lat="49.00148" lon="1.11068">
        <ele>202.2</ele>
        <time>2017-10-21T15:23:09Z</time>
      </trkpt>
      <trkpt lat="49.0014" lon="1.11058">
        <ele>202.1</ele>
        <time>2017-10-21T15:23:11Z</time>
      </trkpt>
      <trkpt lat="49.00132" lon="1.11049">
        <ele>202</ele>
        <time>2017-10-21T15:23:13Z</time>
      </trkpt>
      <trkpt lat="49.00124" lon="1.11039">
        <ele>202.2</ele>
        <time>2017-10-21T15:23:15Z</time>
      </trkpt>
      <trkpt lat="49.00116" lon="1.11029">
        <ele>202.3</ele>
        <time>2017-10-21T15:23:17Z</time>
      </trkpt>
      <trkpt lat="49.00108" lon="1.11019">
        <ele>202.1</ele>
        <time>2017-10-21T15:23:19Z</time>
      </trkpt>
      <trkpt lat="49.00099" lon="1.11009">
        <ele>202</ele>
        <time>2017-10-21T15:23:21Z</time>
      </trkpt>
      <trkpt lat="49.00091" lon="1.10999">
        <ele>201.8</ele>
        <time>2017-10-21T15:23:23Z</time>
      </trkpt>
      <trkpt lat="49.00082" lon="1.10988">
        <ele>201.5</ele>
        <time>2017-10-21T15:23:25Z</time>
      </trkpt>
      <trkpt lat="49.00074" lon="1.10978">
        <ele>201.7</ele>
        <time>2017-10-21T15:23:27Z</time>
      </trkpt>
      <trkpt lat="49.00066" lon="1.10967">
        <ele>201.9</ele>
        <time>2017-10-21T15:23:29Z</time>
      </trkpt>
      <trkpt lat="49.00058" lon="1.10956">
        <ele>201.7</ele>
        <time>2017-10-21T15:23:31Z</time>
      </trkpt>
      <trkpt lat="49.0005" lon="1.10944">
        <ele>201.6</ele>
        <time>2017-10-21T15:23:33Z</time>
      </trkpt>
      <trkpt lat="49.00041" lon="1.10933">
        <ele>201.4</ele>
        <time>2017-10-21T15:23:35Z</time>
      </trkpt>
      <trkpt lat="49.00034" lon="1.10921">
        <ele>201</ele>
        <time>2017-10-21T15:23:37Z</time>
      </trkpt>
      <trkpt lat="49.00026" lon="1.1091">
        <ele>200.8</ele>
        <time>2017-10-21T15:23:39Z</time>
      </trkpt>
      <trkpt lat="49.00018" lon="1.10898">
        <ele>200.7</ele>
        <time>2017-10-21T15:23:41Z</time>
      </trkpt>
      <trkpt lat="49.0001" lon="1.10886">
        <ele>200.6</ele>
        <time>2017-10-21T15:23:43Z</time>
      </trkpt>
      <trkpt lat="49.00002" lon="1.10875">
        <ele>200.4</ele>
        <time>2017-10-21T15:23:45Z</time>
      </trkpt>
      <trkpt lat="48.99994" lon="1.10863">
        <ele>200.3</ele>
        <time>2017-10-21T15:23:47Z</time>
      </trkpt>
      <trkpt lat="48.99986" lon="1.10852">
        <ele>200.1</ele>
        <time>2017-10-21T15:23:49Z</time>
      </trkpt>
      <trkpt lat="48.99978" lon="1.10841">
        <ele>199.7</ele>
        <time>2017-10-21T15:23:51Z</time>
      </trkpt>
      <trkpt lat="48.9997" lon="1.10829">
        <ele>199.5</ele>
        <time>2017-10-21T15:23:53Z</time>
      </trkpt>
      <trkpt lat="48.99962" lon="1.10817">
        <ele>199.4</ele>
        <time>2017-10-21T15:23:55Z</time>
      </trkpt>
      <trkpt lat="48.99952" lon="1.10807">
        <ele>199</ele>
        <time>2017-10-21T15:23:57Z</time>
      </trkpt>
      <trkpt lat="48.99941" lon="1.108">
        <ele>198.6</ele>
        <time>2017-10-21T15:23:59Z</time>
      </trkpt>
      <trkpt lat="48.99929" lon="1.10797">
        <ele>198.1</ele>
        <time>2017-10-21T15:24:01Z</time>
      </trkpt>
      <trkpt lat="48.99917" lon="1.10798">
        <ele>197.8</ele>
        <time>2017-10-21T15:24:03Z</time>
      </trkpt>
      <trkpt lat="48.99905" lon="1.10803">
        <ele>197.6</ele>
        <time>2017-10-21T15:24:05Z</time>
      </trkpt>
      <trkpt lat="48.99893" lon="1.10805">
        <ele>197.3</ele>
        <time>2017-10-21T15:24:07Z</time>
      </trkpt>
      <trkpt lat="48.99883" lon="1.108">
        <ele>197</ele>
        <time>2017-10-21T15:24:09Z</time>
      </trkpt>
      <trkpt lat="48.99874" lon="1.10794">
        <ele>197</ele>
        <time>2017-10-21T15:24:11Z</time>
      </trkpt>
      <trkpt lat="48.99866" lon="1.10786">
        <ele>196.8</ele>
        <time>2017-10-21T15:24:13Z</time>
      </trkpt>
      <trkpt lat="48.99855" lon="1.10775">
        <ele>196.8</ele>
        <time>2017-10-21T15:24:16Z</time>
      </trkpt>
      <trkpt lat="48.99846" lon="1.10765">
        <ele>197.2</ele>
        <time>2017-10-21T15:24:19Z</time>
      </trkpt>
      <trkpt lat="48.99836" lon="1.10756">
        <ele>197.8</ele>
        <time>2017-10-21T15:24:22Z</time>
      </trkpt>
      <trkpt lat="48.99825" lon="1.10749">
        <ele>198.2</ele>
        <time>2017-10-21T15:24:25Z</time>
      </trkpt>
      <trkpt lat="48.99814" lon="1.10743">
        <ele>198.5</ele>
        <time>2017-10-21T15:24:28Z</time>
      </trkpt>
      <trkpt lat="48.99803" lon="1.10735">
        <ele>198.7</ele>
        <time>2017-10-21T15:24:31Z</time>
      </trkpt>
      <trkpt lat="48.99794" lon="1.10722">
        <ele>199.3</ele>
        <time>2017-10-21T15:24:34Z</time>
      </trkpt>
      <trkpt lat="48.99786" lon="1.10706">
        <ele>199.4</ele>
        <time>2017-10-21T15:24:37Z</time>
      </trkpt>
      <trkpt lat="48.99778" lon="1.10692">
        <ele>199.3</ele>
        <time>2017-10-21T15:24:40Z</time>
      </trkpt>
      <trkpt lat="48.9977" lon="1.10678">
        <ele>199.5</ele>
        <time>2017-10-21T15:24:43Z</time>
      </trkpt>
      <trkpt lat="48.99762" lon="1.10664">
        <ele>199.7</ele>
        <time>2017-10-21T15:24:46Z</time>
      </trkpt>
      <trkpt lat="48.99755" lon="1.10651">
        <ele>199.9</ele>
        <time>2017-10-21T15:24:49Z</time>
      </trkpt>
      <trkpt lat="48.99747" lon="1.10639">
        <ele>200.4</ele>
        <time>2017-10-21T15:24:52Z</time>
      </trkpt>
      <trkpt lat="48.99739" lon="1.10626">
        <ele>200.6</ele>
        <time>2017-10-21T15:24:55Z</time>
      </trkpt>
      <trkpt lat="48.99731" lon="1.10613">
        <ele>200.9</ele>
        <time>2017-10-21T15:24:58Z</time>
      </trkpt>
      <trkpt lat="48.99724" lon="1.10601">
        <ele>201.3</ele>
        <time>2017-10-21T15:25:01Z</time>
      </trkpt>
      <trkpt lat="48.99717" lon="1.10588">
        <ele>201.6</ele>
        <time>2017-10-21T15:25:04Z</time>
      </trkpt>
      <trkpt lat="48.99711" lon="1.10574">
        <ele>201.9</ele>
        <time>2017-10-21T15:25:07Z</time>
      </trkpt>
      <trkpt lat="48.99705" lon="1.10561">
        <ele>202.5</ele>
        <time>2017-10-21T15:25:10Z</time>
      </trkpt>
      <trkpt lat="48.99699" lon="1.10548">
        <ele>203.1</ele>
        <time>2017-10-21T15:25:13Z</time>
      </trkpt>
      <trkpt lat="48.99694" lon="1.10535">
        <ele>204.1</ele>
        <time>2017-10-21T15:25:16Z</time>
      </trkpt>
      <trkpt lat="48.99688" lon="1.10521">
        <ele>204.7</ele>
        <time>2017-10-21T15:25:19Z</time>
      </trkpt>
      <trkpt lat="48.99682" lon="1.10508">
        <ele>205.1</ele>
        <time>2017-10-21T15:25:22Z</time>
      </trkpt>
      <trkpt lat="48.99676" lon="1.10494">
        <ele>205.7</ele>
        <time>2017-10-21T15:25:25Z</time>
      </trkpt>
      <trkpt lat="48.99671" lon="1.10481">
        <ele>206.2</ele>
        <time>2017-10-21T15:25:28Z</time>
      </trkpt>
      <trkpt lat="48.99664" lon="1.10466">
        <ele>206.5</ele>
        <time>2017-10-21T15:25:31Z</time>
      </trkpt>
      <trkpt lat="48.99657" lon="1.10451">
        <ele>206.7</ele>
        <time>2017-10-21T15:25:34Z</time>
      </trkpt>
      <trkpt lat="48.99649" lon="1.10435">
        <ele>206.8</ele>
        <time>2017-10-21T15:25:37Z</time>
      </trkpt>
      <trkpt lat="48.99642" lon="1.1042">
        <ele>207</ele>
        <time>2017-10-21T15:25:40Z</time>
      </trkpt>
      <trkpt lat="48.99635" lon="1.10404">
        <ele>206.7</ele>
        <time>2017-10-21T15:25:43Z</time>
      </trkpt>
      <trkpt lat="48.99628" lon="1.10396">
        <ele>206.7</ele>
        <time>2017-10-21T15:25:46Z</time>
      </trkpt>
      <trkpt lat="48.99619" lon="1.10408">
        <ele>206.8</ele>
        <time>2017-10-21T15:25:50Z</time>
      </trkpt>
      <trkpt lat="48.99612" lon="1.10422">
        <ele>207.6</ele>
        <time>2017-10-21T15:25:54Z</time>
      </trkpt>
      <trkpt lat="48.99605" lon="1.10433">
        <ele>208.4</ele>
        <time>2017-10-21T15:25:57Z</time>
      </trkpt>
      <trkpt lat="48.99598" lon="1.10445">
        <ele>209</ele>
        <time>2017-10-21T15:26:00Z</time>
      </trkpt>
      <trkpt lat="48.99591" lon="1.10457">
        <ele>209.6</ele>
        <time>2017-10-21T15:26:03Z</time>
      </trkpt>
      <trkpt lat="48.99584" lon="1.10469">
        <ele>210</ele>
        <time>2017-10-21T15:26:06Z</time>
      </trkpt>
      <trkpt lat="48.99575" lon="1.1048">
        <ele>210.2</ele>
        <time>2017-10-21T15:26:09Z</time>
      </trkpt>
      <trkpt lat="48.99566" lon="1.10491">
        <ele>210.4</ele>
        <time>2017-10-21T15:26:12Z</time>
      </trkpt>
      <trkpt lat="48.99556" lon="1.10501">
        <ele>210.6</ele>
        <time>2017-10-21T15:26:15Z</time>
      </trkpt>
      <trkpt lat="48.99546" lon="1.10512">
        <ele>211</ele>
        <time>2017-10-21T15:26:18Z</time>
      </trkpt>
      <trkpt lat="48.99536" lon="1.10522">
        <ele>211.3</ele>
        <time>2017-10-21T15:26:21Z</time>
      </trkpt>
      <trkpt lat="48.99527" lon="1.10531">
        <ele>211.5</ele>
        <time>2017-10-21T15:26:24Z</time>
      </trkpt>
      <trkpt lat="48.99517" lon="1.10542">
        <ele>211.9</ele>
        <time>2017-10-21T15:26:27Z</time>
      </trkpt>
      <trkpt lat="48.99507" lon="1.10552">
        <ele>212.4</ele>
        <time>2017-10-21T15:26:30Z</time>
      </trkpt>
      <trkpt lat="48.99496" lon="1.10561">
        <ele>212.6</ele>
        <time>2017-10-21T15:26:33Z</time>
      </trkpt>
      <trkpt lat="48.99484" lon="1.10567">
        <ele>212.9</ele>
        <time>2017-10-21T15:26:36Z</time>
      </trkpt>
      <trkpt lat="48.99474" lon="1.10572">
        <ele>213</ele>
        <time>2017-10-21T15:26:39Z</time>
      </trkpt>
      <trkpt lat="48.99464" lon="1.10574">
        <ele>213.3</ele>
        <time>2017-10-21T15:26:42Z</time>
      </trkpt>
      <trkpt lat="48.99453" lon="1.10581">
        <ele>213.6</ele>
        <time>2017-10-21T15:26:46Z</time>
      </trkpt>
      <trkpt lat="48.99445" lon="1.10586">
        <ele>214</ele>
        <time>2017-10-21T15:26:49Z</time>
      </trkpt>
      <trkpt lat="48.99434" lon="1.10592">
        <ele>215.1</ele>
        <time>2017-10-21T15:26:53Z</time>
      </trkpt>
      <trkpt lat="48.99423" lon="1.10597">
        <ele>216</ele>
        <time>2017-10-21T15:26:57Z</time>
      </trkpt>
      <trkpt lat="48.99412" lon="1.10603">
        <ele>216.9</ele>
        <time>2017-10-21T15:27:01Z</time>
      </trkpt>
      <trkpt lat="48.99402" lon="1.10606">
        <ele>217.7</ele>
        <time>2017-10-21T15:27:04Z</time>
      </trkpt>
      <trkpt lat="48.99393" lon="1.10605">
        <ele>218.4</ele>
        <time>2017-10-21T15:27:07Z</time>
      </trkpt>
      <trkpt lat="48.99383" lon="1.106">
        <ele>219.1</ele>
        <time>2017-10-21T15:27:10Z</time>
      </trkpt>
      <trkpt lat="48.99375" lon="1.10595">
        <ele>219.9</ele>
        <time>2017-10-21T15:27:13Z</time>
      </trkpt>
      <trkpt lat="48.99366" lon="1.10588">
        <ele>220.7</ele>
        <time>2017-10-21T15:27:16Z</time>
      </trkpt>
      <trkpt lat="48.99357" lon="1.10582">
        <ele>221.3</ele>
        <time>2017-10-21T15:27:19Z</time>
      </trkpt>
      <trkpt lat="48.99348" lon="1.10575">
        <ele>222</ele>
        <time>2017-10-21T15:27:22Z</time>
      </trkpt>
      <trkpt lat="48.99338" lon="1.1057">
        <ele>222.4</ele>
        <time>2017-10-21T15:27:25Z</time>
      </trkpt>
      <trkpt lat="48.99329" lon="1.10563">
        <ele>222.9</ele>
        <time>2017-10-21T15:27:28Z</time>
      </trkpt>
      <trkpt lat="48.99321" lon="1.10556">
        <ele>223.3</ele>
        <time>2017-10-21T15:27:31Z</time>
      </trkpt>
      <trkpt lat="48.99311" lon="1.10551">
        <ele>223.9</ele>
        <time>2017-10-21T15:27:34Z</time>
      </trkpt>
      <trkpt lat="48.99301" lon="1.10546">
        <ele>224.7</ele>
        <time>2017-10-21T15:27:37Z</time>
      </trkpt>
      <trkpt lat="48.99292" lon="1.10542">
        <ele>225.3</ele>
        <time>2017-10-21T15:27:40Z</time>
      </trkpt>
      <trkpt lat="48.99282" lon="1.10535">
        <ele>226</ele>
        <time>2017-10-21T15:27:43Z</time>
      </trkpt>
      <trkpt lat="48.99273" lon="1.10529">
        <ele>226.8</ele>
        <time>2017-10-21T15:27:46Z</time>
      </trkpt>
      <trkpt lat="48.99265" lon="1.10521">
        <ele>227.4</ele>
        <time>2017-10-21T15:27:49Z</time>
      </trkpt>
      <trkpt lat="48.99259" lon="1.10508">
        <ele>228.3</ele>
        <time>2017-10-21T15:27:53Z</time>
      </trkpt>
      <trkpt lat="48.99262" lon="1.10492">
        <ele>228.5</ele>
        <time>2017-10-21T15:27:56Z</time>
      </trkpt>
      <trkpt lat="48.99259" lon="1.10475">
        <ele>228.7</ele>
        <time>2017-10-21T15:27:59Z</time>
      </trkpt>
      <trkpt lat="48.99249" lon="1.10463">
        <ele>228.7</ele>
        <time>2017-10-21T15:28:02Z</time>
      </trkpt>
      <trkpt lat="48.99238" lon="1.10455">
        <ele>229.1</ele>
        <time>2017-10-21T15:28:05Z</time>
      </trkpt>
      <trkpt lat="48.99229" lon="1.10446">
        <ele>229.4</ele>
        <time>2017-10-21T15:28:08Z</time>
      </trkpt>
      <trkpt lat="48.99219" lon="1.10439">
        <ele>229.8</ele>
        <time>2017-10-21T15:28:11Z</time>
      </trkpt>
      <trkpt lat="48.99208" lon="1.10434">
        <ele>230.3</ele>
        <time>2017-10-21T15:28:14Z</time>
      </trkpt>
      <trkpt lat="48.99197" lon="1.10432">
        <ele>230.6</ele>
        <time>2017-10-21T15:28:17Z</time>
      </trkpt>
      <trkpt lat="48.99186" lon="1.10432">
        <ele>231.4</ele>
        <time>2017-10-21T15:28:20Z</time>
      </trkpt>
      <trkpt lat="48.99175" lon="1.10433">
        <ele>232.2</ele>
        <time>2017-10-21T15:28:23Z</time>
      </trkpt>
      <trkpt lat="48.99164" lon="1.10433">
        <ele>232.9</ele>
        <time>2017-10-21T15:28:26Z</time>
      </trkpt>
      <trkpt lat="48.99154" lon="1.10432">
        <ele>233.4</ele>
        <time>2017-10-21T15:28:29Z</time>
      </trkpt>
      <trkpt lat="48.99144" lon="1.10431">
        <ele>234.1</ele>
        <time>2017-10-21T15:28:32Z</time>
      </trkpt>
      <trkpt lat="48.99133" lon="1.1043">
        <ele>234.4</ele>
        <time>2017-10-21T15:28:35Z</time>
      </trkpt>
      <trkpt lat="48.99122" lon="1.10429">
        <ele>235.1</ele>
        <time>2017-10-21T15:28:38Z</time>
      </trkpt>
      <trkpt lat="48.99112" lon="1.10428">
        <ele>235.5</ele>
        <time>2017-10-21T15:28:41Z</time>
      </trkpt>
      <trkpt lat="48.99101" lon="1.10426">
        <ele>236</ele>
        <time>2017-10-21T15:28:44Z</time>
      </trkpt>
      <trkpt lat="48.99092" lon="1.10425">
        <ele>236.4</ele>
        <time>2017-10-21T15:28:47Z</time>
      </trkpt>
      <trkpt lat="48.99081" lon="1.10423">
        <ele>237</ele>
        <time>2017-10-21T15:28:50Z</time>
      </trkpt>
      <trkpt lat="48.99071" lon="1.1042">
        <ele>237.5</ele>
        <time>2017-10-21T15:28:53Z</time>
      </trkpt>
      <trkpt lat="48.9906" lon="1.10418">
        <ele>238</ele>
        <time>2017-10-21T15:28:56Z</time>
      </trkpt>
      <trkpt lat="48.99049" lon="1.10416">
        <ele>238.6</ele>
        <time>2017-10-21T15:28:59Z</time>
      </trkpt>
      <trkpt lat="48.99037" lon="1.10414">
        <ele>239.2</ele>
        <time>2017-10-21T15:29:02Z</time>
      </trkpt>
      <trkpt lat="48.99026" lon="1.10412">
        <ele>239.6</ele>
        <time>2017-10-21T15:29:05Z</time>
      </trkpt>
      <trkpt lat="48.99015" lon="1.1041">
        <ele>240.1</ele>
        <time>2017-10-21T15:29:08Z</time>
      </trkpt>
      <trkpt lat="48.99003" lon="1.10409">
        <ele>240.8</ele>
        <time>2017-10-21T15:29:11Z</time>
      </trkpt>
      <trkpt lat="48.98991" lon="1.10406">
        <ele>241.4</ele>
        <time>2017-10-21T15:29:14Z</time>
      </trkpt>
      <trkpt lat="48.9898" lon="1.10403">
        <ele>242.1</ele>
        <time>2017-10-21T15:29:17Z</time>
      </trkpt>
      <trkpt lat="48.98969" lon="1.10401">
        <ele>242.7</ele>
        <time>2017-10-21T15:29:20Z</time>
      </trkpt>
      <trkpt lat="48.98958" lon="1.10398">
        <ele>243</ele>
        <time>2017-10-21T15:29:23Z</time>
      </trkpt>
      <trkpt lat="48.98947" lon="1.10396">
        <ele>242.9</ele>
        <time>2017-10-21T15:29:26Z</time>
      </trkpt>
      <trkpt lat="48.98936" lon="1.10393">
        <ele>243.3</ele>
        <time>2017-10-21T15:29:29Z</time>
      </trkpt>
      <trkpt lat="48.98926" lon="1.10392">
        <ele>243.7</ele>
        <time>2017-10-21T15:29:32Z</time>
      </trkpt>
      <trkpt lat="48.98917" lon="1.1039">
        <ele>244.6</ele>
        <time>2017-10-21T15:29:36Z</time>
      </trkpt>
      <trkpt lat="48.98907" lon="1.10387">
        <ele>245.3</ele>
        <time>2017-10-21T15:29:40Z</time>
      </trkpt>
      <trkpt lat="48.98896" lon="1.10386">
        <ele>246.1</ele>
        <time>2017-10-21T15:29:44Z</time>
      </trkpt>
      <trkpt lat="48.98885" lon="1.10383">
        <ele>247.1</ele>
        <time>2017-10-21T15:29:48Z</time>
      </trkpt>
      <trkpt lat="48.98874" lon="1.1038">
        <ele>247.6</ele>
        <time>2017-10-21T15:29:52Z</time>
      </trkpt>
      <trkpt lat="48.98863" lon="1.10377">
        <ele>247.7</ele>
        <time>2017-10-21T15:29:56Z</time>
      </trkpt>
      <trkpt lat="48.98854" lon="1.10375">
        <ele>247.9</ele>
        <time>2017-10-21T15:29:59Z</time>
      </trkpt>
      <trkpt lat="48.98842" lon="1.10373">
        <ele>248.3</ele>
        <time>2017-10-21T15:30:03Z</time>
      </trkpt>
      <trkpt lat="48.98831" lon="1.1037">
        <ele>248.9</ele>
        <time>2017-10-21T15:30:07Z</time>
      </trkpt>
      <trkpt lat="48.98821" lon="1.10368">
        <ele>249.2</ele>
        <time>2017-10-21T15:30:10Z</time>
      </trkpt>
      <trkpt lat="48.98811" lon="1.10366">
        <ele>249.4</ele>
        <time>2017-10-21T15:30:13Z</time>
      </trkpt>
      <trkpt lat="48.98802" lon="1.10364">
        <ele>249.4</ele>
        <time>2017-10-21T15:30:16Z</time>
      </trkpt>
      <trkpt lat="48.98792" lon="1.10363">
        <ele>249.6</ele>
        <time>2017-10-21T15:30:19Z</time>
      </trkpt>
      <trkpt lat="48.98782" lon="1.1036">
        <ele>249.7</ele>
        <time>2017-10-21T15:30:22Z</time>
      </trkpt>
      <trkpt lat="48.98772" lon="1.10358">
        <ele>250</ele>
        <time>2017-10-21T15:30:25Z</time>
      </trkpt>
      <trkpt lat="48.98762" lon="1.10356">
        <ele>250</ele>
        <time>2017-10-21T15:30:28Z</time>
      </trkpt>
      <trkpt lat="48.98752" lon="1.10355">
        <ele>250</ele>
        <time>2017-10-21T15:30:31Z</time>
      </trkpt>
      <trkpt lat="48.98742" lon="1.10353">
        <ele>250</ele>
        <time>2017-10-21T15:30:34Z</time>
      </trkpt>
      <trkpt lat="48.98732" lon="1.10352">
        <ele>250.2</ele>
        <time>2017-10-21T15:30:37Z</time>
      </trkpt>
      <trkpt lat="48.98722" lon="1.10349">
        <ele>250.2</ele>
        <time>2017-10-21T15:30:40Z</time>
      </trkpt>
      <trkpt lat="48.98712" lon="1.10347">
        <ele>250.6</ele>
        <time>2017-10-21T15:30:43Z</time>
      </trkpt>
      <trkpt lat="48.98702" lon="1.10345">
        <ele>250.8</ele>
        <time>2017-10-21T15:30:46Z</time>
      </trkpt>
      <trkpt lat="48.98693" lon="1.10343">
        <ele>251</ele>
        <time>2017-10-21T15:30:49Z</time>
      </trkpt>
      <trkpt lat="48.98683" lon="1.10342">
        <ele>251.3</ele>
        <time>2017-10-21T15:30:52Z</time>
      </trkpt>
      <trkpt lat="48.98674" lon="1.10342">
        <ele>251.5</ele>
        <time>2017-10-21T15:30:55Z</time>
      </trkpt>
      <trkpt lat="48.98664" lon="1.10352">
        <ele>252.2</ele>
        <time>2017-10-21T15:30:59Z</time>
      </trkpt>
      <trkpt lat="48.98658" lon="1.10365">
        <ele>252.6</ele>
        <time>2017-10-21T15:31:02Z</time>
      </trkpt>
      <trkpt lat="48.98652" lon="1.10379">
        <ele>253.2</ele>
        <time>2017-10-21T15:31:05Z</time>
      </trkpt>
      <trkpt lat="48.98646" lon="1.10392">
        <ele>253.4</ele>
        <time>2017-10-21T15:31:08Z</time>
      </trkpt>
      <trkpt lat="48.98634" lon="1.10391">
        <ele>253.5</ele>
        <time>2017-10-21T15:31:12Z</time>
      </trkpt>
      <trkpt lat="48.98631" lon="1.1039">
        <ele>253.6</ele>
        <time>2017-10-21T15:31:13Z</time>
      </trkpt>
    </trkseg>
  </trk>
</gpx>